<?xml version="1.0" encoding="UTF-8" standalone="no" ?>
<gpx xmlns="http://www.topografix.com/GPX/1/1" xmlns:xsi="http://www.w3.org/2001/XMLSchema-instance" xsi:schemaLocation="http://www.topografix.com/GPX/1/1 http://www.topografix.com/GPX/1/1/gpx.xsd" version="1.1" creator="VisuGPX - https://www.visugpx.com">
  <metadata>
    <name>Sentiers Cathares part_2</name>
    <desc><![CDATA[Les sentiers cathares en VTT de Montségur à Port la Nouvelle en 4 jours.
Partie 2: Axat - La Bastide de Camps]]></desc>
  </metadata>
  <trk>
    <name><![CDATA[SentCathare 2012_2]]></name>
    <trkseg>
      <trkpt lat="42.808" lon="2.25397">
        <ele>499.6</ele>
        <time>2012-08-12T07:27:36Z</time>
      </trkpt>
      <trkpt lat="42.80789" lon="2.25403">
        <ele>500.4</ele>
        <time>2012-08-12T07:29:21Z</time>
      </trkpt>
      <trkpt lat="42.80782" lon="2.25412">
        <ele>500.2</ele>
        <time>2012-08-12T07:29:24Z</time>
      </trkpt>
      <trkpt lat="42.80771" lon="2.25426">
        <ele>500.5</ele>
        <time>2012-08-12T07:29:28Z</time>
      </trkpt>
      <trkpt lat="42.80759" lon="2.25435">
        <ele>500.1</ele>
        <time>2012-08-12T07:29:32Z</time>
      </trkpt>
      <trkpt lat="42.80745" lon="2.25445">
        <ele>500.1</ele>
        <time>2012-08-12T07:29:36Z</time>
      </trkpt>
      <trkpt lat="42.80732" lon="2.25449">
        <ele>500</ele>
        <time>2012-08-12T07:29:39Z</time>
      </trkpt>
      <trkpt lat="42.80726" lon="2.25448">
        <ele>500</ele>
        <time>2012-08-12T07:29:40Z</time>
      </trkpt>
      <trkpt lat="42.80717" lon="2.25443">
        <ele>499.7</ele>
        <time>2012-08-12T07:29:42Z</time>
      </trkpt>
      <trkpt lat="42.80708" lon="2.2543">
        <ele>499.7</ele>
        <time>2012-08-12T07:29:45Z</time>
      </trkpt>
      <trkpt lat="42.80702" lon="2.25408">
        <ele>500.1</ele>
        <time>2012-08-12T07:29:51Z</time>
      </trkpt>
      <trkpt lat="42.80696" lon="2.254">
        <ele>499.2</ele>
        <time>2012-08-12T07:30:00Z</time>
      </trkpt>
      <trkpt lat="42.80688" lon="2.25394">
        <ele>498.7</ele>
        <time>2012-08-12T07:30:04Z</time>
      </trkpt>
      <trkpt lat="42.80681" lon="2.254">
        <ele>498.8</ele>
        <time>2012-08-12T07:30:10Z</time>
      </trkpt>
      <trkpt lat="42.80667" lon="2.25411">
        <ele>500.2</ele>
        <time>2012-08-12T07:30:20Z</time>
      </trkpt>
      <trkpt lat="42.80659" lon="2.25419">
        <ele>501.2</ele>
        <time>2012-08-12T07:30:27Z</time>
      </trkpt>
      <trkpt lat="42.80645" lon="2.25427">
        <ele>503.3</ele>
        <time>2012-08-12T07:30:39Z</time>
      </trkpt>
      <trkpt lat="42.80637" lon="2.25433">
        <ele>504.5</ele>
        <time>2012-08-12T07:30:44Z</time>
      </trkpt>
      <trkpt lat="42.80629" lon="2.25436">
        <ele>505.5</ele>
        <time>2012-08-12T07:30:50Z</time>
      </trkpt>
      <trkpt lat="42.80622" lon="2.25442">
        <ele>506.1</ele>
        <time>2012-08-12T07:30:55Z</time>
      </trkpt>
      <trkpt lat="42.80614" lon="2.25446">
        <ele>506.7</ele>
        <time>2012-08-12T07:31:00Z</time>
      </trkpt>
      <trkpt lat="42.806" lon="2.25459">
        <ele>508.7</ele>
        <time>2012-08-12T07:31:11Z</time>
      </trkpt>
      <trkpt lat="42.80593" lon="2.25463">
        <ele>509.2</ele>
        <time>2012-08-12T07:31:15Z</time>
      </trkpt>
      <trkpt lat="42.8058" lon="2.25473">
        <ele>510.2</ele>
        <time>2012-08-12T07:31:24Z</time>
      </trkpt>
      <trkpt lat="42.80572" lon="2.25481">
        <ele>511</ele>
        <time>2012-08-12T07:31:30Z</time>
      </trkpt>
      <trkpt lat="42.80573" lon="2.25493">
        <ele>512.7</ele>
        <time>2012-08-12T07:31:48Z</time>
      </trkpt>
      <trkpt lat="42.80587" lon="2.255">
        <ele>512.9</ele>
        <time>2012-08-12T07:31:55Z</time>
      </trkpt>
      <trkpt lat="42.80603" lon="2.25507">
        <ele>513</ele>
        <time>2012-08-12T07:32:01Z</time>
      </trkpt>
      <trkpt lat="42.80617" lon="2.25508">
        <ele>513.5</ele>
        <time>2012-08-12T07:32:10Z</time>
      </trkpt>
      <trkpt lat="42.80629" lon="2.25509">
        <ele>514.2</ele>
        <time>2012-08-12T07:32:15Z</time>
      </trkpt>
      <trkpt lat="42.80637" lon="2.25512">
        <ele>514.7</ele>
        <time>2012-08-12T07:32:17Z</time>
      </trkpt>
      <trkpt lat="42.80651" lon="2.25514">
        <ele>515.2</ele>
        <time>2012-08-12T07:32:21Z</time>
      </trkpt>
      <trkpt lat="42.80665" lon="2.25515">
        <ele>515.4</ele>
        <time>2012-08-12T07:32:25Z</time>
      </trkpt>
      <trkpt lat="42.80673" lon="2.25514">
        <ele>515.5</ele>
        <time>2012-08-12T07:32:28Z</time>
      </trkpt>
      <trkpt lat="42.80685" lon="2.25514">
        <ele>515.5</ele>
        <time>2012-08-12T07:32:32Z</time>
      </trkpt>
      <trkpt lat="42.80696" lon="2.25518">
        <ele>515.5</ele>
        <time>2012-08-12T07:32:36Z</time>
      </trkpt>
      <trkpt lat="42.80707" lon="2.25526">
        <ele>515.5</ele>
        <time>2012-08-12T07:32:39Z</time>
      </trkpt>
      <trkpt lat="42.80721" lon="2.25535">
        <ele>515.5</ele>
        <time>2012-08-12T07:32:42Z</time>
      </trkpt>
      <trkpt lat="42.80733" lon="2.2554">
        <ele>515.7</ele>
        <time>2012-08-12T07:32:44Z</time>
      </trkpt>
      <trkpt lat="42.80746" lon="2.25545">
        <ele>516</ele>
        <time>2012-08-12T07:32:46Z</time>
      </trkpt>
      <trkpt lat="42.80758" lon="2.25547">
        <ele>516</ele>
        <time>2012-08-12T07:32:48Z</time>
      </trkpt>
      <trkpt lat="42.80774" lon="2.25552">
        <ele>516</ele>
        <time>2012-08-12T07:32:51Z</time>
      </trkpt>
      <trkpt lat="42.80784" lon="2.25556">
        <ele>516</ele>
        <time>2012-08-12T07:32:53Z</time>
      </trkpt>
      <trkpt lat="42.8079" lon="2.25558">
        <ele>515.9</ele>
        <time>2012-08-12T07:32:54Z</time>
      </trkpt>
      <trkpt lat="42.808" lon="2.25563">
        <ele>516</ele>
        <time>2012-08-12T07:32:56Z</time>
      </trkpt>
      <trkpt lat="42.80811" lon="2.25568">
        <ele>515.9</ele>
        <time>2012-08-12T07:32:58Z</time>
      </trkpt>
      <trkpt lat="42.80822" lon="2.25574">
        <ele>515.7</ele>
        <time>2012-08-12T07:33:00Z</time>
      </trkpt>
      <trkpt lat="42.80829" lon="2.25576">
        <ele>515.7</ele>
        <time>2012-08-12T07:33:01Z</time>
      </trkpt>
      <trkpt lat="42.80841" lon="2.2558">
        <ele>515.5</ele>
        <time>2012-08-12T07:33:03Z</time>
      </trkpt>
      <trkpt lat="42.80853" lon="2.25586">
        <ele>515.5</ele>
        <time>2012-08-12T07:33:05Z</time>
      </trkpt>
      <trkpt lat="42.80858" lon="2.25588">
        <ele>515.5</ele>
        <time>2012-08-12T07:33:06Z</time>
      </trkpt>
      <trkpt lat="42.80868" lon="2.25596">
        <ele>515.2</ele>
        <time>2012-08-12T07:33:08Z</time>
      </trkpt>
      <trkpt lat="42.80874" lon="2.25602">
        <ele>515</ele>
        <time>2012-08-12T07:33:09Z</time>
      </trkpt>
      <trkpt lat="42.80886" lon="2.25617">
        <ele>513.9</ele>
        <time>2012-08-12T07:33:11Z</time>
      </trkpt>
      <trkpt lat="42.80897" lon="2.25633">
        <ele>512.2</ele>
        <time>2012-08-12T07:33:13Z</time>
      </trkpt>
      <trkpt lat="42.80906" lon="2.2565">
        <ele>512.5</ele>
        <time>2012-08-12T07:33:15Z</time>
      </trkpt>
      <trkpt lat="42.80912" lon="2.25668">
        <ele>511.8</ele>
        <time>2012-08-12T07:33:17Z</time>
      </trkpt>
      <trkpt lat="42.80916" lon="2.25692">
        <ele>511</ele>
        <time>2012-08-12T07:33:19Z</time>
      </trkpt>
      <trkpt lat="42.80916" lon="2.25704">
        <ele>510.7</ele>
        <time>2012-08-12T07:33:20Z</time>
      </trkpt>
      <trkpt lat="42.80916" lon="2.25729">
        <ele>510</ele>
        <time>2012-08-12T07:33:22Z</time>
      </trkpt>
      <trkpt lat="42.80916" lon="2.25742">
        <ele>509.5</ele>
        <time>2012-08-12T07:33:23Z</time>
      </trkpt>
      <trkpt lat="42.80915" lon="2.25754">
        <ele>509.2</ele>
        <time>2012-08-12T07:33:24Z</time>
      </trkpt>
      <trkpt lat="42.80909" lon="2.25772">
        <ele>508.7</ele>
        <time>2012-08-12T07:33:26Z</time>
      </trkpt>
      <trkpt lat="42.809" lon="2.25789">
        <ele>508.2</ele>
        <time>2012-08-12T07:33:28Z</time>
      </trkpt>
      <trkpt lat="42.80897" lon="2.25798">
        <ele>508.2</ele>
        <time>2012-08-12T07:33:29Z</time>
      </trkpt>
      <trkpt lat="42.8089" lon="2.25815">
        <ele>508</ele>
        <time>2012-08-12T07:33:31Z</time>
      </trkpt>
      <trkpt lat="42.80883" lon="2.25827">
        <ele>508</ele>
        <time>2012-08-12T07:33:33Z</time>
      </trkpt>
      <trkpt lat="42.80876" lon="2.2584">
        <ele>506.7</ele>
        <time>2012-08-12T07:33:44Z</time>
      </trkpt>
      <trkpt lat="42.80881" lon="2.2585">
        <ele>504.7</ele>
        <time>2012-08-12T07:33:48Z</time>
      </trkpt>
      <trkpt lat="42.80896" lon="2.25854">
        <ele>503.2</ele>
        <time>2012-08-12T07:34:03Z</time>
      </trkpt>
      <trkpt lat="42.80884" lon="2.25845">
        <ele>501.2</ele>
        <time>2012-08-12T07:34:12Z</time>
      </trkpt>
      <trkpt lat="42.80877" lon="2.25838">
        <ele>499.8</ele>
        <time>2012-08-12T07:34:17Z</time>
      </trkpt>
      <trkpt lat="42.80868" lon="2.25839">
        <ele>498</ele>
        <time>2012-08-12T07:34:23Z</time>
      </trkpt>
      <trkpt lat="42.80856" lon="2.25849">
        <ele>497.2</ele>
        <time>2012-08-12T07:34:28Z</time>
      </trkpt>
      <trkpt lat="42.80849" lon="2.25852">
        <ele>497.2</ele>
        <time>2012-08-12T07:34:31Z</time>
      </trkpt>
      <trkpt lat="42.80839" lon="2.25857">
        <ele>497</ele>
        <time>2012-08-12T07:34:35Z</time>
      </trkpt>
      <trkpt lat="42.80824" lon="2.25857">
        <ele>500.2</ele>
        <time>2012-08-12T07:45:03Z</time>
      </trkpt>
      <trkpt lat="42.80804" lon="2.25861">
        <ele>501.3</ele>
        <time>2012-08-12T07:45:13Z</time>
      </trkpt>
      <trkpt lat="42.80789" lon="2.25864">
        <ele>503.5</ele>
        <time>2012-08-12T07:45:21Z</time>
      </trkpt>
      <trkpt lat="42.80775" lon="2.25879">
        <ele>503.7</ele>
        <time>2012-08-12T07:45:31Z</time>
      </trkpt>
      <trkpt lat="42.80761" lon="2.2589">
        <ele>503.5</ele>
        <time>2012-08-12T07:45:40Z</time>
      </trkpt>
      <trkpt lat="42.80748" lon="2.25899">
        <ele>503.2</ele>
        <time>2012-08-12T07:45:46Z</time>
      </trkpt>
      <trkpt lat="42.80733" lon="2.25909">
        <ele>504.2</ele>
        <time>2012-08-12T07:45:56Z</time>
      </trkpt>
      <trkpt lat="42.80721" lon="2.25922">
        <ele>504.6</ele>
        <time>2012-08-12T07:46:06Z</time>
      </trkpt>
      <trkpt lat="42.8071" lon="2.25936">
        <ele>504.8</ele>
        <time>2012-08-12T07:46:16Z</time>
      </trkpt>
      <trkpt lat="42.80709" lon="2.25948">
        <ele>505.6</ele>
        <time>2012-08-12T07:46:23Z</time>
      </trkpt>
      <trkpt lat="42.80707" lon="2.25959">
        <ele>506.2</ele>
        <time>2012-08-12T07:46:29Z</time>
      </trkpt>
      <trkpt lat="42.80705" lon="2.25981">
        <ele>508</ele>
        <time>2012-08-12T07:46:40Z</time>
      </trkpt>
      <trkpt lat="42.807" lon="2.26001">
        <ele>509.8</ele>
        <time>2012-08-12T07:46:52Z</time>
      </trkpt>
      <trkpt lat="42.80698" lon="2.26022">
        <ele>510.8</ele>
        <time>2012-08-12T07:47:02Z</time>
      </trkpt>
      <trkpt lat="42.80697" lon="2.26035">
        <ele>511.2</ele>
        <time>2012-08-12T07:47:08Z</time>
      </trkpt>
      <trkpt lat="42.80696" lon="2.26055">
        <ele>512.9</ele>
        <time>2012-08-12T07:47:18Z</time>
      </trkpt>
      <trkpt lat="42.80696" lon="2.26066">
        <ele>514</ele>
        <time>2012-08-12T07:47:25Z</time>
      </trkpt>
      <trkpt lat="42.80697" lon="2.26079">
        <ele>515.2</ele>
        <time>2012-08-12T07:47:31Z</time>
      </trkpt>
      <trkpt lat="42.807" lon="2.26101">
        <ele>518.9</ele>
        <time>2012-08-12T07:47:44Z</time>
      </trkpt>
      <trkpt lat="42.80704" lon="2.26111">
        <ele>520</ele>
        <time>2012-08-12T07:47:49Z</time>
      </trkpt>
      <trkpt lat="42.8071" lon="2.26128">
        <ele>520.4</ele>
        <time>2012-08-12T07:47:54Z</time>
      </trkpt>
      <trkpt lat="42.80716" lon="2.26148">
        <ele>520.2</ele>
        <time>2012-08-12T07:47:58Z</time>
      </trkpt>
      <trkpt lat="42.80726" lon="2.26164">
        <ele>521.4</ele>
        <time>2012-08-12T07:48:04Z</time>
      </trkpt>
      <trkpt lat="42.8073" lon="2.26176">
        <ele>524.4</ele>
        <time>2012-08-12T07:48:10Z</time>
      </trkpt>
      <trkpt lat="42.80743" lon="2.26186">
        <ele>525.5</ele>
        <time>2012-08-12T07:48:43Z</time>
      </trkpt>
      <trkpt lat="42.80749" lon="2.26197">
        <ele>523.5</ele>
        <time>2012-08-12T07:50:07Z</time>
      </trkpt>
      <trkpt lat="42.8076" lon="2.26208">
        <ele>523</ele>
        <time>2012-08-12T07:50:12Z</time>
      </trkpt>
      <trkpt lat="42.80767" lon="2.26213">
        <ele>522.5</ele>
        <time>2012-08-12T07:50:14Z</time>
      </trkpt>
      <trkpt lat="42.80776" lon="2.26222">
        <ele>521.5</ele>
        <time>2012-08-12T07:50:16Z</time>
      </trkpt>
      <trkpt lat="42.80784" lon="2.26235">
        <ele>520</ele>
        <time>2012-08-12T07:50:18Z</time>
      </trkpt>
      <trkpt lat="42.80787" lon="2.26243">
        <ele>519.4</ele>
        <time>2012-08-12T07:50:19Z</time>
      </trkpt>
      <trkpt lat="42.80791" lon="2.26262">
        <ele>518.2</ele>
        <time>2012-08-12T07:50:21Z</time>
      </trkpt>
      <trkpt lat="42.80795" lon="2.26282">
        <ele>517.2</ele>
        <time>2012-08-12T07:50:23Z</time>
      </trkpt>
      <trkpt lat="42.80798" lon="2.26303">
        <ele>516.9</ele>
        <time>2012-08-12T07:50:25Z</time>
      </trkpt>
      <trkpt lat="42.808" lon="2.26312">
        <ele>516.5</ele>
        <time>2012-08-12T07:50:26Z</time>
      </trkpt>
      <trkpt lat="42.80802" lon="2.26332">
        <ele>516.5</ele>
        <time>2012-08-12T07:50:28Z</time>
      </trkpt>
      <trkpt lat="42.80805" lon="2.26352">
        <ele>516.2</ele>
        <time>2012-08-12T07:50:30Z</time>
      </trkpt>
      <trkpt lat="42.80806" lon="2.26372">
        <ele>516</ele>
        <time>2012-08-12T07:50:32Z</time>
      </trkpt>
      <trkpt lat="42.80807" lon="2.26393">
        <ele>515.7</ele>
        <time>2012-08-12T07:50:34Z</time>
      </trkpt>
      <trkpt lat="42.80809" lon="2.26415">
        <ele>515.7</ele>
        <time>2012-08-12T07:50:36Z</time>
      </trkpt>
      <trkpt lat="42.8081" lon="2.2644">
        <ele>515.4</ele>
        <time>2012-08-12T07:50:38Z</time>
      </trkpt>
      <trkpt lat="42.80813" lon="2.26468">
        <ele>514.5</ele>
        <time>2012-08-12T07:50:40Z</time>
      </trkpt>
      <trkpt lat="42.80817" lon="2.26495">
        <ele>514</ele>
        <time>2012-08-12T07:50:42Z</time>
      </trkpt>
      <trkpt lat="42.80818" lon="2.26508">
        <ele>514</ele>
        <time>2012-08-12T07:50:43Z</time>
      </trkpt>
      <trkpt lat="42.80819" lon="2.26532">
        <ele>513.2</ele>
        <time>2012-08-12T07:50:45Z</time>
      </trkpt>
      <trkpt lat="42.80823" lon="2.26557">
        <ele>512.5</ele>
        <time>2012-08-12T07:50:47Z</time>
      </trkpt>
      <trkpt lat="42.80827" lon="2.26581">
        <ele>512.2</ele>
        <time>2012-08-12T07:50:49Z</time>
      </trkpt>
      <trkpt lat="42.80832" lon="2.26603">
        <ele>512</ele>
        <time>2012-08-12T07:50:51Z</time>
      </trkpt>
      <trkpt lat="42.80835" lon="2.26624">
        <ele>511.7</ele>
        <time>2012-08-12T07:50:53Z</time>
      </trkpt>
      <trkpt lat="42.80839" lon="2.26641">
        <ele>511</ele>
        <time>2012-08-12T07:50:55Z</time>
      </trkpt>
      <trkpt lat="42.80842" lon="2.26649">
        <ele>510.5</ele>
        <time>2012-08-12T07:50:56Z</time>
      </trkpt>
      <trkpt lat="42.80845" lon="2.26664">
        <ele>510.2</ele>
        <time>2012-08-12T07:50:58Z</time>
      </trkpt>
      <trkpt lat="42.80848" lon="2.26677">
        <ele>509.2</ele>
        <time>2012-08-12T07:51:00Z</time>
      </trkpt>
      <trkpt lat="42.80853" lon="2.2669">
        <ele>509.3</ele>
        <time>2012-08-12T07:51:02Z</time>
      </trkpt>
      <trkpt lat="42.80859" lon="2.26701">
        <ele>509.2</ele>
        <time>2012-08-12T07:51:04Z</time>
      </trkpt>
      <trkpt lat="42.80864" lon="2.26713">
        <ele>509.1</ele>
        <time>2012-08-12T07:51:06Z</time>
      </trkpt>
      <trkpt lat="42.80869" lon="2.26723">
        <ele>509.1</ele>
        <time>2012-08-12T07:51:08Z</time>
      </trkpt>
      <trkpt lat="42.80875" lon="2.26748">
        <ele>508.7</ele>
        <time>2012-08-12T07:51:13Z</time>
      </trkpt>
      <trkpt lat="42.80878" lon="2.26759">
        <ele>508.8</ele>
        <time>2012-08-12T07:51:16Z</time>
      </trkpt>
      <trkpt lat="42.80883" lon="2.26779">
        <ele>509</ele>
        <time>2012-08-12T07:51:21Z</time>
      </trkpt>
      <trkpt lat="42.80887" lon="2.26799">
        <ele>508.7</ele>
        <time>2012-08-12T07:51:26Z</time>
      </trkpt>
      <trkpt lat="42.8089" lon="2.26819">
        <ele>508.6</ele>
        <time>2012-08-12T07:51:31Z</time>
      </trkpt>
      <trkpt lat="42.80895" lon="2.26837">
        <ele>508.5</ele>
        <time>2012-08-12T07:51:35Z</time>
      </trkpt>
      <trkpt lat="42.80898" lon="2.26857">
        <ele>509.1</ele>
        <time>2012-08-12T07:51:40Z</time>
      </trkpt>
      <trkpt lat="42.80904" lon="2.26877">
        <ele>510</ele>
        <time>2012-08-12T07:51:46Z</time>
      </trkpt>
      <trkpt lat="42.8091" lon="2.26897">
        <ele>510.2</ele>
        <time>2012-08-12T07:51:52Z</time>
      </trkpt>
      <trkpt lat="42.80914" lon="2.26915">
        <ele>509.6</ele>
        <time>2012-08-12T07:51:57Z</time>
      </trkpt>
      <trkpt lat="42.80918" lon="2.26933">
        <ele>509.8</ele>
        <time>2012-08-12T07:52:01Z</time>
      </trkpt>
      <trkpt lat="42.8092" lon="2.26943">
        <ele>509.6</ele>
        <time>2012-08-12T07:52:03Z</time>
      </trkpt>
      <trkpt lat="42.80925" lon="2.26964">
        <ele>510.5</ele>
        <time>2012-08-12T07:52:07Z</time>
      </trkpt>
      <trkpt lat="42.80929" lon="2.26981">
        <ele>510.2</ele>
        <time>2012-08-12T07:52:10Z</time>
      </trkpt>
      <trkpt lat="42.80933" lon="2.27002">
        <ele>510.2</ele>
        <time>2012-08-12T07:52:13Z</time>
      </trkpt>
      <trkpt lat="42.80935" lon="2.27019">
        <ele>509.5</ele>
        <time>2012-08-12T07:52:15Z</time>
      </trkpt>
      <trkpt lat="42.80936" lon="2.27028">
        <ele>509.2</ele>
        <time>2012-08-12T07:52:16Z</time>
      </trkpt>
      <trkpt lat="42.80937" lon="2.27045">
        <ele>509</ele>
        <time>2012-08-12T07:52:18Z</time>
      </trkpt>
      <trkpt lat="42.80936" lon="2.27061">
        <ele>509.3</ele>
        <time>2012-08-12T07:52:20Z</time>
      </trkpt>
      <trkpt lat="42.80934" lon="2.27074">
        <ele>509.3</ele>
        <time>2012-08-12T07:52:22Z</time>
      </trkpt>
      <trkpt lat="42.80932" lon="2.27097">
        <ele>509.6</ele>
        <time>2012-08-12T07:52:26Z</time>
      </trkpt>
      <trkpt lat="42.80931" lon="2.27109">
        <ele>509.2</ele>
        <time>2012-08-12T07:52:28Z</time>
      </trkpt>
      <trkpt lat="42.80932" lon="2.27131">
        <ele>509.2</ele>
        <time>2012-08-12T07:52:32Z</time>
      </trkpt>
      <trkpt lat="42.80934" lon="2.27147">
        <ele>509.2</ele>
        <time>2012-08-12T07:52:36Z</time>
      </trkpt>
      <trkpt lat="42.80937" lon="2.27169">
        <ele>509.2</ele>
        <time>2012-08-12T07:52:40Z</time>
      </trkpt>
      <trkpt lat="42.80939" lon="2.2718">
        <ele>509.2</ele>
        <time>2012-08-12T07:52:42Z</time>
      </trkpt>
      <trkpt lat="42.80942" lon="2.27198">
        <ele>509.5</ele>
        <time>2012-08-12T07:52:45Z</time>
      </trkpt>
      <trkpt lat="42.80944" lon="2.27219">
        <ele>509.8</ele>
        <time>2012-08-12T07:52:49Z</time>
      </trkpt>
      <trkpt lat="42.80946" lon="2.27241">
        <ele>510</ele>
        <time>2012-08-12T07:52:54Z</time>
      </trkpt>
      <trkpt lat="42.80948" lon="2.27262">
        <ele>510.7</ele>
        <time>2012-08-12T07:52:59Z</time>
      </trkpt>
      <trkpt lat="42.80948" lon="2.27274">
        <ele>511.2</ele>
        <time>2012-08-12T07:53:03Z</time>
      </trkpt>
      <trkpt lat="42.80946" lon="2.27285">
        <ele>511.7</ele>
        <time>2012-08-12T07:53:06Z</time>
      </trkpt>
      <trkpt lat="42.80949" lon="2.27303">
        <ele>512.2</ele>
        <time>2012-08-12T07:53:09Z</time>
      </trkpt>
      <trkpt lat="42.80951" lon="2.27315">
        <ele>512.4</ele>
        <time>2012-08-12T07:53:12Z</time>
      </trkpt>
      <trkpt lat="42.80955" lon="2.2733">
        <ele>512.5</ele>
        <time>2012-08-12T07:53:16Z</time>
      </trkpt>
      <trkpt lat="42.80959" lon="2.27349">
        <ele>512.9</ele>
        <time>2012-08-12T07:53:21Z</time>
      </trkpt>
      <trkpt lat="42.80961" lon="2.27361">
        <ele>513.5</ele>
        <time>2012-08-12T07:53:25Z</time>
      </trkpt>
      <trkpt lat="42.8096" lon="2.27372">
        <ele>513.9</ele>
        <time>2012-08-12T07:53:29Z</time>
      </trkpt>
      <trkpt lat="42.80956" lon="2.27391">
        <ele>514.5</ele>
        <time>2012-08-12T07:53:33Z</time>
      </trkpt>
      <trkpt lat="42.80958" lon="2.2741">
        <ele>515.7</ele>
        <time>2012-08-12T07:53:37Z</time>
      </trkpt>
      <trkpt lat="42.8096" lon="2.27421">
        <ele>516.2</ele>
        <time>2012-08-12T07:53:40Z</time>
      </trkpt>
      <trkpt lat="42.80967" lon="2.27439">
        <ele>516.7</ele>
        <time>2012-08-12T07:53:45Z</time>
      </trkpt>
      <trkpt lat="42.80972" lon="2.27456">
        <ele>518.5</ele>
        <time>2012-08-12T07:53:51Z</time>
      </trkpt>
      <trkpt lat="42.80978" lon="2.27475">
        <ele>519.2</ele>
        <time>2012-08-12T07:53:56Z</time>
      </trkpt>
      <trkpt lat="42.80979" lon="2.27485">
        <ele>520.2</ele>
        <time>2012-08-12T07:53:58Z</time>
      </trkpt>
      <trkpt lat="42.80984" lon="2.27507">
        <ele>523</ele>
        <time>2012-08-12T07:54:04Z</time>
      </trkpt>
      <trkpt lat="42.80988" lon="2.27529">
        <ele>528</ele>
        <time>2012-08-12T07:54:10Z</time>
      </trkpt>
      <trkpt lat="42.80991" lon="2.27541">
        <ele>527.9</ele>
        <time>2012-08-12T07:54:13Z</time>
      </trkpt>
      <trkpt lat="42.80998" lon="2.27562">
        <ele>523.7</ele>
        <time>2012-08-12T07:54:18Z</time>
      </trkpt>
      <trkpt lat="42.81001" lon="2.27582">
        <ele>523.9</ele>
        <time>2012-08-12T07:54:23Z</time>
      </trkpt>
      <trkpt lat="42.81002" lon="2.27593">
        <ele>524</ele>
        <time>2012-08-12T07:54:26Z</time>
      </trkpt>
      <trkpt lat="42.81003" lon="2.27614">
        <ele>525.4</ele>
        <time>2012-08-12T07:54:32Z</time>
      </trkpt>
      <trkpt lat="42.81003" lon="2.27635">
        <ele>527.2</ele>
        <time>2012-08-12T07:54:38Z</time>
      </trkpt>
      <trkpt lat="42.81004" lon="2.27655">
        <ele>528.9</ele>
        <time>2012-08-12T07:54:44Z</time>
      </trkpt>
      <trkpt lat="42.81005" lon="2.27676">
        <ele>530.4</ele>
        <time>2012-08-12T07:54:51Z</time>
      </trkpt>
      <trkpt lat="42.81007" lon="2.27696">
        <ele>530.4</ele>
        <time>2012-08-12T07:54:58Z</time>
      </trkpt>
      <trkpt lat="42.81008" lon="2.27707">
        <ele>529.9</ele>
        <time>2012-08-12T07:55:01Z</time>
      </trkpt>
      <trkpt lat="42.81009" lon="2.27723">
        <ele>529</ele>
        <time>2012-08-12T07:55:05Z</time>
      </trkpt>
      <trkpt lat="42.81009" lon="2.27732">
        <ele>528.7</ele>
        <time>2012-08-12T07:55:07Z</time>
      </trkpt>
      <trkpt lat="42.81008" lon="2.2775">
        <ele>528.5</ele>
        <time>2012-08-12T07:55:11Z</time>
      </trkpt>
      <trkpt lat="42.81006" lon="2.27763">
        <ele>528.4</ele>
        <time>2012-08-12T07:55:14Z</time>
      </trkpt>
      <trkpt lat="42.80995" lon="2.27774">
        <ele>529.5</ele>
        <time>2012-08-12T07:55:19Z</time>
      </trkpt>
      <trkpt lat="42.80988" lon="2.27777">
        <ele>530.2</ele>
        <time>2012-08-12T07:55:22Z</time>
      </trkpt>
      <trkpt lat="42.80973" lon="2.27782">
        <ele>531.5</ele>
        <time>2012-08-12T07:55:28Z</time>
      </trkpt>
      <trkpt lat="42.80959" lon="2.27786">
        <ele>532.2</ele>
        <time>2012-08-12T07:55:34Z</time>
      </trkpt>
      <trkpt lat="42.80944" lon="2.27792">
        <ele>532.5</ele>
        <time>2012-08-12T07:55:41Z</time>
      </trkpt>
      <trkpt lat="42.80929" lon="2.27795">
        <ele>533.5</ele>
        <time>2012-08-12T07:55:49Z</time>
      </trkpt>
      <trkpt lat="42.8092" lon="2.27797">
        <ele>534</ele>
        <time>2012-08-12T07:55:54Z</time>
      </trkpt>
      <trkpt lat="42.80914" lon="2.27805">
        <ele>534.7</ele>
        <time>2012-08-12T07:55:59Z</time>
      </trkpt>
      <trkpt lat="42.8091" lon="2.27815">
        <ele>535.2</ele>
        <time>2012-08-12T07:56:03Z</time>
      </trkpt>
      <trkpt lat="42.80903" lon="2.27833">
        <ele>539.7</ele>
        <time>2012-08-12T07:57:14Z</time>
      </trkpt>
      <trkpt lat="42.80892" lon="2.27846">
        <ele>540.7</ele>
        <time>2012-08-12T07:57:20Z</time>
      </trkpt>
      <trkpt lat="42.80884" lon="2.27849">
        <ele>541</ele>
        <time>2012-08-12T07:57:24Z</time>
      </trkpt>
      <trkpt lat="42.80875" lon="2.27847">
        <ele>542.5</ele>
        <time>2012-08-12T07:57:28Z</time>
      </trkpt>
      <trkpt lat="42.80868" lon="2.27842">
        <ele>543.5</ele>
        <time>2012-08-12T07:57:32Z</time>
      </trkpt>
      <trkpt lat="42.80855" lon="2.27829">
        <ele>544.7</ele>
        <time>2012-08-12T07:57:41Z</time>
      </trkpt>
      <trkpt lat="42.80844" lon="2.27816">
        <ele>545.9</ele>
        <time>2012-08-12T07:57:49Z</time>
      </trkpt>
      <trkpt lat="42.80834" lon="2.278">
        <ele>547.2</ele>
        <time>2012-08-12T07:57:57Z</time>
      </trkpt>
      <trkpt lat="42.80821" lon="2.27784">
        <ele>548.5</ele>
        <time>2012-08-12T07:58:07Z</time>
      </trkpt>
      <trkpt lat="42.80808" lon="2.27772">
        <ele>549.5</ele>
        <time>2012-08-12T07:58:15Z</time>
      </trkpt>
      <trkpt lat="42.80806" lon="2.27771">
        <ele>549.5</ele>
        <time>2012-08-12T07:58:16Z</time>
      </trkpt>
      <trkpt lat="42.80785" lon="2.2776">
        <ele>554.5</ele>
        <time>2012-08-12T07:58:27Z</time>
      </trkpt>
      <trkpt lat="42.80777" lon="2.27756">
        <ele>556.2</ele>
        <time>2012-08-12T07:58:31Z</time>
      </trkpt>
      <trkpt lat="42.80762" lon="2.27745">
        <ele>560</ele>
        <time>2012-08-12T07:58:39Z</time>
      </trkpt>
      <trkpt lat="42.80748" lon="2.27737">
        <ele>560.5</ele>
        <time>2012-08-12T07:58:46Z</time>
      </trkpt>
      <trkpt lat="42.80741" lon="2.27733">
        <ele>561.2</ele>
        <time>2012-08-12T07:58:50Z</time>
      </trkpt>
      <trkpt lat="42.80727" lon="2.2773">
        <ele>561.4</ele>
        <time>2012-08-12T07:58:56Z</time>
      </trkpt>
      <trkpt lat="42.8072" lon="2.27733">
        <ele>561.4</ele>
        <time>2012-08-12T07:58:59Z</time>
      </trkpt>
      <trkpt lat="42.80705" lon="2.27734">
        <ele>561.7</ele>
        <time>2012-08-12T07:59:05Z</time>
      </trkpt>
      <trkpt lat="42.80698" lon="2.27734">
        <ele>561.7</ele>
        <time>2012-08-12T07:59:08Z</time>
      </trkpt>
      <trkpt lat="42.80683" lon="2.2773">
        <ele>562</ele>
        <time>2012-08-12T07:59:14Z</time>
      </trkpt>
      <trkpt lat="42.80674" lon="2.2773">
        <ele>562.7</ele>
        <time>2012-08-12T07:59:18Z</time>
      </trkpt>
      <trkpt lat="42.80653" lon="2.27735">
        <ele>564.2</ele>
        <time>2012-08-12T07:59:28Z</time>
      </trkpt>
      <trkpt lat="42.80638" lon="2.27735">
        <ele>565.4</ele>
        <time>2012-08-12T07:59:35Z</time>
      </trkpt>
      <trkpt lat="42.8063" lon="2.27736">
        <ele>566</ele>
        <time>2012-08-12T07:59:38Z</time>
      </trkpt>
      <trkpt lat="42.80614" lon="2.27743">
        <ele>568.2</ele>
        <time>2012-08-12T07:59:46Z</time>
      </trkpt>
      <trkpt lat="42.80606" lon="2.27746">
        <ele>569.2</ele>
        <time>2012-08-12T07:59:50Z</time>
      </trkpt>
      <trkpt lat="42.80599" lon="2.2775">
        <ele>570.2</ele>
        <time>2012-08-12T07:59:54Z</time>
      </trkpt>
      <trkpt lat="42.80584" lon="2.27758">
        <ele>572.2</ele>
        <time>2012-08-12T08:00:04Z</time>
      </trkpt>
      <trkpt lat="42.80569" lon="2.27757">
        <ele>573.4</ele>
        <time>2012-08-12T08:00:12Z</time>
      </trkpt>
      <trkpt lat="42.80553" lon="2.27757">
        <ele>574.7</ele>
        <time>2012-08-12T08:00:20Z</time>
      </trkpt>
      <trkpt lat="42.80551" lon="2.27756">
        <ele>574.7</ele>
        <time>2012-08-12T08:00:21Z</time>
      </trkpt>
      <trkpt lat="42.80536" lon="2.27751">
        <ele>575.5</ele>
        <time>2012-08-12T08:00:28Z</time>
      </trkpt>
      <trkpt lat="42.80526" lon="2.27763">
        <ele>576.5</ele>
        <time>2012-08-12T08:00:39Z</time>
      </trkpt>
      <trkpt lat="42.80529" lon="2.27775">
        <ele>587.4</ele>
        <time>2012-08-12T08:02:26Z</time>
      </trkpt>
      <trkpt lat="42.8053" lon="2.27793">
        <ele>588</ele>
        <time>2012-08-12T08:02:36Z</time>
      </trkpt>
      <trkpt lat="42.80527" lon="2.27803">
        <ele>588.2</ele>
        <time>2012-08-12T08:02:40Z</time>
      </trkpt>
      <trkpt lat="42.80517" lon="2.27818">
        <ele>586.7</ele>
        <time>2012-08-12T08:02:46Z</time>
      </trkpt>
      <trkpt lat="42.80512" lon="2.27827">
        <ele>586.9</ele>
        <time>2012-08-12T08:02:49Z</time>
      </trkpt>
      <trkpt lat="42.80505" lon="2.27835">
        <ele>586.2</ele>
        <time>2012-08-12T08:02:53Z</time>
      </trkpt>
      <trkpt lat="42.80501" lon="2.27844">
        <ele>586</ele>
        <time>2012-08-12T08:02:58Z</time>
      </trkpt>
      <trkpt lat="42.80496" lon="2.27863">
        <ele>586.9</ele>
        <time>2012-08-12T08:03:08Z</time>
      </trkpt>
      <trkpt lat="42.80497" lon="2.27874">
        <ele>587.5</ele>
        <time>2012-08-12T08:03:12Z</time>
      </trkpt>
      <trkpt lat="42.8049" lon="2.27894">
        <ele>589.5</ele>
        <time>2012-08-12T08:03:21Z</time>
      </trkpt>
      <trkpt lat="42.80484" lon="2.27916">
        <ele>591</ele>
        <time>2012-08-12T08:03:29Z</time>
      </trkpt>
      <trkpt lat="42.80481" lon="2.27935">
        <ele>591.7</ele>
        <time>2012-08-12T08:03:35Z</time>
      </trkpt>
      <trkpt lat="42.8048" lon="2.27946">
        <ele>591.9</ele>
        <time>2012-08-12T08:03:40Z</time>
      </trkpt>
      <trkpt lat="42.80478" lon="2.27966">
        <ele>592.7</ele>
        <time>2012-08-12T08:03:48Z</time>
      </trkpt>
      <trkpt lat="42.80476" lon="2.27978">
        <ele>593</ele>
        <time>2012-08-12T08:03:53Z</time>
      </trkpt>
      <trkpt lat="42.80472" lon="2.27988">
        <ele>593.7</ele>
        <time>2012-08-12T08:03:57Z</time>
      </trkpt>
      <trkpt lat="42.8047" lon="2.27999">
        <ele>594.2</ele>
        <time>2012-08-12T08:04:02Z</time>
      </trkpt>
      <trkpt lat="42.80461" lon="2.28017">
        <ele>594</ele>
        <time>2012-08-12T08:04:09Z</time>
      </trkpt>
      <trkpt lat="42.80449" lon="2.28031">
        <ele>594.5</ele>
        <time>2012-08-12T08:04:16Z</time>
      </trkpt>
      <trkpt lat="42.80435" lon="2.28039">
        <ele>596.2</ele>
        <time>2012-08-12T08:04:24Z</time>
      </trkpt>
      <trkpt lat="42.80428" lon="2.28046">
        <ele>597.5</ele>
        <time>2012-08-12T08:04:29Z</time>
      </trkpt>
      <trkpt lat="42.80422" lon="2.28057">
        <ele>598.2</ele>
        <time>2012-08-12T08:04:36Z</time>
      </trkpt>
      <trkpt lat="42.80408" lon="2.28067">
        <ele>600.7</ele>
        <time>2012-08-12T08:04:47Z</time>
      </trkpt>
      <trkpt lat="42.804" lon="2.28069">
        <ele>602.5</ele>
        <time>2012-08-12T08:04:53Z</time>
      </trkpt>
      <trkpt lat="42.80392" lon="2.28067">
        <ele>604.2</ele>
        <time>2012-08-12T08:04:58Z</time>
      </trkpt>
      <trkpt lat="42.80378" lon="2.28071">
        <ele>606</ele>
        <time>2012-08-12T08:05:10Z</time>
      </trkpt>
      <trkpt lat="42.80362" lon="2.28069">
        <ele>607.9</ele>
        <time>2012-08-12T08:05:19Z</time>
      </trkpt>
      <trkpt lat="42.80354" lon="2.2807">
        <ele>608.5</ele>
        <time>2012-08-12T08:05:25Z</time>
      </trkpt>
      <trkpt lat="42.80337" lon="2.28066">
        <ele>610.9</ele>
        <time>2012-08-12T08:05:36Z</time>
      </trkpt>
      <trkpt lat="42.80335" lon="2.28066">
        <ele>610.9</ele>
        <time>2012-08-12T08:05:37Z</time>
      </trkpt>
      <trkpt lat="42.8032" lon="2.28067">
        <ele>612.5</ele>
        <time>2012-08-12T08:05:46Z</time>
      </trkpt>
      <trkpt lat="42.80306" lon="2.28071">
        <ele>614</ele>
        <time>2012-08-12T08:05:54Z</time>
      </trkpt>
      <trkpt lat="42.80289" lon="2.28073">
        <ele>616.2</ele>
        <time>2012-08-12T08:06:04Z</time>
      </trkpt>
      <trkpt lat="42.80281" lon="2.28073">
        <ele>617.2</ele>
        <time>2012-08-12T08:06:09Z</time>
      </trkpt>
      <trkpt lat="42.80265" lon="2.28078">
        <ele>620</ele>
        <time>2012-08-12T08:06:18Z</time>
      </trkpt>
      <trkpt lat="42.80252" lon="2.2809">
        <ele>621.7</ele>
        <time>2012-08-12T08:06:25Z</time>
      </trkpt>
      <trkpt lat="42.80239" lon="2.28102">
        <ele>622.7</ele>
        <time>2012-08-12T08:06:33Z</time>
      </trkpt>
      <trkpt lat="42.80237" lon="2.28114">
        <ele>623</ele>
        <time>2012-08-12T08:06:40Z</time>
      </trkpt>
      <trkpt lat="42.80248" lon="2.28125">
        <ele>623.7</ele>
        <time>2012-08-12T08:06:46Z</time>
      </trkpt>
      <trkpt lat="42.80263" lon="2.28129">
        <ele>624.5</ele>
        <time>2012-08-12T08:06:54Z</time>
      </trkpt>
      <trkpt lat="42.80278" lon="2.2813">
        <ele>625.2</ele>
        <time>2012-08-12T08:07:01Z</time>
      </trkpt>
      <trkpt lat="42.80287" lon="2.28133">
        <ele>625.2</ele>
        <time>2012-08-12T08:07:05Z</time>
      </trkpt>
      <trkpt lat="42.80301" lon="2.28142">
        <ele>625.7</ele>
        <time>2012-08-12T08:07:12Z</time>
      </trkpt>
      <trkpt lat="42.80309" lon="2.28147">
        <ele>626.4</ele>
        <time>2012-08-12T08:07:16Z</time>
      </trkpt>
      <trkpt lat="42.80323" lon="2.28154">
        <ele>627.5</ele>
        <time>2012-08-12T08:07:23Z</time>
      </trkpt>
      <trkpt lat="42.8033" lon="2.28159">
        <ele>627.7</ele>
        <time>2012-08-12T08:07:26Z</time>
      </trkpt>
      <trkpt lat="42.80344" lon="2.28168">
        <ele>628.5</ele>
        <time>2012-08-12T08:07:32Z</time>
      </trkpt>
      <trkpt lat="42.80352" lon="2.2817">
        <ele>628.9</ele>
        <time>2012-08-12T08:07:35Z</time>
      </trkpt>
      <trkpt lat="42.8036" lon="2.28176">
        <ele>629.2</ele>
        <time>2012-08-12T08:07:38Z</time>
      </trkpt>
      <trkpt lat="42.80371" lon="2.28183">
        <ele>629.7</ele>
        <time>2012-08-12T08:07:42Z</time>
      </trkpt>
      <trkpt lat="42.80383" lon="2.28192">
        <ele>631.4</ele>
        <time>2012-08-12T08:07:47Z</time>
      </trkpt>
      <trkpt lat="42.80398" lon="2.28196">
        <ele>631</ele>
        <time>2012-08-12T08:07:53Z</time>
      </trkpt>
      <trkpt lat="42.80405" lon="2.28197">
        <ele>631.2</ele>
        <time>2012-08-12T08:07:56Z</time>
      </trkpt>
      <trkpt lat="42.80419" lon="2.282">
        <ele>632.2</ele>
        <time>2012-08-12T08:08:02Z</time>
      </trkpt>
      <trkpt lat="42.80427" lon="2.28204">
        <ele>633</ele>
        <time>2012-08-12T08:08:05Z</time>
      </trkpt>
      <trkpt lat="42.80441" lon="2.28214">
        <ele>634.7</ele>
        <time>2012-08-12T08:08:11Z</time>
      </trkpt>
      <trkpt lat="42.80447" lon="2.2822">
        <ele>636</ele>
        <time>2012-08-12T08:08:14Z</time>
      </trkpt>
      <trkpt lat="42.80454" lon="2.28227">
        <ele>635.5</ele>
        <time>2012-08-12T08:08:18Z</time>
      </trkpt>
      <trkpt lat="42.80463" lon="2.28245">
        <ele>637.5</ele>
        <time>2012-08-12T08:08:25Z</time>
      </trkpt>
      <trkpt lat="42.80471" lon="2.28263">
        <ele>639</ele>
        <time>2012-08-12T08:08:31Z</time>
      </trkpt>
      <trkpt lat="42.80476" lon="2.28273">
        <ele>640</ele>
        <time>2012-08-12T08:08:34Z</time>
      </trkpt>
      <trkpt lat="42.80485" lon="2.28291">
        <ele>640</ele>
        <time>2012-08-12T08:08:40Z</time>
      </trkpt>
      <trkpt lat="42.80488" lon="2.28303">
        <ele>640</ele>
        <time>2012-08-12T08:08:44Z</time>
      </trkpt>
      <trkpt lat="42.80494" lon="2.28318">
        <ele>641.2</ele>
        <time>2012-08-12T08:08:49Z</time>
      </trkpt>
      <trkpt lat="42.80508" lon="2.28323">
        <ele>642.2</ele>
        <time>2012-08-12T08:08:55Z</time>
      </trkpt>
      <trkpt lat="42.80515" lon="2.28316">
        <ele>642.2</ele>
        <time>2012-08-12T08:08:59Z</time>
      </trkpt>
      <trkpt lat="42.80523" lon="2.28299">
        <ele>642.5</ele>
        <time>2012-08-12T08:09:05Z</time>
      </trkpt>
      <trkpt lat="42.80533" lon="2.28285">
        <ele>642.7</ele>
        <time>2012-08-12T08:09:11Z</time>
      </trkpt>
      <trkpt lat="42.8054" lon="2.28268">
        <ele>643.4</ele>
        <time>2012-08-12T08:09:17Z</time>
      </trkpt>
      <trkpt lat="42.80547" lon="2.28249">
        <ele>644.2</ele>
        <time>2012-08-12T08:09:23Z</time>
      </trkpt>
      <trkpt lat="42.80552" lon="2.28229">
        <ele>644.5</ele>
        <time>2012-08-12T08:09:30Z</time>
      </trkpt>
      <trkpt lat="42.80558" lon="2.2821">
        <ele>645</ele>
        <time>2012-08-12T08:09:38Z</time>
      </trkpt>
      <trkpt lat="42.80563" lon="2.2819">
        <ele>646</ele>
        <time>2012-08-12T08:09:45Z</time>
      </trkpt>
      <trkpt lat="42.80571" lon="2.28171">
        <ele>646.4</ele>
        <time>2012-08-12T08:09:52Z</time>
      </trkpt>
      <trkpt lat="42.80573" lon="2.2816">
        <ele>646.4</ele>
        <time>2012-08-12T08:09:55Z</time>
      </trkpt>
      <trkpt lat="42.80579" lon="2.28141">
        <ele>647.5</ele>
        <time>2012-08-12T08:10:01Z</time>
      </trkpt>
      <trkpt lat="42.80582" lon="2.28131">
        <ele>647.7</ele>
        <time>2012-08-12T08:10:04Z</time>
      </trkpt>
      <trkpt lat="42.80586" lon="2.2811">
        <ele>649</ele>
        <time>2012-08-12T08:10:10Z</time>
      </trkpt>
      <trkpt lat="42.80591" lon="2.281">
        <ele>649.5</ele>
        <time>2012-08-12T08:10:14Z</time>
      </trkpt>
      <trkpt lat="42.806" lon="2.28098">
        <ele>650.7</ele>
        <time>2012-08-12T08:10:19Z</time>
      </trkpt>
      <trkpt lat="42.80606" lon="2.28104">
        <ele>651</ele>
        <time>2012-08-12T08:10:22Z</time>
      </trkpt>
      <trkpt lat="42.80615" lon="2.28115">
        <ele>652</ele>
        <time>2012-08-12T08:10:26Z</time>
      </trkpt>
      <trkpt lat="42.80622" lon="2.28118">
        <ele>652.9</ele>
        <time>2012-08-12T08:10:28Z</time>
      </trkpt>
      <trkpt lat="42.80637" lon="2.28119">
        <ele>652.4</ele>
        <time>2012-08-12T08:10:32Z</time>
      </trkpt>
      <trkpt lat="42.80644" lon="2.28118">
        <ele>652.5</ele>
        <time>2012-08-12T08:10:34Z</time>
      </trkpt>
      <trkpt lat="42.80659" lon="2.28116">
        <ele>653.5</ele>
        <time>2012-08-12T08:10:38Z</time>
      </trkpt>
      <trkpt lat="42.80675" lon="2.28115">
        <ele>654.2</ele>
        <time>2012-08-12T08:10:42Z</time>
      </trkpt>
      <trkpt lat="42.80691" lon="2.28114">
        <ele>655</ele>
        <time>2012-08-12T08:10:46Z</time>
      </trkpt>
      <trkpt lat="42.80706" lon="2.28113">
        <ele>655.9</ele>
        <time>2012-08-12T08:10:50Z</time>
      </trkpt>
      <trkpt lat="42.80714" lon="2.28115">
        <ele>656.2</ele>
        <time>2012-08-12T08:10:52Z</time>
      </trkpt>
      <trkpt lat="42.8073" lon="2.2812">
        <ele>656.5</ele>
        <time>2012-08-12T08:10:56Z</time>
      </trkpt>
      <trkpt lat="42.80742" lon="2.28128">
        <ele>654.2</ele>
        <time>2012-08-12T08:10:59Z</time>
      </trkpt>
      <trkpt lat="42.80755" lon="2.28135">
        <ele>654</ele>
        <time>2012-08-12T08:11:02Z</time>
      </trkpt>
      <trkpt lat="42.80768" lon="2.28143">
        <ele>652.7</ele>
        <time>2012-08-12T08:11:05Z</time>
      </trkpt>
      <trkpt lat="42.80777" lon="2.28148">
        <ele>651.7</ele>
        <time>2012-08-12T08:11:07Z</time>
      </trkpt>
      <trkpt lat="42.80785" lon="2.28157">
        <ele>650.7</ele>
        <time>2012-08-12T08:11:09Z</time>
      </trkpt>
      <trkpt lat="42.80792" lon="2.28167">
        <ele>650.5</ele>
        <time>2012-08-12T08:11:11Z</time>
      </trkpt>
      <trkpt lat="42.80796" lon="2.28178">
        <ele>651</ele>
        <time>2012-08-12T08:11:13Z</time>
      </trkpt>
      <trkpt lat="42.80798" lon="2.28184">
        <ele>651.2</ele>
        <time>2012-08-12T08:11:14Z</time>
      </trkpt>
      <trkpt lat="42.80803" lon="2.28202">
        <ele>649.5</ele>
        <time>2012-08-12T08:11:17Z</time>
      </trkpt>
      <trkpt lat="42.80805" lon="2.28213">
        <ele>649.5</ele>
        <time>2012-08-12T08:11:19Z</time>
      </trkpt>
      <trkpt lat="42.8081" lon="2.28235">
        <ele>649.4</ele>
        <time>2012-08-12T08:11:23Z</time>
      </trkpt>
      <trkpt lat="42.80816" lon="2.28257">
        <ele>648</ele>
        <time>2012-08-12T08:11:27Z</time>
      </trkpt>
      <trkpt lat="42.80819" lon="2.28269">
        <ele>647.5</ele>
        <time>2012-08-12T08:11:29Z</time>
      </trkpt>
      <trkpt lat="42.80824" lon="2.28288">
        <ele>647</ele>
        <time>2012-08-12T08:11:32Z</time>
      </trkpt>
      <trkpt lat="42.80826" lon="2.28301">
        <ele>646.5</ele>
        <time>2012-08-12T08:11:34Z</time>
      </trkpt>
      <trkpt lat="42.80827" lon="2.28315">
        <ele>646.2</ele>
        <time>2012-08-12T08:11:36Z</time>
      </trkpt>
      <trkpt lat="42.80828" lon="2.28329">
        <ele>646.2</ele>
        <time>2012-08-12T08:11:38Z</time>
      </trkpt>
      <trkpt lat="42.80829" lon="2.28341">
        <ele>646</ele>
        <time>2012-08-12T08:11:40Z</time>
      </trkpt>
      <trkpt lat="42.8083" lon="2.28355">
        <ele>646.4</ele>
        <time>2012-08-12T08:11:42Z</time>
      </trkpt>
      <trkpt lat="42.8083" lon="2.28366">
        <ele>646.5</ele>
        <time>2012-08-12T08:11:44Z</time>
      </trkpt>
      <trkpt lat="42.80831" lon="2.28385">
        <ele>646.7</ele>
        <time>2012-08-12T08:11:47Z</time>
      </trkpt>
      <trkpt lat="42.80831" lon="2.28405">
        <ele>646.9</ele>
        <time>2012-08-12T08:11:50Z</time>
      </trkpt>
      <trkpt lat="42.80831" lon="2.2842">
        <ele>646.9</ele>
        <time>2012-08-12T08:11:52Z</time>
      </trkpt>
      <trkpt lat="42.8083" lon="2.28433">
        <ele>647</ele>
        <time>2012-08-12T08:11:54Z</time>
      </trkpt>
      <trkpt lat="42.8083" lon="2.2844">
        <ele>647</ele>
        <time>2012-08-12T08:11:55Z</time>
      </trkpt>
      <trkpt lat="42.80829" lon="2.28454">
        <ele>647.2</ele>
        <time>2012-08-12T08:11:57Z</time>
      </trkpt>
      <trkpt lat="42.80828" lon="2.28467">
        <ele>647.5</ele>
        <time>2012-08-12T08:11:59Z</time>
      </trkpt>
      <trkpt lat="42.80827" lon="2.2848">
        <ele>647.7</ele>
        <time>2012-08-12T08:12:01Z</time>
      </trkpt>
      <trkpt lat="42.80827" lon="2.28502">
        <ele>647.9</ele>
        <time>2012-08-12T08:12:05Z</time>
      </trkpt>
      <trkpt lat="42.80827" lon="2.28513">
        <ele>648</ele>
        <time>2012-08-12T08:12:07Z</time>
      </trkpt>
      <trkpt lat="42.80823" lon="2.28535">
        <ele>648</ele>
        <time>2012-08-12T08:12:11Z</time>
      </trkpt>
      <trkpt lat="42.80823" lon="2.28547">
        <ele>647.9</ele>
        <time>2012-08-12T08:12:13Z</time>
      </trkpt>
      <trkpt lat="42.80822" lon="2.28559">
        <ele>648</ele>
        <time>2012-08-12T08:12:15Z</time>
      </trkpt>
      <trkpt lat="42.80822" lon="2.28573">
        <ele>647.7</ele>
        <time>2012-08-12T08:12:17Z</time>
      </trkpt>
      <trkpt lat="42.80823" lon="2.28586">
        <ele>647.5</ele>
        <time>2012-08-12T08:12:19Z</time>
      </trkpt>
      <trkpt lat="42.80824" lon="2.28605">
        <ele>647.5</ele>
        <time>2012-08-12T08:12:22Z</time>
      </trkpt>
      <trkpt lat="42.80826" lon="2.28618">
        <ele>647.5</ele>
        <time>2012-08-12T08:12:24Z</time>
      </trkpt>
      <trkpt lat="42.80828" lon="2.28632">
        <ele>647.7</ele>
        <time>2012-08-12T08:12:26Z</time>
      </trkpt>
      <trkpt lat="42.80831" lon="2.28651">
        <ele>648</ele>
        <time>2012-08-12T08:12:29Z</time>
      </trkpt>
      <trkpt lat="42.80834" lon="2.28669">
        <ele>648.2</ele>
        <time>2012-08-12T08:12:32Z</time>
      </trkpt>
      <trkpt lat="42.80836" lon="2.28679">
        <ele>647.4</ele>
        <time>2012-08-12T08:12:34Z</time>
      </trkpt>
      <trkpt lat="42.80837" lon="2.28698">
        <ele>647</ele>
        <time>2012-08-12T08:12:37Z</time>
      </trkpt>
      <trkpt lat="42.80839" lon="2.28716">
        <ele>646</ele>
        <time>2012-08-12T08:12:40Z</time>
      </trkpt>
      <trkpt lat="42.8084" lon="2.28727">
        <ele>645.7</ele>
        <time>2012-08-12T08:12:42Z</time>
      </trkpt>
      <trkpt lat="42.80843" lon="2.28748">
        <ele>645.9</ele>
        <time>2012-08-12T08:12:46Z</time>
      </trkpt>
      <trkpt lat="42.80844" lon="2.2876">
        <ele>646</ele>
        <time>2012-08-12T08:12:48Z</time>
      </trkpt>
      <trkpt lat="42.80844" lon="2.28774">
        <ele>646</ele>
        <time>2012-08-12T08:12:50Z</time>
      </trkpt>
      <trkpt lat="42.80844" lon="2.28787">
        <ele>645.5</ele>
        <time>2012-08-12T08:12:52Z</time>
      </trkpt>
      <trkpt lat="42.80844" lon="2.28799">
        <ele>646.2</ele>
        <time>2012-08-12T08:12:54Z</time>
      </trkpt>
      <trkpt lat="42.80844" lon="2.28813">
        <ele>645</ele>
        <time>2012-08-12T08:12:56Z</time>
      </trkpt>
      <trkpt lat="42.80844" lon="2.28836">
        <ele>645</ele>
        <time>2012-08-12T08:13:00Z</time>
      </trkpt>
      <trkpt lat="42.80844" lon="2.28854">
        <ele>644.7</ele>
        <time>2012-08-12T08:13:03Z</time>
      </trkpt>
      <trkpt lat="42.80845" lon="2.28868">
        <ele>644</ele>
        <time>2012-08-12T08:13:05Z</time>
      </trkpt>
      <trkpt lat="42.80846" lon="2.28881">
        <ele>644.5</ele>
        <time>2012-08-12T08:13:07Z</time>
      </trkpt>
      <trkpt lat="42.80848" lon="2.28893">
        <ele>644.5</ele>
        <time>2012-08-12T08:13:09Z</time>
      </trkpt>
      <trkpt lat="42.8085" lon="2.28906">
        <ele>644.2</ele>
        <time>2012-08-12T08:13:11Z</time>
      </trkpt>
      <trkpt lat="42.8085" lon="2.28919">
        <ele>643.2</ele>
        <time>2012-08-12T08:13:13Z</time>
      </trkpt>
      <trkpt lat="42.80852" lon="2.28932">
        <ele>643</ele>
        <time>2012-08-12T08:13:15Z</time>
      </trkpt>
      <trkpt lat="42.80856" lon="2.28954">
        <ele>642.2</ele>
        <time>2012-08-12T08:13:19Z</time>
      </trkpt>
      <trkpt lat="42.80855" lon="2.28971">
        <ele>641.5</ele>
        <time>2012-08-12T08:13:23Z</time>
      </trkpt>
      <trkpt lat="42.80858" lon="2.2898">
        <ele>641.2</ele>
        <time>2012-08-12T08:13:25Z</time>
      </trkpt>
      <trkpt lat="42.80862" lon="2.28999">
        <ele>640.7</ele>
        <time>2012-08-12T08:13:29Z</time>
      </trkpt>
      <trkpt lat="42.80864" lon="2.29019">
        <ele>640.2</ele>
        <time>2012-08-12T08:13:33Z</time>
      </trkpt>
      <trkpt lat="42.80865" lon="2.29029">
        <ele>640.2</ele>
        <time>2012-08-12T08:13:35Z</time>
      </trkpt>
      <trkpt lat="42.80868" lon="2.29053">
        <ele>640</ele>
        <time>2012-08-12T08:13:39Z</time>
      </trkpt>
      <trkpt lat="42.80868" lon="2.29065">
        <ele>639.9</ele>
        <time>2012-08-12T08:13:41Z</time>
      </trkpt>
      <trkpt lat="42.80873" lon="2.29086">
        <ele>639.5</ele>
        <time>2012-08-12T08:13:45Z</time>
      </trkpt>
      <trkpt lat="42.80876" lon="2.29106">
        <ele>638.4</ele>
        <time>2012-08-12T08:13:49Z</time>
      </trkpt>
      <trkpt lat="42.80879" lon="2.29127">
        <ele>637.5</ele>
        <time>2012-08-12T08:13:53Z</time>
      </trkpt>
      <trkpt lat="42.8088" lon="2.29137">
        <ele>637.5</ele>
        <time>2012-08-12T08:13:55Z</time>
      </trkpt>
      <trkpt lat="42.8088" lon="2.29156">
        <ele>637.5</ele>
        <time>2012-08-12T08:13:59Z</time>
      </trkpt>
      <trkpt lat="42.8088" lon="2.29175">
        <ele>638</ele>
        <time>2012-08-12T08:14:03Z</time>
      </trkpt>
      <trkpt lat="42.80882" lon="2.29195">
        <ele>637.4</ele>
        <time>2012-08-12T08:14:07Z</time>
      </trkpt>
      <trkpt lat="42.80882" lon="2.29205">
        <ele>636.7</ele>
        <time>2012-08-12T08:14:09Z</time>
      </trkpt>
      <trkpt lat="42.80883" lon="2.29224">
        <ele>636</ele>
        <time>2012-08-12T08:14:13Z</time>
      </trkpt>
      <trkpt lat="42.80882" lon="2.29245">
        <ele>636.5</ele>
        <time>2012-08-12T08:14:18Z</time>
      </trkpt>
      <trkpt lat="42.80882" lon="2.29254">
        <ele>636.4</ele>
        <time>2012-08-12T08:14:20Z</time>
      </trkpt>
      <trkpt lat="42.80881" lon="2.29273">
        <ele>636.4</ele>
        <time>2012-08-12T08:14:24Z</time>
      </trkpt>
      <trkpt lat="42.80879" lon="2.2929">
        <ele>636.5</ele>
        <time>2012-08-12T08:14:28Z</time>
      </trkpt>
      <trkpt lat="42.80878" lon="2.29308">
        <ele>636.2</ele>
        <time>2012-08-12T08:14:32Z</time>
      </trkpt>
      <trkpt lat="42.80877" lon="2.29326">
        <ele>636</ele>
        <time>2012-08-12T08:14:36Z</time>
      </trkpt>
      <trkpt lat="42.80877" lon="2.29345">
        <ele>636.4</ele>
        <time>2012-08-12T08:14:40Z</time>
      </trkpt>
      <trkpt lat="42.80877" lon="2.29355">
        <ele>636.5</ele>
        <time>2012-08-12T08:14:42Z</time>
      </trkpt>
      <trkpt lat="42.80877" lon="2.29374">
        <ele>636</ele>
        <time>2012-08-12T08:14:46Z</time>
      </trkpt>
      <trkpt lat="42.80876" lon="2.29393">
        <ele>634.9</ele>
        <time>2012-08-12T08:14:50Z</time>
      </trkpt>
      <trkpt lat="42.80876" lon="2.29398">
        <ele>634.9</ele>
        <time>2012-08-12T08:14:51Z</time>
      </trkpt>
      <trkpt lat="42.80877" lon="2.29423">
        <ele>634.7</ele>
        <time>2012-08-12T08:14:56Z</time>
      </trkpt>
      <trkpt lat="42.80875" lon="2.29444">
        <ele>634</ele>
        <time>2012-08-12T08:15:00Z</time>
      </trkpt>
      <trkpt lat="42.80875" lon="2.29465">
        <ele>633.7</ele>
        <time>2012-08-12T08:15:04Z</time>
      </trkpt>
      <trkpt lat="42.80872" lon="2.29484">
        <ele>633.7</ele>
        <time>2012-08-12T08:15:08Z</time>
      </trkpt>
      <trkpt lat="42.80871" lon="2.29503">
        <ele>633.5</ele>
        <time>2012-08-12T08:15:12Z</time>
      </trkpt>
      <trkpt lat="42.80868" lon="2.29524">
        <ele>633</ele>
        <time>2012-08-12T08:15:16Z</time>
      </trkpt>
      <trkpt lat="42.80866" lon="2.29537">
        <ele>633.2</ele>
        <time>2012-08-12T08:15:18Z</time>
      </trkpt>
      <trkpt lat="42.80865" lon="2.2955">
        <ele>633.5</ele>
        <time>2012-08-12T08:15:20Z</time>
      </trkpt>
      <trkpt lat="42.80864" lon="2.29568">
        <ele>633.5</ele>
        <time>2012-08-12T08:15:23Z</time>
      </trkpt>
      <trkpt lat="42.80863" lon="2.29588">
        <ele>633.7</ele>
        <time>2012-08-12T08:15:27Z</time>
      </trkpt>
      <trkpt lat="42.8086" lon="2.29606">
        <ele>634.2</ele>
        <time>2012-08-12T08:15:31Z</time>
      </trkpt>
      <trkpt lat="42.80859" lon="2.29618">
        <ele>634</ele>
        <time>2012-08-12T08:15:33Z</time>
      </trkpt>
      <trkpt lat="42.80858" lon="2.29639">
        <ele>634</ele>
        <time>2012-08-12T08:15:37Z</time>
      </trkpt>
      <trkpt lat="42.80857" lon="2.2966">
        <ele>634</ele>
        <time>2012-08-12T08:15:41Z</time>
      </trkpt>
      <trkpt lat="42.80854" lon="2.29678">
        <ele>634.5</ele>
        <time>2012-08-12T08:15:44Z</time>
      </trkpt>
      <trkpt lat="42.80852" lon="2.29691">
        <ele>634.9</ele>
        <time>2012-08-12T08:15:46Z</time>
      </trkpt>
      <trkpt lat="42.80852" lon="2.29709">
        <ele>635.2</ele>
        <time>2012-08-12T08:15:49Z</time>
      </trkpt>
      <trkpt lat="42.80853" lon="2.29725">
        <ele>634.2</ele>
        <time>2012-08-12T08:15:51Z</time>
      </trkpt>
      <trkpt lat="42.80853" lon="2.29732">
        <ele>634.2</ele>
        <time>2012-08-12T08:15:52Z</time>
      </trkpt>
      <trkpt lat="42.80852" lon="2.2975">
        <ele>633.5</ele>
        <time>2012-08-12T08:15:55Z</time>
      </trkpt>
      <trkpt lat="42.80851" lon="2.29769">
        <ele>632.5</ele>
        <time>2012-08-12T08:15:58Z</time>
      </trkpt>
      <trkpt lat="42.8085" lon="2.29782">
        <ele>632.2</ele>
        <time>2012-08-12T08:16:00Z</time>
      </trkpt>
      <trkpt lat="42.80848" lon="2.29805">
        <ele>631.7</ele>
        <time>2012-08-12T08:16:04Z</time>
      </trkpt>
      <trkpt lat="42.80845" lon="2.29823">
        <ele>631.5</ele>
        <time>2012-08-12T08:16:07Z</time>
      </trkpt>
      <trkpt lat="42.80844" lon="2.29841">
        <ele>631</ele>
        <time>2012-08-12T08:16:10Z</time>
      </trkpt>
      <trkpt lat="42.80842" lon="2.29865">
        <ele>630.2</ele>
        <time>2012-08-12T08:16:14Z</time>
      </trkpt>
      <trkpt lat="42.80841" lon="2.29875">
        <ele>630.2</ele>
        <time>2012-08-12T08:16:16Z</time>
      </trkpt>
      <trkpt lat="42.80839" lon="2.29893">
        <ele>630</ele>
        <time>2012-08-12T08:16:19Z</time>
      </trkpt>
      <trkpt lat="42.80838" lon="2.29905">
        <ele>629.7</ele>
        <time>2012-08-12T08:16:21Z</time>
      </trkpt>
      <trkpt lat="42.80838" lon="2.29918">
        <ele>629.5</ele>
        <time>2012-08-12T08:16:23Z</time>
      </trkpt>
      <trkpt lat="42.80836" lon="2.29942">
        <ele>627.9</ele>
        <time>2012-08-12T08:16:27Z</time>
      </trkpt>
      <trkpt lat="42.80835" lon="2.29954">
        <ele>627.9</ele>
        <time>2012-08-12T08:16:29Z</time>
      </trkpt>
      <trkpt lat="42.80833" lon="2.29965">
        <ele>627.2</ele>
        <time>2012-08-12T08:16:31Z</time>
      </trkpt>
      <trkpt lat="42.80829" lon="2.29987">
        <ele>627.2</ele>
        <time>2012-08-12T08:16:35Z</time>
      </trkpt>
      <trkpt lat="42.80826" lon="2.30007">
        <ele>626.5</ele>
        <time>2012-08-12T08:16:39Z</time>
      </trkpt>
      <trkpt lat="42.8082" lon="2.30023">
        <ele>625.9</ele>
        <time>2012-08-12T08:16:43Z</time>
      </trkpt>
      <trkpt lat="42.80812" lon="2.30022">
        <ele>625.7</ele>
        <time>2012-08-12T08:16:47Z</time>
      </trkpt>
      <trkpt lat="42.80806" lon="2.30003">
        <ele>625.9</ele>
        <time>2012-08-12T08:16:53Z</time>
      </trkpt>
      <trkpt lat="42.80802" lon="2.29992">
        <ele>624.5</ele>
        <time>2012-08-12T08:18:44Z</time>
      </trkpt>
      <trkpt lat="42.80795" lon="2.29961">
        <ele>618.7</ele>
        <time>2012-08-12T08:25:18Z</time>
      </trkpt>
      <trkpt lat="42.80789" lon="2.29939">
        <ele>617.5</ele>
        <time>2012-08-12T08:25:24Z</time>
      </trkpt>
      <trkpt lat="42.80785" lon="2.29921">
        <ele>616.2</ele>
        <time>2012-08-12T08:25:28Z</time>
      </trkpt>
      <trkpt lat="42.80783" lon="2.2991">
        <ele>616</ele>
        <time>2012-08-12T08:25:30Z</time>
      </trkpt>
      <trkpt lat="42.80779" lon="2.29887">
        <ele>616</ele>
        <time>2012-08-12T08:25:34Z</time>
      </trkpt>
      <trkpt lat="42.80775" lon="2.29869">
        <ele>615.4</ele>
        <time>2012-08-12T08:25:37Z</time>
      </trkpt>
      <trkpt lat="42.80771" lon="2.29857">
        <ele>615</ele>
        <time>2012-08-12T08:25:39Z</time>
      </trkpt>
      <trkpt lat="42.80767" lon="2.29844">
        <ele>614.9</ele>
        <time>2012-08-12T08:25:41Z</time>
      </trkpt>
      <trkpt lat="42.80762" lon="2.29831">
        <ele>615.5</ele>
        <time>2012-08-12T08:25:43Z</time>
      </trkpt>
      <trkpt lat="42.80756" lon="2.29818">
        <ele>616.2</ele>
        <time>2012-08-12T08:25:45Z</time>
      </trkpt>
      <trkpt lat="42.80751" lon="2.29807">
        <ele>616.7</ele>
        <time>2012-08-12T08:25:47Z</time>
      </trkpt>
      <trkpt lat="42.80745" lon="2.29794">
        <ele>617</ele>
        <time>2012-08-12T08:25:49Z</time>
      </trkpt>
      <trkpt lat="42.8074" lon="2.29781">
        <ele>617.4</ele>
        <time>2012-08-12T08:25:51Z</time>
      </trkpt>
      <trkpt lat="42.80734" lon="2.29768">
        <ele>617.5</ele>
        <time>2012-08-12T08:25:53Z</time>
      </trkpt>
      <trkpt lat="42.80727" lon="2.29755">
        <ele>617</ele>
        <time>2012-08-12T08:25:55Z</time>
      </trkpt>
      <trkpt lat="42.80722" lon="2.29742">
        <ele>617</ele>
        <time>2012-08-12T08:25:57Z</time>
      </trkpt>
      <trkpt lat="42.80719" lon="2.29728">
        <ele>617.5</ele>
        <time>2012-08-12T08:25:59Z</time>
      </trkpt>
      <trkpt lat="42.80716" lon="2.29714">
        <ele>617.7</ele>
        <time>2012-08-12T08:26:01Z</time>
      </trkpt>
      <trkpt lat="42.80711" lon="2.29693">
        <ele>617.7</ele>
        <time>2012-08-12T08:26:04Z</time>
      </trkpt>
      <trkpt lat="42.80704" lon="2.29676">
        <ele>617.9</ele>
        <time>2012-08-12T08:26:07Z</time>
      </trkpt>
      <trkpt lat="42.807" lon="2.29669">
        <ele>617.7</ele>
        <time>2012-08-12T08:26:08Z</time>
      </trkpt>
      <trkpt lat="42.80694" lon="2.29658">
        <ele>617.9</ele>
        <time>2012-08-12T08:26:10Z</time>
      </trkpt>
      <trkpt lat="42.80686" lon="2.29648">
        <ele>618</ele>
        <time>2012-08-12T08:26:12Z</time>
      </trkpt>
      <trkpt lat="42.80679" lon="2.29637">
        <ele>617.9</ele>
        <time>2012-08-12T08:26:14Z</time>
      </trkpt>
      <trkpt lat="42.80673" lon="2.29624">
        <ele>618</ele>
        <time>2012-08-12T08:26:16Z</time>
      </trkpt>
      <trkpt lat="42.80666" lon="2.29605">
        <ele>618</ele>
        <time>2012-08-12T08:26:19Z</time>
      </trkpt>
      <trkpt lat="42.80662" lon="2.2959">
        <ele>618.5</ele>
        <time>2012-08-12T08:26:21Z</time>
      </trkpt>
      <trkpt lat="42.80653" lon="2.29572">
        <ele>618.4</ele>
        <time>2012-08-12T08:26:24Z</time>
      </trkpt>
      <trkpt lat="42.80645" lon="2.29555">
        <ele>618.5</ele>
        <time>2012-08-12T08:26:27Z</time>
      </trkpt>
      <trkpt lat="42.80641" lon="2.29546">
        <ele>618.7</ele>
        <time>2012-08-12T08:26:29Z</time>
      </trkpt>
      <trkpt lat="42.80636" lon="2.2953">
        <ele>618.5</ele>
        <time>2012-08-12T08:26:32Z</time>
      </trkpt>
      <trkpt lat="42.80631" lon="2.29509">
        <ele>619.2</ele>
        <time>2012-08-12T08:26:36Z</time>
      </trkpt>
      <trkpt lat="42.80624" lon="2.29489">
        <ele>619.5</ele>
        <time>2012-08-12T08:26:40Z</time>
      </trkpt>
      <trkpt lat="42.80621" lon="2.29479">
        <ele>619.2</ele>
        <time>2012-08-12T08:26:42Z</time>
      </trkpt>
      <trkpt lat="42.80613" lon="2.2946">
        <ele>619.2</ele>
        <time>2012-08-12T08:26:46Z</time>
      </trkpt>
      <trkpt lat="42.80608" lon="2.29452">
        <ele>619.4</ele>
        <time>2012-08-12T08:26:48Z</time>
      </trkpt>
      <trkpt lat="42.80598" lon="2.29435">
        <ele>619.2</ele>
        <time>2012-08-12T08:26:52Z</time>
      </trkpt>
      <trkpt lat="42.80589" lon="2.29422">
        <ele>619.7</ele>
        <time>2012-08-12T08:26:56Z</time>
      </trkpt>
      <trkpt lat="42.80584" lon="2.29414">
        <ele>620</ele>
        <time>2012-08-12T08:26:58Z</time>
      </trkpt>
      <trkpt lat="42.80573" lon="2.29399">
        <ele>620</ele>
        <time>2012-08-12T08:27:02Z</time>
      </trkpt>
      <trkpt lat="42.80562" lon="2.29383">
        <ele>620.5</ele>
        <time>2012-08-12T08:27:06Z</time>
      </trkpt>
      <trkpt lat="42.80557" lon="2.29375">
        <ele>620.2</ele>
        <time>2012-08-12T08:27:08Z</time>
      </trkpt>
      <trkpt lat="42.80548" lon="2.29358">
        <ele>620.7</ele>
        <time>2012-08-12T08:27:12Z</time>
      </trkpt>
      <trkpt lat="42.80542" lon="2.29344">
        <ele>620.5</ele>
        <time>2012-08-12T08:27:15Z</time>
      </trkpt>
      <trkpt lat="42.80537" lon="2.29332">
        <ele>619</ele>
        <time>2012-08-12T08:27:18Z</time>
      </trkpt>
      <trkpt lat="42.80529" lon="2.29316">
        <ele>618.4</ele>
        <time>2012-08-12T08:27:22Z</time>
      </trkpt>
      <trkpt lat="42.80522" lon="2.29299">
        <ele>617</ele>
        <time>2012-08-12T08:27:26Z</time>
      </trkpt>
      <trkpt lat="42.80515" lon="2.29282">
        <ele>614.7</ele>
        <time>2012-08-12T08:27:30Z</time>
      </trkpt>
      <trkpt lat="42.80509" lon="2.29266">
        <ele>617.2</ele>
        <time>2012-08-12T08:27:34Z</time>
      </trkpt>
      <trkpt lat="42.80498" lon="2.29254">
        <ele>620.2</ele>
        <time>2012-08-12T08:27:38Z</time>
      </trkpt>
      <trkpt lat="42.80483" lon="2.29255">
        <ele>620.2</ele>
        <time>2012-08-12T08:27:42Z</time>
      </trkpt>
      <trkpt lat="42.80468" lon="2.29257">
        <ele>621</ele>
        <time>2012-08-12T08:27:46Z</time>
      </trkpt>
      <trkpt lat="42.80451" lon="2.29252">
        <ele>621.5</ele>
        <time>2012-08-12T08:27:50Z</time>
      </trkpt>
      <trkpt lat="42.80443" lon="2.29251">
        <ele>621.7</ele>
        <time>2012-08-12T08:27:52Z</time>
      </trkpt>
      <trkpt lat="42.80435" lon="2.29249">
        <ele>621.9</ele>
        <time>2012-08-12T08:27:54Z</time>
      </trkpt>
      <trkpt lat="42.80427" lon="2.29247">
        <ele>622</ele>
        <time>2012-08-12T08:27:56Z</time>
      </trkpt>
      <trkpt lat="42.80414" lon="2.29236">
        <ele>622.2</ele>
        <time>2012-08-12T08:28:00Z</time>
      </trkpt>
      <trkpt lat="42.804" lon="2.29231">
        <ele>622.5</ele>
        <time>2012-08-12T08:28:04Z</time>
      </trkpt>
      <trkpt lat="42.80391" lon="2.29233">
        <ele>622.5</ele>
        <time>2012-08-12T08:28:06Z</time>
      </trkpt>
      <trkpt lat="42.80379" lon="2.29237">
        <ele>622.4</ele>
        <time>2012-08-12T08:28:09Z</time>
      </trkpt>
      <trkpt lat="42.80365" lon="2.29232">
        <ele>621.7</ele>
        <time>2012-08-12T08:28:12Z</time>
      </trkpt>
      <trkpt lat="42.80359" lon="2.29225">
        <ele>621.5</ele>
        <time>2012-08-12T08:28:14Z</time>
      </trkpt>
      <trkpt lat="42.80353" lon="2.29215">
        <ele>621</ele>
        <time>2012-08-12T08:28:16Z</time>
      </trkpt>
      <trkpt lat="42.8035" lon="2.29202">
        <ele>620.2</ele>
        <time>2012-08-12T08:28:18Z</time>
      </trkpt>
      <trkpt lat="42.80344" lon="2.29189">
        <ele>619.5</ele>
        <time>2012-08-12T08:28:20Z</time>
      </trkpt>
      <trkpt lat="42.8034" lon="2.29183">
        <ele>619.5</ele>
        <time>2012-08-12T08:28:21Z</time>
      </trkpt>
      <trkpt lat="42.80331" lon="2.29173">
        <ele>619</ele>
        <time>2012-08-12T08:28:23Z</time>
      </trkpt>
      <trkpt lat="42.80327" lon="2.29169">
        <ele>618.5</ele>
        <time>2012-08-12T08:28:24Z</time>
      </trkpt>
      <trkpt lat="42.80317" lon="2.29162">
        <ele>618.4</ele>
        <time>2012-08-12T08:28:26Z</time>
      </trkpt>
      <trkpt lat="42.80312" lon="2.2916">
        <ele>618</ele>
        <time>2012-08-12T08:28:27Z</time>
      </trkpt>
      <trkpt lat="42.80302" lon="2.29165">
        <ele>618</ele>
        <time>2012-08-12T08:28:29Z</time>
      </trkpt>
      <trkpt lat="42.80298" lon="2.29176">
        <ele>618.2</ele>
        <time>2012-08-12T08:28:31Z</time>
      </trkpt>
      <trkpt lat="42.80296" lon="2.29191">
        <ele>618.2</ele>
        <time>2012-08-12T08:28:33Z</time>
      </trkpt>
      <trkpt lat="42.80294" lon="2.29203">
        <ele>618.7</ele>
        <time>2012-08-12T08:28:35Z</time>
      </trkpt>
      <trkpt lat="42.80292" lon="2.29216">
        <ele>619.5</ele>
        <time>2012-08-12T08:28:37Z</time>
      </trkpt>
      <trkpt lat="42.80289" lon="2.29234">
        <ele>619.9</ele>
        <time>2012-08-12T08:28:40Z</time>
      </trkpt>
      <trkpt lat="42.80286" lon="2.29249">
        <ele>620.5</ele>
        <time>2012-08-12T08:28:43Z</time>
      </trkpt>
      <trkpt lat="42.80281" lon="2.29263">
        <ele>621.2</ele>
        <time>2012-08-12T08:28:45Z</time>
      </trkpt>
      <trkpt lat="42.80276" lon="2.29281">
        <ele>621.9</ele>
        <time>2012-08-12T08:28:48Z</time>
      </trkpt>
      <trkpt lat="42.80274" lon="2.29295">
        <ele>622.2</ele>
        <time>2012-08-12T08:28:50Z</time>
      </trkpt>
      <trkpt lat="42.80275" lon="2.29311">
        <ele>620.7</ele>
        <time>2012-08-12T08:28:52Z</time>
      </trkpt>
      <trkpt lat="42.80277" lon="2.29324">
        <ele>621.2</ele>
        <time>2012-08-12T08:28:54Z</time>
      </trkpt>
      <trkpt lat="42.80282" lon="2.29344">
        <ele>619.5</ele>
        <time>2012-08-12T08:28:57Z</time>
      </trkpt>
      <trkpt lat="42.80286" lon="2.29357">
        <ele>618.9</ele>
        <time>2012-08-12T08:28:59Z</time>
      </trkpt>
      <trkpt lat="42.80289" lon="2.2937">
        <ele>618.4</ele>
        <time>2012-08-12T08:29:01Z</time>
      </trkpt>
      <trkpt lat="42.80292" lon="2.29384">
        <ele>618.2</ele>
        <time>2012-08-12T08:29:03Z</time>
      </trkpt>
      <trkpt lat="42.80296" lon="2.29396">
        <ele>618.2</ele>
        <time>2012-08-12T08:29:05Z</time>
      </trkpt>
      <trkpt lat="42.803" lon="2.29402">
        <ele>617.9</ele>
        <time>2012-08-12T08:29:06Z</time>
      </trkpt>
      <trkpt lat="42.80308" lon="2.29412">
        <ele>617.4</ele>
        <time>2012-08-12T08:29:08Z</time>
      </trkpt>
      <trkpt lat="42.80317" lon="2.29423">
        <ele>616.7</ele>
        <time>2012-08-12T08:29:10Z</time>
      </trkpt>
      <trkpt lat="42.80322" lon="2.29429">
        <ele>617</ele>
        <time>2012-08-12T08:29:11Z</time>
      </trkpt>
      <trkpt lat="42.80329" lon="2.29441">
        <ele>616.9</ele>
        <time>2012-08-12T08:29:13Z</time>
      </trkpt>
      <trkpt lat="42.80337" lon="2.29458">
        <ele>616.9</ele>
        <time>2012-08-12T08:29:16Z</time>
      </trkpt>
      <trkpt lat="42.80342" lon="2.2947">
        <ele>616.7</ele>
        <time>2012-08-12T08:29:18Z</time>
      </trkpt>
      <trkpt lat="42.80347" lon="2.29489">
        <ele>615.7</ele>
        <time>2012-08-12T08:29:21Z</time>
      </trkpt>
      <trkpt lat="42.80352" lon="2.29503">
        <ele>614.5</ele>
        <time>2012-08-12T08:29:23Z</time>
      </trkpt>
      <trkpt lat="42.80358" lon="2.29518">
        <ele>613.4</ele>
        <time>2012-08-12T08:29:25Z</time>
      </trkpt>
      <trkpt lat="42.80366" lon="2.29533">
        <ele>611.7</ele>
        <time>2012-08-12T08:29:27Z</time>
      </trkpt>
      <trkpt lat="42.8037" lon="2.2954">
        <ele>611.2</ele>
        <time>2012-08-12T08:29:28Z</time>
      </trkpt>
      <trkpt lat="42.80377" lon="2.29552">
        <ele>610</ele>
        <time>2012-08-12T08:29:30Z</time>
      </trkpt>
      <trkpt lat="42.80381" lon="2.29569">
        <ele>608.5</ele>
        <time>2012-08-12T08:29:33Z</time>
      </trkpt>
      <trkpt lat="42.80379" lon="2.2958">
        <ele>606.2</ele>
        <time>2012-08-12T08:29:36Z</time>
      </trkpt>
      <trkpt lat="42.80373" lon="2.2957">
        <ele>611.7</ele>
        <time>2012-08-12T08:31:03Z</time>
      </trkpt>
      <trkpt lat="42.80353" lon="2.29583">
        <ele>603.7</ele>
        <time>2012-08-12T08:35:28Z</time>
      </trkpt>
      <trkpt lat="42.80348" lon="2.29588">
        <ele>603.7</ele>
        <time>2012-08-12T08:35:30Z</time>
      </trkpt>
      <trkpt lat="42.80343" lon="2.29598">
        <ele>603.5</ele>
        <time>2012-08-12T08:35:32Z</time>
      </trkpt>
      <trkpt lat="42.80333" lon="2.29614">
        <ele>603</ele>
        <time>2012-08-12T08:35:34Z</time>
      </trkpt>
      <trkpt lat="42.80321" lon="2.29624">
        <ele>602.7</ele>
        <time>2012-08-12T08:35:36Z</time>
      </trkpt>
      <trkpt lat="42.80315" lon="2.2963">
        <ele>602.5</ele>
        <time>2012-08-12T08:35:37Z</time>
      </trkpt>
      <trkpt lat="42.80304" lon="2.29641">
        <ele>601.9</ele>
        <time>2012-08-12T08:35:39Z</time>
      </trkpt>
      <trkpt lat="42.80296" lon="2.29648">
        <ele>601.4</ele>
        <time>2012-08-12T08:35:41Z</time>
      </trkpt>
      <trkpt lat="42.8029" lon="2.29655">
        <ele>601.2</ele>
        <time>2012-08-12T08:35:43Z</time>
      </trkpt>
      <trkpt lat="42.80281" lon="2.29666">
        <ele>601.2</ele>
        <time>2012-08-12T08:35:45Z</time>
      </trkpt>
      <trkpt lat="42.80273" lon="2.29677">
        <ele>600.7</ele>
        <time>2012-08-12T08:35:47Z</time>
      </trkpt>
      <trkpt lat="42.80264" lon="2.29692">
        <ele>600.5</ele>
        <time>2012-08-12T08:35:49Z</time>
      </trkpt>
      <trkpt lat="42.80259" lon="2.29699">
        <ele>600.2</ele>
        <time>2012-08-12T08:35:50Z</time>
      </trkpt>
      <trkpt lat="42.80252" lon="2.29708">
        <ele>600</ele>
        <time>2012-08-12T08:35:52Z</time>
      </trkpt>
      <trkpt lat="42.80246" lon="2.29721">
        <ele>599.7</ele>
        <time>2012-08-12T08:35:54Z</time>
      </trkpt>
      <trkpt lat="42.80239" lon="2.29737">
        <ele>599.5</ele>
        <time>2012-08-12T08:35:57Z</time>
      </trkpt>
      <trkpt lat="42.80235" lon="2.29746">
        <ele>599.4</ele>
        <time>2012-08-12T08:35:59Z</time>
      </trkpt>
      <trkpt lat="42.80228" lon="2.29758">
        <ele>599</ele>
        <time>2012-08-12T08:36:03Z</time>
      </trkpt>
      <trkpt lat="42.8022" lon="2.29774">
        <ele>598.9</ele>
        <time>2012-08-12T08:36:06Z</time>
      </trkpt>
      <trkpt lat="42.80213" lon="2.29787">
        <ele>598.7</ele>
        <time>2012-08-12T08:36:08Z</time>
      </trkpt>
      <trkpt lat="42.80207" lon="2.29802">
        <ele>598.7</ele>
        <time>2012-08-12T08:36:10Z</time>
      </trkpt>
      <trkpt lat="42.80204" lon="2.29811">
        <ele>598.5</ele>
        <time>2012-08-12T08:36:11Z</time>
      </trkpt>
      <trkpt lat="42.80197" lon="2.29827">
        <ele>598</ele>
        <time>2012-08-12T08:36:13Z</time>
      </trkpt>
      <trkpt lat="42.80191" lon="2.29842">
        <ele>597.9</ele>
        <time>2012-08-12T08:36:15Z</time>
      </trkpt>
      <trkpt lat="42.80187" lon="2.29852">
        <ele>597.7</ele>
        <time>2012-08-12T08:36:16Z</time>
      </trkpt>
      <trkpt lat="42.80181" lon="2.29871">
        <ele>597.5</ele>
        <time>2012-08-12T08:36:18Z</time>
      </trkpt>
      <trkpt lat="42.80174" lon="2.29888">
        <ele>597.5</ele>
        <time>2012-08-12T08:36:20Z</time>
      </trkpt>
      <trkpt lat="42.80167" lon="2.29902">
        <ele>596.9</ele>
        <time>2012-08-12T08:36:22Z</time>
      </trkpt>
      <trkpt lat="42.80161" lon="2.2992">
        <ele>596.5</ele>
        <time>2012-08-12T08:36:24Z</time>
      </trkpt>
      <trkpt lat="42.80155" lon="2.29942">
        <ele>596.2</ele>
        <time>2012-08-12T08:36:26Z</time>
      </trkpt>
      <trkpt lat="42.80152" lon="2.29952">
        <ele>595.7</ele>
        <time>2012-08-12T08:36:27Z</time>
      </trkpt>
      <trkpt lat="42.8015" lon="2.29965">
        <ele>595</ele>
        <time>2012-08-12T08:36:29Z</time>
      </trkpt>
      <trkpt lat="42.80148" lon="2.29971">
        <ele>594.5</ele>
        <time>2012-08-12T08:36:30Z</time>
      </trkpt>
      <trkpt lat="42.80145" lon="2.29992">
        <ele>592.4</ele>
        <time>2012-08-12T08:36:34Z</time>
      </trkpt>
      <trkpt lat="42.80142" lon="2.30007">
        <ele>590.2</ele>
        <time>2012-08-12T08:36:37Z</time>
      </trkpt>
      <trkpt lat="42.80142" lon="2.30026">
        <ele>588.7</ele>
        <time>2012-08-12T08:36:41Z</time>
      </trkpt>
      <trkpt lat="42.80138" lon="2.30042">
        <ele>587.5</ele>
        <time>2012-08-12T08:36:44Z</time>
      </trkpt>
      <trkpt lat="42.80129" lon="2.30055">
        <ele>586.7</ele>
        <time>2012-08-12T08:36:47Z</time>
      </trkpt>
      <trkpt lat="42.80123" lon="2.30068">
        <ele>585.5</ele>
        <time>2012-08-12T08:36:49Z</time>
      </trkpt>
      <trkpt lat="42.80122" lon="2.30075">
        <ele>584.7</ele>
        <time>2012-08-12T08:36:50Z</time>
      </trkpt>
      <trkpt lat="42.80116" lon="2.30094">
        <ele>583.2</ele>
        <time>2012-08-12T08:36:53Z</time>
      </trkpt>
      <trkpt lat="42.80113" lon="2.30114">
        <ele>582.5</ele>
        <time>2012-08-12T08:36:57Z</time>
      </trkpt>
      <trkpt lat="42.80112" lon="2.30132">
        <ele>581</ele>
        <time>2012-08-12T08:37:00Z</time>
      </trkpt>
      <trkpt lat="42.80113" lon="2.30147">
        <ele>580.5</ele>
        <time>2012-08-12T08:37:03Z</time>
      </trkpt>
      <trkpt lat="42.80115" lon="2.30162">
        <ele>579.7</ele>
        <time>2012-08-12T08:37:05Z</time>
      </trkpt>
      <trkpt lat="42.80116" lon="2.30178">
        <ele>579.2</ele>
        <time>2012-08-12T08:37:07Z</time>
      </trkpt>
      <trkpt lat="42.80113" lon="2.30194">
        <ele>578.9</ele>
        <time>2012-08-12T08:37:09Z</time>
      </trkpt>
      <trkpt lat="42.80112" lon="2.30203">
        <ele>578.4</ele>
        <time>2012-08-12T08:37:10Z</time>
      </trkpt>
      <trkpt lat="42.80108" lon="2.30223">
        <ele>577.7</ele>
        <time>2012-08-12T08:37:14Z</time>
      </trkpt>
      <trkpt lat="42.80111" lon="2.3024">
        <ele>576.7</ele>
        <time>2012-08-12T08:37:18Z</time>
      </trkpt>
      <trkpt lat="42.80112" lon="2.30252">
        <ele>575.9</ele>
        <time>2012-08-12T08:37:21Z</time>
      </trkpt>
      <trkpt lat="42.80107" lon="2.3027">
        <ele>574.9</ele>
        <time>2012-08-12T08:37:25Z</time>
      </trkpt>
      <trkpt lat="42.80102" lon="2.30282">
        <ele>574.2</ele>
        <time>2012-08-12T08:37:29Z</time>
      </trkpt>
      <trkpt lat="42.80097" lon="2.30294">
        <ele>573.2</ele>
        <time>2012-08-12T08:37:31Z</time>
      </trkpt>
      <trkpt lat="42.80089" lon="2.30306">
        <ele>572.5</ele>
        <time>2012-08-12T08:37:33Z</time>
      </trkpt>
      <trkpt lat="42.80081" lon="2.30321">
        <ele>571.5</ele>
        <time>2012-08-12T08:37:37Z</time>
      </trkpt>
      <trkpt lat="42.80074" lon="2.30331">
        <ele>570.5</ele>
        <time>2012-08-12T08:37:39Z</time>
      </trkpt>
      <trkpt lat="42.80069" lon="2.30339">
        <ele>570</ele>
        <time>2012-08-12T08:37:40Z</time>
      </trkpt>
      <trkpt lat="42.80062" lon="2.30346">
        <ele>568.2</ele>
        <time>2012-08-12T08:37:42Z</time>
      </trkpt>
      <trkpt lat="42.80063" lon="2.30366">
        <ele>561</ele>
        <time>2012-08-12T08:37:52Z</time>
      </trkpt>
      <trkpt lat="42.80058" lon="2.30386">
        <ele>560.4</ele>
        <time>2012-08-12T08:37:56Z</time>
      </trkpt>
      <trkpt lat="42.80059" lon="2.30403">
        <ele>559.9</ele>
        <time>2012-08-12T08:37:58Z</time>
      </trkpt>
      <trkpt lat="42.80061" lon="2.30421">
        <ele>558.7</ele>
        <time>2012-08-12T08:38:01Z</time>
      </trkpt>
      <trkpt lat="42.80057" lon="2.3044">
        <ele>557.5</ele>
        <time>2012-08-12T08:38:06Z</time>
      </trkpt>
      <trkpt lat="42.80042" lon="2.30437">
        <ele>553.4</ele>
        <time>2012-08-12T08:38:11Z</time>
      </trkpt>
      <trkpt lat="42.80051" lon="2.30438">
        <ele>543.2</ele>
        <time>2012-08-12T08:38:23Z</time>
      </trkpt>
      <trkpt lat="42.8005" lon="2.3045">
        <ele>535</ele>
        <time>2012-08-12T08:38:33Z</time>
      </trkpt>
      <trkpt lat="42.80059" lon="2.30468">
        <ele>507.7</ele>
        <time>2012-08-12T08:39:08Z</time>
      </trkpt>
      <trkpt lat="42.80065" lon="2.30486">
        <ele>504.2</ele>
        <time>2012-08-12T08:39:12Z</time>
      </trkpt>
      <trkpt lat="42.80071" lon="2.30495">
        <ele>461.2</ele>
        <time>2012-08-12T08:46:00Z</time>
      </trkpt>
      <trkpt lat="42.80081" lon="2.30514">
        <ele>463</ele>
        <time>2012-08-12T08:46:09Z</time>
      </trkpt>
      <trkpt lat="42.80092" lon="2.30527">
        <ele>463.3</ele>
        <time>2012-08-12T08:46:15Z</time>
      </trkpt>
      <trkpt lat="42.80107" lon="2.30529">
        <ele>463.1</ele>
        <time>2012-08-12T08:46:22Z</time>
      </trkpt>
      <trkpt lat="42.80115" lon="2.30525">
        <ele>463</ele>
        <time>2012-08-12T08:46:24Z</time>
      </trkpt>
      <trkpt lat="42.80127" lon="2.30523">
        <ele>462.8</ele>
        <time>2012-08-12T08:46:27Z</time>
      </trkpt>
      <trkpt lat="42.80137" lon="2.30539">
        <ele>463</ele>
        <time>2012-08-12T08:46:34Z</time>
      </trkpt>
      <trkpt lat="42.80134" lon="2.30558">
        <ele>463</ele>
        <time>2012-08-12T08:46:42Z</time>
      </trkpt>
      <trkpt lat="42.80129" lon="2.30566">
        <ele>463.6</ele>
        <time>2012-08-12T08:46:46Z</time>
      </trkpt>
      <trkpt lat="42.80117" lon="2.30582">
        <ele>465.2</ele>
        <time>2012-08-12T08:46:56Z</time>
      </trkpt>
      <trkpt lat="42.80111" lon="2.3059">
        <ele>466.1</ele>
        <time>2012-08-12T08:47:01Z</time>
      </trkpt>
      <trkpt lat="42.80099" lon="2.30605">
        <ele>467.2</ele>
        <time>2012-08-12T08:47:11Z</time>
      </trkpt>
      <trkpt lat="42.80085" lon="2.30616">
        <ele>468.1</ele>
        <time>2012-08-12T08:47:21Z</time>
      </trkpt>
      <trkpt lat="42.8007" lon="2.30625">
        <ele>468.8</ele>
        <time>2012-08-12T08:47:31Z</time>
      </trkpt>
      <trkpt lat="42.80062" lon="2.3063">
        <ele>468.6</ele>
        <time>2012-08-12T08:47:36Z</time>
      </trkpt>
      <trkpt lat="42.80055" lon="2.30634">
        <ele>469</ele>
        <time>2012-08-12T08:47:41Z</time>
      </trkpt>
      <trkpt lat="42.8004" lon="2.30642">
        <ele>470.2</ele>
        <time>2012-08-12T08:47:51Z</time>
      </trkpt>
      <trkpt lat="42.80032" lon="2.30647">
        <ele>470.2</ele>
        <time>2012-08-12T08:47:57Z</time>
      </trkpt>
      <trkpt lat="42.80022" lon="2.30654">
        <ele>470.2</ele>
        <time>2012-08-12T08:48:03Z</time>
      </trkpt>
      <trkpt lat="42.80005" lon="2.30672">
        <ele>474.8</ele>
        <time>2012-08-12T08:48:17Z</time>
      </trkpt>
      <trkpt lat="42.79993" lon="2.30688">
        <ele>476.7</ele>
        <time>2012-08-12T08:48:26Z</time>
      </trkpt>
      <trkpt lat="42.79983" lon="2.30704">
        <ele>478.1</ele>
        <time>2012-08-12T08:48:34Z</time>
      </trkpt>
      <trkpt lat="42.79971" lon="2.30718">
        <ele>479.2</ele>
        <time>2012-08-12T08:48:42Z</time>
      </trkpt>
      <trkpt lat="42.79961" lon="2.30734">
        <ele>479.7</ele>
        <time>2012-08-12T08:48:50Z</time>
      </trkpt>
      <trkpt lat="42.79953" lon="2.30752">
        <ele>480.3</ele>
        <time>2012-08-12T08:48:58Z</time>
      </trkpt>
      <trkpt lat="42.79944" lon="2.30771">
        <ele>482.7</ele>
        <time>2012-08-12T08:49:07Z</time>
      </trkpt>
      <trkpt lat="42.79943" lon="2.30773">
        <ele>482.7</ele>
        <time>2012-08-12T08:49:08Z</time>
      </trkpt>
      <trkpt lat="42.79927" lon="2.30796">
        <ele>487.2</ele>
        <time>2012-08-12T08:49:21Z</time>
      </trkpt>
      <trkpt lat="42.79917" lon="2.30813">
        <ele>489.3</ele>
        <time>2012-08-12T08:49:30Z</time>
      </trkpt>
      <trkpt lat="42.79907" lon="2.30829">
        <ele>490.7</ele>
        <time>2012-08-12T08:49:38Z</time>
      </trkpt>
      <trkpt lat="42.79898" lon="2.30845">
        <ele>491.8</ele>
        <time>2012-08-12T08:49:46Z</time>
      </trkpt>
      <trkpt lat="42.79889" lon="2.30862">
        <ele>493</ele>
        <time>2012-08-12T08:49:54Z</time>
      </trkpt>
      <trkpt lat="42.79879" lon="2.30877">
        <ele>494.6</ele>
        <time>2012-08-12T08:50:02Z</time>
      </trkpt>
      <trkpt lat="42.79868" lon="2.30893">
        <ele>496.7</ele>
        <time>2012-08-12T08:50:11Z</time>
      </trkpt>
      <trkpt lat="42.79867" lon="2.30894">
        <ele>496.7</ele>
        <time>2012-08-12T08:50:12Z</time>
      </trkpt>
      <trkpt lat="42.79852" lon="2.30914">
        <ele>499.2</ele>
        <time>2012-08-12T08:50:23Z</time>
      </trkpt>
      <trkpt lat="42.79847" lon="2.30921">
        <ele>499.8</ele>
        <time>2012-08-12T08:50:27Z</time>
      </trkpt>
      <trkpt lat="42.79836" lon="2.30937">
        <ele>501.7</ele>
        <time>2012-08-12T08:50:36Z</time>
      </trkpt>
      <trkpt lat="42.79828" lon="2.30954">
        <ele>503</ele>
        <time>2012-08-12T08:50:44Z</time>
      </trkpt>
      <trkpt lat="42.79821" lon="2.30972">
        <ele>504.6</ele>
        <time>2012-08-12T08:50:52Z</time>
      </trkpt>
      <trkpt lat="42.7981" lon="2.30987">
        <ele>504.7</ele>
        <time>2012-08-12T08:51:01Z</time>
      </trkpt>
      <trkpt lat="42.79795" lon="2.30993">
        <ele>505.2</ele>
        <time>2012-08-12T08:51:09Z</time>
      </trkpt>
      <trkpt lat="42.79785" lon="2.30994">
        <ele>506.1</ele>
        <time>2012-08-12T08:51:15Z</time>
      </trkpt>
      <trkpt lat="42.79771" lon="2.31003">
        <ele>507.1</ele>
        <time>2012-08-12T08:51:24Z</time>
      </trkpt>
      <trkpt lat="42.79764" lon="2.3101">
        <ele>509.7</ele>
        <time>2012-08-12T08:51:29Z</time>
      </trkpt>
      <trkpt lat="42.79755" lon="2.31025">
        <ele>511.5</ele>
        <time>2012-08-12T08:51:37Z</time>
      </trkpt>
      <trkpt lat="42.79751" lon="2.31035">
        <ele>512.5</ele>
        <time>2012-08-12T08:51:42Z</time>
      </trkpt>
      <trkpt lat="42.79746" lon="2.31054">
        <ele>514.4</ele>
        <time>2012-08-12T08:51:50Z</time>
      </trkpt>
      <trkpt lat="42.79747" lon="2.31076">
        <ele>515</ele>
        <time>2012-08-12T08:51:59Z</time>
      </trkpt>
      <trkpt lat="42.79747" lon="2.31096">
        <ele>517.2</ele>
        <time>2012-08-12T08:52:07Z</time>
      </trkpt>
      <trkpt lat="42.79745" lon="2.31118">
        <ele>521</ele>
        <time>2012-08-12T08:52:16Z</time>
      </trkpt>
      <trkpt lat="42.79745" lon="2.31121">
        <ele>521</ele>
        <time>2012-08-12T08:52:17Z</time>
      </trkpt>
      <trkpt lat="42.79744" lon="2.3114">
        <ele>525.2</ele>
        <time>2012-08-12T08:52:25Z</time>
      </trkpt>
      <trkpt lat="42.79741" lon="2.31162">
        <ele>526.5</ele>
        <time>2012-08-12T08:52:34Z</time>
      </trkpt>
      <trkpt lat="42.79738" lon="2.31181">
        <ele>529.7</ele>
        <time>2012-08-12T08:52:42Z</time>
      </trkpt>
      <trkpt lat="42.79735" lon="2.31191">
        <ele>529.4</ele>
        <time>2012-08-12T08:52:46Z</time>
      </trkpt>
      <trkpt lat="42.7973" lon="2.31202">
        <ele>530.4</ele>
        <time>2012-08-12T08:52:51Z</time>
      </trkpt>
      <trkpt lat="42.79727" lon="2.31213">
        <ele>531.5</ele>
        <time>2012-08-12T08:52:56Z</time>
      </trkpt>
      <trkpt lat="42.79726" lon="2.31225">
        <ele>532</ele>
        <time>2012-08-12T08:53:01Z</time>
      </trkpt>
      <trkpt lat="42.79737" lon="2.31238">
        <ele>532.7</ele>
        <time>2012-08-12T08:53:09Z</time>
      </trkpt>
      <trkpt lat="42.79746" lon="2.31235">
        <ele>532.4</ele>
        <time>2012-08-12T08:53:14Z</time>
      </trkpt>
      <trkpt lat="42.79752" lon="2.31225">
        <ele>532.4</ele>
        <time>2012-08-12T08:53:18Z</time>
      </trkpt>
      <trkpt lat="42.7976" lon="2.31209">
        <ele>532.4</ele>
        <time>2012-08-12T08:53:25Z</time>
      </trkpt>
      <trkpt lat="42.79769" lon="2.31191">
        <ele>534.2</ele>
        <time>2012-08-12T08:53:33Z</time>
      </trkpt>
      <trkpt lat="42.79774" lon="2.31182">
        <ele>535.7</ele>
        <time>2012-08-12T08:53:37Z</time>
      </trkpt>
      <trkpt lat="42.79784" lon="2.31168">
        <ele>537.5</ele>
        <time>2012-08-12T08:53:45Z</time>
      </trkpt>
      <trkpt lat="42.79798" lon="2.31152">
        <ele>539.7</ele>
        <time>2012-08-12T08:53:55Z</time>
      </trkpt>
      <trkpt lat="42.7981" lon="2.31141">
        <ele>539.9</ele>
        <time>2012-08-12T08:54:03Z</time>
      </trkpt>
      <trkpt lat="42.79825" lon="2.31136">
        <ele>541.7</ele>
        <time>2012-08-12T08:54:11Z</time>
      </trkpt>
      <trkpt lat="42.79839" lon="2.31134">
        <ele>542</ele>
        <time>2012-08-12T08:54:19Z</time>
      </trkpt>
      <trkpt lat="42.79854" lon="2.31125">
        <ele>543.9</ele>
        <time>2012-08-12T08:54:28Z</time>
      </trkpt>
      <trkpt lat="42.79865" lon="2.3111">
        <ele>546</ele>
        <time>2012-08-12T08:54:36Z</time>
      </trkpt>
      <trkpt lat="42.79871" lon="2.31102">
        <ele>545.2</ele>
        <time>2012-08-12T08:54:40Z</time>
      </trkpt>
      <trkpt lat="42.79885" lon="2.311">
        <ele>546.5</ele>
        <time>2012-08-12T08:54:48Z</time>
      </trkpt>
      <trkpt lat="42.79889" lon="2.3111">
        <ele>548</ele>
        <time>2012-08-12T08:54:53Z</time>
      </trkpt>
      <trkpt lat="42.79884" lon="2.31131">
        <ele>548.2</ele>
        <time>2012-08-12T08:55:02Z</time>
      </trkpt>
      <trkpt lat="42.79874" lon="2.31146">
        <ele>550.2</ele>
        <time>2012-08-12T08:55:10Z</time>
      </trkpt>
      <trkpt lat="42.79864" lon="2.31164">
        <ele>552.2</ele>
        <time>2012-08-12T08:55:18Z</time>
      </trkpt>
      <trkpt lat="42.79858" lon="2.31174">
        <ele>552.9</ele>
        <time>2012-08-12T08:55:23Z</time>
      </trkpt>
      <trkpt lat="42.79851" lon="2.31191">
        <ele>554.4</ele>
        <time>2012-08-12T08:55:31Z</time>
      </trkpt>
      <trkpt lat="42.79849" lon="2.31203">
        <ele>555</ele>
        <time>2012-08-12T08:55:36Z</time>
      </trkpt>
      <trkpt lat="42.79843" lon="2.31224">
        <ele>558</ele>
        <time>2012-08-12T08:55:45Z</time>
      </trkpt>
      <trkpt lat="42.79841" lon="2.31234">
        <ele>559.5</ele>
        <time>2012-08-12T08:55:49Z</time>
      </trkpt>
      <trkpt lat="42.79841" lon="2.31254">
        <ele>562</ele>
        <time>2012-08-12T08:55:57Z</time>
      </trkpt>
      <trkpt lat="42.79845" lon="2.31274">
        <ele>563.2</ele>
        <time>2012-08-12T08:56:05Z</time>
      </trkpt>
      <trkpt lat="42.79845" lon="2.31284">
        <ele>565.2</ele>
        <time>2012-08-12T08:56:09Z</time>
      </trkpt>
      <trkpt lat="42.79842" lon="2.31296">
        <ele>566.9</ele>
        <time>2012-08-12T08:56:14Z</time>
      </trkpt>
      <trkpt lat="42.79837" lon="2.31306">
        <ele>567.5</ele>
        <time>2012-08-12T08:56:19Z</time>
      </trkpt>
      <trkpt lat="42.79826" lon="2.3132">
        <ele>568.5</ele>
        <time>2012-08-12T08:56:27Z</time>
      </trkpt>
      <trkpt lat="42.79815" lon="2.31337">
        <ele>570</ele>
        <time>2012-08-12T08:56:36Z</time>
      </trkpt>
      <trkpt lat="42.79809" lon="2.31355">
        <ele>571.2</ele>
        <time>2012-08-12T08:56:44Z</time>
      </trkpt>
      <trkpt lat="42.79803" lon="2.31374">
        <ele>573</ele>
        <time>2012-08-12T08:56:52Z</time>
      </trkpt>
      <trkpt lat="42.79793" lon="2.3139">
        <ele>575.5</ele>
        <time>2012-08-12T08:57:01Z</time>
      </trkpt>
      <trkpt lat="42.79787" lon="2.31409">
        <ele>576.5</ele>
        <time>2012-08-12T08:57:09Z</time>
      </trkpt>
      <trkpt lat="42.79787" lon="2.31419">
        <ele>577.9</ele>
        <time>2012-08-12T08:57:13Z</time>
      </trkpt>
      <trkpt lat="42.7979" lon="2.31439">
        <ele>580.4</ele>
        <time>2012-08-12T08:57:21Z</time>
      </trkpt>
      <trkpt lat="42.79791" lon="2.31449">
        <ele>581</ele>
        <time>2012-08-12T08:57:25Z</time>
      </trkpt>
      <trkpt lat="42.79792" lon="2.31462">
        <ele>582</ele>
        <time>2012-08-12T08:57:30Z</time>
      </trkpt>
      <trkpt lat="42.79793" lon="2.3149">
        <ele>584.7</ele>
        <time>2012-08-12T08:57:41Z</time>
      </trkpt>
      <trkpt lat="42.79792" lon="2.31499">
        <ele>585</ele>
        <time>2012-08-12T08:57:45Z</time>
      </trkpt>
      <trkpt lat="42.7979" lon="2.3152">
        <ele>586.5</ele>
        <time>2012-08-12T08:57:53Z</time>
      </trkpt>
      <trkpt lat="42.79788" lon="2.3153">
        <ele>586.7</ele>
        <time>2012-08-12T08:57:57Z</time>
      </trkpt>
      <trkpt lat="42.79783" lon="2.3155">
        <ele>586.9</ele>
        <time>2012-08-12T08:58:06Z</time>
      </trkpt>
      <trkpt lat="42.79775" lon="2.31569">
        <ele>587.5</ele>
        <time>2012-08-12T08:58:15Z</time>
      </trkpt>
      <trkpt lat="42.79766" lon="2.31587">
        <ele>589.2</ele>
        <time>2012-08-12T08:58:24Z</time>
      </trkpt>
      <trkpt lat="42.79761" lon="2.31596">
        <ele>590.9</ele>
        <time>2012-08-12T08:58:28Z</time>
      </trkpt>
      <trkpt lat="42.79757" lon="2.31608">
        <ele>592</ele>
        <time>2012-08-12T08:58:33Z</time>
      </trkpt>
      <trkpt lat="42.79755" lon="2.31627">
        <ele>592.9</ele>
        <time>2012-08-12T08:58:41Z</time>
      </trkpt>
      <trkpt lat="42.79756" lon="2.31637">
        <ele>593</ele>
        <time>2012-08-12T08:58:45Z</time>
      </trkpt>
      <trkpt lat="42.79758" lon="2.31658">
        <ele>593</ele>
        <time>2012-08-12T08:58:53Z</time>
      </trkpt>
      <trkpt lat="42.79758" lon="2.31668">
        <ele>593.4</ele>
        <time>2012-08-12T08:58:57Z</time>
      </trkpt>
      <trkpt lat="42.79757" lon="2.3169">
        <ele>598.2</ele>
        <time>2012-08-12T08:59:06Z</time>
      </trkpt>
      <trkpt lat="42.79757" lon="2.31712">
        <ele>601.9</ele>
        <time>2012-08-12T08:59:15Z</time>
      </trkpt>
      <trkpt lat="42.79758" lon="2.31722">
        <ele>602.9</ele>
        <time>2012-08-12T08:59:19Z</time>
      </trkpt>
      <trkpt lat="42.79758" lon="2.31745">
        <ele>605.2</ele>
        <time>2012-08-12T08:59:29Z</time>
      </trkpt>
      <trkpt lat="42.79757" lon="2.31759">
        <ele>607</ele>
        <time>2012-08-12T08:59:35Z</time>
      </trkpt>
      <trkpt lat="42.79753" lon="2.31776">
        <ele>607.4</ele>
        <time>2012-08-12T08:59:42Z</time>
      </trkpt>
      <trkpt lat="42.7975" lon="2.31796">
        <ele>608.4</ele>
        <time>2012-08-12T08:59:50Z</time>
      </trkpt>
      <trkpt lat="42.79747" lon="2.31815">
        <ele>610.7</ele>
        <time>2012-08-12T08:59:58Z</time>
      </trkpt>
      <trkpt lat="42.79747" lon="2.31836">
        <ele>612.7</ele>
        <time>2012-08-12T09:00:06Z</time>
      </trkpt>
      <trkpt lat="42.79752" lon="2.31856">
        <ele>615.7</ele>
        <time>2012-08-12T09:00:15Z</time>
      </trkpt>
      <trkpt lat="42.79757" lon="2.31867">
        <ele>617</ele>
        <time>2012-08-12T09:00:20Z</time>
      </trkpt>
      <trkpt lat="42.79762" lon="2.31876">
        <ele>617.9</ele>
        <time>2012-08-12T09:00:25Z</time>
      </trkpt>
      <trkpt lat="42.79766" lon="2.31885">
        <ele>619.7</ele>
        <time>2012-08-12T09:00:30Z</time>
      </trkpt>
      <trkpt lat="42.79769" lon="2.31898">
        <ele>621</ele>
        <time>2012-08-12T09:00:36Z</time>
      </trkpt>
      <trkpt lat="42.7977" lon="2.31919">
        <ele>622.7</ele>
        <time>2012-08-12T09:00:45Z</time>
      </trkpt>
      <trkpt lat="42.79772" lon="2.31929">
        <ele>624.7</ele>
        <time>2012-08-12T09:00:50Z</time>
      </trkpt>
      <trkpt lat="42.7978" lon="2.31948">
        <ele>626.5</ele>
        <time>2012-08-12T09:00:59Z</time>
      </trkpt>
      <trkpt lat="42.79788" lon="2.31966">
        <ele>628.5</ele>
        <time>2012-08-12T09:01:07Z</time>
      </trkpt>
      <trkpt lat="42.79791" lon="2.31975">
        <ele>628.7</ele>
        <time>2012-08-12T09:01:11Z</time>
      </trkpt>
      <trkpt lat="42.79799" lon="2.31994">
        <ele>631.5</ele>
        <time>2012-08-12T09:01:20Z</time>
      </trkpt>
      <trkpt lat="42.79804" lon="2.32004">
        <ele>631.9</ele>
        <time>2012-08-12T09:01:25Z</time>
      </trkpt>
      <trkpt lat="42.79815" lon="2.32019">
        <ele>633</ele>
        <time>2012-08-12T09:01:33Z</time>
      </trkpt>
      <trkpt lat="42.79823" lon="2.32026">
        <ele>632.2</ele>
        <time>2012-08-12T09:01:38Z</time>
      </trkpt>
      <trkpt lat="42.79832" lon="2.32042">
        <ele>629.4</ele>
        <time>2012-08-12T09:01:45Z</time>
      </trkpt>
      <trkpt lat="42.79836" lon="2.32051">
        <ele>627.5</ele>
        <time>2012-08-12T09:01:49Z</time>
      </trkpt>
      <trkpt lat="42.79842" lon="2.32071">
        <ele>627.2</ele>
        <time>2012-08-12T09:01:57Z</time>
      </trkpt>
      <trkpt lat="42.79842" lon="2.32083">
        <ele>636</ele>
        <time>2012-08-12T09:02:01Z</time>
      </trkpt>
      <trkpt lat="42.79846" lon="2.32105">
        <ele>638.4</ele>
        <time>2012-08-12T09:02:09Z</time>
      </trkpt>
      <trkpt lat="42.79849" lon="2.32126">
        <ele>638.9</ele>
        <time>2012-08-12T09:02:17Z</time>
      </trkpt>
      <trkpt lat="42.7985" lon="2.32147">
        <ele>640.2</ele>
        <time>2012-08-12T09:02:25Z</time>
      </trkpt>
      <trkpt lat="42.79851" lon="2.32171">
        <ele>643.5</ele>
        <time>2012-08-12T09:02:33Z</time>
      </trkpt>
      <trkpt lat="42.79851" lon="2.32182">
        <ele>644.9</ele>
        <time>2012-08-12T09:02:37Z</time>
      </trkpt>
      <trkpt lat="42.79852" lon="2.32195">
        <ele>644.2</ele>
        <time>2012-08-12T09:02:42Z</time>
      </trkpt>
      <trkpt lat="42.79851" lon="2.32214">
        <ele>646.2</ele>
        <time>2012-08-12T09:02:49Z</time>
      </trkpt>
      <trkpt lat="42.79852" lon="2.32226">
        <ele>647</ele>
        <time>2012-08-12T09:02:54Z</time>
      </trkpt>
      <trkpt lat="42.7985" lon="2.32249">
        <ele>648.4</ele>
        <time>2012-08-12T09:03:02Z</time>
      </trkpt>
      <trkpt lat="42.7985" lon="2.3227">
        <ele>649.7</ele>
        <time>2012-08-12T09:03:10Z</time>
      </trkpt>
      <trkpt lat="42.79848" lon="2.32282">
        <ele>650.5</ele>
        <time>2012-08-12T09:03:15Z</time>
      </trkpt>
      <trkpt lat="42.79839" lon="2.32298">
        <ele>653.4</ele>
        <time>2012-08-12T09:03:23Z</time>
      </trkpt>
      <trkpt lat="42.79824" lon="2.32306">
        <ele>654.5</ele>
        <time>2012-08-12T09:03:31Z</time>
      </trkpt>
      <trkpt lat="42.79816" lon="2.32306">
        <ele>655.5</ele>
        <time>2012-08-12T09:03:35Z</time>
      </trkpt>
      <trkpt lat="42.79801" lon="2.32301">
        <ele>655.7</ele>
        <time>2012-08-12T09:03:43Z</time>
      </trkpt>
      <trkpt lat="42.79785" lon="2.32294">
        <ele>656.7</ele>
        <time>2012-08-12T09:03:52Z</time>
      </trkpt>
      <trkpt lat="42.79769" lon="2.32297">
        <ele>659.7</ele>
        <time>2012-08-12T09:04:01Z</time>
      </trkpt>
      <trkpt lat="42.79757" lon="2.3231">
        <ele>662</ele>
        <time>2012-08-12T09:04:09Z</time>
      </trkpt>
      <trkpt lat="42.79753" lon="2.3232">
        <ele>662.4</ele>
        <time>2012-08-12T09:04:13Z</time>
      </trkpt>
      <trkpt lat="42.79743" lon="2.32337">
        <ele>663.9</ele>
        <time>2012-08-12T09:04:20Z</time>
      </trkpt>
      <trkpt lat="42.79731" lon="2.32351">
        <ele>665.5</ele>
        <time>2012-08-12T09:04:28Z</time>
      </trkpt>
      <trkpt lat="42.79719" lon="2.32366">
        <ele>666.7</ele>
        <time>2012-08-12T09:04:36Z</time>
      </trkpt>
      <trkpt lat="42.79713" lon="2.32374">
        <ele>668.5</ele>
        <time>2012-08-12T09:04:41Z</time>
      </trkpt>
      <trkpt lat="42.79708" lon="2.32385">
        <ele>669</ele>
        <time>2012-08-12T09:04:46Z</time>
      </trkpt>
      <trkpt lat="42.79702" lon="2.32401">
        <ele>671</ele>
        <time>2012-08-12T09:04:52Z</time>
      </trkpt>
      <trkpt lat="42.79695" lon="2.3242">
        <ele>671.9</ele>
        <time>2012-08-12T09:04:59Z</time>
      </trkpt>
      <trkpt lat="42.79692" lon="2.3243">
        <ele>671.5</ele>
        <time>2012-08-12T09:05:03Z</time>
      </trkpt>
      <trkpt lat="42.79687" lon="2.3245">
        <ele>672.4</ele>
        <time>2012-08-12T09:05:11Z</time>
      </trkpt>
      <trkpt lat="42.79685" lon="2.3246">
        <ele>673</ele>
        <time>2012-08-12T09:05:15Z</time>
      </trkpt>
      <trkpt lat="42.79681" lon="2.32471">
        <ele>673.7</ele>
        <time>2012-08-12T09:05:19Z</time>
      </trkpt>
      <trkpt lat="42.79676" lon="2.32489">
        <ele>675.5</ele>
        <time>2012-08-12T09:05:25Z</time>
      </trkpt>
      <trkpt lat="42.79671" lon="2.32508">
        <ele>677</ele>
        <time>2012-08-12T09:05:31Z</time>
      </trkpt>
      <trkpt lat="42.79667" lon="2.32528">
        <ele>677.2</ele>
        <time>2012-08-12T09:05:38Z</time>
      </trkpt>
      <trkpt lat="42.79663" lon="2.32547">
        <ele>677.7</ele>
        <time>2012-08-12T09:05:44Z</time>
      </trkpt>
      <trkpt lat="42.79662" lon="2.32557">
        <ele>678.7</ele>
        <time>2012-08-12T09:05:47Z</time>
      </trkpt>
      <trkpt lat="42.79659" lon="2.32577">
        <ele>680.2</ele>
        <time>2012-08-12T09:05:53Z</time>
      </trkpt>
      <trkpt lat="42.79657" lon="2.32599">
        <ele>681.5</ele>
        <time>2012-08-12T09:05:59Z</time>
      </trkpt>
      <trkpt lat="42.79653" lon="2.3262">
        <ele>683.2</ele>
        <time>2012-08-12T09:06:06Z</time>
      </trkpt>
      <trkpt lat="42.79654" lon="2.32639">
        <ele>684.2</ele>
        <time>2012-08-12T09:06:12Z</time>
      </trkpt>
      <trkpt lat="42.79653" lon="2.32645">
        <ele>684.5</ele>
        <time>2012-08-12T09:06:14Z</time>
      </trkpt>
      <trkpt lat="42.79652" lon="2.32666">
        <ele>685.5</ele>
        <time>2012-08-12T09:06:20Z</time>
      </trkpt>
      <trkpt lat="42.79649" lon="2.32687">
        <ele>686</ele>
        <time>2012-08-12T09:06:26Z</time>
      </trkpt>
      <trkpt lat="42.79646" lon="2.32706">
        <ele>687.7</ele>
        <time>2012-08-12T09:06:32Z</time>
      </trkpt>
      <trkpt lat="42.79643" lon="2.32716">
        <ele>689.4</ele>
        <time>2012-08-12T09:06:35Z</time>
      </trkpt>
      <trkpt lat="42.79638" lon="2.32737">
        <ele>691.7</ele>
        <time>2012-08-12T09:06:41Z</time>
      </trkpt>
      <trkpt lat="42.79635" lon="2.32748">
        <ele>693.5</ele>
        <time>2012-08-12T09:06:44Z</time>
      </trkpt>
      <trkpt lat="42.79629" lon="2.3277">
        <ele>694.5</ele>
        <time>2012-08-12T09:06:50Z</time>
      </trkpt>
      <trkpt lat="42.79628" lon="2.32773">
        <ele>694.5</ele>
        <time>2012-08-12T09:06:51Z</time>
      </trkpt>
      <trkpt lat="42.79619" lon="2.32798">
        <ele>695</ele>
        <time>2012-08-12T09:07:00Z</time>
      </trkpt>
      <trkpt lat="42.79613" lon="2.32806">
        <ele>695</ele>
        <time>2012-08-12T09:07:05Z</time>
      </trkpt>
      <trkpt lat="42.79607" lon="2.32814">
        <ele>694.9</ele>
        <time>2012-08-12T09:07:10Z</time>
      </trkpt>
      <trkpt lat="42.79602" lon="2.32822">
        <ele>695.2</ele>
        <time>2012-08-12T09:07:16Z</time>
      </trkpt>
      <trkpt lat="42.796" lon="2.32833">
        <ele>695.5</ele>
        <time>2012-08-12T09:07:21Z</time>
      </trkpt>
      <trkpt lat="42.79595" lon="2.32843">
        <ele>697.5</ele>
        <time>2012-08-12T09:13:05Z</time>
      </trkpt>
      <trkpt lat="42.796" lon="2.32854">
        <ele>696.5</ele>
        <time>2012-08-12T09:18:46Z</time>
      </trkpt>
      <trkpt lat="42.79598" lon="2.32872">
        <ele>696.5</ele>
        <time>2012-08-12T09:18:50Z</time>
      </trkpt>
      <trkpt lat="42.79596" lon="2.32887">
        <ele>696.5</ele>
        <time>2012-08-12T09:18:53Z</time>
      </trkpt>
      <trkpt lat="42.79592" lon="2.329">
        <ele>696.5</ele>
        <time>2012-08-12T09:18:55Z</time>
      </trkpt>
      <trkpt lat="42.79586" lon="2.32915">
        <ele>696.2</ele>
        <time>2012-08-12T09:18:57Z</time>
      </trkpt>
      <trkpt lat="42.79581" lon="2.32932">
        <ele>696.2</ele>
        <time>2012-08-12T09:18:59Z</time>
      </trkpt>
      <trkpt lat="42.79579" lon="2.32941">
        <ele>696</ele>
        <time>2012-08-12T09:19:00Z</time>
      </trkpt>
      <trkpt lat="42.79579" lon="2.32961">
        <ele>694.9</ele>
        <time>2012-08-12T09:19:02Z</time>
      </trkpt>
      <trkpt lat="42.79578" lon="2.32982">
        <ele>693.2</ele>
        <time>2012-08-12T09:19:04Z</time>
      </trkpt>
      <trkpt lat="42.79576" lon="2.32998">
        <ele>693.7</ele>
        <time>2012-08-12T09:19:06Z</time>
      </trkpt>
      <trkpt lat="42.79571" lon="2.33005">
        <ele>693.7</ele>
        <time>2012-08-12T09:19:08Z</time>
      </trkpt>
      <trkpt lat="42.79561" lon="2.32995">
        <ele>692.2</ele>
        <time>2012-08-12T09:19:12Z</time>
      </trkpt>
      <trkpt lat="42.79554" lon="2.32997">
        <ele>691.9</ele>
        <time>2012-08-12T09:19:14Z</time>
      </trkpt>
      <trkpt lat="42.79549" lon="2.33015">
        <ele>691.7</ele>
        <time>2012-08-12T09:19:17Z</time>
      </trkpt>
      <trkpt lat="42.79544" lon="2.33027">
        <ele>691.2</ele>
        <time>2012-08-12T09:19:19Z</time>
      </trkpt>
      <trkpt lat="42.79546" lon="2.3304">
        <ele>691</ele>
        <time>2012-08-12T09:19:21Z</time>
      </trkpt>
      <trkpt lat="42.79545" lon="2.33056">
        <ele>690.7</ele>
        <time>2012-08-12T09:19:23Z</time>
      </trkpt>
      <trkpt lat="42.79545" lon="2.33068">
        <ele>690.5</ele>
        <time>2012-08-12T09:19:24Z</time>
      </trkpt>
      <trkpt lat="42.79543" lon="2.33092">
        <ele>690</ele>
        <time>2012-08-12T09:19:26Z</time>
      </trkpt>
      <trkpt lat="42.79541" lon="2.33105">
        <ele>689.9</ele>
        <time>2012-08-12T09:19:27Z</time>
      </trkpt>
      <trkpt lat="42.79536" lon="2.33133">
        <ele>689.7</ele>
        <time>2012-08-12T09:19:29Z</time>
      </trkpt>
      <trkpt lat="42.79535" lon="2.33147">
        <ele>689</ele>
        <time>2012-08-12T09:19:30Z</time>
      </trkpt>
      <trkpt lat="42.79533" lon="2.3316">
        <ele>688.4</ele>
        <time>2012-08-12T09:19:31Z</time>
      </trkpt>
      <trkpt lat="42.79533" lon="2.33175">
        <ele>687</ele>
        <time>2012-08-12T09:19:32Z</time>
      </trkpt>
      <trkpt lat="42.7954" lon="2.33213">
        <ele>682.2</ele>
        <time>2012-08-12T09:19:34Z</time>
      </trkpt>
      <trkpt lat="42.7954" lon="2.33226">
        <ele>680</ele>
        <time>2012-08-12T09:19:35Z</time>
      </trkpt>
      <trkpt lat="42.79537" lon="2.3324">
        <ele>677.5</ele>
        <time>2012-08-12T09:19:36Z</time>
      </trkpt>
      <trkpt lat="42.79535" lon="2.33252">
        <ele>674.9</ele>
        <time>2012-08-12T09:19:37Z</time>
      </trkpt>
      <trkpt lat="42.79532" lon="2.33261">
        <ele>677.5</ele>
        <time>2012-08-12T09:19:38Z</time>
      </trkpt>
      <trkpt lat="42.79524" lon="2.33278">
        <ele>676.5</ele>
        <time>2012-08-12T09:19:40Z</time>
      </trkpt>
      <trkpt lat="42.79522" lon="2.3329">
        <ele>676.4</ele>
        <time>2012-08-12T09:19:41Z</time>
      </trkpt>
      <trkpt lat="42.79517" lon="2.333">
        <ele>676</ele>
        <time>2012-08-12T09:19:42Z</time>
      </trkpt>
      <trkpt lat="42.7951" lon="2.33325">
        <ele>675</ele>
        <time>2012-08-12T09:19:44Z</time>
      </trkpt>
      <trkpt lat="42.79504" lon="2.33351">
        <ele>672.7</ele>
        <time>2012-08-12T09:19:46Z</time>
      </trkpt>
      <trkpt lat="42.79501" lon="2.33362">
        <ele>672.7</ele>
        <time>2012-08-12T09:19:47Z</time>
      </trkpt>
      <trkpt lat="42.79491" lon="2.33383">
        <ele>667.7</ele>
        <time>2012-08-12T09:19:49Z</time>
      </trkpt>
      <trkpt lat="42.79486" lon="2.33392">
        <ele>666.5</ele>
        <time>2012-08-12T09:19:50Z</time>
      </trkpt>
      <trkpt lat="42.79477" lon="2.33405">
        <ele>665.4</ele>
        <time>2012-08-12T09:19:53Z</time>
      </trkpt>
      <trkpt lat="42.79465" lon="2.33421">
        <ele>662.7</ele>
        <time>2012-08-12T09:19:57Z</time>
      </trkpt>
      <trkpt lat="42.79458" lon="2.33424">
        <ele>661</ele>
        <time>2012-08-12T09:20:00Z</time>
      </trkpt>
      <trkpt lat="42.79442" lon="2.33422">
        <ele>645.5</ele>
        <time>2012-08-12T09:20:10Z</time>
      </trkpt>
      <trkpt lat="42.79436" lon="2.33431">
        <ele>642</ele>
        <time>2012-08-12T09:20:14Z</time>
      </trkpt>
      <trkpt lat="42.79429" lon="2.33438">
        <ele>638.5</ele>
        <time>2012-08-12T09:20:18Z</time>
      </trkpt>
      <trkpt lat="42.79416" lon="2.33452">
        <ele>633</ele>
        <time>2012-08-12T09:20:26Z</time>
      </trkpt>
      <trkpt lat="42.7941" lon="2.33457">
        <ele>636</ele>
        <time>2012-08-12T09:20:29Z</time>
      </trkpt>
      <trkpt lat="42.79395" lon="2.33463">
        <ele>635.2</ele>
        <time>2012-08-12T09:20:36Z</time>
      </trkpt>
      <trkpt lat="42.79381" lon="2.33471">
        <ele>634.9</ele>
        <time>2012-08-12T09:20:42Z</time>
      </trkpt>
      <trkpt lat="42.79367" lon="2.33476">
        <ele>636</ele>
        <time>2012-08-12T09:20:48Z</time>
      </trkpt>
      <trkpt lat="42.79354" lon="2.33484">
        <ele>635.5</ele>
        <time>2012-08-12T09:20:54Z</time>
      </trkpt>
      <trkpt lat="42.7934" lon="2.33495">
        <ele>634.5</ele>
        <time>2012-08-12T09:21:01Z</time>
      </trkpt>
      <trkpt lat="42.79325" lon="2.33503">
        <ele>636.7</ele>
        <time>2012-08-12T09:21:10Z</time>
      </trkpt>
      <trkpt lat="42.7932" lon="2.33513">
        <ele>637</ele>
        <time>2012-08-12T09:21:16Z</time>
      </trkpt>
      <trkpt lat="42.79314" lon="2.33533">
        <ele>637.9</ele>
        <time>2012-08-12T09:21:27Z</time>
      </trkpt>
      <trkpt lat="42.79309" lon="2.33542">
        <ele>638.7</ele>
        <time>2012-08-12T09:21:32Z</time>
      </trkpt>
      <trkpt lat="42.793" lon="2.33562">
        <ele>640</ele>
        <time>2012-08-12T09:21:44Z</time>
      </trkpt>
      <trkpt lat="42.79295" lon="2.33572">
        <ele>641</ele>
        <time>2012-08-12T09:21:51Z</time>
      </trkpt>
      <trkpt lat="42.79287" lon="2.33589">
        <ele>642.9</ele>
        <time>2012-08-12T09:22:02Z</time>
      </trkpt>
      <trkpt lat="42.79274" lon="2.336">
        <ele>644</ele>
        <time>2012-08-12T09:22:11Z</time>
      </trkpt>
      <trkpt lat="42.79261" lon="2.33607">
        <ele>645</ele>
        <time>2012-08-12T09:22:17Z</time>
      </trkpt>
      <trkpt lat="42.79255" lon="2.33612">
        <ele>646.2</ele>
        <time>2012-08-12T09:22:21Z</time>
      </trkpt>
      <trkpt lat="42.79245" lon="2.33629">
        <ele>649.2</ele>
        <time>2012-08-12T09:22:28Z</time>
      </trkpt>
      <trkpt lat="42.7924" lon="2.33647">
        <ele>650.5</ele>
        <time>2012-08-12T09:22:36Z</time>
      </trkpt>
      <trkpt lat="42.79239" lon="2.33658">
        <ele>651.2</ele>
        <time>2012-08-12T09:22:40Z</time>
      </trkpt>
      <trkpt lat="42.79244" lon="2.33677">
        <ele>652.7</ele>
        <time>2012-08-12T09:22:47Z</time>
      </trkpt>
      <trkpt lat="42.79245" lon="2.33687">
        <ele>653.7</ele>
        <time>2012-08-12T09:22:51Z</time>
      </trkpt>
      <trkpt lat="42.79244" lon="2.33706">
        <ele>655</ele>
        <time>2012-08-12T09:22:59Z</time>
      </trkpt>
      <trkpt lat="42.79241" lon="2.33717">
        <ele>655.5</ele>
        <time>2012-08-12T09:23:03Z</time>
      </trkpt>
      <trkpt lat="42.7924" lon="2.33729">
        <ele>655.7</ele>
        <time>2012-08-12T09:23:07Z</time>
      </trkpt>
      <trkpt lat="42.79234" lon="2.33746">
        <ele>656.2</ele>
        <time>2012-08-12T09:23:12Z</time>
      </trkpt>
      <trkpt lat="42.7923" lon="2.33757">
        <ele>656.4</ele>
        <time>2012-08-12T09:23:15Z</time>
      </trkpt>
      <trkpt lat="42.79227" lon="2.33777">
        <ele>657</ele>
        <time>2012-08-12T09:23:24Z</time>
      </trkpt>
      <trkpt lat="42.79225" lon="2.33788">
        <ele>657.5</ele>
        <time>2012-08-12T09:23:28Z</time>
      </trkpt>
      <trkpt lat="42.79221" lon="2.33808">
        <ele>657.9</ele>
        <time>2012-08-12T09:23:34Z</time>
      </trkpt>
      <trkpt lat="42.79216" lon="2.33818">
        <ele>658.2</ele>
        <time>2012-08-12T09:23:38Z</time>
      </trkpt>
      <trkpt lat="42.79202" lon="2.33829">
        <ele>659.7</ele>
        <time>2012-08-12T09:23:45Z</time>
      </trkpt>
      <trkpt lat="42.79186" lon="2.3383">
        <ele>660.4</ele>
        <time>2012-08-12T09:23:54Z</time>
      </trkpt>
      <trkpt lat="42.79185" lon="2.33832">
        <ele>660.4</ele>
        <time>2012-08-12T09:23:55Z</time>
      </trkpt>
      <trkpt lat="42.79166" lon="2.33845">
        <ele>661.4</ele>
        <time>2012-08-12T09:24:06Z</time>
      </trkpt>
      <trkpt lat="42.79153" lon="2.33853">
        <ele>662</ele>
        <time>2012-08-12T09:24:12Z</time>
      </trkpt>
      <trkpt lat="42.7914" lon="2.33863">
        <ele>663</ele>
        <time>2012-08-12T09:24:19Z</time>
      </trkpt>
      <trkpt lat="42.79132" lon="2.33869">
        <ele>663.2</ele>
        <time>2012-08-12T09:24:23Z</time>
      </trkpt>
      <trkpt lat="42.79115" lon="2.33874">
        <ele>664</ele>
        <time>2012-08-12T09:24:31Z</time>
      </trkpt>
      <trkpt lat="42.79107" lon="2.33878">
        <ele>664.5</ele>
        <time>2012-08-12T09:24:35Z</time>
      </trkpt>
      <trkpt lat="42.79093" lon="2.33887">
        <ele>665.4</ele>
        <time>2012-08-12T09:24:43Z</time>
      </trkpt>
      <trkpt lat="42.79085" lon="2.33891">
        <ele>665.7</ele>
        <time>2012-08-12T09:24:47Z</time>
      </trkpt>
      <trkpt lat="42.79077" lon="2.33893">
        <ele>666.2</ele>
        <time>2012-08-12T09:24:52Z</time>
      </trkpt>
      <trkpt lat="42.79067" lon="2.33898">
        <ele>666.7</ele>
        <time>2012-08-12T09:24:57Z</time>
      </trkpt>
      <trkpt lat="42.79057" lon="2.33909">
        <ele>667.5</ele>
        <time>2012-08-12T09:25:04Z</time>
      </trkpt>
      <trkpt lat="42.7905" lon="2.33914">
        <ele>668.4</ele>
        <time>2012-08-12T09:25:09Z</time>
      </trkpt>
      <trkpt lat="42.79043" lon="2.33922">
        <ele>668.7</ele>
        <time>2012-08-12T09:25:12Z</time>
      </trkpt>
      <trkpt lat="42.79038" lon="2.33931">
        <ele>669</ele>
        <time>2012-08-12T09:25:17Z</time>
      </trkpt>
      <trkpt lat="42.79031" lon="2.33939">
        <ele>672.2</ele>
        <time>2012-08-12T09:25:52Z</time>
      </trkpt>
      <trkpt lat="42.79025" lon="2.33957">
        <ele>672.7</ele>
        <time>2012-08-12T09:25:57Z</time>
      </trkpt>
      <trkpt lat="42.79024" lon="2.33965">
        <ele>672.7</ele>
        <time>2012-08-12T09:25:58Z</time>
      </trkpt>
      <trkpt lat="42.79017" lon="2.33977">
        <ele>672.5</ele>
        <time>2012-08-12T09:26:00Z</time>
      </trkpt>
      <trkpt lat="42.79013" lon="2.33984">
        <ele>672.5</ele>
        <time>2012-08-12T09:26:01Z</time>
      </trkpt>
      <trkpt lat="42.79008" lon="2.34005">
        <ele>673</ele>
        <time>2012-08-12T09:26:05Z</time>
      </trkpt>
      <trkpt lat="42.79002" lon="2.34024">
        <ele>672.9</ele>
        <time>2012-08-12T09:26:09Z</time>
      </trkpt>
      <trkpt lat="42.78996" lon="2.34042">
        <ele>672.5</ele>
        <time>2012-08-12T09:26:13Z</time>
      </trkpt>
      <trkpt lat="42.78987" lon="2.34056">
        <ele>672.4</ele>
        <time>2012-08-12T09:26:16Z</time>
      </trkpt>
      <trkpt lat="42.78984" lon="2.34061">
        <ele>672.2</ele>
        <time>2012-08-12T09:26:17Z</time>
      </trkpt>
      <trkpt lat="42.78975" lon="2.34074">
        <ele>672.2</ele>
        <time>2012-08-12T09:26:20Z</time>
      </trkpt>
      <trkpt lat="42.7897" lon="2.34092">
        <ele>671.4</ele>
        <time>2012-08-12T09:26:24Z</time>
      </trkpt>
      <trkpt lat="42.78967" lon="2.34113">
        <ele>671.5</ele>
        <time>2012-08-12T09:26:28Z</time>
      </trkpt>
      <trkpt lat="42.78961" lon="2.34134">
        <ele>671.2</ele>
        <time>2012-08-12T09:26:32Z</time>
      </trkpt>
      <trkpt lat="42.78959" lon="2.34145">
        <ele>671</ele>
        <time>2012-08-12T09:26:34Z</time>
      </trkpt>
      <trkpt lat="42.78957" lon="2.34157">
        <ele>670.5</ele>
        <time>2012-08-12T09:26:36Z</time>
      </trkpt>
      <trkpt lat="42.78957" lon="2.34169">
        <ele>670</ele>
        <time>2012-08-12T09:26:38Z</time>
      </trkpt>
      <trkpt lat="42.78958" lon="2.34181">
        <ele>669.7</ele>
        <time>2012-08-12T09:26:40Z</time>
      </trkpt>
      <trkpt lat="42.78959" lon="2.34195">
        <ele>669.5</ele>
        <time>2012-08-12T09:26:42Z</time>
      </trkpt>
      <trkpt lat="42.78959" lon="2.34211">
        <ele>669</ele>
        <time>2012-08-12T09:26:44Z</time>
      </trkpt>
      <trkpt lat="42.78961" lon="2.34221">
        <ele>668</ele>
        <time>2012-08-12T09:26:45Z</time>
      </trkpt>
      <trkpt lat="42.78963" lon="2.34241">
        <ele>667</ele>
        <time>2012-08-12T09:26:47Z</time>
      </trkpt>
      <trkpt lat="42.78963" lon="2.34252">
        <ele>666.2</ele>
        <time>2012-08-12T09:26:48Z</time>
      </trkpt>
      <trkpt lat="42.7896" lon="2.34264">
        <ele>666.4</ele>
        <time>2012-08-12T09:26:49Z</time>
      </trkpt>
      <trkpt lat="42.78954" lon="2.34286">
        <ele>666</ele>
        <time>2012-08-12T09:26:51Z</time>
      </trkpt>
      <trkpt lat="42.7895" lon="2.34306">
        <ele>665.5</ele>
        <time>2012-08-12T09:26:53Z</time>
      </trkpt>
      <trkpt lat="42.78952" lon="2.3432">
        <ele>665.2</ele>
        <time>2012-08-12T09:26:55Z</time>
      </trkpt>
      <trkpt lat="42.78953" lon="2.34332">
        <ele>664.7</ele>
        <time>2012-08-12T09:26:57Z</time>
      </trkpt>
      <trkpt lat="42.78956" lon="2.34349">
        <ele>664.2</ele>
        <time>2012-08-12T09:27:00Z</time>
      </trkpt>
      <trkpt lat="42.78958" lon="2.34367">
        <ele>663.7</ele>
        <time>2012-08-12T09:27:03Z</time>
      </trkpt>
      <trkpt lat="42.78959" lon="2.3438">
        <ele>663.2</ele>
        <time>2012-08-12T09:27:05Z</time>
      </trkpt>
      <trkpt lat="42.78959" lon="2.34395">
        <ele>663.2</ele>
        <time>2012-08-12T09:27:07Z</time>
      </trkpt>
      <trkpt lat="42.78957" lon="2.34417">
        <ele>662.9</ele>
        <time>2012-08-12T09:27:10Z</time>
      </trkpt>
      <trkpt lat="42.78954" lon="2.34432">
        <ele>662.5</ele>
        <time>2012-08-12T09:27:12Z</time>
      </trkpt>
      <trkpt lat="42.78953" lon="2.34447">
        <ele>662.2</ele>
        <time>2012-08-12T09:27:14Z</time>
      </trkpt>
      <trkpt lat="42.78958" lon="2.34463">
        <ele>661.4</ele>
        <time>2012-08-12T09:27:16Z</time>
      </trkpt>
      <trkpt lat="42.78968" lon="2.34479">
        <ele>660.5</ele>
        <time>2012-08-12T09:27:18Z</time>
      </trkpt>
      <trkpt lat="42.78972" lon="2.34488">
        <ele>660.5</ele>
        <time>2012-08-12T09:27:19Z</time>
      </trkpt>
      <trkpt lat="42.78979" lon="2.34504">
        <ele>659.9</ele>
        <time>2012-08-12T09:27:21Z</time>
      </trkpt>
      <trkpt lat="42.78985" lon="2.34513">
        <ele>659.5</ele>
        <time>2012-08-12T09:27:22Z</time>
      </trkpt>
      <trkpt lat="42.78992" lon="2.34521">
        <ele>659</ele>
        <time>2012-08-12T09:27:23Z</time>
      </trkpt>
      <trkpt lat="42.78998" lon="2.3453">
        <ele>658.5</ele>
        <time>2012-08-12T09:27:24Z</time>
      </trkpt>
      <trkpt lat="42.79003" lon="2.3454">
        <ele>658.2</ele>
        <time>2012-08-12T09:27:25Z</time>
      </trkpt>
      <trkpt lat="42.79005" lon="2.34551">
        <ele>657.7</ele>
        <time>2012-08-12T09:27:26Z</time>
      </trkpt>
      <trkpt lat="42.79011" lon="2.34572">
        <ele>657.2</ele>
        <time>2012-08-12T09:27:28Z</time>
      </trkpt>
      <trkpt lat="42.79014" lon="2.34579">
        <ele>656.7</ele>
        <time>2012-08-12T09:27:29Z</time>
      </trkpt>
      <trkpt lat="42.79022" lon="2.34588">
        <ele>656.2</ele>
        <time>2012-08-12T09:27:31Z</time>
      </trkpt>
      <trkpt lat="42.79028" lon="2.34593">
        <ele>656.2</ele>
        <time>2012-08-12T09:27:32Z</time>
      </trkpt>
      <trkpt lat="42.79037" lon="2.34603">
        <ele>655.7</ele>
        <time>2012-08-12T09:27:34Z</time>
      </trkpt>
      <trkpt lat="42.79046" lon="2.34617">
        <ele>655.5</ele>
        <time>2012-08-12T09:27:36Z</time>
      </trkpt>
      <trkpt lat="42.7905" lon="2.34627">
        <ele>655</ele>
        <time>2012-08-12T09:27:37Z</time>
      </trkpt>
      <trkpt lat="42.79057" lon="2.34646">
        <ele>654.9</ele>
        <time>2012-08-12T09:27:39Z</time>
      </trkpt>
      <trkpt lat="42.79061" lon="2.34657">
        <ele>654.7</ele>
        <time>2012-08-12T09:27:40Z</time>
      </trkpt>
      <trkpt lat="42.79064" lon="2.34668">
        <ele>654.7</ele>
        <time>2012-08-12T09:27:41Z</time>
      </trkpt>
      <trkpt lat="42.79064" lon="2.34679">
        <ele>654.7</ele>
        <time>2012-08-12T09:27:42Z</time>
      </trkpt>
      <trkpt lat="42.79066" lon="2.34691">
        <ele>654.5</ele>
        <time>2012-08-12T09:27:43Z</time>
      </trkpt>
      <trkpt lat="42.79069" lon="2.34702">
        <ele>654.5</ele>
        <time>2012-08-12T09:27:44Z</time>
      </trkpt>
      <trkpt lat="42.79074" lon="2.34714">
        <ele>654.2</ele>
        <time>2012-08-12T09:27:45Z</time>
      </trkpt>
      <trkpt lat="42.79077" lon="2.34726">
        <ele>654</ele>
        <time>2012-08-12T09:27:46Z</time>
      </trkpt>
      <trkpt lat="42.79084" lon="2.3475">
        <ele>654</ele>
        <time>2012-08-12T09:27:48Z</time>
      </trkpt>
      <trkpt lat="42.79088" lon="2.3476">
        <ele>654.2</ele>
        <time>2012-08-12T09:27:49Z</time>
      </trkpt>
      <trkpt lat="42.79093" lon="2.34771">
        <ele>653.2</ele>
        <time>2012-08-12T09:27:50Z</time>
      </trkpt>
      <trkpt lat="42.79099" lon="2.34781">
        <ele>652.2</ele>
        <time>2012-08-12T09:27:51Z</time>
      </trkpt>
      <trkpt lat="42.79104" lon="2.34791">
        <ele>652.2</ele>
        <time>2012-08-12T09:27:52Z</time>
      </trkpt>
      <trkpt lat="42.79107" lon="2.34801">
        <ele>651.7</ele>
        <time>2012-08-12T09:27:53Z</time>
      </trkpt>
      <trkpt lat="42.79111" lon="2.34824">
        <ele>651.2</ele>
        <time>2012-08-12T09:27:55Z</time>
      </trkpt>
      <trkpt lat="42.7911" lon="2.34845">
        <ele>650.7</ele>
        <time>2012-08-12T09:27:57Z</time>
      </trkpt>
      <trkpt lat="42.79111" lon="2.34865">
        <ele>649.7</ele>
        <time>2012-08-12T09:27:59Z</time>
      </trkpt>
      <trkpt lat="42.79111" lon="2.34875">
        <ele>649.5</ele>
        <time>2012-08-12T09:28:00Z</time>
      </trkpt>
      <trkpt lat="42.79108" lon="2.34897">
        <ele>648.5</ele>
        <time>2012-08-12T09:28:02Z</time>
      </trkpt>
      <trkpt lat="42.79106" lon="2.34906">
        <ele>648.2</ele>
        <time>2012-08-12T09:28:03Z</time>
      </trkpt>
      <trkpt lat="42.79107" lon="2.34924">
        <ele>647.5</ele>
        <time>2012-08-12T09:28:05Z</time>
      </trkpt>
      <trkpt lat="42.79113" lon="2.34944">
        <ele>646</ele>
        <time>2012-08-12T09:28:07Z</time>
      </trkpt>
      <trkpt lat="42.79114" lon="2.34956">
        <ele>643.9</ele>
        <time>2012-08-12T09:28:08Z</time>
      </trkpt>
      <trkpt lat="42.79113" lon="2.34974">
        <ele>642.9</ele>
        <time>2012-08-12T09:28:10Z</time>
      </trkpt>
      <trkpt lat="42.79114" lon="2.34992">
        <ele>641</ele>
        <time>2012-08-12T09:28:12Z</time>
      </trkpt>
      <trkpt lat="42.79109" lon="2.35014">
        <ele>640.4</ele>
        <time>2012-08-12T09:28:14Z</time>
      </trkpt>
      <trkpt lat="42.79107" lon="2.35024">
        <ele>640.2</ele>
        <time>2012-08-12T09:28:15Z</time>
      </trkpt>
      <trkpt lat="42.79102" lon="2.35045">
        <ele>639.5</ele>
        <time>2012-08-12T09:28:17Z</time>
      </trkpt>
      <trkpt lat="42.79095" lon="2.35065">
        <ele>639</ele>
        <time>2012-08-12T09:28:19Z</time>
      </trkpt>
      <trkpt lat="42.79093" lon="2.35084">
        <ele>638.4</ele>
        <time>2012-08-12T09:28:21Z</time>
      </trkpt>
      <trkpt lat="42.79095" lon="2.351">
        <ele>637.9</ele>
        <time>2012-08-12T09:28:23Z</time>
      </trkpt>
      <trkpt lat="42.79095" lon="2.35117">
        <ele>637.5</ele>
        <time>2012-08-12T09:28:25Z</time>
      </trkpt>
      <trkpt lat="42.79097" lon="2.35133">
        <ele>637</ele>
        <time>2012-08-12T09:28:27Z</time>
      </trkpt>
      <trkpt lat="42.79107" lon="2.35148">
        <ele>635.7</ele>
        <time>2012-08-12T09:28:29Z</time>
      </trkpt>
      <trkpt lat="42.79114" lon="2.35159">
        <ele>635</ele>
        <time>2012-08-12T09:28:31Z</time>
      </trkpt>
      <trkpt lat="42.7912" lon="2.3517">
        <ele>634</ele>
        <time>2012-08-12T09:28:33Z</time>
      </trkpt>
      <trkpt lat="42.79126" lon="2.35184">
        <ele>633.7</ele>
        <time>2012-08-12T09:28:35Z</time>
      </trkpt>
      <trkpt lat="42.7913" lon="2.35195">
        <ele>633.5</ele>
        <time>2012-08-12T09:28:37Z</time>
      </trkpt>
      <trkpt lat="42.79134" lon="2.3521">
        <ele>633</ele>
        <time>2012-08-12T09:28:39Z</time>
      </trkpt>
      <trkpt lat="42.79137" lon="2.3523">
        <ele>631.5</ele>
        <time>2012-08-12T09:28:41Z</time>
      </trkpt>
      <trkpt lat="42.7914" lon="2.35254">
        <ele>629.5</ele>
        <time>2012-08-12T09:28:43Z</time>
      </trkpt>
      <trkpt lat="42.79142" lon="2.35275">
        <ele>628.5</ele>
        <time>2012-08-12T09:28:45Z</time>
      </trkpt>
      <trkpt lat="42.79142" lon="2.35287">
        <ele>628.2</ele>
        <time>2012-08-12T09:28:46Z</time>
      </trkpt>
      <trkpt lat="42.79139" lon="2.3531">
        <ele>627.9</ele>
        <time>2012-08-12T09:28:48Z</time>
      </trkpt>
      <trkpt lat="42.79137" lon="2.3532">
        <ele>627.7</ele>
        <time>2012-08-12T09:28:49Z</time>
      </trkpt>
      <trkpt lat="42.79135" lon="2.35339">
        <ele>627.7</ele>
        <time>2012-08-12T09:28:51Z</time>
      </trkpt>
      <trkpt lat="42.79138" lon="2.35358">
        <ele>627.2</ele>
        <time>2012-08-12T09:28:53Z</time>
      </trkpt>
      <trkpt lat="42.79142" lon="2.35375">
        <ele>626.9</ele>
        <time>2012-08-12T09:28:55Z</time>
      </trkpt>
      <trkpt lat="42.79144" lon="2.35394">
        <ele>626.7</ele>
        <time>2012-08-12T09:28:57Z</time>
      </trkpt>
      <trkpt lat="42.79147" lon="2.35415">
        <ele>626.4</ele>
        <time>2012-08-12T09:28:59Z</time>
      </trkpt>
      <trkpt lat="42.79153" lon="2.35439">
        <ele>626</ele>
        <time>2012-08-12T09:29:01Z</time>
      </trkpt>
      <trkpt lat="42.79158" lon="2.3545">
        <ele>626</ele>
        <time>2012-08-12T09:29:02Z</time>
      </trkpt>
      <trkpt lat="42.79166" lon="2.35469">
        <ele>625.2</ele>
        <time>2012-08-12T09:29:04Z</time>
      </trkpt>
      <trkpt lat="42.79172" lon="2.35489">
        <ele>624.4</ele>
        <time>2012-08-12T09:29:06Z</time>
      </trkpt>
      <trkpt lat="42.79171" lon="2.35512">
        <ele>623.7</ele>
        <time>2012-08-12T09:29:08Z</time>
      </trkpt>
      <trkpt lat="42.79169" lon="2.35536">
        <ele>623.2</ele>
        <time>2012-08-12T09:29:10Z</time>
      </trkpt>
      <trkpt lat="42.79172" lon="2.35555">
        <ele>622.4</ele>
        <time>2012-08-12T09:29:12Z</time>
      </trkpt>
      <trkpt lat="42.79185" lon="2.3557">
        <ele>621.2</ele>
        <time>2012-08-12T09:29:14Z</time>
      </trkpt>
      <trkpt lat="42.79196" lon="2.35584">
        <ele>620.9</ele>
        <time>2012-08-12T09:29:16Z</time>
      </trkpt>
      <trkpt lat="42.79204" lon="2.35603">
        <ele>620</ele>
        <time>2012-08-12T09:29:18Z</time>
      </trkpt>
      <trkpt lat="42.79208" lon="2.35614">
        <ele>619.7</ele>
        <time>2012-08-12T09:29:19Z</time>
      </trkpt>
      <trkpt lat="42.79211" lon="2.35625">
        <ele>619.4</ele>
        <time>2012-08-12T09:29:20Z</time>
      </trkpt>
      <trkpt lat="42.79215" lon="2.35649">
        <ele>618.7</ele>
        <time>2012-08-12T09:29:22Z</time>
      </trkpt>
      <trkpt lat="42.79218" lon="2.35662">
        <ele>618.2</ele>
        <time>2012-08-12T09:29:23Z</time>
      </trkpt>
      <trkpt lat="42.79222" lon="2.35674">
        <ele>617.5</ele>
        <time>2012-08-12T09:29:24Z</time>
      </trkpt>
      <trkpt lat="42.79224" lon="2.35686">
        <ele>617.5</ele>
        <time>2012-08-12T09:29:25Z</time>
      </trkpt>
      <trkpt lat="42.79225" lon="2.35696">
        <ele>616.7</ele>
        <time>2012-08-12T09:29:26Z</time>
      </trkpt>
      <trkpt lat="42.79228" lon="2.35707">
        <ele>615</ele>
        <time>2012-08-12T09:29:27Z</time>
      </trkpt>
      <trkpt lat="42.79229" lon="2.35729">
        <ele>609.5</ele>
        <time>2012-08-12T09:29:29Z</time>
      </trkpt>
      <trkpt lat="42.79232" lon="2.3575">
        <ele>606.2</ele>
        <time>2012-08-12T09:29:31Z</time>
      </trkpt>
      <trkpt lat="42.79233" lon="2.35769">
        <ele>603.9</ele>
        <time>2012-08-12T09:29:33Z</time>
      </trkpt>
      <trkpt lat="42.79233" lon="2.35787">
        <ele>601.7</ele>
        <time>2012-08-12T09:29:35Z</time>
      </trkpt>
      <trkpt lat="42.7923" lon="2.35804">
        <ele>599.2</ele>
        <time>2012-08-12T09:29:37Z</time>
      </trkpt>
      <trkpt lat="42.79226" lon="2.35819">
        <ele>597.5</ele>
        <time>2012-08-12T09:29:39Z</time>
      </trkpt>
      <trkpt lat="42.79222" lon="2.35831">
        <ele>596.2</ele>
        <time>2012-08-12T09:29:41Z</time>
      </trkpt>
      <trkpt lat="42.79219" lon="2.35842">
        <ele>595</ele>
        <time>2012-08-12T09:29:43Z</time>
      </trkpt>
      <trkpt lat="42.79218" lon="2.35854">
        <ele>593.7</ele>
        <time>2012-08-12T09:29:46Z</time>
      </trkpt>
      <trkpt lat="42.79219" lon="2.35865">
        <ele>593</ele>
        <time>2012-08-12T09:29:49Z</time>
      </trkpt>
      <trkpt lat="42.79222" lon="2.35876">
        <ele>591.7</ele>
        <time>2012-08-12T09:29:52Z</time>
      </trkpt>
      <trkpt lat="42.79223" lon="2.35888">
        <ele>590.9</ele>
        <time>2012-08-12T09:29:55Z</time>
      </trkpt>
      <trkpt lat="42.79226" lon="2.35905">
        <ele>589.2</ele>
        <time>2012-08-12T09:29:59Z</time>
      </trkpt>
      <trkpt lat="42.79231" lon="2.35921">
        <ele>588.5</ele>
        <time>2012-08-12T09:30:02Z</time>
      </trkpt>
      <trkpt lat="42.79237" lon="2.35939">
        <ele>588</ele>
        <time>2012-08-12T09:30:05Z</time>
      </trkpt>
      <trkpt lat="42.79241" lon="2.35954">
        <ele>588.2</ele>
        <time>2012-08-12T09:30:07Z</time>
      </trkpt>
      <trkpt lat="42.79245" lon="2.35969">
        <ele>587.9</ele>
        <time>2012-08-12T09:30:09Z</time>
      </trkpt>
      <trkpt lat="42.79248" lon="2.35987">
        <ele>587.5</ele>
        <time>2012-08-12T09:30:11Z</time>
      </trkpt>
      <trkpt lat="42.79248" lon="2.36005">
        <ele>587</ele>
        <time>2012-08-12T09:30:13Z</time>
      </trkpt>
      <trkpt lat="42.79244" lon="2.36023">
        <ele>586.7</ele>
        <time>2012-08-12T09:30:15Z</time>
      </trkpt>
      <trkpt lat="42.7924" lon="2.36043">
        <ele>586</ele>
        <time>2012-08-12T09:30:17Z</time>
      </trkpt>
      <trkpt lat="42.79237" lon="2.36062">
        <ele>585</ele>
        <time>2012-08-12T09:30:19Z</time>
      </trkpt>
      <trkpt lat="42.79236" lon="2.36081">
        <ele>583.4</ele>
        <time>2012-08-12T09:30:21Z</time>
      </trkpt>
      <trkpt lat="42.79235" lon="2.36098">
        <ele>581.9</ele>
        <time>2012-08-12T09:30:23Z</time>
      </trkpt>
      <trkpt lat="42.79235" lon="2.36115">
        <ele>580.9</ele>
        <time>2012-08-12T09:30:25Z</time>
      </trkpt>
      <trkpt lat="42.79235" lon="2.36131">
        <ele>579.7</ele>
        <time>2012-08-12T09:30:27Z</time>
      </trkpt>
      <trkpt lat="42.79235" lon="2.36147">
        <ele>579.2</ele>
        <time>2012-08-12T09:30:29Z</time>
      </trkpt>
      <trkpt lat="42.79234" lon="2.36165">
        <ele>578.5</ele>
        <time>2012-08-12T09:30:31Z</time>
      </trkpt>
      <trkpt lat="42.79234" lon="2.36174">
        <ele>578.2</ele>
        <time>2012-08-12T09:30:32Z</time>
      </trkpt>
      <trkpt lat="42.79233" lon="2.36193">
        <ele>577.2</ele>
        <time>2012-08-12T09:30:34Z</time>
      </trkpt>
      <trkpt lat="42.79233" lon="2.36213">
        <ele>576.7</ele>
        <time>2012-08-12T09:30:36Z</time>
      </trkpt>
      <trkpt lat="42.79232" lon="2.36233">
        <ele>576.4</ele>
        <time>2012-08-12T09:30:38Z</time>
      </trkpt>
      <trkpt lat="42.79231" lon="2.36255">
        <ele>575.7</ele>
        <time>2012-08-12T09:30:40Z</time>
      </trkpt>
      <trkpt lat="42.79229" lon="2.36278">
        <ele>575</ele>
        <time>2012-08-12T09:30:42Z</time>
      </trkpt>
      <trkpt lat="42.79228" lon="2.363">
        <ele>574.2</ele>
        <time>2012-08-12T09:30:44Z</time>
      </trkpt>
      <trkpt lat="42.79227" lon="2.36319">
        <ele>573.4</ele>
        <time>2012-08-12T09:30:46Z</time>
      </trkpt>
      <trkpt lat="42.79226" lon="2.36339">
        <ele>572.2</ele>
        <time>2012-08-12T09:30:48Z</time>
      </trkpt>
      <trkpt lat="42.79225" lon="2.36358">
        <ele>570.4</ele>
        <time>2012-08-12T09:30:50Z</time>
      </trkpt>
      <trkpt lat="42.79224" lon="2.36378">
        <ele>569.2</ele>
        <time>2012-08-12T09:30:52Z</time>
      </trkpt>
      <trkpt lat="42.79225" lon="2.36397">
        <ele>568.4</ele>
        <time>2012-08-12T09:30:54Z</time>
      </trkpt>
      <trkpt lat="42.79225" lon="2.36416">
        <ele>567.7</ele>
        <time>2012-08-12T09:30:56Z</time>
      </trkpt>
      <trkpt lat="42.79222" lon="2.36434">
        <ele>567</ele>
        <time>2012-08-12T09:30:58Z</time>
      </trkpt>
      <trkpt lat="42.79217" lon="2.36451">
        <ele>566.5</ele>
        <time>2012-08-12T09:31:00Z</time>
      </trkpt>
      <trkpt lat="42.79214" lon="2.36468">
        <ele>566</ele>
        <time>2012-08-12T09:31:02Z</time>
      </trkpt>
      <trkpt lat="42.79213" lon="2.36485">
        <ele>565.9</ele>
        <time>2012-08-12T09:31:04Z</time>
      </trkpt>
      <trkpt lat="42.79214" lon="2.36502">
        <ele>565.7</ele>
        <time>2012-08-12T09:31:06Z</time>
      </trkpt>
      <trkpt lat="42.79215" lon="2.36511">
        <ele>565.5</ele>
        <time>2012-08-12T09:31:07Z</time>
      </trkpt>
      <trkpt lat="42.79217" lon="2.36532">
        <ele>565</ele>
        <time>2012-08-12T09:31:09Z</time>
      </trkpt>
      <trkpt lat="42.7922" lon="2.36554">
        <ele>564</ele>
        <time>2012-08-12T09:31:11Z</time>
      </trkpt>
      <trkpt lat="42.79225" lon="2.36578">
        <ele>562</ele>
        <time>2012-08-12T09:31:13Z</time>
      </trkpt>
      <trkpt lat="42.7923" lon="2.36604">
        <ele>560.4</ele>
        <time>2012-08-12T09:31:15Z</time>
      </trkpt>
      <trkpt lat="42.79231" lon="2.36617">
        <ele>559.2</ele>
        <time>2012-08-12T09:31:16Z</time>
      </trkpt>
      <trkpt lat="42.79236" lon="2.36645">
        <ele>557.5</ele>
        <time>2012-08-12T09:31:18Z</time>
      </trkpt>
      <trkpt lat="42.7924" lon="2.36672">
        <ele>556.2</ele>
        <time>2012-08-12T09:31:20Z</time>
      </trkpt>
      <trkpt lat="42.79243" lon="2.36697">
        <ele>554.7</ele>
        <time>2012-08-12T09:31:22Z</time>
      </trkpt>
      <trkpt lat="42.79242" lon="2.3671">
        <ele>553.7</ele>
        <time>2012-08-12T09:31:23Z</time>
      </trkpt>
      <trkpt lat="42.7924" lon="2.36735">
        <ele>551.2</ele>
        <time>2012-08-12T09:31:25Z</time>
      </trkpt>
      <trkpt lat="42.7924" lon="2.36747">
        <ele>551.9</ele>
        <time>2012-08-12T09:31:26Z</time>
      </trkpt>
      <trkpt lat="42.79239" lon="2.3677">
        <ele>550.4</ele>
        <time>2012-08-12T09:31:28Z</time>
      </trkpt>
      <trkpt lat="42.79241" lon="2.36793">
        <ele>549.9</ele>
        <time>2012-08-12T09:31:30Z</time>
      </trkpt>
      <trkpt lat="42.79244" lon="2.36817">
        <ele>549</ele>
        <time>2012-08-12T09:31:32Z</time>
      </trkpt>
      <trkpt lat="42.79248" lon="2.36841">
        <ele>547.7</ele>
        <time>2012-08-12T09:31:34Z</time>
      </trkpt>
      <trkpt lat="42.79252" lon="2.36862">
        <ele>547.7</ele>
        <time>2012-08-12T09:31:36Z</time>
      </trkpt>
      <trkpt lat="42.7926" lon="2.36881">
        <ele>547.5</ele>
        <time>2012-08-12T09:31:38Z</time>
      </trkpt>
      <trkpt lat="42.79262" lon="2.3689">
        <ele>547.2</ele>
        <time>2012-08-12T09:31:39Z</time>
      </trkpt>
      <trkpt lat="42.79263" lon="2.36908">
        <ele>546.5</ele>
        <time>2012-08-12T09:31:41Z</time>
      </trkpt>
      <trkpt lat="42.79258" lon="2.36918">
        <ele>545.7</ele>
        <time>2012-08-12T09:31:44Z</time>
      </trkpt>
      <trkpt lat="42.79259" lon="2.36929">
        <ele>543.7</ele>
        <time>2012-08-12T09:31:52Z</time>
      </trkpt>
      <trkpt lat="42.79258" lon="2.36949">
        <ele>542.9</ele>
        <time>2012-08-12T09:31:55Z</time>
      </trkpt>
      <trkpt lat="42.79256" lon="2.36965">
        <ele>542.7</ele>
        <time>2012-08-12T09:31:57Z</time>
      </trkpt>
      <trkpt lat="42.7925" lon="2.36983">
        <ele>542.5</ele>
        <time>2012-08-12T09:31:59Z</time>
      </trkpt>
      <trkpt lat="42.79244" lon="2.36992">
        <ele>542.4</ele>
        <time>2012-08-12T09:32:00Z</time>
      </trkpt>
      <trkpt lat="42.79235" lon="2.37013">
        <ele>541.2</ele>
        <time>2012-08-12T09:32:02Z</time>
      </trkpt>
      <trkpt lat="42.7923" lon="2.37025">
        <ele>541</ele>
        <time>2012-08-12T09:32:03Z</time>
      </trkpt>
      <trkpt lat="42.79222" lon="2.37048">
        <ele>541</ele>
        <time>2012-08-12T09:32:05Z</time>
      </trkpt>
      <trkpt lat="42.79217" lon="2.37076">
        <ele>538.9</ele>
        <time>2012-08-12T09:32:07Z</time>
      </trkpt>
      <trkpt lat="42.79211" lon="2.37104">
        <ele>533.7</ele>
        <time>2012-08-12T09:32:09Z</time>
      </trkpt>
      <trkpt lat="42.79208" lon="2.37119">
        <ele>531.7</ele>
        <time>2012-08-12T09:32:10Z</time>
      </trkpt>
      <trkpt lat="42.79203" lon="2.37132">
        <ele>529.2</ele>
        <time>2012-08-12T09:32:11Z</time>
      </trkpt>
      <trkpt lat="42.79197" lon="2.37159">
        <ele>527.2</ele>
        <time>2012-08-12T09:32:13Z</time>
      </trkpt>
      <trkpt lat="42.79194" lon="2.37172">
        <ele>525.9</ele>
        <time>2012-08-12T09:32:14Z</time>
      </trkpt>
      <trkpt lat="42.79189" lon="2.37198">
        <ele>523</ele>
        <time>2012-08-12T09:32:16Z</time>
      </trkpt>
      <trkpt lat="42.79182" lon="2.37223">
        <ele>521</ele>
        <time>2012-08-12T09:32:18Z</time>
      </trkpt>
      <trkpt lat="42.79178" lon="2.37235">
        <ele>519.9</ele>
        <time>2012-08-12T09:32:19Z</time>
      </trkpt>
      <trkpt lat="42.79168" lon="2.37257">
        <ele>518</ele>
        <time>2012-08-12T09:32:21Z</time>
      </trkpt>
      <trkpt lat="42.79163" lon="2.37268">
        <ele>517.2</ele>
        <time>2012-08-12T09:32:22Z</time>
      </trkpt>
      <trkpt lat="42.79154" lon="2.37289">
        <ele>516</ele>
        <time>2012-08-12T09:32:24Z</time>
      </trkpt>
      <trkpt lat="42.79148" lon="2.37298">
        <ele>515.7</ele>
        <time>2012-08-12T09:32:25Z</time>
      </trkpt>
      <trkpt lat="42.79136" lon="2.37312">
        <ele>515.5</ele>
        <time>2012-08-12T09:32:27Z</time>
      </trkpt>
      <trkpt lat="42.79123" lon="2.37319">
        <ele>514.7</ele>
        <time>2012-08-12T09:32:29Z</time>
      </trkpt>
      <trkpt lat="42.79111" lon="2.37325">
        <ele>514</ele>
        <time>2012-08-12T09:32:31Z</time>
      </trkpt>
      <trkpt lat="42.79101" lon="2.37333">
        <ele>514.5</ele>
        <time>2012-08-12T09:32:33Z</time>
      </trkpt>
      <trkpt lat="42.79092" lon="2.37343">
        <ele>514.7</ele>
        <time>2012-08-12T09:32:35Z</time>
      </trkpt>
      <trkpt lat="42.79085" lon="2.37352">
        <ele>514.5</ele>
        <time>2012-08-12T09:32:37Z</time>
      </trkpt>
      <trkpt lat="42.79078" lon="2.3736">
        <ele>514.5</ele>
        <time>2012-08-12T09:32:39Z</time>
      </trkpt>
      <trkpt lat="42.79073" lon="2.37367">
        <ele>514.7</ele>
        <time>2012-08-12T09:32:41Z</time>
      </trkpt>
      <trkpt lat="42.7906" lon="2.3738">
        <ele>514.5</ele>
        <time>2012-08-12T09:32:45Z</time>
      </trkpt>
      <trkpt lat="42.79047" lon="2.37392">
        <ele>514.7</ele>
        <time>2012-08-12T09:32:50Z</time>
      </trkpt>
      <trkpt lat="42.7904" lon="2.37398">
        <ele>514.7</ele>
        <time>2012-08-12T09:32:53Z</time>
      </trkpt>
      <trkpt lat="42.79025" lon="2.37407">
        <ele>514.4</ele>
        <time>2012-08-12T09:32:59Z</time>
      </trkpt>
      <trkpt lat="42.79012" lon="2.37413">
        <ele>514.5</ele>
        <time>2012-08-12T09:33:03Z</time>
      </trkpt>
      <trkpt lat="42.79002" lon="2.3741">
        <ele>514.7</ele>
        <time>2012-08-12T09:33:07Z</time>
      </trkpt>
      <trkpt lat="42.78991" lon="2.37396">
        <ele>514.7</ele>
        <time>2012-08-12T09:33:12Z</time>
      </trkpt>
      <trkpt lat="42.78986" lon="2.37389">
        <ele>514.5</ele>
        <time>2012-08-12T09:33:14Z</time>
      </trkpt>
      <trkpt lat="42.78978" lon="2.37381">
        <ele>514.5</ele>
        <time>2012-08-12T09:33:16Z</time>
      </trkpt>
      <trkpt lat="42.78971" lon="2.37369">
        <ele>514.4</ele>
        <time>2012-08-12T09:33:18Z</time>
      </trkpt>
      <trkpt lat="42.78964" lon="2.37356">
        <ele>514.2</ele>
        <time>2012-08-12T09:33:20Z</time>
      </trkpt>
      <trkpt lat="42.78959" lon="2.37345">
        <ele>514</ele>
        <time>2012-08-12T09:33:21Z</time>
      </trkpt>
      <trkpt lat="42.78956" lon="2.37335">
        <ele>514</ele>
        <time>2012-08-12T09:33:22Z</time>
      </trkpt>
      <trkpt lat="42.78946" lon="2.37316">
        <ele>513.9</ele>
        <time>2012-08-12T09:33:24Z</time>
      </trkpt>
      <trkpt lat="42.78943" lon="2.37308">
        <ele>513.7</ele>
        <time>2012-08-12T09:33:25Z</time>
      </trkpt>
      <trkpt lat="42.78936" lon="2.3729">
        <ele>513.5</ele>
        <time>2012-08-12T09:33:27Z</time>
      </trkpt>
      <trkpt lat="42.78933" lon="2.37279">
        <ele>513.5</ele>
        <time>2012-08-12T09:33:28Z</time>
      </trkpt>
      <trkpt lat="42.7893" lon="2.37256">
        <ele>513.5</ele>
        <time>2012-08-12T09:33:30Z</time>
      </trkpt>
      <trkpt lat="42.7893" lon="2.37244">
        <ele>513.5</ele>
        <time>2012-08-12T09:33:31Z</time>
      </trkpt>
      <trkpt lat="42.78927" lon="2.37223">
        <ele>513</ele>
        <time>2012-08-12T09:33:33Z</time>
      </trkpt>
      <trkpt lat="42.78925" lon="2.37215">
        <ele>513</ele>
        <time>2012-08-12T09:33:34Z</time>
      </trkpt>
      <trkpt lat="42.78921" lon="2.37199">
        <ele>512.7</ele>
        <time>2012-08-12T09:33:36Z</time>
      </trkpt>
      <trkpt lat="42.78915" lon="2.37184">
        <ele>512.5</ele>
        <time>2012-08-12T09:33:38Z</time>
      </trkpt>
      <trkpt lat="42.78907" lon="2.37174">
        <ele>512.4</ele>
        <time>2012-08-12T09:33:40Z</time>
      </trkpt>
      <trkpt lat="42.78894" lon="2.37177">
        <ele>511</ele>
        <time>2012-08-12T09:33:44Z</time>
      </trkpt>
      <trkpt lat="42.7889" lon="2.37185">
        <ele>510.6</ele>
        <time>2012-08-12T09:33:46Z</time>
      </trkpt>
      <trkpt lat="42.78879" lon="2.372">
        <ele>510.8</ele>
        <time>2012-08-12T09:33:50Z</time>
      </trkpt>
      <trkpt lat="42.78873" lon="2.37209">
        <ele>511.2</ele>
        <time>2012-08-12T09:33:53Z</time>
      </trkpt>
      <trkpt lat="42.78867" lon="2.37216">
        <ele>511.7</ele>
        <time>2012-08-12T09:33:56Z</time>
      </trkpt>
      <trkpt lat="42.78859" lon="2.37235">
        <ele>512.4</ele>
        <time>2012-08-12T09:34:04Z</time>
      </trkpt>
      <trkpt lat="42.78854" lon="2.37246">
        <ele>513.2</ele>
        <time>2012-08-12T09:34:10Z</time>
      </trkpt>
      <trkpt lat="42.78864" lon="2.37244">
        <ele>523.2</ele>
        <time>2012-08-12T10:06:50Z</time>
      </trkpt>
      <trkpt lat="42.78872" lon="2.37248">
        <ele>520.2</ele>
        <time>2012-08-12T10:09:24Z</time>
      </trkpt>
      <trkpt lat="42.78853" lon="2.37246">
        <ele>516.2</ele>
        <time>2012-08-12T10:11:37Z</time>
      </trkpt>
      <trkpt lat="42.78852" lon="2.37246">
        <ele>516.2</ele>
        <time>2012-08-12T10:11:38Z</time>
      </trkpt>
      <trkpt lat="42.78838" lon="2.37254">
        <ele>516.7</ele>
        <time>2012-08-12T10:12:01Z</time>
      </trkpt>
      <trkpt lat="42.78831" lon="2.37261">
        <ele>517.2</ele>
        <time>2012-08-12T10:12:07Z</time>
      </trkpt>
      <trkpt lat="42.7882" lon="2.37277">
        <ele>518</ele>
        <time>2012-08-12T10:12:18Z</time>
      </trkpt>
      <trkpt lat="42.7881" lon="2.37296">
        <ele>518</ele>
        <time>2012-08-12T10:12:28Z</time>
      </trkpt>
      <trkpt lat="42.78801" lon="2.37315">
        <ele>518.5</ele>
        <time>2012-08-12T10:12:38Z</time>
      </trkpt>
      <trkpt lat="42.78798" lon="2.37329">
        <ele>518.5</ele>
        <time>2012-08-12T10:12:44Z</time>
      </trkpt>
      <trkpt lat="42.78792" lon="2.37348">
        <ele>518.2</ele>
        <time>2012-08-12T10:12:53Z</time>
      </trkpt>
      <trkpt lat="42.78783" lon="2.37366">
        <ele>518</ele>
        <time>2012-08-12T10:13:07Z</time>
      </trkpt>
      <trkpt lat="42.78788" lon="2.37375">
        <ele>518.7</ele>
        <time>2012-08-12T10:13:38Z</time>
      </trkpt>
      <trkpt lat="42.78789" lon="2.37389">
        <ele>518.2</ele>
        <time>2012-08-12T10:13:47Z</time>
      </trkpt>
      <trkpt lat="42.78783" lon="2.37407">
        <ele>516.9</ele>
        <time>2012-08-12T10:13:58Z</time>
      </trkpt>
      <trkpt lat="42.78789" lon="2.37415">
        <ele>515</ele>
        <time>2012-08-12T10:14:05Z</time>
      </trkpt>
      <trkpt lat="42.78797" lon="2.37412">
        <ele>514.2</ele>
        <time>2012-08-12T10:14:13Z</time>
      </trkpt>
      <trkpt lat="42.78804" lon="2.37418">
        <ele>513.7</ele>
        <time>2012-08-12T10:14:19Z</time>
      </trkpt>
      <trkpt lat="42.78808" lon="2.37437">
        <ele>513.2</ele>
        <time>2012-08-12T10:14:25Z</time>
      </trkpt>
      <trkpt lat="42.78814" lon="2.37451">
        <ele>512.7</ele>
        <time>2012-08-12T10:14:28Z</time>
      </trkpt>
      <trkpt lat="42.78826" lon="2.37463">
        <ele>511.6</ele>
        <time>2012-08-12T10:14:31Z</time>
      </trkpt>
      <trkpt lat="42.78833" lon="2.37473">
        <ele>510.3</ele>
        <time>2012-08-12T10:14:33Z</time>
      </trkpt>
      <trkpt lat="42.78835" lon="2.37485">
        <ele>509.7</ele>
        <time>2012-08-12T10:14:35Z</time>
      </trkpt>
      <trkpt lat="42.78838" lon="2.37496">
        <ele>508.6</ele>
        <time>2012-08-12T10:14:38Z</time>
      </trkpt>
      <trkpt lat="42.78843" lon="2.37509">
        <ele>507.5</ele>
        <time>2012-08-12T10:14:40Z</time>
      </trkpt>
      <trkpt lat="42.78847" lon="2.37517">
        <ele>506.7</ele>
        <time>2012-08-12T10:14:41Z</time>
      </trkpt>
      <trkpt lat="42.7885" lon="2.37531">
        <ele>505.7</ele>
        <time>2012-08-12T10:14:43Z</time>
      </trkpt>
      <trkpt lat="42.78857" lon="2.37546">
        <ele>503.5</ele>
        <time>2012-08-12T10:14:46Z</time>
      </trkpt>
      <trkpt lat="42.78863" lon="2.37555">
        <ele>502</ele>
        <time>2012-08-12T10:14:48Z</time>
      </trkpt>
      <trkpt lat="42.78857" lon="2.37575">
        <ele>498.5</ele>
        <time>2012-08-12T10:14:52Z</time>
      </trkpt>
      <trkpt lat="42.78851" lon="2.37583">
        <ele>495.8</ele>
        <time>2012-08-12T10:14:54Z</time>
      </trkpt>
      <trkpt lat="42.78843" lon="2.37586">
        <ele>491.7</ele>
        <time>2012-08-12T10:14:57Z</time>
      </trkpt>
      <trkpt lat="42.78852" lon="2.37584">
        <ele>466.2</ele>
        <time>2012-08-12T10:17:35Z</time>
      </trkpt>
      <trkpt lat="42.78866" lon="2.37592">
        <ele>464.6</ele>
        <time>2012-08-12T10:17:45Z</time>
      </trkpt>
      <trkpt lat="42.78875" lon="2.37596">
        <ele>463.6</ele>
        <time>2012-08-12T10:17:47Z</time>
      </trkpt>
      <trkpt lat="42.78884" lon="2.37593">
        <ele>462.1</ele>
        <time>2012-08-12T10:17:49Z</time>
      </trkpt>
      <trkpt lat="42.78895" lon="2.37582">
        <ele>462.2</ele>
        <time>2012-08-12T10:17:52Z</time>
      </trkpt>
      <trkpt lat="42.78903" lon="2.37584">
        <ele>462</ele>
        <time>2012-08-12T10:17:55Z</time>
      </trkpt>
      <trkpt lat="42.78907" lon="2.37595">
        <ele>461.8</ele>
        <time>2012-08-12T10:17:58Z</time>
      </trkpt>
      <trkpt lat="42.78915" lon="2.37611">
        <ele>461.7</ele>
        <time>2012-08-12T10:18:02Z</time>
      </trkpt>
      <trkpt lat="42.78919" lon="2.37622">
        <ele>461.7</ele>
        <time>2012-08-12T10:18:04Z</time>
      </trkpt>
      <trkpt lat="42.78924" lon="2.37631">
        <ele>461.5</ele>
        <time>2012-08-12T10:18:06Z</time>
      </trkpt>
      <trkpt lat="42.78939" lon="2.37638">
        <ele>461.2</ele>
        <time>2012-08-12T10:18:09Z</time>
      </trkpt>
      <trkpt lat="42.78952" lon="2.37638">
        <ele>460.8</ele>
        <time>2012-08-12T10:18:11Z</time>
      </trkpt>
      <trkpt lat="42.78958" lon="2.37639">
        <ele>460.7</ele>
        <time>2012-08-12T10:18:12Z</time>
      </trkpt>
      <trkpt lat="42.78969" lon="2.37644">
        <ele>460.6</ele>
        <time>2012-08-12T10:18:14Z</time>
      </trkpt>
      <trkpt lat="42.78985" lon="2.37648">
        <ele>460.2</ele>
        <time>2012-08-12T10:18:28Z</time>
      </trkpt>
      <trkpt lat="42.78991" lon="2.37642">
        <ele>459.7</ele>
        <time>2012-08-12T10:18:32Z</time>
      </trkpt>
      <trkpt lat="42.78999" lon="2.37637">
        <ele>453.8</ele>
        <time>2012-08-12T10:19:36Z</time>
      </trkpt>
      <trkpt lat="42.79011" lon="2.37645">
        <ele>452.2</ele>
        <time>2012-08-12T10:20:30Z</time>
      </trkpt>
      <trkpt lat="42.79016" lon="2.37656">
        <ele>452.3</ele>
        <time>2012-08-12T10:20:44Z</time>
      </trkpt>
      <trkpt lat="42.79031" lon="2.37659">
        <ele>452.2</ele>
        <time>2012-08-12T10:21:00Z</time>
      </trkpt>
      <trkpt lat="42.79045" lon="2.37649">
        <ele>452.1</ele>
        <time>2012-08-12T10:21:12Z</time>
      </trkpt>
      <trkpt lat="42.79059" lon="2.37646">
        <ele>452.1</ele>
        <time>2012-08-12T10:21:16Z</time>
      </trkpt>
      <trkpt lat="42.79066" lon="2.37642">
        <ele>451.8</ele>
        <time>2012-08-12T10:21:19Z</time>
      </trkpt>
      <trkpt lat="42.7908" lon="2.37641">
        <ele>451.7</ele>
        <time>2012-08-12T10:21:23Z</time>
      </trkpt>
      <trkpt lat="42.79088" lon="2.37646">
        <ele>451.7</ele>
        <time>2012-08-12T10:21:25Z</time>
      </trkpt>
      <trkpt lat="42.79095" lon="2.37652">
        <ele>451.5</ele>
        <time>2012-08-12T10:21:28Z</time>
      </trkpt>
      <trkpt lat="42.79107" lon="2.37663">
        <ele>451</ele>
        <time>2012-08-12T10:21:33Z</time>
      </trkpt>
      <trkpt lat="42.79116" lon="2.3767">
        <ele>451.1</ele>
        <time>2012-08-12T10:21:35Z</time>
      </trkpt>
      <trkpt lat="42.79127" lon="2.37678">
        <ele>450.5</ele>
        <time>2012-08-12T10:21:38Z</time>
      </trkpt>
      <trkpt lat="42.79139" lon="2.37684">
        <ele>449.8</ele>
        <time>2012-08-12T10:21:41Z</time>
      </trkpt>
      <trkpt lat="42.79152" lon="2.37695">
        <ele>449.3</ele>
        <time>2012-08-12T10:21:45Z</time>
      </trkpt>
      <trkpt lat="42.79166" lon="2.37699">
        <ele>448.6</ele>
        <time>2012-08-12T10:21:49Z</time>
      </trkpt>
      <trkpt lat="42.79172" lon="2.37704">
        <ele>448.6</ele>
        <time>2012-08-12T10:21:51Z</time>
      </trkpt>
      <trkpt lat="42.79184" lon="2.37717">
        <ele>448.2</ele>
        <time>2012-08-12T10:21:55Z</time>
      </trkpt>
      <trkpt lat="42.79194" lon="2.37733">
        <ele>448.2</ele>
        <time>2012-08-12T10:22:04Z</time>
      </trkpt>
      <trkpt lat="42.79202" lon="2.37739">
        <ele>448.2</ele>
        <time>2012-08-12T10:22:06Z</time>
      </trkpt>
      <trkpt lat="42.79214" lon="2.37756">
        <ele>447.8</ele>
        <time>2012-08-12T10:22:11Z</time>
      </trkpt>
      <trkpt lat="42.79219" lon="2.37763">
        <ele>447.8</ele>
        <time>2012-08-12T10:22:13Z</time>
      </trkpt>
      <trkpt lat="42.79226" lon="2.37774">
        <ele>447.8</ele>
        <time>2012-08-12T10:22:15Z</time>
      </trkpt>
      <trkpt lat="42.79237" lon="2.37786">
        <ele>447.2</ele>
        <time>2012-08-12T10:22:19Z</time>
      </trkpt>
      <trkpt lat="42.79248" lon="2.37788">
        <ele>447.2</ele>
        <time>2012-08-12T10:22:21Z</time>
      </trkpt>
      <trkpt lat="42.79261" lon="2.378">
        <ele>446.7</ele>
        <time>2012-08-12T10:22:26Z</time>
      </trkpt>
      <trkpt lat="42.79269" lon="2.37805">
        <ele>446.3</ele>
        <time>2012-08-12T10:22:29Z</time>
      </trkpt>
      <trkpt lat="42.79278" lon="2.37803">
        <ele>446.3</ele>
        <time>2012-08-12T10:22:32Z</time>
      </trkpt>
      <trkpt lat="42.79287" lon="2.37802">
        <ele>446.3</ele>
        <time>2012-08-12T10:22:38Z</time>
      </trkpt>
      <trkpt lat="42.79295" lon="2.37807">
        <ele>447.7</ele>
        <time>2012-08-12T10:23:13Z</time>
      </trkpt>
      <trkpt lat="42.79306" lon="2.37823">
        <ele>448.5</ele>
        <time>2012-08-12T10:23:26Z</time>
      </trkpt>
      <trkpt lat="42.7931" lon="2.3783">
        <ele>448.6</ele>
        <time>2012-08-12T10:23:29Z</time>
      </trkpt>
      <trkpt lat="42.79324" lon="2.37844">
        <ele>448.8</ele>
        <time>2012-08-12T10:23:40Z</time>
      </trkpt>
      <trkpt lat="42.79331" lon="2.3785">
        <ele>448.7</ele>
        <time>2012-08-12T10:23:45Z</time>
      </trkpt>
      <trkpt lat="42.79344" lon="2.37847">
        <ele>448.6</ele>
        <time>2012-08-12T10:23:51Z</time>
      </trkpt>
      <trkpt lat="42.7936" lon="2.37841">
        <ele>447.7</ele>
        <time>2012-08-12T10:23:57Z</time>
      </trkpt>
      <trkpt lat="42.79376" lon="2.37838">
        <ele>446.8</ele>
        <time>2012-08-12T10:24:01Z</time>
      </trkpt>
      <trkpt lat="42.79389" lon="2.3783">
        <ele>445.7</ele>
        <time>2012-08-12T10:24:06Z</time>
      </trkpt>
      <trkpt lat="42.79395" lon="2.37822">
        <ele>445.5</ele>
        <time>2012-08-12T10:24:12Z</time>
      </trkpt>
      <trkpt lat="42.79406" lon="2.37823">
        <ele>445.2</ele>
        <time>2012-08-12T10:24:17Z</time>
      </trkpt>
      <trkpt lat="42.79419" lon="2.37828">
        <ele>445.2</ele>
        <time>2012-08-12T10:24:20Z</time>
      </trkpt>
      <trkpt lat="42.79425" lon="2.37832">
        <ele>445.3</ele>
        <time>2012-08-12T10:24:22Z</time>
      </trkpt>
      <trkpt lat="42.79432" lon="2.37847">
        <ele>444.8</ele>
        <time>2012-08-12T10:24:25Z</time>
      </trkpt>
      <trkpt lat="42.7943" lon="2.37859">
        <ele>444.7</ele>
        <time>2012-08-12T10:24:27Z</time>
      </trkpt>
      <trkpt lat="42.79422" lon="2.37881">
        <ele>443.6</ele>
        <time>2012-08-12T10:24:32Z</time>
      </trkpt>
      <trkpt lat="42.79414" lon="2.37897">
        <ele>443.2</ele>
        <time>2012-08-12T10:24:38Z</time>
      </trkpt>
      <trkpt lat="42.79407" lon="2.37904">
        <ele>442.8</ele>
        <time>2012-08-12T10:24:45Z</time>
      </trkpt>
      <trkpt lat="42.79398" lon="2.37915">
        <ele>442.6</ele>
        <time>2012-08-12T10:24:50Z</time>
      </trkpt>
      <trkpt lat="42.79406" lon="2.3792">
        <ele>442.1</ele>
        <time>2012-08-12T10:24:52Z</time>
      </trkpt>
      <trkpt lat="42.79413" lon="2.37926">
        <ele>441</ele>
        <time>2012-08-12T10:24:54Z</time>
      </trkpt>
      <trkpt lat="42.79421" lon="2.37928">
        <ele>440.5</ele>
        <time>2012-08-12T10:24:56Z</time>
      </trkpt>
      <trkpt lat="42.79435" lon="2.37926">
        <ele>439.7</ele>
        <time>2012-08-12T10:25:01Z</time>
      </trkpt>
      <trkpt lat="42.79451" lon="2.37925">
        <ele>438.7</ele>
        <time>2012-08-12T10:25:07Z</time>
      </trkpt>
      <trkpt lat="42.79456" lon="2.37917">
        <ele>437.7</ele>
        <time>2012-08-12T10:25:16Z</time>
      </trkpt>
      <trkpt lat="42.79465" lon="2.37912">
        <ele>437.5</ele>
        <time>2012-08-12T10:25:22Z</time>
      </trkpt>
      <trkpt lat="42.79476" lon="2.37903">
        <ele>436.3</ele>
        <time>2012-08-12T10:25:28Z</time>
      </trkpt>
      <trkpt lat="42.7949" lon="2.37896">
        <ele>436</ele>
        <time>2012-08-12T10:25:35Z</time>
      </trkpt>
      <trkpt lat="42.79507" lon="2.37898">
        <ele>436.2</ele>
        <time>2012-08-12T10:25:57Z</time>
      </trkpt>
      <trkpt lat="42.79512" lon="2.37905">
        <ele>436.2</ele>
        <time>2012-08-12T10:26:00Z</time>
      </trkpt>
      <trkpt lat="42.79517" lon="2.37922">
        <ele>436.1</ele>
        <time>2012-08-12T10:26:04Z</time>
      </trkpt>
      <trkpt lat="42.79516" lon="2.37934">
        <ele>436</ele>
        <time>2012-08-12T10:26:08Z</time>
      </trkpt>
      <trkpt lat="42.79524" lon="2.37948">
        <ele>435.7</ele>
        <time>2012-08-12T10:26:12Z</time>
      </trkpt>
      <trkpt lat="42.79531" lon="2.37954">
        <ele>435.7</ele>
        <time>2012-08-12T10:26:14Z</time>
      </trkpt>
      <trkpt lat="42.79545" lon="2.37962">
        <ele>435.7</ele>
        <time>2012-08-12T10:26:19Z</time>
      </trkpt>
      <trkpt lat="42.79553" lon="2.3797">
        <ele>435.8</ele>
        <time>2012-08-12T10:26:23Z</time>
      </trkpt>
      <trkpt lat="42.79562" lon="2.37977">
        <ele>435.8</ele>
        <time>2012-08-12T10:26:26Z</time>
      </trkpt>
      <trkpt lat="42.79575" lon="2.37975">
        <ele>435.8</ele>
        <time>2012-08-12T10:26:30Z</time>
      </trkpt>
      <trkpt lat="42.7959" lon="2.37971">
        <ele>435.8</ele>
        <time>2012-08-12T10:26:34Z</time>
      </trkpt>
      <trkpt lat="42.79598" lon="2.37973">
        <ele>435.7</ele>
        <time>2012-08-12T10:26:39Z</time>
      </trkpt>
      <trkpt lat="42.79614" lon="2.37973">
        <ele>435.7</ele>
        <time>2012-08-12T10:26:46Z</time>
      </trkpt>
      <trkpt lat="42.7963" lon="2.3797">
        <ele>432.7</ele>
        <time>2012-08-12T10:26:55Z</time>
      </trkpt>
      <trkpt lat="42.79641" lon="2.37981">
        <ele>431.8</ele>
        <time>2012-08-12T10:27:02Z</time>
      </trkpt>
      <trkpt lat="42.7965" lon="2.37996">
        <ele>432.3</ele>
        <time>2012-08-12T10:27:07Z</time>
      </trkpt>
      <trkpt lat="42.79652" lon="2.38007">
        <ele>432.5</ele>
        <time>2012-08-12T10:27:09Z</time>
      </trkpt>
      <trkpt lat="42.79657" lon="2.38024">
        <ele>433</ele>
        <time>2012-08-12T10:27:13Z</time>
      </trkpt>
      <trkpt lat="42.79656" lon="2.38035">
        <ele>432.8</ele>
        <time>2012-08-12T10:27:15Z</time>
      </trkpt>
      <trkpt lat="42.79654" lon="2.38053">
        <ele>432.7</ele>
        <time>2012-08-12T10:27:20Z</time>
      </trkpt>
      <trkpt lat="42.79646" lon="2.38063">
        <ele>432.7</ele>
        <time>2012-08-12T10:27:23Z</time>
      </trkpt>
      <trkpt lat="42.79637" lon="2.38067">
        <ele>432.8</ele>
        <time>2012-08-12T10:27:27Z</time>
      </trkpt>
      <trkpt lat="42.79626" lon="2.38074">
        <ele>433.1</ele>
        <time>2012-08-12T10:27:31Z</time>
      </trkpt>
      <trkpt lat="42.79633" lon="2.38089">
        <ele>433.1</ele>
        <time>2012-08-12T10:27:33Z</time>
      </trkpt>
      <trkpt lat="42.79638" lon="2.381">
        <ele>432.8</ele>
        <time>2012-08-12T10:27:34Z</time>
      </trkpt>
      <trkpt lat="42.79637" lon="2.38122">
        <ele>432.2</ele>
        <time>2012-08-12T10:27:38Z</time>
      </trkpt>
      <trkpt lat="42.79629" lon="2.38135">
        <ele>431.7</ele>
        <time>2012-08-12T10:27:42Z</time>
      </trkpt>
      <trkpt lat="42.79629" lon="2.38147">
        <ele>430.6</ele>
        <time>2012-08-12T10:27:47Z</time>
      </trkpt>
      <trkpt lat="42.79635" lon="2.38161">
        <ele>430</ele>
        <time>2012-08-12T10:27:52Z</time>
      </trkpt>
      <trkpt lat="42.79639" lon="2.38169">
        <ele>428.5</ele>
        <time>2012-08-12T10:27:54Z</time>
      </trkpt>
      <trkpt lat="42.79647" lon="2.38176">
        <ele>428</ele>
        <time>2012-08-12T10:27:57Z</time>
      </trkpt>
      <trkpt lat="42.79656" lon="2.38178">
        <ele>427.7</ele>
        <time>2012-08-12T10:28:01Z</time>
      </trkpt>
      <trkpt lat="42.79666" lon="2.38184">
        <ele>425.5</ele>
        <time>2012-08-12T10:28:04Z</time>
      </trkpt>
      <trkpt lat="42.79682" lon="2.38189">
        <ele>423.6</ele>
        <time>2012-08-12T10:28:09Z</time>
      </trkpt>
      <trkpt lat="42.7969" lon="2.38192">
        <ele>418.6</ele>
        <time>2012-08-12T10:28:20Z</time>
      </trkpt>
      <trkpt lat="42.79698" lon="2.382">
        <ele>416.5</ele>
        <time>2012-08-12T10:28:29Z</time>
      </trkpt>
      <trkpt lat="42.7971" lon="2.38214">
        <ele>413.1</ele>
        <time>2012-08-12T10:28:39Z</time>
      </trkpt>
      <trkpt lat="42.79713" lon="2.38224">
        <ele>411.2</ele>
        <time>2012-08-12T10:28:46Z</time>
      </trkpt>
      <trkpt lat="42.79726" lon="2.38234">
        <ele>410.7</ele>
        <time>2012-08-12T10:28:50Z</time>
      </trkpt>
      <trkpt lat="42.79738" lon="2.38244">
        <ele>410.3</ele>
        <time>2012-08-12T10:28:53Z</time>
      </trkpt>
      <trkpt lat="42.79749" lon="2.38252">
        <ele>410.1</ele>
        <time>2012-08-12T10:28:56Z</time>
      </trkpt>
      <trkpt lat="42.79761" lon="2.38261">
        <ele>409.8</ele>
        <time>2012-08-12T10:29:00Z</time>
      </trkpt>
      <trkpt lat="42.79771" lon="2.38275">
        <ele>409.7</ele>
        <time>2012-08-12T10:29:04Z</time>
      </trkpt>
      <trkpt lat="42.79778" lon="2.38282">
        <ele>409.2</ele>
        <time>2012-08-12T10:29:06Z</time>
      </trkpt>
      <trkpt lat="42.79785" lon="2.38288">
        <ele>408.7</ele>
        <time>2012-08-12T10:29:08Z</time>
      </trkpt>
      <trkpt lat="42.79802" lon="2.38291">
        <ele>408.2</ele>
        <time>2012-08-12T10:29:12Z</time>
      </trkpt>
      <trkpt lat="42.79814" lon="2.38287">
        <ele>407.2</ele>
        <time>2012-08-12T10:29:15Z</time>
      </trkpt>
      <trkpt lat="42.79824" lon="2.38284">
        <ele>405.2</ele>
        <time>2012-08-12T10:29:18Z</time>
      </trkpt>
      <trkpt lat="42.79833" lon="2.38281">
        <ele>404.1</ele>
        <time>2012-08-12T10:29:20Z</time>
      </trkpt>
      <trkpt lat="42.79845" lon="2.38281">
        <ele>401</ele>
        <time>2012-08-12T10:29:22Z</time>
      </trkpt>
      <trkpt lat="42.79859" lon="2.38276">
        <ele>398</ele>
        <time>2012-08-12T10:29:25Z</time>
      </trkpt>
      <trkpt lat="42.7987" lon="2.38276">
        <ele>396.1</ele>
        <time>2012-08-12T10:29:27Z</time>
      </trkpt>
      <trkpt lat="42.79884" lon="2.38276">
        <ele>394.5</ele>
        <time>2012-08-12T10:29:30Z</time>
      </trkpt>
      <trkpt lat="42.79897" lon="2.38285">
        <ele>393</ele>
        <time>2012-08-12T10:29:33Z</time>
      </trkpt>
      <trkpt lat="42.79904" lon="2.38291">
        <ele>391.7</ele>
        <time>2012-08-12T10:29:35Z</time>
      </trkpt>
      <trkpt lat="42.79915" lon="2.38296">
        <ele>370.8</ele>
        <time>2012-08-12T10:42:23Z</time>
      </trkpt>
      <trkpt lat="42.79924" lon="2.38308">
        <ele>370.6</ele>
        <time>2012-08-12T10:42:28Z</time>
      </trkpt>
      <trkpt lat="42.79927" lon="2.38315">
        <ele>370.6</ele>
        <time>2012-08-12T10:42:30Z</time>
      </trkpt>
      <trkpt lat="42.79936" lon="2.38328">
        <ele>370.5</ele>
        <time>2012-08-12T10:42:34Z</time>
      </trkpt>
      <trkpt lat="42.79948" lon="2.38331">
        <ele>369.7</ele>
        <time>2012-08-12T10:42:38Z</time>
      </trkpt>
      <trkpt lat="42.79962" lon="2.38333">
        <ele>368.8</ele>
        <time>2012-08-12T10:42:42Z</time>
      </trkpt>
      <trkpt lat="42.79976" lon="2.38333">
        <ele>369</ele>
        <time>2012-08-12T10:42:46Z</time>
      </trkpt>
      <trkpt lat="42.79991" lon="2.38329">
        <ele>368.7</ele>
        <time>2012-08-12T10:42:50Z</time>
      </trkpt>
      <trkpt lat="42.80007" lon="2.38331">
        <ele>368.2</ele>
        <time>2012-08-12T10:42:54Z</time>
      </trkpt>
      <trkpt lat="42.80021" lon="2.38339">
        <ele>368.3</ele>
        <time>2012-08-12T10:42:58Z</time>
      </trkpt>
      <trkpt lat="42.80028" lon="2.38344">
        <ele>368</ele>
        <time>2012-08-12T10:43:00Z</time>
      </trkpt>
      <trkpt lat="42.8004" lon="2.38358">
        <ele>368.3</ele>
        <time>2012-08-12T10:43:04Z</time>
      </trkpt>
      <trkpt lat="42.80049" lon="2.38375">
        <ele>369</ele>
        <time>2012-08-12T10:43:08Z</time>
      </trkpt>
      <trkpt lat="42.80057" lon="2.38393">
        <ele>369.2</ele>
        <time>2012-08-12T10:43:12Z</time>
      </trkpt>
      <trkpt lat="42.80063" lon="2.38411">
        <ele>369.2</ele>
        <time>2012-08-12T10:43:16Z</time>
      </trkpt>
      <trkpt lat="42.80067" lon="2.38431">
        <ele>369.6</ele>
        <time>2012-08-12T10:43:20Z</time>
      </trkpt>
      <trkpt lat="42.8007" lon="2.38452">
        <ele>369.7</ele>
        <time>2012-08-12T10:43:24Z</time>
      </trkpt>
      <trkpt lat="42.80069" lon="2.38473">
        <ele>370.1</ele>
        <time>2012-08-12T10:43:28Z</time>
      </trkpt>
      <trkpt lat="42.80071" lon="2.38495">
        <ele>370.2</ele>
        <time>2012-08-12T10:43:32Z</time>
      </trkpt>
      <trkpt lat="42.80075" lon="2.38505">
        <ele>369.5</ele>
        <time>2012-08-12T10:43:34Z</time>
      </trkpt>
      <trkpt lat="42.80088" lon="2.38512">
        <ele>369.2</ele>
        <time>2012-08-12T10:43:38Z</time>
      </trkpt>
      <trkpt lat="42.80095" lon="2.38507">
        <ele>369</ele>
        <time>2012-08-12T10:43:41Z</time>
      </trkpt>
      <trkpt lat="42.801" lon="2.38497">
        <ele>375.7</ele>
        <time>2012-08-12T10:44:28Z</time>
      </trkpt>
      <trkpt lat="42.8011" lon="2.38485">
        <ele>372.8</ele>
        <time>2012-08-12T10:44:33Z</time>
      </trkpt>
      <trkpt lat="42.80118" lon="2.38473">
        <ele>372.8</ele>
        <time>2012-08-12T10:44:37Z</time>
      </trkpt>
      <trkpt lat="42.80125" lon="2.38457">
        <ele>373</ele>
        <time>2012-08-12T10:44:41Z</time>
      </trkpt>
      <trkpt lat="42.80131" lon="2.3844">
        <ele>373.1</ele>
        <time>2012-08-12T10:44:46Z</time>
      </trkpt>
      <trkpt lat="42.80134" lon="2.38429">
        <ele>373.7</ele>
        <time>2012-08-12T10:44:51Z</time>
      </trkpt>
      <trkpt lat="42.80138" lon="2.38409">
        <ele>374.2</ele>
        <time>2012-08-12T10:45:01Z</time>
      </trkpt>
      <trkpt lat="42.8014" lon="2.38398">
        <ele>374.6</ele>
        <time>2012-08-12T10:45:06Z</time>
      </trkpt>
      <trkpt lat="42.80146" lon="2.38377">
        <ele>375.7</ele>
        <time>2012-08-12T10:45:16Z</time>
      </trkpt>
      <trkpt lat="42.80152" lon="2.38357">
        <ele>377</ele>
        <time>2012-08-12T10:45:26Z</time>
      </trkpt>
      <trkpt lat="42.80156" lon="2.38344">
        <ele>377.7</ele>
        <time>2012-08-12T10:45:32Z</time>
      </trkpt>
      <trkpt lat="42.80166" lon="2.38314">
        <ele>381.1</ele>
        <time>2012-08-12T10:45:46Z</time>
      </trkpt>
      <trkpt lat="42.80171" lon="2.38293">
        <ele>381.8</ele>
        <time>2012-08-12T10:45:56Z</time>
      </trkpt>
      <trkpt lat="42.80176" lon="2.38274">
        <ele>382.5</ele>
        <time>2012-08-12T10:46:04Z</time>
      </trkpt>
      <trkpt lat="42.80182" lon="2.38253">
        <ele>383.2</ele>
        <time>2012-08-12T10:46:13Z</time>
      </trkpt>
      <trkpt lat="42.80185" lon="2.38231">
        <ele>384.6</ele>
        <time>2012-08-12T10:46:23Z</time>
      </trkpt>
      <trkpt lat="42.80188" lon="2.38221">
        <ele>384.7</ele>
        <time>2012-08-12T10:46:27Z</time>
      </trkpt>
      <trkpt lat="42.80191" lon="2.38207">
        <ele>387.3</ele>
        <time>2012-08-12T10:46:34Z</time>
      </trkpt>
      <trkpt lat="42.80194" lon="2.38177">
        <ele>388.1</ele>
        <time>2012-08-12T10:46:48Z</time>
      </trkpt>
      <trkpt lat="42.80199" lon="2.38156">
        <ele>392</ele>
        <time>2012-08-12T10:46:57Z</time>
      </trkpt>
      <trkpt lat="42.80203" lon="2.38146">
        <ele>392.7</ele>
        <time>2012-08-12T10:47:02Z</time>
      </trkpt>
      <trkpt lat="42.80208" lon="2.38137">
        <ele>394.6</ele>
        <time>2012-08-12T10:47:07Z</time>
      </trkpt>
      <trkpt lat="42.80219" lon="2.38122">
        <ele>397</ele>
        <time>2012-08-12T10:47:14Z</time>
      </trkpt>
      <trkpt lat="42.80233" lon="2.38109">
        <ele>395.7</ele>
        <time>2012-08-12T10:47:20Z</time>
      </trkpt>
      <trkpt lat="42.80236" lon="2.38097">
        <ele>396.6</ele>
        <time>2012-08-12T10:47:54Z</time>
      </trkpt>
      <trkpt lat="42.8023" lon="2.38076">
        <ele>396.7</ele>
        <time>2012-08-12T10:48:05Z</time>
      </trkpt>
      <trkpt lat="42.80226" lon="2.38066">
        <ele>398</ele>
        <time>2012-08-12T10:48:11Z</time>
      </trkpt>
      <trkpt lat="42.80215" lon="2.38051">
        <ele>403.2</ele>
        <time>2012-08-12T10:48:41Z</time>
      </trkpt>
      <trkpt lat="42.80201" lon="2.38048">
        <ele>404.7</ele>
        <time>2012-08-12T10:48:46Z</time>
      </trkpt>
      <trkpt lat="42.80193" lon="2.38035">
        <ele>405.6</ele>
        <time>2012-08-12T10:48:52Z</time>
      </trkpt>
      <trkpt lat="42.80192" lon="2.38021">
        <ele>405.1</ele>
        <time>2012-08-12T10:48:55Z</time>
      </trkpt>
      <trkpt lat="42.80201" lon="2.38011">
        <ele>405</ele>
        <time>2012-08-12T10:48:58Z</time>
      </trkpt>
      <trkpt lat="42.80209" lon="2.38008">
        <ele>404.8</ele>
        <time>2012-08-12T10:49:00Z</time>
      </trkpt>
      <trkpt lat="42.80218" lon="2.38005">
        <ele>405.1</ele>
        <time>2012-08-12T10:49:02Z</time>
      </trkpt>
      <trkpt lat="42.80228" lon="2.37998">
        <ele>404.7</ele>
        <time>2012-08-12T10:49:04Z</time>
      </trkpt>
      <trkpt lat="42.80239" lon="2.37988">
        <ele>404.7</ele>
        <time>2012-08-12T10:49:06Z</time>
      </trkpt>
      <trkpt lat="42.80248" lon="2.37978">
        <ele>404.7</ele>
        <time>2012-08-12T10:49:08Z</time>
      </trkpt>
      <trkpt lat="42.80253" lon="2.37971">
        <ele>404.5</ele>
        <time>2012-08-12T10:49:09Z</time>
      </trkpt>
      <trkpt lat="42.8026" lon="2.37961">
        <ele>404.6</ele>
        <time>2012-08-12T10:49:11Z</time>
      </trkpt>
      <trkpt lat="42.80267" lon="2.37953">
        <ele>405</ele>
        <time>2012-08-12T10:49:13Z</time>
      </trkpt>
      <trkpt lat="42.80278" lon="2.37943">
        <ele>405.1</ele>
        <time>2012-08-12T10:49:17Z</time>
      </trkpt>
      <trkpt lat="42.80289" lon="2.37929">
        <ele>406.2</ele>
        <time>2012-08-12T10:49:22Z</time>
      </trkpt>
      <trkpt lat="42.80294" lon="2.37919">
        <ele>406.7</ele>
        <time>2012-08-12T10:49:25Z</time>
      </trkpt>
      <trkpt lat="42.80307" lon="2.37907">
        <ele>406.7</ele>
        <time>2012-08-12T10:50:03Z</time>
      </trkpt>
      <trkpt lat="42.8031" lon="2.37892">
        <ele>406.8</ele>
        <time>2012-08-12T10:50:06Z</time>
      </trkpt>
      <trkpt lat="42.80318" lon="2.37876">
        <ele>407</ele>
        <time>2012-08-12T10:50:11Z</time>
      </trkpt>
      <trkpt lat="42.80329" lon="2.37862">
        <ele>406.8</ele>
        <time>2012-08-12T10:50:15Z</time>
      </trkpt>
      <trkpt lat="42.80341" lon="2.37854">
        <ele>406.3</ele>
        <time>2012-08-12T10:50:20Z</time>
      </trkpt>
      <trkpt lat="42.80355" lon="2.37857">
        <ele>405.7</ele>
        <time>2012-08-12T10:50:26Z</time>
      </trkpt>
      <trkpt lat="42.80364" lon="2.37861">
        <ele>405.2</ele>
        <time>2012-08-12T10:50:31Z</time>
      </trkpt>
      <trkpt lat="42.80374" lon="2.37849">
        <ele>404.1</ele>
        <time>2012-08-12T10:50:37Z</time>
      </trkpt>
      <trkpt lat="42.80386" lon="2.37835">
        <ele>402.8</ele>
        <time>2012-08-12T10:50:42Z</time>
      </trkpt>
      <trkpt lat="42.80394" lon="2.37818">
        <ele>402.2</ele>
        <time>2012-08-12T10:50:46Z</time>
      </trkpt>
      <trkpt lat="42.80398" lon="2.37811">
        <ele>401.8</ele>
        <time>2012-08-12T10:50:48Z</time>
      </trkpt>
      <trkpt lat="42.8041" lon="2.37801">
        <ele>401.7</ele>
        <time>2012-08-12T10:50:52Z</time>
      </trkpt>
      <trkpt lat="42.80422" lon="2.37788">
        <ele>399.6</ele>
        <time>2012-08-12T10:50:58Z</time>
      </trkpt>
      <trkpt lat="42.80432" lon="2.37776">
        <ele>398.6</ele>
        <time>2012-08-12T10:51:03Z</time>
      </trkpt>
      <trkpt lat="42.80444" lon="2.37776">
        <ele>397.6</ele>
        <time>2012-08-12T10:51:06Z</time>
      </trkpt>
      <trkpt lat="42.80461" lon="2.37775">
        <ele>395.1</ele>
        <time>2012-08-12T10:51:11Z</time>
      </trkpt>
      <trkpt lat="42.80476" lon="2.37777">
        <ele>391.6</ele>
        <time>2012-08-12T10:51:14Z</time>
      </trkpt>
      <trkpt lat="42.80491" lon="2.3778">
        <ele>388.7</ele>
        <time>2012-08-12T10:51:17Z</time>
      </trkpt>
      <trkpt lat="42.80503" lon="2.37785">
        <ele>387.2</ele>
        <time>2012-08-12T10:51:19Z</time>
      </trkpt>
      <trkpt lat="42.80515" lon="2.37792">
        <ele>385.5</ele>
        <time>2012-08-12T10:51:21Z</time>
      </trkpt>
      <trkpt lat="42.80528" lon="2.37797">
        <ele>382.7</ele>
        <time>2012-08-12T10:51:23Z</time>
      </trkpt>
      <trkpt lat="42.80535" lon="2.37799">
        <ele>381.7</ele>
        <time>2012-08-12T10:51:24Z</time>
      </trkpt>
      <trkpt lat="42.8055" lon="2.37802">
        <ele>378.7</ele>
        <time>2012-08-12T10:51:26Z</time>
      </trkpt>
      <trkpt lat="42.80558" lon="2.37805">
        <ele>377.8</ele>
        <time>2012-08-12T10:51:27Z</time>
      </trkpt>
      <trkpt lat="42.80572" lon="2.3781">
        <ele>376.3</ele>
        <time>2012-08-12T10:51:29Z</time>
      </trkpt>
      <trkpt lat="42.80587" lon="2.37813">
        <ele>374.3</ele>
        <time>2012-08-12T10:51:31Z</time>
      </trkpt>
      <trkpt lat="42.80595" lon="2.37813">
        <ele>373.1</ele>
        <time>2012-08-12T10:51:32Z</time>
      </trkpt>
      <trkpt lat="42.80611" lon="2.37813">
        <ele>371.6</ele>
        <time>2012-08-12T10:51:34Z</time>
      </trkpt>
      <trkpt lat="42.80623" lon="2.37806">
        <ele>369.2</ele>
        <time>2012-08-12T10:51:36Z</time>
      </trkpt>
      <trkpt lat="42.80634" lon="2.37795">
        <ele>368.6</ele>
        <time>2012-08-12T10:51:38Z</time>
      </trkpt>
      <trkpt lat="42.80642" lon="2.37793">
        <ele>367.7</ele>
        <time>2012-08-12T10:51:40Z</time>
      </trkpt>
      <trkpt lat="42.80654" lon="2.37807">
        <ele>365.3</ele>
        <time>2012-08-12T10:51:44Z</time>
      </trkpt>
      <trkpt lat="42.80662" lon="2.37813">
        <ele>364.6</ele>
        <time>2012-08-12T10:51:46Z</time>
      </trkpt>
      <trkpt lat="42.80667" lon="2.37814">
        <ele>364.2</ele>
        <time>2012-08-12T10:51:47Z</time>
      </trkpt>
      <trkpt lat="42.80676" lon="2.37811">
        <ele>363.6</ele>
        <time>2012-08-12T10:51:49Z</time>
      </trkpt>
      <trkpt lat="42.80687" lon="2.37803">
        <ele>362.8</ele>
        <time>2012-08-12T10:51:52Z</time>
      </trkpt>
      <trkpt lat="42.80695" lon="2.37798">
        <ele>362.7</ele>
        <time>2012-08-12T10:51:54Z</time>
      </trkpt>
      <trkpt lat="42.8071" lon="2.37792">
        <ele>362.3</ele>
        <time>2012-08-12T10:51:58Z</time>
      </trkpt>
      <trkpt lat="42.80718" lon="2.37789">
        <ele>361.8</ele>
        <time>2012-08-12T10:52:00Z</time>
      </trkpt>
      <trkpt lat="42.80733" lon="2.37788">
        <ele>361.5</ele>
        <time>2012-08-12T10:52:04Z</time>
      </trkpt>
      <trkpt lat="42.80742" lon="2.37792">
        <ele>361.2</ele>
        <time>2012-08-12T10:52:07Z</time>
      </trkpt>
      <trkpt lat="42.80759" lon="2.37802">
        <ele>360.3</ele>
        <time>2012-08-12T10:52:12Z</time>
      </trkpt>
      <trkpt lat="42.80765" lon="2.37806">
        <ele>360.2</ele>
        <time>2012-08-12T10:52:14Z</time>
      </trkpt>
      <trkpt lat="42.80777" lon="2.37812">
        <ele>359.8</ele>
        <time>2012-08-12T10:52:18Z</time>
      </trkpt>
      <trkpt lat="42.80785" lon="2.37815">
        <ele>359.7</ele>
        <time>2012-08-12T10:52:21Z</time>
      </trkpt>
      <trkpt lat="42.80794" lon="2.37815">
        <ele>358.7</ele>
        <time>2012-08-12T10:52:24Z</time>
      </trkpt>
      <trkpt lat="42.80802" lon="2.37814">
        <ele>357.2</ele>
        <time>2012-08-12T10:52:26Z</time>
      </trkpt>
      <trkpt lat="42.80809" lon="2.3782">
        <ele>355.2</ele>
        <time>2012-08-12T10:52:28Z</time>
      </trkpt>
      <trkpt lat="42.80822" lon="2.37818">
        <ele>352.3</ele>
        <time>2012-08-12T10:52:32Z</time>
      </trkpt>
      <trkpt lat="42.80828" lon="2.37806">
        <ele>352.3</ele>
        <time>2012-08-12T10:52:34Z</time>
      </trkpt>
      <trkpt lat="42.80838" lon="2.37797">
        <ele>352.3</ele>
        <time>2012-08-12T10:52:36Z</time>
      </trkpt>
      <trkpt lat="42.8085" lon="2.37797">
        <ele>352.2</ele>
        <time>2012-08-12T10:52:38Z</time>
      </trkpt>
      <trkpt lat="42.80862" lon="2.37798">
        <ele>352.2</ele>
        <time>2012-08-12T10:52:40Z</time>
      </trkpt>
      <trkpt lat="42.80878" lon="2.37799">
        <ele>352.3</ele>
        <time>2012-08-12T10:52:43Z</time>
      </trkpt>
      <trkpt lat="42.8089" lon="2.378">
        <ele>352.2</ele>
        <time>2012-08-12T10:52:45Z</time>
      </trkpt>
      <trkpt lat="42.80906" lon="2.37801">
        <ele>352</ele>
        <time>2012-08-12T10:52:48Z</time>
      </trkpt>
      <trkpt lat="42.80921" lon="2.37801">
        <ele>351.8</ele>
        <time>2012-08-12T10:52:51Z</time>
      </trkpt>
      <trkpt lat="42.80931" lon="2.37802">
        <ele>351.5</ele>
        <time>2012-08-12T10:52:53Z</time>
      </trkpt>
      <trkpt lat="42.80946" lon="2.37798">
        <ele>351.1</ele>
        <time>2012-08-12T10:52:58Z</time>
      </trkpt>
      <trkpt lat="42.80951" lon="2.37789">
        <ele>351.2</ele>
        <time>2012-08-12T10:53:01Z</time>
      </trkpt>
      <trkpt lat="42.80956" lon="2.3778">
        <ele>351.1</ele>
        <time>2012-08-12T10:53:04Z</time>
      </trkpt>
      <trkpt lat="42.80961" lon="2.37768">
        <ele>351.5</ele>
        <time>2012-08-12T10:53:09Z</time>
      </trkpt>
      <trkpt lat="42.80972" lon="2.37753">
        <ele>350.8</ele>
        <time>2012-08-12T10:53:19Z</time>
      </trkpt>
      <trkpt lat="42.80974" lon="2.37741">
        <ele>350.2</ele>
        <time>2012-08-12T10:53:26Z</time>
      </trkpt>
      <trkpt lat="42.80981" lon="2.37733">
        <ele>352.1</ele>
        <time>2012-08-12T10:56:55Z</time>
      </trkpt>
      <trkpt lat="42.80989" lon="2.37724">
        <ele>352.7</ele>
        <time>2012-08-12T10:56:59Z</time>
      </trkpt>
      <trkpt lat="42.81004" lon="2.37718">
        <ele>353.2</ele>
        <time>2012-08-12T10:57:03Z</time>
      </trkpt>
      <trkpt lat="42.81016" lon="2.37715">
        <ele>352.7</ele>
        <time>2012-08-12T10:57:06Z</time>
      </trkpt>
      <trkpt lat="42.81025" lon="2.37712">
        <ele>352.3</ele>
        <time>2012-08-12T10:57:08Z</time>
      </trkpt>
      <trkpt lat="42.81041" lon="2.37704">
        <ele>352.5</ele>
        <time>2012-08-12T10:57:12Z</time>
      </trkpt>
      <trkpt lat="42.81057" lon="2.37696">
        <ele>352.8</ele>
        <time>2012-08-12T10:57:16Z</time>
      </trkpt>
      <trkpt lat="42.81065" lon="2.37691">
        <ele>352.8</ele>
        <time>2012-08-12T10:57:18Z</time>
      </trkpt>
      <trkpt lat="42.81081" lon="2.37683">
        <ele>352.8</ele>
        <time>2012-08-12T10:57:22Z</time>
      </trkpt>
      <trkpt lat="42.81089" lon="2.37678">
        <ele>353.5</ele>
        <time>2012-08-12T10:57:24Z</time>
      </trkpt>
      <trkpt lat="42.81105" lon="2.37668">
        <ele>355.2</ele>
        <time>2012-08-12T10:57:28Z</time>
      </trkpt>
      <trkpt lat="42.81119" lon="2.37658">
        <ele>355</ele>
        <time>2012-08-12T10:57:32Z</time>
      </trkpt>
      <trkpt lat="42.81126" lon="2.37654">
        <ele>355.3</ele>
        <time>2012-08-12T10:57:34Z</time>
      </trkpt>
      <trkpt lat="42.81142" lon="2.37646">
        <ele>355.7</ele>
        <time>2012-08-12T10:57:38Z</time>
      </trkpt>
      <trkpt lat="42.81149" lon="2.37642">
        <ele>356.6</ele>
        <time>2012-08-12T10:57:40Z</time>
      </trkpt>
      <trkpt lat="42.81162" lon="2.37629">
        <ele>357.3</ele>
        <time>2012-08-12T10:57:44Z</time>
      </trkpt>
      <trkpt lat="42.81175" lon="2.37615">
        <ele>357.2</ele>
        <time>2012-08-12T10:57:48Z</time>
      </trkpt>
      <trkpt lat="42.81186" lon="2.37602">
        <ele>356.3</ele>
        <time>2012-08-12T10:57:52Z</time>
      </trkpt>
      <trkpt lat="42.81194" lon="2.37596">
        <ele>354.7</ele>
        <time>2012-08-12T10:57:55Z</time>
      </trkpt>
      <trkpt lat="42.812" lon="2.37587">
        <ele>351.1</ele>
        <time>2012-08-12T12:10:55Z</time>
      </trkpt>
      <trkpt lat="42.8121" lon="2.37593">
        <ele>349.6</ele>
        <time>2012-08-12T12:11:01Z</time>
      </trkpt>
      <trkpt lat="42.81223" lon="2.37602">
        <ele>349.5</ele>
        <time>2012-08-12T12:11:06Z</time>
      </trkpt>
      <trkpt lat="42.8123" lon="2.37609">
        <ele>348.7</ele>
        <time>2012-08-12T12:11:09Z</time>
      </trkpt>
      <trkpt lat="42.8124" lon="2.37618">
        <ele>348.2</ele>
        <time>2012-08-12T12:11:13Z</time>
      </trkpt>
      <trkpt lat="42.81245" lon="2.37623">
        <ele>348.5</ele>
        <time>2012-08-12T12:11:15Z</time>
      </trkpt>
      <trkpt lat="42.81258" lon="2.37633">
        <ele>348.2</ele>
        <time>2012-08-12T12:11:18Z</time>
      </trkpt>
      <trkpt lat="42.81269" lon="2.37645">
        <ele>348.1</ele>
        <time>2012-08-12T12:11:22Z</time>
      </trkpt>
      <trkpt lat="42.81277" lon="2.37648">
        <ele>348</ele>
        <time>2012-08-12T12:11:24Z</time>
      </trkpt>
      <trkpt lat="42.81289" lon="2.37648">
        <ele>348.2</ele>
        <time>2012-08-12T12:11:27Z</time>
      </trkpt>
      <trkpt lat="42.81299" lon="2.37645">
        <ele>348.1</ele>
        <time>2012-08-12T12:11:29Z</time>
      </trkpt>
      <trkpt lat="42.81314" lon="2.37639">
        <ele>348</ele>
        <time>2012-08-12T12:11:32Z</time>
      </trkpt>
      <trkpt lat="42.81326" lon="2.37639">
        <ele>348.1</ele>
        <time>2012-08-12T12:11:34Z</time>
      </trkpt>
      <trkpt lat="42.81332" lon="2.37641">
        <ele>348.1</ele>
        <time>2012-08-12T12:11:35Z</time>
      </trkpt>
      <trkpt lat="42.81345" lon="2.37645">
        <ele>347.6</ele>
        <time>2012-08-12T12:11:37Z</time>
      </trkpt>
      <trkpt lat="42.81354" lon="2.37648">
        <ele>346.6</ele>
        <time>2012-08-12T12:11:39Z</time>
      </trkpt>
      <trkpt lat="42.81368" lon="2.37651">
        <ele>344</ele>
        <time>2012-08-12T12:11:42Z</time>
      </trkpt>
      <trkpt lat="42.81382" lon="2.37662">
        <ele>344.8</ele>
        <time>2012-08-12T12:11:45Z</time>
      </trkpt>
      <trkpt lat="42.81391" lon="2.37673">
        <ele>344.8</ele>
        <time>2012-08-12T12:11:47Z</time>
      </trkpt>
      <trkpt lat="42.81399" lon="2.37686">
        <ele>344.6</ele>
        <time>2012-08-12T12:11:49Z</time>
      </trkpt>
      <trkpt lat="42.814" lon="2.37698">
        <ele>343.8</ele>
        <time>2012-08-12T12:11:51Z</time>
      </trkpt>
      <trkpt lat="42.81394" lon="2.37707">
        <ele>343.2</ele>
        <time>2012-08-12T12:11:53Z</time>
      </trkpt>
      <trkpt lat="42.81388" lon="2.37716">
        <ele>342.3</ele>
        <time>2012-08-12T12:11:55Z</time>
      </trkpt>
      <trkpt lat="42.81383" lon="2.37728">
        <ele>341.5</ele>
        <time>2012-08-12T12:11:57Z</time>
      </trkpt>
      <trkpt lat="42.81381" lon="2.37739">
        <ele>340.7</ele>
        <time>2012-08-12T12:11:59Z</time>
      </trkpt>
      <trkpt lat="42.81387" lon="2.37754">
        <ele>340.2</ele>
        <time>2012-08-12T12:12:02Z</time>
      </trkpt>
      <trkpt lat="42.81398" lon="2.37761">
        <ele>339.8</ele>
        <time>2012-08-12T12:12:05Z</time>
      </trkpt>
      <trkpt lat="42.81413" lon="2.37767">
        <ele>340</ele>
        <time>2012-08-12T12:12:09Z</time>
      </trkpt>
      <trkpt lat="42.8142" lon="2.37769">
        <ele>340.1</ele>
        <time>2012-08-12T12:12:11Z</time>
      </trkpt>
      <trkpt lat="42.81434" lon="2.37775">
        <ele>339.8</ele>
        <time>2012-08-12T12:12:15Z</time>
      </trkpt>
      <trkpt lat="42.81441" lon="2.37778">
        <ele>339.2</ele>
        <time>2012-08-12T12:12:17Z</time>
      </trkpt>
      <trkpt lat="42.81456" lon="2.37784">
        <ele>338.6</ele>
        <time>2012-08-12T12:12:21Z</time>
      </trkpt>
      <trkpt lat="42.81471" lon="2.3779">
        <ele>338.8</ele>
        <time>2012-08-12T12:12:25Z</time>
      </trkpt>
      <trkpt lat="42.81479" lon="2.37793">
        <ele>339.1</ele>
        <time>2012-08-12T12:12:27Z</time>
      </trkpt>
      <trkpt lat="42.81494" lon="2.37797">
        <ele>339.6</ele>
        <time>2012-08-12T12:12:31Z</time>
      </trkpt>
      <trkpt lat="42.81501" lon="2.37799">
        <ele>339.8</ele>
        <time>2012-08-12T12:12:33Z</time>
      </trkpt>
      <trkpt lat="42.81516" lon="2.37803">
        <ele>339.5</ele>
        <time>2012-08-12T12:12:37Z</time>
      </trkpt>
      <trkpt lat="42.81524" lon="2.37805">
        <ele>339.7</ele>
        <time>2012-08-12T12:12:39Z</time>
      </trkpt>
      <trkpt lat="42.8154" lon="2.37807">
        <ele>339.6</ele>
        <time>2012-08-12T12:12:43Z</time>
      </trkpt>
      <trkpt lat="42.81548" lon="2.37807">
        <ele>338.8</ele>
        <time>2012-08-12T12:12:45Z</time>
      </trkpt>
      <trkpt lat="42.81563" lon="2.3781">
        <ele>339.1</ele>
        <time>2012-08-12T12:12:49Z</time>
      </trkpt>
      <trkpt lat="42.81577" lon="2.37812">
        <ele>339.5</ele>
        <time>2012-08-12T12:12:53Z</time>
      </trkpt>
      <trkpt lat="42.81592" lon="2.37814">
        <ele>339.2</ele>
        <time>2012-08-12T12:12:57Z</time>
      </trkpt>
      <trkpt lat="42.81606" lon="2.37821">
        <ele>339.2</ele>
        <time>2012-08-12T12:13:01Z</time>
      </trkpt>
      <trkpt lat="42.81615" lon="2.37829">
        <ele>339.2</ele>
        <time>2012-08-12T12:13:04Z</time>
      </trkpt>
      <trkpt lat="42.81623" lon="2.3784">
        <ele>339.1</ele>
        <time>2012-08-12T12:13:07Z</time>
      </trkpt>
      <trkpt lat="42.81627" lon="2.37849">
        <ele>339.1</ele>
        <time>2012-08-12T12:13:09Z</time>
      </trkpt>
      <trkpt lat="42.81632" lon="2.37869">
        <ele>339.1</ele>
        <time>2012-08-12T12:13:13Z</time>
      </trkpt>
      <trkpt lat="42.81635" lon="2.37889">
        <ele>339</ele>
        <time>2012-08-12T12:13:17Z</time>
      </trkpt>
      <trkpt lat="42.81641" lon="2.37908">
        <ele>339</ele>
        <time>2012-08-12T12:13:21Z</time>
      </trkpt>
      <trkpt lat="42.81645" lon="2.37917">
        <ele>339.2</ele>
        <time>2012-08-12T12:13:23Z</time>
      </trkpt>
      <trkpt lat="42.81655" lon="2.37932">
        <ele>339.3</ele>
        <time>2012-08-12T12:13:27Z</time>
      </trkpt>
      <trkpt lat="42.81668" lon="2.37941">
        <ele>339.7</ele>
        <time>2012-08-12T12:13:31Z</time>
      </trkpt>
      <trkpt lat="42.81678" lon="2.3795">
        <ele>339.7</ele>
        <time>2012-08-12T12:13:35Z</time>
      </trkpt>
      <trkpt lat="42.81689" lon="2.37959">
        <ele>340.2</ele>
        <time>2012-08-12T12:13:39Z</time>
      </trkpt>
      <trkpt lat="42.81699" lon="2.37967">
        <ele>341.3</ele>
        <time>2012-08-12T12:13:43Z</time>
      </trkpt>
      <trkpt lat="42.81712" lon="2.37978">
        <ele>341.8</ele>
        <time>2012-08-12T12:13:48Z</time>
      </trkpt>
      <trkpt lat="42.81725" lon="2.3799">
        <ele>342.6</ele>
        <time>2012-08-12T12:13:54Z</time>
      </trkpt>
      <trkpt lat="42.81738" lon="2.38001">
        <ele>343.3</ele>
        <time>2012-08-12T12:14:00Z</time>
      </trkpt>
      <trkpt lat="42.8175" lon="2.3801">
        <ele>344</ele>
        <time>2012-08-12T12:14:06Z</time>
      </trkpt>
      <trkpt lat="42.81762" lon="2.3802">
        <ele>344.7</ele>
        <time>2012-08-12T12:14:12Z</time>
      </trkpt>
      <trkpt lat="42.81774" lon="2.38029">
        <ele>345.1</ele>
        <time>2012-08-12T12:14:18Z</time>
      </trkpt>
      <trkpt lat="42.81783" lon="2.38046">
        <ele>346</ele>
        <time>2012-08-12T12:14:25Z</time>
      </trkpt>
      <trkpt lat="42.81788" lon="2.38064">
        <ele>347.1</ele>
        <time>2012-08-12T12:14:31Z</time>
      </trkpt>
      <trkpt lat="42.81795" lon="2.38085">
        <ele>348.6</ele>
        <time>2012-08-12T12:14:39Z</time>
      </trkpt>
      <trkpt lat="42.81801" lon="2.38105">
        <ele>350.1</ele>
        <time>2012-08-12T12:14:47Z</time>
      </trkpt>
      <trkpt lat="42.81806" lon="2.38126">
        <ele>350.8</ele>
        <time>2012-08-12T12:14:55Z</time>
      </trkpt>
      <trkpt lat="42.81809" lon="2.38136">
        <ele>351.2</ele>
        <time>2012-08-12T12:14:59Z</time>
      </trkpt>
      <trkpt lat="42.81805" lon="2.38157">
        <ele>351</ele>
        <time>2012-08-12T12:15:06Z</time>
      </trkpt>
      <trkpt lat="42.81802" lon="2.3817">
        <ele>350.5</ele>
        <time>2012-08-12T12:15:09Z</time>
      </trkpt>
      <trkpt lat="42.81806" lon="2.38186">
        <ele>349.5</ele>
        <time>2012-08-12T12:15:12Z</time>
      </trkpt>
      <trkpt lat="42.81811" lon="2.38195">
        <ele>349.3</ele>
        <time>2012-08-12T12:15:14Z</time>
      </trkpt>
      <trkpt lat="42.81823" lon="2.38209">
        <ele>349.7</ele>
        <time>2012-08-12T12:15:18Z</time>
      </trkpt>
      <trkpt lat="42.81833" lon="2.3822">
        <ele>349.7</ele>
        <time>2012-08-12T12:15:22Z</time>
      </trkpt>
      <trkpt lat="42.81839" lon="2.38229">
        <ele>350</ele>
        <time>2012-08-12T12:15:25Z</time>
      </trkpt>
      <trkpt lat="42.81843" lon="2.38239">
        <ele>350.2</ele>
        <time>2012-08-12T12:15:28Z</time>
      </trkpt>
      <trkpt lat="42.81844" lon="2.38251">
        <ele>350.2</ele>
        <time>2012-08-12T12:15:31Z</time>
      </trkpt>
      <trkpt lat="42.81847" lon="2.38274">
        <ele>351.7</ele>
        <time>2012-08-12T12:15:37Z</time>
      </trkpt>
      <trkpt lat="42.81849" lon="2.38283">
        <ele>352.3</ele>
        <time>2012-08-12T12:15:40Z</time>
      </trkpt>
      <trkpt lat="42.81854" lon="2.38301">
        <ele>352.8</ele>
        <time>2012-08-12T12:15:46Z</time>
      </trkpt>
      <trkpt lat="42.81857" lon="2.3831">
        <ele>352.8</ele>
        <time>2012-08-12T12:15:49Z</time>
      </trkpt>
      <trkpt lat="42.81862" lon="2.38329">
        <ele>353.7</ele>
        <time>2012-08-12T12:15:55Z</time>
      </trkpt>
      <trkpt lat="42.81866" lon="2.38349">
        <ele>354.2</ele>
        <time>2012-08-12T12:16:01Z</time>
      </trkpt>
      <trkpt lat="42.8187" lon="2.3837">
        <ele>354.5</ele>
        <time>2012-08-12T12:16:07Z</time>
      </trkpt>
      <trkpt lat="42.81873" lon="2.38379">
        <ele>355.3</ele>
        <time>2012-08-12T12:16:10Z</time>
      </trkpt>
      <trkpt lat="42.8188" lon="2.38398">
        <ele>357.2</ele>
        <time>2012-08-12T12:16:17Z</time>
      </trkpt>
      <trkpt lat="42.81883" lon="2.38417">
        <ele>357.3</ele>
        <time>2012-08-12T12:16:23Z</time>
      </trkpt>
      <trkpt lat="42.81884" lon="2.38428">
        <ele>357.5</ele>
        <time>2012-08-12T12:16:26Z</time>
      </trkpt>
      <trkpt lat="42.81883" lon="2.38448">
        <ele>359.2</ele>
        <time>2012-08-12T12:16:32Z</time>
      </trkpt>
      <trkpt lat="42.81884" lon="2.3846">
        <ele>360.7</ele>
        <time>2012-08-12T12:16:36Z</time>
      </trkpt>
      <trkpt lat="42.81887" lon="2.38478">
        <ele>362.3</ele>
        <time>2012-08-12T12:16:42Z</time>
      </trkpt>
      <trkpt lat="42.8189" lon="2.38489">
        <ele>363.2</ele>
        <time>2012-08-12T12:16:46Z</time>
      </trkpt>
      <trkpt lat="42.81894" lon="2.385">
        <ele>363.7</ele>
        <time>2012-08-12T12:16:51Z</time>
      </trkpt>
      <trkpt lat="42.81909" lon="2.3851">
        <ele>363.3</ele>
        <time>2012-08-12T12:16:59Z</time>
      </trkpt>
      <trkpt lat="42.81916" lon="2.38515">
        <ele>362.8</ele>
        <time>2012-08-12T12:17:03Z</time>
      </trkpt>
      <trkpt lat="42.81932" lon="2.38521">
        <ele>364.5</ele>
        <time>2012-08-12T12:17:11Z</time>
      </trkpt>
      <trkpt lat="42.81944" lon="2.3852">
        <ele>363.8</ele>
        <time>2012-08-12T12:17:15Z</time>
      </trkpt>
      <trkpt lat="42.81951" lon="2.38519">
        <ele>364.1</ele>
        <time>2012-08-12T12:17:17Z</time>
      </trkpt>
      <trkpt lat="42.81965" lon="2.38515">
        <ele>364.1</ele>
        <time>2012-08-12T12:17:21Z</time>
      </trkpt>
      <trkpt lat="42.81972" lon="2.38513">
        <ele>363.5</ele>
        <time>2012-08-12T12:17:23Z</time>
      </trkpt>
      <trkpt lat="42.81985" lon="2.38511">
        <ele>364.2</ele>
        <time>2012-08-12T12:17:27Z</time>
      </trkpt>
      <trkpt lat="42.81993" lon="2.38507">
        <ele>364.2</ele>
        <time>2012-08-12T12:17:30Z</time>
      </trkpt>
      <trkpt lat="42.82005" lon="2.38498">
        <ele>364.6</ele>
        <time>2012-08-12T12:17:36Z</time>
      </trkpt>
      <trkpt lat="42.82018" lon="2.38485">
        <ele>364</ele>
        <time>2012-08-12T12:17:42Z</time>
      </trkpt>
      <trkpt lat="42.82031" lon="2.3848">
        <ele>365.2</ele>
        <time>2012-08-12T12:17:47Z</time>
      </trkpt>
      <trkpt lat="42.82042" lon="2.38488">
        <ele>365.6</ele>
        <time>2012-08-12T12:17:51Z</time>
      </trkpt>
      <trkpt lat="42.82047" lon="2.38506">
        <ele>367.7</ele>
        <time>2012-08-12T12:17:56Z</time>
      </trkpt>
      <trkpt lat="42.82046" lon="2.38517">
        <ele>369.7</ele>
        <time>2012-08-12T12:18:00Z</time>
      </trkpt>
      <trkpt lat="42.82057" lon="2.38529">
        <ele>372</ele>
        <time>2012-08-12T12:18:08Z</time>
      </trkpt>
      <trkpt lat="42.82066" lon="2.38521">
        <ele>372.7</ele>
        <time>2012-08-12T12:18:13Z</time>
      </trkpt>
      <trkpt lat="42.82077" lon="2.38508">
        <ele>372.8</ele>
        <time>2012-08-12T12:18:21Z</time>
      </trkpt>
      <trkpt lat="42.82084" lon="2.38503">
        <ele>373.2</ele>
        <time>2012-08-12T12:18:25Z</time>
      </trkpt>
      <trkpt lat="42.82096" lon="2.38491">
        <ele>373.7</ele>
        <time>2012-08-12T12:18:33Z</time>
      </trkpt>
      <trkpt lat="42.82105" lon="2.38487">
        <ele>373.7</ele>
        <time>2012-08-12T12:18:36Z</time>
      </trkpt>
      <trkpt lat="42.8212" lon="2.38481">
        <ele>374.2</ele>
        <time>2012-08-12T12:18:44Z</time>
      </trkpt>
      <trkpt lat="42.82128" lon="2.38479">
        <ele>375.1</ele>
        <time>2012-08-12T12:18:48Z</time>
      </trkpt>
      <trkpt lat="42.82144" lon="2.38473">
        <ele>375.3</ele>
        <time>2012-08-12T12:18:54Z</time>
      </trkpt>
      <trkpt lat="42.82156" lon="2.3847">
        <ele>375.1</ele>
        <time>2012-08-12T12:18:58Z</time>
      </trkpt>
      <trkpt lat="42.82169" lon="2.38465">
        <ele>375.2</ele>
        <time>2012-08-12T12:19:02Z</time>
      </trkpt>
      <trkpt lat="42.82183" lon="2.38461">
        <ele>374.8</ele>
        <time>2012-08-12T12:19:06Z</time>
      </trkpt>
      <trkpt lat="42.8219" lon="2.3846">
        <ele>374.7</ele>
        <time>2012-08-12T12:19:08Z</time>
      </trkpt>
      <trkpt lat="42.82206" lon="2.38454">
        <ele>373.5</ele>
        <time>2012-08-12T12:19:12Z</time>
      </trkpt>
      <trkpt lat="42.82214" lon="2.38452">
        <ele>373.7</ele>
        <time>2012-08-12T12:19:14Z</time>
      </trkpt>
      <trkpt lat="42.82229" lon="2.38449">
        <ele>373.2</ele>
        <time>2012-08-12T12:19:18Z</time>
      </trkpt>
      <trkpt lat="42.82235" lon="2.38448">
        <ele>372.7</ele>
        <time>2012-08-12T12:19:20Z</time>
      </trkpt>
      <trkpt lat="42.8225" lon="2.38449">
        <ele>374.7</ele>
        <time>2012-08-12T12:19:33Z</time>
      </trkpt>
      <trkpt lat="42.82255" lon="2.38461">
        <ele>379.3</ele>
        <time>2012-08-12T12:20:58Z</time>
      </trkpt>
      <trkpt lat="42.82267" lon="2.38469">
        <ele>379.2</ele>
        <time>2012-08-12T12:21:02Z</time>
      </trkpt>
      <trkpt lat="42.82281" lon="2.38478">
        <ele>378.3</ele>
        <time>2012-08-12T12:21:05Z</time>
      </trkpt>
      <trkpt lat="42.82293" lon="2.38488">
        <ele>377.5</ele>
        <time>2012-08-12T12:21:08Z</time>
      </trkpt>
      <trkpt lat="42.82299" lon="2.38496">
        <ele>377.5</ele>
        <time>2012-08-12T12:21:10Z</time>
      </trkpt>
      <trkpt lat="42.82308" lon="2.38511">
        <ele>377.1</ele>
        <time>2012-08-12T12:21:14Z</time>
      </trkpt>
      <trkpt lat="42.82313" lon="2.38531">
        <ele>377.1</ele>
        <time>2012-08-12T12:21:18Z</time>
      </trkpt>
      <trkpt lat="42.8232" lon="2.38547">
        <ele>377</ele>
        <time>2012-08-12T12:21:22Z</time>
      </trkpt>
      <trkpt lat="42.82329" lon="2.38561">
        <ele>377.6</ele>
        <time>2012-08-12T12:21:26Z</time>
      </trkpt>
      <trkpt lat="42.82332" lon="2.38568">
        <ele>377.7</ele>
        <time>2012-08-12T12:21:28Z</time>
      </trkpt>
      <trkpt lat="42.82338" lon="2.38583">
        <ele>378.1</ele>
        <time>2012-08-12T12:21:32Z</time>
      </trkpt>
      <trkpt lat="42.8234" lon="2.38595">
        <ele>377.7</ele>
        <time>2012-08-12T12:21:35Z</time>
      </trkpt>
      <trkpt lat="42.8234" lon="2.38607">
        <ele>377.7</ele>
        <time>2012-08-12T12:21:38Z</time>
      </trkpt>
      <trkpt lat="42.82339" lon="2.38627">
        <ele>377.5</ele>
        <time>2012-08-12T12:21:43Z</time>
      </trkpt>
      <trkpt lat="42.8234" lon="2.38648">
        <ele>377.6</ele>
        <time>2012-08-12T12:21:49Z</time>
      </trkpt>
      <trkpt lat="42.82341" lon="2.38658">
        <ele>377.7</ele>
        <time>2012-08-12T12:21:52Z</time>
      </trkpt>
      <trkpt lat="42.82341" lon="2.38679">
        <ele>378.8</ele>
        <time>2012-08-12T12:21:58Z</time>
      </trkpt>
      <trkpt lat="42.82339" lon="2.38698">
        <ele>379.5</ele>
        <time>2012-08-12T12:22:04Z</time>
      </trkpt>
      <trkpt lat="42.82339" lon="2.3871">
        <ele>380.3</ele>
        <time>2012-08-12T12:22:08Z</time>
      </trkpt>
      <trkpt lat="42.82338" lon="2.38732">
        <ele>382.7</ele>
        <time>2012-08-12T12:22:16Z</time>
      </trkpt>
      <trkpt lat="42.82336" lon="2.38753">
        <ele>384.6</ele>
        <time>2012-08-12T12:22:24Z</time>
      </trkpt>
      <trkpt lat="42.82335" lon="2.38775">
        <ele>386.2</ele>
        <time>2012-08-12T12:22:32Z</time>
      </trkpt>
      <trkpt lat="42.82335" lon="2.38797">
        <ele>388.6</ele>
        <time>2012-08-12T12:22:40Z</time>
      </trkpt>
      <trkpt lat="42.82335" lon="2.38799">
        <ele>388.6</ele>
        <time>2012-08-12T12:22:41Z</time>
      </trkpt>
      <trkpt lat="42.82336" lon="2.38829">
        <ele>389.1</ele>
        <time>2012-08-12T12:22:52Z</time>
      </trkpt>
      <trkpt lat="42.82335" lon="2.3884">
        <ele>389.2</ele>
        <time>2012-08-12T12:22:56Z</time>
      </trkpt>
      <trkpt lat="42.82332" lon="2.38862">
        <ele>389.5</ele>
        <time>2012-08-12T12:23:05Z</time>
      </trkpt>
      <trkpt lat="42.82331" lon="2.38884">
        <ele>390.2</ele>
        <time>2012-08-12T12:23:13Z</time>
      </trkpt>
      <trkpt lat="42.82328" lon="2.38895">
        <ele>390.7</ele>
        <time>2012-08-12T12:23:18Z</time>
      </trkpt>
      <trkpt lat="42.82332" lon="2.38884">
        <ele>394.7</ele>
        <time>2012-08-12T12:24:26Z</time>
      </trkpt>
      <trkpt lat="42.82326" lon="2.38904">
        <ele>394.5</ele>
        <time>2012-08-12T12:24:36Z</time>
      </trkpt>
      <trkpt lat="42.82322" lon="2.38912">
        <ele>394.7</ele>
        <time>2012-08-12T12:24:40Z</time>
      </trkpt>
      <trkpt lat="42.8232" lon="2.38925">
        <ele>397.8</ele>
        <time>2012-08-12T12:25:48Z</time>
      </trkpt>
      <trkpt lat="42.82319" lon="2.38943">
        <ele>395.7</ele>
        <time>2012-08-12T12:25:54Z</time>
      </trkpt>
      <trkpt lat="42.82317" lon="2.38962">
        <ele>394.8</ele>
        <time>2012-08-12T12:25:58Z</time>
      </trkpt>
      <trkpt lat="42.82316" lon="2.38974">
        <ele>394.7</ele>
        <time>2012-08-12T12:26:00Z</time>
      </trkpt>
      <trkpt lat="42.82315" lon="2.38993">
        <ele>394.7</ele>
        <time>2012-08-12T12:26:03Z</time>
      </trkpt>
      <trkpt lat="42.82316" lon="2.39013">
        <ele>394.6</ele>
        <time>2012-08-12T12:26:06Z</time>
      </trkpt>
      <trkpt lat="42.8232" lon="2.3903">
        <ele>394.5</ele>
        <time>2012-08-12T12:26:09Z</time>
      </trkpt>
      <trkpt lat="42.82324" lon="2.39048">
        <ele>394.6</ele>
        <time>2012-08-12T12:26:12Z</time>
      </trkpt>
      <trkpt lat="42.82329" lon="2.39065">
        <ele>394.3</ele>
        <time>2012-08-12T12:26:15Z</time>
      </trkpt>
      <trkpt lat="42.82332" lon="2.39075">
        <ele>394.2</ele>
        <time>2012-08-12T12:26:17Z</time>
      </trkpt>
      <trkpt lat="42.82335" lon="2.39088">
        <ele>394.3</ele>
        <time>2012-08-12T12:26:19Z</time>
      </trkpt>
      <trkpt lat="42.82338" lon="2.391">
        <ele>394.2</ele>
        <time>2012-08-12T12:26:21Z</time>
      </trkpt>
      <trkpt lat="42.82352" lon="2.3911">
        <ele>394.2</ele>
        <time>2012-08-12T12:26:25Z</time>
      </trkpt>
      <trkpt lat="42.82364" lon="2.39116">
        <ele>393.7</ele>
        <time>2012-08-12T12:26:29Z</time>
      </trkpt>
      <trkpt lat="42.82368" lon="2.39124">
        <ele>393.6</ele>
        <time>2012-08-12T12:26:31Z</time>
      </trkpt>
      <trkpt lat="42.82373" lon="2.39141">
        <ele>393.7</ele>
        <time>2012-08-12T12:26:35Z</time>
      </trkpt>
      <trkpt lat="42.82375" lon="2.39149">
        <ele>393.7</ele>
        <time>2012-08-12T12:26:37Z</time>
      </trkpt>
      <trkpt lat="42.8238" lon="2.39165">
        <ele>393.8</ele>
        <time>2012-08-12T12:26:41Z</time>
      </trkpt>
      <trkpt lat="42.82384" lon="2.39175">
        <ele>393.8</ele>
        <time>2012-08-12T12:26:44Z</time>
      </trkpt>
      <trkpt lat="42.82397" lon="2.39188">
        <ele>394</ele>
        <time>2012-08-12T12:26:50Z</time>
      </trkpt>
      <trkpt lat="42.8241" lon="2.392">
        <ele>394</ele>
        <time>2012-08-12T12:26:55Z</time>
      </trkpt>
      <trkpt lat="42.82418" lon="2.39208">
        <ele>394.1</ele>
        <time>2012-08-12T12:26:57Z</time>
      </trkpt>
      <trkpt lat="42.82422" lon="2.39214">
        <ele>394</ele>
        <time>2012-08-12T12:26:58Z</time>
      </trkpt>
      <trkpt lat="42.82429" lon="2.39229">
        <ele>394.2</ele>
        <time>2012-08-12T12:27:01Z</time>
      </trkpt>
      <trkpt lat="42.82433" lon="2.3924">
        <ele>394.3</ele>
        <time>2012-08-12T12:27:03Z</time>
      </trkpt>
      <trkpt lat="42.82438" lon="2.39258">
        <ele>394.7</ele>
        <time>2012-08-12T12:27:07Z</time>
      </trkpt>
      <trkpt lat="42.82441" lon="2.39275">
        <ele>394.5</ele>
        <time>2012-08-12T12:27:11Z</time>
      </trkpt>
      <trkpt lat="42.82441" lon="2.39295">
        <ele>394.6</ele>
        <time>2012-08-12T12:27:15Z</time>
      </trkpt>
      <trkpt lat="42.82441" lon="2.39313">
        <ele>394.7</ele>
        <time>2012-08-12T12:27:19Z</time>
      </trkpt>
      <trkpt lat="42.82437" lon="2.39333">
        <ele>394.8</ele>
        <time>2012-08-12T12:27:24Z</time>
      </trkpt>
      <trkpt lat="42.82433" lon="2.39351">
        <ele>395</ele>
        <time>2012-08-12T12:27:29Z</time>
      </trkpt>
      <trkpt lat="42.82431" lon="2.39364">
        <ele>395</ele>
        <time>2012-08-12T12:27:31Z</time>
      </trkpt>
      <trkpt lat="42.82432" lon="2.39384">
        <ele>395</ele>
        <time>2012-08-12T12:27:34Z</time>
      </trkpt>
      <trkpt lat="42.82434" lon="2.39398">
        <ele>395</ele>
        <time>2012-08-12T12:27:36Z</time>
      </trkpt>
      <trkpt lat="42.82432" lon="2.39413">
        <ele>395</ele>
        <time>2012-08-12T12:27:38Z</time>
      </trkpt>
      <trkpt lat="42.82429" lon="2.39421">
        <ele>395.1</ele>
        <time>2012-08-12T12:27:40Z</time>
      </trkpt>
      <trkpt lat="42.82421" lon="2.39432">
        <ele>395.2</ele>
        <time>2012-08-12T12:27:42Z</time>
      </trkpt>
      <trkpt lat="42.82414" lon="2.39448">
        <ele>395.3</ele>
        <time>2012-08-12T12:27:44Z</time>
      </trkpt>
      <trkpt lat="42.82406" lon="2.39461">
        <ele>395.6</ele>
        <time>2012-08-12T12:27:46Z</time>
      </trkpt>
      <trkpt lat="42.82403" lon="2.39483">
        <ele>395.6</ele>
        <time>2012-08-12T12:27:50Z</time>
      </trkpt>
      <trkpt lat="42.82401" lon="2.39499">
        <ele>395.6</ele>
        <time>2012-08-12T12:27:53Z</time>
      </trkpt>
      <trkpt lat="42.82399" lon="2.39515">
        <ele>395.8</ele>
        <time>2012-08-12T12:27:56Z</time>
      </trkpt>
      <trkpt lat="42.82401" lon="2.39533">
        <ele>396</ele>
        <time>2012-08-12T12:28:00Z</time>
      </trkpt>
      <trkpt lat="42.82403" lon="2.39542">
        <ele>396</ele>
        <time>2012-08-12T12:28:02Z</time>
      </trkpt>
      <trkpt lat="42.82406" lon="2.39561">
        <ele>396.6</ele>
        <time>2012-08-12T12:28:07Z</time>
      </trkpt>
      <trkpt lat="42.82407" lon="2.39569">
        <ele>396.7</ele>
        <time>2012-08-12T12:28:09Z</time>
      </trkpt>
      <trkpt lat="42.8241" lon="2.39592">
        <ele>397.6</ele>
        <time>2012-08-12T12:28:15Z</time>
      </trkpt>
      <trkpt lat="42.82416" lon="2.39611">
        <ele>397.7</ele>
        <time>2012-08-12T12:28:20Z</time>
      </trkpt>
      <trkpt lat="42.82421" lon="2.39632">
        <ele>397.8</ele>
        <time>2012-08-12T12:28:26Z</time>
      </trkpt>
      <trkpt lat="42.82423" lon="2.39643">
        <ele>398</ele>
        <time>2012-08-12T12:28:29Z</time>
      </trkpt>
      <trkpt lat="42.82425" lon="2.39663">
        <ele>399.2</ele>
        <time>2012-08-12T12:28:35Z</time>
      </trkpt>
      <trkpt lat="42.82429" lon="2.39682">
        <ele>399.7</ele>
        <time>2012-08-12T12:28:41Z</time>
      </trkpt>
      <trkpt lat="42.82434" lon="2.39692">
        <ele>400.2</ele>
        <time>2012-08-12T12:28:44Z</time>
      </trkpt>
      <trkpt lat="42.82442" lon="2.3971">
        <ele>400.2</ele>
        <time>2012-08-12T12:28:50Z</time>
      </trkpt>
      <trkpt lat="42.82446" lon="2.39723">
        <ele>400.2</ele>
        <time>2012-08-12T12:28:54Z</time>
      </trkpt>
      <trkpt lat="42.82457" lon="2.39747">
        <ele>399.8</ele>
        <time>2012-08-12T12:29:01Z</time>
      </trkpt>
      <trkpt lat="42.82462" lon="2.39765">
        <ele>400.2</ele>
        <time>2012-08-12T12:29:06Z</time>
      </trkpt>
      <trkpt lat="42.82464" lon="2.39782">
        <ele>400.5</ele>
        <time>2012-08-12T12:29:10Z</time>
      </trkpt>
      <trkpt lat="42.82465" lon="2.39791">
        <ele>400.7</ele>
        <time>2012-08-12T12:29:12Z</time>
      </trkpt>
      <trkpt lat="42.82468" lon="2.39809">
        <ele>400.8</ele>
        <time>2012-08-12T12:29:16Z</time>
      </trkpt>
      <trkpt lat="42.82472" lon="2.39826">
        <ele>400.8</ele>
        <time>2012-08-12T12:29:20Z</time>
      </trkpt>
      <trkpt lat="42.82473" lon="2.39838">
        <ele>400.7</ele>
        <time>2012-08-12T12:29:23Z</time>
      </trkpt>
      <trkpt lat="42.82477" lon="2.39861">
        <ele>400.8</ele>
        <time>2012-08-12T12:29:29Z</time>
      </trkpt>
      <trkpt lat="42.82479" lon="2.39871">
        <ele>401</ele>
        <time>2012-08-12T12:29:32Z</time>
      </trkpt>
      <trkpt lat="42.82481" lon="2.39892">
        <ele>401.1</ele>
        <time>2012-08-12T12:29:38Z</time>
      </trkpt>
      <trkpt lat="42.82484" lon="2.39915">
        <ele>401.2</ele>
        <time>2012-08-12T12:29:44Z</time>
      </trkpt>
      <trkpt lat="42.82485" lon="2.39925">
        <ele>401.3</ele>
        <time>2012-08-12T12:29:47Z</time>
      </trkpt>
      <trkpt lat="42.82487" lon="2.39945">
        <ele>401.6</ele>
        <time>2012-08-12T12:29:53Z</time>
      </trkpt>
      <trkpt lat="42.82488" lon="2.39959">
        <ele>401.6</ele>
        <time>2012-08-12T12:29:58Z</time>
      </trkpt>
      <trkpt lat="42.82489" lon="2.39976">
        <ele>401.5</ele>
        <time>2012-08-12T12:30:03Z</time>
      </trkpt>
      <trkpt lat="42.82488" lon="2.39986">
        <ele>402</ele>
        <time>2012-08-12T12:30:06Z</time>
      </trkpt>
      <trkpt lat="42.82483" lon="2.40007">
        <ele>402.7</ele>
        <time>2012-08-12T12:30:14Z</time>
      </trkpt>
      <trkpt lat="42.82476" lon="2.40027">
        <ele>403.8</ele>
        <time>2012-08-12T12:30:23Z</time>
      </trkpt>
      <trkpt lat="42.82469" lon="2.40046">
        <ele>404.3</ele>
        <time>2012-08-12T12:30:31Z</time>
      </trkpt>
      <trkpt lat="42.82464" lon="2.40067">
        <ele>406.1</ele>
        <time>2012-08-12T12:30:39Z</time>
      </trkpt>
      <trkpt lat="42.82459" lon="2.40086">
        <ele>407.6</ele>
        <time>2012-08-12T12:30:48Z</time>
      </trkpt>
      <trkpt lat="42.82455" lon="2.40108">
        <ele>409.3</ele>
        <time>2012-08-12T12:30:57Z</time>
      </trkpt>
      <trkpt lat="42.82453" lon="2.4012">
        <ele>416.2</ele>
        <time>2012-08-12T12:32:18Z</time>
      </trkpt>
      <trkpt lat="42.82459" lon="2.40138">
        <ele>416.1</ele>
        <time>2012-08-12T12:32:26Z</time>
      </trkpt>
      <trkpt lat="42.82469" lon="2.40153">
        <ele>416.2</ele>
        <time>2012-08-12T12:32:31Z</time>
      </trkpt>
      <trkpt lat="42.82475" lon="2.40172">
        <ele>416.2</ele>
        <time>2012-08-12T12:32:37Z</time>
      </trkpt>
      <trkpt lat="42.82477" lon="2.40193">
        <ele>416.2</ele>
        <time>2012-08-12T12:32:42Z</time>
      </trkpt>
      <trkpt lat="42.82478" lon="2.40201">
        <ele>416.1</ele>
        <time>2012-08-12T12:32:44Z</time>
      </trkpt>
      <trkpt lat="42.82482" lon="2.4022">
        <ele>415.7</ele>
        <time>2012-08-12T12:32:48Z</time>
      </trkpt>
      <trkpt lat="42.82482" lon="2.40241">
        <ele>415.5</ele>
        <time>2012-08-12T12:32:53Z</time>
      </trkpt>
      <trkpt lat="42.8248" lon="2.40262">
        <ele>415.7</ele>
        <time>2012-08-12T12:32:59Z</time>
      </trkpt>
      <trkpt lat="42.82479" lon="2.40273">
        <ele>415.8</ele>
        <time>2012-08-12T12:33:03Z</time>
      </trkpt>
      <trkpt lat="42.82479" lon="2.40294">
        <ele>415.8</ele>
        <time>2012-08-12T12:33:10Z</time>
      </trkpt>
      <trkpt lat="42.82478" lon="2.40316">
        <ele>416.6</ele>
        <time>2012-08-12T12:33:18Z</time>
      </trkpt>
      <trkpt lat="42.82479" lon="2.40337">
        <ele>417.3</ele>
        <time>2012-08-12T12:33:26Z</time>
      </trkpt>
      <trkpt lat="42.82479" lon="2.40358">
        <ele>418.1</ele>
        <time>2012-08-12T12:33:33Z</time>
      </trkpt>
      <trkpt lat="42.82478" lon="2.4037">
        <ele>418.5</ele>
        <time>2012-08-12T12:33:36Z</time>
      </trkpt>
      <trkpt lat="42.82475" lon="2.40388">
        <ele>418.7</ele>
        <time>2012-08-12T12:33:40Z</time>
      </trkpt>
      <trkpt lat="42.82475" lon="2.40398">
        <ele>418.7</ele>
        <time>2012-08-12T12:33:42Z</time>
      </trkpt>
      <trkpt lat="42.82475" lon="2.40417">
        <ele>419</ele>
        <time>2012-08-12T12:33:46Z</time>
      </trkpt>
      <trkpt lat="42.82473" lon="2.40436">
        <ele>419.2</ele>
        <time>2012-08-12T12:33:50Z</time>
      </trkpt>
      <trkpt lat="42.8247" lon="2.40455">
        <ele>419.5</ele>
        <time>2012-08-12T12:33:54Z</time>
      </trkpt>
      <trkpt lat="42.82471" lon="2.40475">
        <ele>419.7</ele>
        <time>2012-08-12T12:33:58Z</time>
      </trkpt>
      <trkpt lat="42.8247" lon="2.40496">
        <ele>419.7</ele>
        <time>2012-08-12T12:34:02Z</time>
      </trkpt>
      <trkpt lat="42.82473" lon="2.40517">
        <ele>420</ele>
        <time>2012-08-12T12:34:06Z</time>
      </trkpt>
      <trkpt lat="42.82477" lon="2.4054">
        <ele>420.1</ele>
        <time>2012-08-12T12:34:10Z</time>
      </trkpt>
      <trkpt lat="42.8248" lon="2.40561">
        <ele>420.2</ele>
        <time>2012-08-12T12:34:13Z</time>
      </trkpt>
      <trkpt lat="42.82482" lon="2.40569">
        <ele>420.3</ele>
        <time>2012-08-12T12:34:14Z</time>
      </trkpt>
      <trkpt lat="42.82483" lon="2.40587">
        <ele>421.2</ele>
        <time>2012-08-12T12:34:16Z</time>
      </trkpt>
      <trkpt lat="42.82485" lon="2.40602">
        <ele>421.5</ele>
        <time>2012-08-12T12:34:18Z</time>
      </trkpt>
      <trkpt lat="42.82486" lon="2.40609">
        <ele>421.7</ele>
        <time>2012-08-12T12:34:19Z</time>
      </trkpt>
      <trkpt lat="42.82488" lon="2.4063">
        <ele>421.2</ele>
        <time>2012-08-12T12:34:22Z</time>
      </trkpt>
      <trkpt lat="42.8249" lon="2.40653">
        <ele>421.2</ele>
        <time>2012-08-12T12:34:26Z</time>
      </trkpt>
      <trkpt lat="42.8249" lon="2.40672">
        <ele>421.3</ele>
        <time>2012-08-12T12:34:29Z</time>
      </trkpt>
      <trkpt lat="42.82489" lon="2.40684">
        <ele>421.2</ele>
        <time>2012-08-12T12:34:31Z</time>
      </trkpt>
      <trkpt lat="42.82488" lon="2.40699">
        <ele>421.2</ele>
        <time>2012-08-12T12:34:33Z</time>
      </trkpt>
      <trkpt lat="42.82486" lon="2.40713">
        <ele>421.2</ele>
        <time>2012-08-12T12:34:35Z</time>
      </trkpt>
      <trkpt lat="42.82485" lon="2.40721">
        <ele>421.2</ele>
        <time>2012-08-12T12:34:36Z</time>
      </trkpt>
      <trkpt lat="42.82484" lon="2.40739">
        <ele>421.2</ele>
        <time>2012-08-12T12:34:39Z</time>
      </trkpt>
      <trkpt lat="42.82483" lon="2.40746">
        <ele>421.2</ele>
        <time>2012-08-12T12:34:40Z</time>
      </trkpt>
      <trkpt lat="42.82482" lon="2.40767">
        <ele>421</ele>
        <time>2012-08-12T12:34:43Z</time>
      </trkpt>
      <trkpt lat="42.82481" lon="2.40781">
        <ele>420.2</ele>
        <time>2012-08-12T12:34:45Z</time>
      </trkpt>
      <trkpt lat="42.82479" lon="2.40803">
        <ele>419.2</ele>
        <time>2012-08-12T12:34:48Z</time>
      </trkpt>
      <trkpt lat="42.82479" lon="2.4082">
        <ele>419.1</ele>
        <time>2012-08-12T12:34:50Z</time>
      </trkpt>
      <trkpt lat="42.8248" lon="2.40837">
        <ele>419.2</ele>
        <time>2012-08-12T12:34:52Z</time>
      </trkpt>
      <trkpt lat="42.82482" lon="2.40852">
        <ele>419.7</ele>
        <time>2012-08-12T12:34:54Z</time>
      </trkpt>
      <trkpt lat="42.82485" lon="2.4087">
        <ele>420.2</ele>
        <time>2012-08-12T12:34:57Z</time>
      </trkpt>
      <trkpt lat="42.82487" lon="2.4089">
        <ele>420.5</ele>
        <time>2012-08-12T12:35:01Z</time>
      </trkpt>
      <trkpt lat="42.82489" lon="2.40907">
        <ele>418.7</ele>
        <time>2012-08-12T12:35:04Z</time>
      </trkpt>
      <trkpt lat="42.8249" lon="2.4093">
        <ele>417.6</ele>
        <time>2012-08-12T12:35:07Z</time>
      </trkpt>
      <trkpt lat="42.8249" lon="2.40937">
        <ele>417.8</ele>
        <time>2012-08-12T12:35:08Z</time>
      </trkpt>
      <trkpt lat="42.8249" lon="2.40951">
        <ele>418</ele>
        <time>2012-08-12T12:35:10Z</time>
      </trkpt>
      <trkpt lat="42.8249" lon="2.40965">
        <ele>418.1</ele>
        <time>2012-08-12T12:35:12Z</time>
      </trkpt>
      <trkpt lat="42.82491" lon="2.40989">
        <ele>418.5</ele>
        <time>2012-08-12T12:35:16Z</time>
      </trkpt>
      <trkpt lat="42.82493" lon="2.4101">
        <ele>418.7</ele>
        <time>2012-08-12T12:35:20Z</time>
      </trkpt>
      <trkpt lat="42.82493" lon="2.41015">
        <ele>418.7</ele>
        <time>2012-08-12T12:35:21Z</time>
      </trkpt>
      <trkpt lat="42.82494" lon="2.41037">
        <ele>419.5</ele>
        <time>2012-08-12T12:35:26Z</time>
      </trkpt>
      <trkpt lat="42.82492" lon="2.41056">
        <ele>419.7</ele>
        <time>2012-08-12T12:35:30Z</time>
      </trkpt>
      <trkpt lat="42.8249" lon="2.41078">
        <ele>419.7</ele>
        <time>2012-08-12T12:35:34Z</time>
      </trkpt>
      <trkpt lat="42.82484" lon="2.41097">
        <ele>419.3</ele>
        <time>2012-08-12T12:35:38Z</time>
      </trkpt>
      <trkpt lat="42.82478" lon="2.41107">
        <ele>419.6</ele>
        <time>2012-08-12T12:35:40Z</time>
      </trkpt>
      <trkpt lat="42.82469" lon="2.41117">
        <ele>419.6</ele>
        <time>2012-08-12T12:35:42Z</time>
      </trkpt>
      <trkpt lat="42.8246" lon="2.41135">
        <ele>419.7</ele>
        <time>2012-08-12T12:35:45Z</time>
      </trkpt>
      <trkpt lat="42.82454" lon="2.41148">
        <ele>419.7</ele>
        <time>2012-08-12T12:35:47Z</time>
      </trkpt>
      <trkpt lat="42.82447" lon="2.41162">
        <ele>419.3</ele>
        <time>2012-08-12T12:35:49Z</time>
      </trkpt>
      <trkpt lat="42.8244" lon="2.41174">
        <ele>419.2</ele>
        <time>2012-08-12T12:35:51Z</time>
      </trkpt>
      <trkpt lat="42.82432" lon="2.41181">
        <ele>418.8</ele>
        <time>2012-08-12T12:35:54Z</time>
      </trkpt>
      <trkpt lat="42.82433" lon="2.41198">
        <ele>417.8</ele>
        <time>2012-08-12T12:35:59Z</time>
      </trkpt>
      <trkpt lat="42.82439" lon="2.41214">
        <ele>417.7</ele>
        <time>2012-08-12T12:36:03Z</time>
      </trkpt>
      <trkpt lat="42.82447" lon="2.41229">
        <ele>416.2</ele>
        <time>2012-08-12T12:36:07Z</time>
      </trkpt>
      <trkpt lat="42.82456" lon="2.41247">
        <ele>414.7</ele>
        <time>2012-08-12T12:36:11Z</time>
      </trkpt>
      <trkpt lat="42.82461" lon="2.41258">
        <ele>414</ele>
        <time>2012-08-12T12:36:13Z</time>
      </trkpt>
      <trkpt lat="42.82468" lon="2.41274">
        <ele>413.2</ele>
        <time>2012-08-12T12:36:16Z</time>
      </trkpt>
      <trkpt lat="42.82477" lon="2.41292">
        <ele>412.3</ele>
        <time>2012-08-12T12:37:02Z</time>
      </trkpt>
      <trkpt lat="42.82483" lon="2.41308">
        <ele>412.1</ele>
        <time>2012-08-12T12:37:07Z</time>
      </trkpt>
      <trkpt lat="42.82488" lon="2.41324">
        <ele>410.5</ele>
        <time>2012-08-12T12:37:10Z</time>
      </trkpt>
      <trkpt lat="42.82493" lon="2.41345">
        <ele>410.3</ele>
        <time>2012-08-12T12:37:13Z</time>
      </trkpt>
      <trkpt lat="42.82494" lon="2.41353">
        <ele>410.3</ele>
        <time>2012-08-12T12:37:14Z</time>
      </trkpt>
      <trkpt lat="42.82496" lon="2.4137">
        <ele>409.5</ele>
        <time>2012-08-12T12:37:16Z</time>
      </trkpt>
      <trkpt lat="42.82499" lon="2.41389">
        <ele>408.5</ele>
        <time>2012-08-12T12:37:18Z</time>
      </trkpt>
      <trkpt lat="42.82502" lon="2.41397">
        <ele>408.1</ele>
        <time>2012-08-12T12:37:19Z</time>
      </trkpt>
      <trkpt lat="42.82506" lon="2.41413">
        <ele>407.2</ele>
        <time>2012-08-12T12:37:21Z</time>
      </trkpt>
      <trkpt lat="42.8251" lon="2.41432">
        <ele>406.6</ele>
        <time>2012-08-12T12:37:23Z</time>
      </trkpt>
      <trkpt lat="42.82513" lon="2.41453">
        <ele>406</ele>
        <time>2012-08-12T12:37:25Z</time>
      </trkpt>
      <trkpt lat="42.82513" lon="2.41464">
        <ele>405.5</ele>
        <time>2012-08-12T12:37:26Z</time>
      </trkpt>
      <trkpt lat="42.82513" lon="2.41475">
        <ele>405.1</ele>
        <time>2012-08-12T12:37:27Z</time>
      </trkpt>
      <trkpt lat="42.82509" lon="2.41498">
        <ele>404.7</ele>
        <time>2012-08-12T12:37:29Z</time>
      </trkpt>
      <trkpt lat="42.82508" lon="2.41511">
        <ele>403.5</ele>
        <time>2012-08-12T12:37:30Z</time>
      </trkpt>
      <trkpt lat="42.82508" lon="2.41524">
        <ele>403.2</ele>
        <time>2012-08-12T12:37:31Z</time>
      </trkpt>
      <trkpt lat="42.8251" lon="2.41536">
        <ele>403</ele>
        <time>2012-08-12T12:37:32Z</time>
      </trkpt>
      <trkpt lat="42.82516" lon="2.4156">
        <ele>402</ele>
        <time>2012-08-12T12:37:34Z</time>
      </trkpt>
      <trkpt lat="42.82521" lon="2.41584">
        <ele>401.2</ele>
        <time>2012-08-12T12:37:36Z</time>
      </trkpt>
      <trkpt lat="42.82524" lon="2.41596">
        <ele>400.3</ele>
        <time>2012-08-12T12:37:37Z</time>
      </trkpt>
      <trkpt lat="42.82528" lon="2.41608">
        <ele>399.7</ele>
        <time>2012-08-12T12:37:38Z</time>
      </trkpt>
      <trkpt lat="42.82533" lon="2.41619">
        <ele>399</ele>
        <time>2012-08-12T12:37:39Z</time>
      </trkpt>
      <trkpt lat="42.82544" lon="2.41641">
        <ele>397.8</ele>
        <time>2012-08-12T12:37:41Z</time>
      </trkpt>
      <trkpt lat="42.82549" lon="2.41653">
        <ele>397.2</ele>
        <time>2012-08-12T12:37:42Z</time>
      </trkpt>
      <trkpt lat="42.82553" lon="2.41665">
        <ele>396.6</ele>
        <time>2012-08-12T12:37:43Z</time>
      </trkpt>
      <trkpt lat="42.82561" lon="2.4169">
        <ele>395.5</ele>
        <time>2012-08-12T12:37:45Z</time>
      </trkpt>
      <trkpt lat="42.82565" lon="2.41703">
        <ele>395</ele>
        <time>2012-08-12T12:37:46Z</time>
      </trkpt>
      <trkpt lat="42.82575" lon="2.41727">
        <ele>393.7</ele>
        <time>2012-08-12T12:37:48Z</time>
      </trkpt>
      <trkpt lat="42.82584" lon="2.41752">
        <ele>392.3</ele>
        <time>2012-08-12T12:37:50Z</time>
      </trkpt>
      <trkpt lat="42.82588" lon="2.41764">
        <ele>391.7</ele>
        <time>2012-08-12T12:37:51Z</time>
      </trkpt>
      <trkpt lat="42.82597" lon="2.41789">
        <ele>390.6</ele>
        <time>2012-08-12T12:37:53Z</time>
      </trkpt>
      <trkpt lat="42.82607" lon="2.41813">
        <ele>389.5</ele>
        <time>2012-08-12T12:37:55Z</time>
      </trkpt>
      <trkpt lat="42.82612" lon="2.41826">
        <ele>388.7</ele>
        <time>2012-08-12T12:37:56Z</time>
      </trkpt>
      <trkpt lat="42.82622" lon="2.41851">
        <ele>387.1</ele>
        <time>2012-08-12T12:37:58Z</time>
      </trkpt>
      <trkpt lat="42.82627" lon="2.41863">
        <ele>386.2</ele>
        <time>2012-08-12T12:37:59Z</time>
      </trkpt>
      <trkpt lat="42.82631" lon="2.41876">
        <ele>385.5</ele>
        <time>2012-08-12T12:38:00Z</time>
      </trkpt>
      <trkpt lat="42.82638" lon="2.41904">
        <ele>384.5</ele>
        <time>2012-08-12T12:38:02Z</time>
      </trkpt>
      <trkpt lat="42.82641" lon="2.41917">
        <ele>384</ele>
        <time>2012-08-12T12:38:03Z</time>
      </trkpt>
      <trkpt lat="42.8265" lon="2.41943">
        <ele>383.1</ele>
        <time>2012-08-12T12:38:05Z</time>
      </trkpt>
      <trkpt lat="42.82659" lon="2.4197">
        <ele>382.1</ele>
        <time>2012-08-12T12:38:07Z</time>
      </trkpt>
      <trkpt lat="42.82663" lon="2.41983">
        <ele>381.5</ele>
        <time>2012-08-12T12:38:08Z</time>
      </trkpt>
      <trkpt lat="42.82671" lon="2.4201">
        <ele>380.7</ele>
        <time>2012-08-12T12:38:10Z</time>
      </trkpt>
      <trkpt lat="42.82675" lon="2.42023">
        <ele>380.5</ele>
        <time>2012-08-12T12:38:11Z</time>
      </trkpt>
      <trkpt lat="42.82683" lon="2.42049">
        <ele>380.1</ele>
        <time>2012-08-12T12:38:13Z</time>
      </trkpt>
      <trkpt lat="42.82688" lon="2.42061">
        <ele>379.7</ele>
        <time>2012-08-12T12:38:14Z</time>
      </trkpt>
      <trkpt lat="42.82694" lon="2.42072">
        <ele>379.3</ele>
        <time>2012-08-12T12:38:15Z</time>
      </trkpt>
      <trkpt lat="42.82702" lon="2.4208">
        <ele>379.2</ele>
        <time>2012-08-12T12:38:16Z</time>
      </trkpt>
      <trkpt lat="42.82711" lon="2.42085">
        <ele>379.1</ele>
        <time>2012-08-12T12:38:17Z</time>
      </trkpt>
      <trkpt lat="42.8272" lon="2.42087">
        <ele>379.1</ele>
        <time>2012-08-12T12:38:18Z</time>
      </trkpt>
      <trkpt lat="42.82729" lon="2.42091">
        <ele>379</ele>
        <time>2012-08-12T12:38:19Z</time>
      </trkpt>
      <trkpt lat="42.82741" lon="2.42106">
        <ele>379.5</ele>
        <time>2012-08-12T12:38:21Z</time>
      </trkpt>
      <trkpt lat="42.8275" lon="2.42122">
        <ele>380</ele>
        <time>2012-08-12T12:38:23Z</time>
      </trkpt>
      <trkpt lat="42.82754" lon="2.42131">
        <ele>380.6</ele>
        <time>2012-08-12T12:38:24Z</time>
      </trkpt>
      <trkpt lat="42.82761" lon="2.42146">
        <ele>380.5</ele>
        <time>2012-08-12T12:38:26Z</time>
      </trkpt>
      <trkpt lat="42.82765" lon="2.42154">
        <ele>380.2</ele>
        <time>2012-08-12T12:38:27Z</time>
      </trkpt>
      <trkpt lat="42.82767" lon="2.42171">
        <ele>379.2</ele>
        <time>2012-08-12T12:38:29Z</time>
      </trkpt>
      <trkpt lat="42.8276" lon="2.42186">
        <ele>378.8</ele>
        <time>2012-08-12T12:38:31Z</time>
      </trkpt>
      <trkpt lat="42.8275" lon="2.42197">
        <ele>378.6</ele>
        <time>2012-08-12T12:38:33Z</time>
      </trkpt>
      <trkpt lat="42.82739" lon="2.42209">
        <ele>377.8</ele>
        <time>2012-08-12T12:38:35Z</time>
      </trkpt>
      <trkpt lat="42.82735" lon="2.42215">
        <ele>377.2</ele>
        <time>2012-08-12T12:38:36Z</time>
      </trkpt>
      <trkpt lat="42.82724" lon="2.4223">
        <ele>376.2</ele>
        <time>2012-08-12T12:38:38Z</time>
      </trkpt>
      <trkpt lat="42.82719" lon="2.42236">
        <ele>375.7</ele>
        <time>2012-08-12T12:38:39Z</time>
      </trkpt>
      <trkpt lat="42.82708" lon="2.42247">
        <ele>374.7</ele>
        <time>2012-08-12T12:38:41Z</time>
      </trkpt>
      <trkpt lat="42.82704" lon="2.42257">
        <ele>373.7</ele>
        <time>2012-08-12T12:38:43Z</time>
      </trkpt>
      <trkpt lat="42.82717" lon="2.42254">
        <ele>373.1</ele>
        <time>2012-08-12T12:38:50Z</time>
      </trkpt>
      <trkpt lat="42.82724" lon="2.42249">
        <ele>372.7</ele>
        <time>2012-08-12T12:38:53Z</time>
      </trkpt>
      <trkpt lat="42.82737" lon="2.42247">
        <ele>372.2</ele>
        <time>2012-08-12T12:38:57Z</time>
      </trkpt>
      <trkpt lat="42.82749" lon="2.42243">
        <ele>371.7</ele>
        <time>2012-08-12T12:39:01Z</time>
      </trkpt>
      <trkpt lat="42.82766" lon="2.42242">
        <ele>371.2</ele>
        <time>2012-08-12T12:39:05Z</time>
      </trkpt>
      <trkpt lat="42.82775" lon="2.42243">
        <ele>370.8</ele>
        <time>2012-08-12T12:39:07Z</time>
      </trkpt>
      <trkpt lat="42.82786" lon="2.42246">
        <ele>370.7</ele>
        <time>2012-08-12T12:39:09Z</time>
      </trkpt>
      <trkpt lat="42.82794" lon="2.42256">
        <ele>371</ele>
        <time>2012-08-12T12:39:11Z</time>
      </trkpt>
      <trkpt lat="42.828" lon="2.42268">
        <ele>371.2</ele>
        <time>2012-08-12T12:39:13Z</time>
      </trkpt>
      <trkpt lat="42.82805" lon="2.4228">
        <ele>371.3</ele>
        <time>2012-08-12T12:39:15Z</time>
      </trkpt>
      <trkpt lat="42.82814" lon="2.42297">
        <ele>372.6</ele>
        <time>2012-08-12T12:39:19Z</time>
      </trkpt>
      <trkpt lat="42.82823" lon="2.42316">
        <ele>374.2</ele>
        <time>2012-08-12T12:39:25Z</time>
      </trkpt>
      <trkpt lat="42.82834" lon="2.42331">
        <ele>374.8</ele>
        <time>2012-08-12T12:39:31Z</time>
      </trkpt>
      <trkpt lat="42.82841" lon="2.42337">
        <ele>374.7</ele>
        <time>2012-08-12T12:39:34Z</time>
      </trkpt>
      <trkpt lat="42.8285" lon="2.42353">
        <ele>375.8</ele>
        <time>2012-08-12T12:39:40Z</time>
      </trkpt>
      <trkpt lat="42.82855" lon="2.42361">
        <ele>376.3</ele>
        <time>2012-08-12T12:39:43Z</time>
      </trkpt>
      <trkpt lat="42.82865" lon="2.42377">
        <ele>378</ele>
        <time>2012-08-12T12:39:49Z</time>
      </trkpt>
      <trkpt lat="42.82868" lon="2.42388">
        <ele>378.8</ele>
        <time>2012-08-12T12:39:52Z</time>
      </trkpt>
      <trkpt lat="42.8287" lon="2.42406">
        <ele>378.5</ele>
        <time>2012-08-12T12:39:56Z</time>
      </trkpt>
      <trkpt lat="42.82872" lon="2.42428">
        <ele>377.6</ele>
        <time>2012-08-12T12:40:00Z</time>
      </trkpt>
      <trkpt lat="42.82874" lon="2.4244">
        <ele>377.7</ele>
        <time>2012-08-12T12:40:02Z</time>
      </trkpt>
      <trkpt lat="42.82878" lon="2.42451">
        <ele>377.7</ele>
        <time>2012-08-12T12:40:04Z</time>
      </trkpt>
      <trkpt lat="42.82883" lon="2.42461">
        <ele>377.2</ele>
        <time>2012-08-12T12:40:06Z</time>
      </trkpt>
      <trkpt lat="42.82886" lon="2.42474">
        <ele>376.8</ele>
        <time>2012-08-12T12:40:08Z</time>
      </trkpt>
      <trkpt lat="42.82885" lon="2.42494">
        <ele>377.6</ele>
        <time>2012-08-12T12:40:11Z</time>
      </trkpt>
      <trkpt lat="42.82886" lon="2.42514">
        <ele>377.3</ele>
        <time>2012-08-12T12:40:14Z</time>
      </trkpt>
      <trkpt lat="42.82887" lon="2.42528">
        <ele>377.2</ele>
        <time>2012-08-12T12:40:16Z</time>
      </trkpt>
      <trkpt lat="42.82882" lon="2.42543">
        <ele>377</ele>
        <time>2012-08-12T12:40:18Z</time>
      </trkpt>
      <trkpt lat="42.82872" lon="2.42559">
        <ele>377.1</ele>
        <time>2012-08-12T12:40:22Z</time>
      </trkpt>
      <trkpt lat="42.82866" lon="2.42577">
        <ele>376.5</ele>
        <time>2012-08-12T12:40:25Z</time>
      </trkpt>
      <trkpt lat="42.82864" lon="2.42589">
        <ele>376.3</ele>
        <time>2012-08-12T12:40:27Z</time>
      </trkpt>
      <trkpt lat="42.82862" lon="2.42603">
        <ele>375.8</ele>
        <time>2012-08-12T12:40:29Z</time>
      </trkpt>
      <trkpt lat="42.82859" lon="2.42619">
        <ele>375.7</ele>
        <time>2012-08-12T12:40:31Z</time>
      </trkpt>
      <trkpt lat="42.82851" lon="2.42635">
        <ele>375.6</ele>
        <time>2012-08-12T12:40:33Z</time>
      </trkpt>
      <trkpt lat="42.82846" lon="2.42641">
        <ele>375.5</ele>
        <time>2012-08-12T12:40:34Z</time>
      </trkpt>
      <trkpt lat="42.82835" lon="2.42651">
        <ele>375.2</ele>
        <time>2012-08-12T12:40:36Z</time>
      </trkpt>
      <trkpt lat="42.82823" lon="2.4266">
        <ele>375</ele>
        <time>2012-08-12T12:40:38Z</time>
      </trkpt>
      <trkpt lat="42.82811" lon="2.42669">
        <ele>374.7</ele>
        <time>2012-08-12T12:40:40Z</time>
      </trkpt>
      <trkpt lat="42.82799" lon="2.42681">
        <ele>374.8</ele>
        <time>2012-08-12T12:40:42Z</time>
      </trkpt>
      <trkpt lat="42.82788" lon="2.42695">
        <ele>374.7</ele>
        <time>2012-08-12T12:40:44Z</time>
      </trkpt>
      <trkpt lat="42.82783" lon="2.42702">
        <ele>374.2</ele>
        <time>2012-08-12T12:40:45Z</time>
      </trkpt>
      <trkpt lat="42.82771" lon="2.42717">
        <ele>374.3</ele>
        <time>2012-08-12T12:40:47Z</time>
      </trkpt>
      <trkpt lat="42.82761" lon="2.42731">
        <ele>373.7</ele>
        <time>2012-08-12T12:40:49Z</time>
      </trkpt>
      <trkpt lat="42.82756" lon="2.4274">
        <ele>373.2</ele>
        <time>2012-08-12T12:40:50Z</time>
      </trkpt>
      <trkpt lat="42.82753" lon="2.4275">
        <ele>373.2</ele>
        <time>2012-08-12T12:40:51Z</time>
      </trkpt>
      <trkpt lat="42.82749" lon="2.42768">
        <ele>371.2</ele>
        <time>2012-08-12T12:40:53Z</time>
      </trkpt>
      <trkpt lat="42.82744" lon="2.42785">
        <ele>369.3</ele>
        <time>2012-08-12T12:40:55Z</time>
      </trkpt>
      <trkpt lat="42.82737" lon="2.42802">
        <ele>368.3</ele>
        <time>2012-08-12T12:40:57Z</time>
      </trkpt>
      <trkpt lat="42.82735" lon="2.42818">
        <ele>366.6</ele>
        <time>2012-08-12T12:40:59Z</time>
      </trkpt>
      <trkpt lat="42.82742" lon="2.42829">
        <ele>365.1</ele>
        <time>2012-08-12T12:41:01Z</time>
      </trkpt>
      <trkpt lat="42.82748" lon="2.42842">
        <ele>364.1</ele>
        <time>2012-08-12T12:41:03Z</time>
      </trkpt>
      <trkpt lat="42.82748" lon="2.4286">
        <ele>363.2</ele>
        <time>2012-08-12T12:41:05Z</time>
      </trkpt>
      <trkpt lat="42.82748" lon="2.4287">
        <ele>363.2</ele>
        <time>2012-08-12T12:41:06Z</time>
      </trkpt>
      <trkpt lat="42.82745" lon="2.42888">
        <ele>363.2</ele>
        <time>2012-08-12T12:41:08Z</time>
      </trkpt>
      <trkpt lat="42.82744" lon="2.42896">
        <ele>363.1</ele>
        <time>2012-08-12T12:41:09Z</time>
      </trkpt>
      <trkpt lat="42.82741" lon="2.42914">
        <ele>362.2</ele>
        <time>2012-08-12T12:41:11Z</time>
      </trkpt>
      <trkpt lat="42.82738" lon="2.42932">
        <ele>361.5</ele>
        <time>2012-08-12T12:41:13Z</time>
      </trkpt>
      <trkpt lat="42.82736" lon="2.42941">
        <ele>361.1</ele>
        <time>2012-08-12T12:41:14Z</time>
      </trkpt>
      <trkpt lat="42.82731" lon="2.42958">
        <ele>360.2</ele>
        <time>2012-08-12T12:41:16Z</time>
      </trkpt>
      <trkpt lat="42.82725" lon="2.42978">
        <ele>358.7</ele>
        <time>2012-08-12T12:41:18Z</time>
      </trkpt>
      <trkpt lat="42.82723" lon="2.42989">
        <ele>357.1</ele>
        <time>2012-08-12T12:41:19Z</time>
      </trkpt>
      <trkpt lat="42.82717" lon="2.43013">
        <ele>355.5</ele>
        <time>2012-08-12T12:41:21Z</time>
      </trkpt>
      <trkpt lat="42.82711" lon="2.4304">
        <ele>353.7</ele>
        <time>2012-08-12T12:41:23Z</time>
      </trkpt>
      <trkpt lat="42.82706" lon="2.43068">
        <ele>352.6</ele>
        <time>2012-08-12T12:41:25Z</time>
      </trkpt>
      <trkpt lat="42.82703" lon="2.43082">
        <ele>351.8</ele>
        <time>2012-08-12T12:41:26Z</time>
      </trkpt>
      <trkpt lat="42.827" lon="2.43095">
        <ele>351</ele>
        <time>2012-08-12T12:41:27Z</time>
      </trkpt>
      <trkpt lat="42.82688" lon="2.43121">
        <ele>349.5</ele>
        <time>2012-08-12T12:41:29Z</time>
      </trkpt>
      <trkpt lat="42.82682" lon="2.43133">
        <ele>348.5</ele>
        <time>2012-08-12T12:41:30Z</time>
      </trkpt>
      <trkpt lat="42.82668" lon="2.43156">
        <ele>346.7</ele>
        <time>2012-08-12T12:41:32Z</time>
      </trkpt>
      <trkpt lat="42.82662" lon="2.43168">
        <ele>346.2</ele>
        <time>2012-08-12T12:41:33Z</time>
      </trkpt>
      <trkpt lat="42.82658" lon="2.4318">
        <ele>346</ele>
        <time>2012-08-12T12:41:34Z</time>
      </trkpt>
      <trkpt lat="42.82651" lon="2.43204">
        <ele>344.7</ele>
        <time>2012-08-12T12:41:36Z</time>
      </trkpt>
      <trkpt lat="42.82646" lon="2.43214">
        <ele>344.2</ele>
        <time>2012-08-12T12:41:37Z</time>
      </trkpt>
      <trkpt lat="42.82635" lon="2.43232">
        <ele>343.8</ele>
        <time>2012-08-12T12:41:39Z</time>
      </trkpt>
      <trkpt lat="42.82626" lon="2.43247">
        <ele>343.5</ele>
        <time>2012-08-12T12:41:41Z</time>
      </trkpt>
      <trkpt lat="42.8262" lon="2.43262">
        <ele>343.1</ele>
        <time>2012-08-12T12:41:43Z</time>
      </trkpt>
      <trkpt lat="42.82612" lon="2.43274">
        <ele>343.5</ele>
        <time>2012-08-12T12:41:45Z</time>
      </trkpt>
      <trkpt lat="42.82603" lon="2.43286">
        <ele>343.3</ele>
        <time>2012-08-12T12:41:47Z</time>
      </trkpt>
      <trkpt lat="42.82598" lon="2.43292">
        <ele>343.3</ele>
        <time>2012-08-12T12:41:48Z</time>
      </trkpt>
      <trkpt lat="42.82588" lon="2.43305">
        <ele>343.2</ele>
        <time>2012-08-12T12:41:50Z</time>
      </trkpt>
      <trkpt lat="42.82579" lon="2.4332">
        <ele>343.2</ele>
        <time>2012-08-12T12:41:52Z</time>
      </trkpt>
      <trkpt lat="42.82582" lon="2.43339">
        <ele>343.7</ele>
        <time>2012-08-12T12:41:56Z</time>
      </trkpt>
      <trkpt lat="42.82595" lon="2.43352">
        <ele>342.3</ele>
        <time>2012-08-12T12:42:29Z</time>
      </trkpt>
      <trkpt lat="42.82616" lon="2.43368">
        <ele>342.3</ele>
        <time>2012-08-12T12:42:50Z</time>
      </trkpt>
      <trkpt lat="42.82628" lon="2.43379">
        <ele>342.5</ele>
        <time>2012-08-12T12:42:56Z</time>
      </trkpt>
      <trkpt lat="42.82634" lon="2.43388">
        <ele>342.7</ele>
        <time>2012-08-12T12:43:00Z</time>
      </trkpt>
      <trkpt lat="42.82642" lon="2.43406">
        <ele>343.6</ele>
        <time>2012-08-12T12:43:07Z</time>
      </trkpt>
      <trkpt lat="42.82647" lon="2.43416">
        <ele>344.5</ele>
        <time>2012-08-12T12:43:11Z</time>
      </trkpt>
      <trkpt lat="42.82658" lon="2.43434">
        <ele>343.7</ele>
        <time>2012-08-12T12:43:19Z</time>
      </trkpt>
      <trkpt lat="42.82663" lon="2.43441">
        <ele>344.1</ele>
        <time>2012-08-12T12:43:22Z</time>
      </trkpt>
      <trkpt lat="42.82673" lon="2.43455">
        <ele>345.2</ele>
        <time>2012-08-12T12:43:28Z</time>
      </trkpt>
      <trkpt lat="42.82681" lon="2.43465">
        <ele>344.5</ele>
        <time>2012-08-12T12:43:33Z</time>
      </trkpt>
      <trkpt lat="42.82694" lon="2.43476">
        <ele>345</ele>
        <time>2012-08-12T12:43:40Z</time>
      </trkpt>
      <trkpt lat="42.82708" lon="2.43486">
        <ele>345.2</ele>
        <time>2012-08-12T12:43:47Z</time>
      </trkpt>
      <trkpt lat="42.82718" lon="2.43502">
        <ele>346.1</ele>
        <time>2012-08-12T12:43:53Z</time>
      </trkpt>
      <trkpt lat="42.82725" lon="2.43518">
        <ele>346.5</ele>
        <time>2012-08-12T12:43:59Z</time>
      </trkpt>
      <trkpt lat="42.82733" lon="2.43534">
        <ele>348.2</ele>
        <time>2012-08-12T12:44:05Z</time>
      </trkpt>
      <trkpt lat="42.82742" lon="2.43555">
        <ele>351.2</ele>
        <time>2012-08-12T12:44:13Z</time>
      </trkpt>
      <trkpt lat="42.82744" lon="2.43564">
        <ele>351.5</ele>
        <time>2012-08-12T12:44:16Z</time>
      </trkpt>
      <trkpt lat="42.82747" lon="2.43583">
        <ele>352.6</ele>
        <time>2012-08-12T12:44:22Z</time>
      </trkpt>
      <trkpt lat="42.82749" lon="2.43595">
        <ele>353.7</ele>
        <time>2012-08-12T12:44:26Z</time>
      </trkpt>
      <trkpt lat="42.82752" lon="2.43605">
        <ele>352.7</ele>
        <time>2012-08-12T12:44:30Z</time>
      </trkpt>
      <trkpt lat="42.82753" lon="2.43618">
        <ele>352.8</ele>
        <time>2012-08-12T12:44:35Z</time>
      </trkpt>
      <trkpt lat="42.82752" lon="2.43648">
        <ele>356.2</ele>
        <time>2012-08-12T12:44:46Z</time>
      </trkpt>
      <trkpt lat="42.82753" lon="2.43659">
        <ele>356.8</ele>
        <time>2012-08-12T12:44:50Z</time>
      </trkpt>
      <trkpt lat="42.82758" lon="2.4368">
        <ele>359.5</ele>
        <time>2012-08-12T12:44:58Z</time>
      </trkpt>
      <trkpt lat="42.8276" lon="2.43703">
        <ele>361.5</ele>
        <time>2012-08-12T12:45:06Z</time>
      </trkpt>
      <trkpt lat="42.82762" lon="2.43714">
        <ele>362.7</ele>
        <time>2012-08-12T12:45:10Z</time>
      </trkpt>
      <trkpt lat="42.82766" lon="2.43735">
        <ele>364.1</ele>
        <time>2012-08-12T12:45:18Z</time>
      </trkpt>
      <trkpt lat="42.82769" lon="2.43746">
        <ele>364.5</ele>
        <time>2012-08-12T12:45:22Z</time>
      </trkpt>
      <trkpt lat="42.82773" lon="2.43767">
        <ele>364</ele>
        <time>2012-08-12T12:45:29Z</time>
      </trkpt>
      <trkpt lat="42.82775" lon="2.43779">
        <ele>364.2</ele>
        <time>2012-08-12T12:45:33Z</time>
      </trkpt>
      <trkpt lat="42.82777" lon="2.43793">
        <ele>364.2</ele>
        <time>2012-08-12T12:45:38Z</time>
      </trkpt>
      <trkpt lat="42.82779" lon="2.43808">
        <ele>364.2</ele>
        <time>2012-08-12T12:45:43Z</time>
      </trkpt>
      <trkpt lat="42.82778" lon="2.4383">
        <ele>364.7</ele>
        <time>2012-08-12T12:45:51Z</time>
      </trkpt>
      <trkpt lat="42.82777" lon="2.43842">
        <ele>364.3</ele>
        <time>2012-08-12T12:45:55Z</time>
      </trkpt>
      <trkpt lat="42.8278" lon="2.43865">
        <ele>364.3</ele>
        <time>2012-08-12T12:46:03Z</time>
      </trkpt>
      <trkpt lat="42.82782" lon="2.43875">
        <ele>365.6</ele>
        <time>2012-08-12T12:46:07Z</time>
      </trkpt>
      <trkpt lat="42.82793" lon="2.43891">
        <ele>366.7</ele>
        <time>2012-08-12T12:46:15Z</time>
      </trkpt>
      <trkpt lat="42.82805" lon="2.43907">
        <ele>368.5</ele>
        <time>2012-08-12T12:46:23Z</time>
      </trkpt>
      <trkpt lat="42.82809" lon="2.43915">
        <ele>369.2</ele>
        <time>2012-08-12T12:46:27Z</time>
      </trkpt>
      <trkpt lat="42.82815" lon="2.43935">
        <ele>370.2</ele>
        <time>2012-08-12T12:46:35Z</time>
      </trkpt>
      <trkpt lat="42.82818" lon="2.43948">
        <ele>371.1</ele>
        <time>2012-08-12T12:46:40Z</time>
      </trkpt>
      <trkpt lat="42.8282" lon="2.43967">
        <ele>372.2</ele>
        <time>2012-08-12T12:46:47Z</time>
      </trkpt>
      <trkpt lat="42.82816" lon="2.43987">
        <ele>375.1</ele>
        <time>2012-08-12T12:46:55Z</time>
      </trkpt>
      <trkpt lat="42.82812" lon="2.44007">
        <ele>375.7</ele>
        <time>2012-08-12T12:47:03Z</time>
      </trkpt>
      <trkpt lat="42.82809" lon="2.44028">
        <ele>376.1</ele>
        <time>2012-08-12T12:47:11Z</time>
      </trkpt>
      <trkpt lat="42.82806" lon="2.4404">
        <ele>376</ele>
        <time>2012-08-12T12:47:15Z</time>
      </trkpt>
      <trkpt lat="42.82802" lon="2.4405">
        <ele>376.6</ele>
        <time>2012-08-12T12:47:19Z</time>
      </trkpt>
      <trkpt lat="42.82801" lon="2.44061">
        <ele>377.8</ele>
        <time>2012-08-12T12:47:23Z</time>
      </trkpt>
      <trkpt lat="42.82802" lon="2.44084">
        <ele>378.2</ele>
        <time>2012-08-12T12:47:31Z</time>
      </trkpt>
      <trkpt lat="42.82802" lon="2.44097">
        <ele>378.7</ele>
        <time>2012-08-12T12:47:35Z</time>
      </trkpt>
      <trkpt lat="42.82803" lon="2.44108">
        <ele>378.8</ele>
        <time>2012-08-12T12:47:39Z</time>
      </trkpt>
      <trkpt lat="42.82807" lon="2.44121">
        <ele>379.2</ele>
        <time>2012-08-12T12:47:45Z</time>
      </trkpt>
      <trkpt lat="42.82815" lon="2.44149">
        <ele>381.2</ele>
        <time>2012-08-12T12:47:56Z</time>
      </trkpt>
      <trkpt lat="42.82821" lon="2.44167">
        <ele>381.8</ele>
        <time>2012-08-12T12:48:03Z</time>
      </trkpt>
      <trkpt lat="42.82824" lon="2.44176">
        <ele>383.7</ele>
        <time>2012-08-12T12:48:07Z</time>
      </trkpt>
      <trkpt lat="42.82828" lon="2.44198">
        <ele>385.5</ele>
        <time>2012-08-12T12:48:16Z</time>
      </trkpt>
      <trkpt lat="42.82833" lon="2.44216">
        <ele>386.5</ele>
        <time>2012-08-12T12:48:24Z</time>
      </trkpt>
      <trkpt lat="42.82839" lon="2.44225">
        <ele>387.2</ele>
        <time>2012-08-12T12:48:29Z</time>
      </trkpt>
      <trkpt lat="42.82845" lon="2.44232">
        <ele>388.6</ele>
        <time>2012-08-12T12:48:33Z</time>
      </trkpt>
      <trkpt lat="42.82851" lon="2.4424">
        <ele>388.7</ele>
        <time>2012-08-12T12:48:37Z</time>
      </trkpt>
      <trkpt lat="42.82854" lon="2.44251">
        <ele>389.7</ele>
        <time>2012-08-12T12:48:41Z</time>
      </trkpt>
      <trkpt lat="42.82855" lon="2.44264">
        <ele>389.7</ele>
        <time>2012-08-12T12:48:46Z</time>
      </trkpt>
      <trkpt lat="42.82856" lon="2.44284">
        <ele>390.3</ele>
        <time>2012-08-12T12:48:53Z</time>
      </trkpt>
      <trkpt lat="42.82859" lon="2.44304">
        <ele>390.3</ele>
        <time>2012-08-12T12:48:59Z</time>
      </trkpt>
      <trkpt lat="42.8286" lon="2.44314">
        <ele>390.5</ele>
        <time>2012-08-12T12:49:02Z</time>
      </trkpt>
      <trkpt lat="42.82863" lon="2.44334">
        <ele>389.8</ele>
        <time>2012-08-12T12:49:07Z</time>
      </trkpt>
      <trkpt lat="42.82862" lon="2.44355">
        <ele>390.3</ele>
        <time>2012-08-12T12:49:12Z</time>
      </trkpt>
      <trkpt lat="42.82858" lon="2.44376">
        <ele>391.3</ele>
        <time>2012-08-12T12:49:18Z</time>
      </trkpt>
      <trkpt lat="42.82856" lon="2.44396">
        <ele>393.1</ele>
        <time>2012-08-12T12:49:24Z</time>
      </trkpt>
      <trkpt lat="42.82855" lon="2.44405">
        <ele>394</ele>
        <time>2012-08-12T12:49:27Z</time>
      </trkpt>
      <trkpt lat="42.82853" lon="2.44427">
        <ele>394.5</ele>
        <time>2012-08-12T12:49:34Z</time>
      </trkpt>
      <trkpt lat="42.82852" lon="2.44436">
        <ele>395</ele>
        <time>2012-08-12T12:49:37Z</time>
      </trkpt>
      <trkpt lat="42.8285" lon="2.44457">
        <ele>395.2</ele>
        <time>2012-08-12T12:49:43Z</time>
      </trkpt>
      <trkpt lat="42.8285" lon="2.44468">
        <ele>395.2</ele>
        <time>2012-08-12T12:49:46Z</time>
      </trkpt>
      <trkpt lat="42.82849" lon="2.4449">
        <ele>395.7</ele>
        <time>2012-08-12T12:49:52Z</time>
      </trkpt>
      <trkpt lat="42.82849" lon="2.44501">
        <ele>395.8</ele>
        <time>2012-08-12T12:49:55Z</time>
      </trkpt>
      <trkpt lat="42.82848" lon="2.44513">
        <ele>398</ele>
        <time>2012-08-12T12:49:58Z</time>
      </trkpt>
      <trkpt lat="42.82849" lon="2.44536">
        <ele>401</ele>
        <time>2012-08-12T12:50:04Z</time>
      </trkpt>
      <trkpt lat="42.82852" lon="2.44558">
        <ele>403.7</ele>
        <time>2012-08-12T12:50:11Z</time>
      </trkpt>
      <trkpt lat="42.82853" lon="2.4457">
        <ele>404.7</ele>
        <time>2012-08-12T12:50:15Z</time>
      </trkpt>
      <trkpt lat="42.82854" lon="2.44582">
        <ele>405.1</ele>
        <time>2012-08-12T12:50:19Z</time>
      </trkpt>
      <trkpt lat="42.82852" lon="2.44593">
        <ele>405.8</ele>
        <time>2012-08-12T12:50:23Z</time>
      </trkpt>
      <trkpt lat="42.82847" lon="2.44616">
        <ele>406.2</ele>
        <time>2012-08-12T12:50:30Z</time>
      </trkpt>
      <trkpt lat="42.82846" lon="2.44627">
        <ele>405.5</ele>
        <time>2012-08-12T12:50:32Z</time>
      </trkpt>
      <trkpt lat="42.82842" lon="2.44647">
        <ele>404</ele>
        <time>2012-08-12T12:50:35Z</time>
      </trkpt>
      <trkpt lat="42.8284" lon="2.44665">
        <ele>402.5</ele>
        <time>2012-08-12T12:50:37Z</time>
      </trkpt>
      <trkpt lat="42.82839" lon="2.44675">
        <ele>402.5</ele>
        <time>2012-08-12T12:50:38Z</time>
      </trkpt>
      <trkpt lat="42.82835" lon="2.44698">
        <ele>402.7</ele>
        <time>2012-08-12T12:50:40Z</time>
      </trkpt>
      <trkpt lat="42.82833" lon="2.44721">
        <ele>402.2</ele>
        <time>2012-08-12T12:50:42Z</time>
      </trkpt>
      <trkpt lat="42.82832" lon="2.44733">
        <ele>401.6</ele>
        <time>2012-08-12T12:50:43Z</time>
      </trkpt>
      <trkpt lat="42.82832" lon="2.44756">
        <ele>400.7</ele>
        <time>2012-08-12T12:50:45Z</time>
      </trkpt>
      <trkpt lat="42.82832" lon="2.44767">
        <ele>400</ele>
        <time>2012-08-12T12:50:46Z</time>
      </trkpt>
      <trkpt lat="42.8283" lon="2.44779">
        <ele>402.6</ele>
        <time>2012-08-12T12:50:47Z</time>
      </trkpt>
      <trkpt lat="42.82827" lon="2.44795">
        <ele>401.2</ele>
        <time>2012-08-12T12:50:49Z</time>
      </trkpt>
      <trkpt lat="42.82824" lon="2.44802">
        <ele>401.1</ele>
        <time>2012-08-12T12:50:50Z</time>
      </trkpt>
      <trkpt lat="42.82816" lon="2.44814">
        <ele>401</ele>
        <time>2012-08-12T12:50:52Z</time>
      </trkpt>
      <trkpt lat="42.82812" lon="2.44828">
        <ele>400.6</ele>
        <time>2012-08-12T12:50:54Z</time>
      </trkpt>
      <trkpt lat="42.82811" lon="2.44836">
        <ele>400.6</ele>
        <time>2012-08-12T12:50:55Z</time>
      </trkpt>
      <trkpt lat="42.82809" lon="2.44851">
        <ele>400.1</ele>
        <time>2012-08-12T12:50:57Z</time>
      </trkpt>
      <trkpt lat="42.82806" lon="2.44866">
        <ele>400.2</ele>
        <time>2012-08-12T12:50:59Z</time>
      </trkpt>
      <trkpt lat="42.82804" lon="2.44873">
        <ele>400.2</ele>
        <time>2012-08-12T12:51:00Z</time>
      </trkpt>
      <trkpt lat="42.82797" lon="2.44892">
        <ele>399.7</ele>
        <time>2012-08-12T12:51:03Z</time>
      </trkpt>
      <trkpt lat="42.82791" lon="2.44905">
        <ele>399.7</ele>
        <time>2012-08-12T12:51:05Z</time>
      </trkpt>
      <trkpt lat="42.82787" lon="2.44919">
        <ele>399.7</ele>
        <time>2012-08-12T12:51:07Z</time>
      </trkpt>
      <trkpt lat="42.82784" lon="2.44935">
        <ele>399.3</ele>
        <time>2012-08-12T12:51:09Z</time>
      </trkpt>
      <trkpt lat="42.82782" lon="2.44954">
        <ele>399.2</ele>
        <time>2012-08-12T12:51:11Z</time>
      </trkpt>
      <trkpt lat="42.82784" lon="2.44964">
        <ele>399.2</ele>
        <time>2012-08-12T12:51:12Z</time>
      </trkpt>
      <trkpt lat="42.82793" lon="2.44973">
        <ele>398</ele>
        <time>2012-08-12T12:51:14Z</time>
      </trkpt>
      <trkpt lat="42.82801" lon="2.44975">
        <ele>397.5</ele>
        <time>2012-08-12T12:51:16Z</time>
      </trkpt>
      <trkpt lat="42.82808" lon="2.44991">
        <ele>396.7</ele>
        <time>2012-08-12T12:51:20Z</time>
      </trkpt>
      <trkpt lat="42.82805" lon="2.45005">
        <ele>396.5</ele>
        <time>2012-08-12T12:51:22Z</time>
      </trkpt>
      <trkpt lat="42.82802" lon="2.45021">
        <ele>396.3</ele>
        <time>2012-08-12T12:51:24Z</time>
      </trkpt>
      <trkpt lat="42.82799" lon="2.45041">
        <ele>396.2</ele>
        <time>2012-08-12T12:51:26Z</time>
      </trkpt>
      <trkpt lat="42.82798" lon="2.45051">
        <ele>395.6</ele>
        <time>2012-08-12T12:51:27Z</time>
      </trkpt>
      <trkpt lat="42.82794" lon="2.45073">
        <ele>394.3</ele>
        <time>2012-08-12T12:51:29Z</time>
      </trkpt>
      <trkpt lat="42.8279" lon="2.45096">
        <ele>392.7</ele>
        <time>2012-08-12T12:51:31Z</time>
      </trkpt>
      <trkpt lat="42.82788" lon="2.45108">
        <ele>391.5</ele>
        <time>2012-08-12T12:51:32Z</time>
      </trkpt>
      <trkpt lat="42.82785" lon="2.45134">
        <ele>389.3</ele>
        <time>2012-08-12T12:51:34Z</time>
      </trkpt>
      <trkpt lat="42.82784" lon="2.45146">
        <ele>388.2</ele>
        <time>2012-08-12T12:51:35Z</time>
      </trkpt>
      <trkpt lat="42.8278" lon="2.45169">
        <ele>384.5</ele>
        <time>2012-08-12T12:51:37Z</time>
      </trkpt>
      <trkpt lat="42.82776" lon="2.45181">
        <ele>385.7</ele>
        <time>2012-08-12T12:51:38Z</time>
      </trkpt>
      <trkpt lat="42.82771" lon="2.45203">
        <ele>384.2</ele>
        <time>2012-08-12T12:51:40Z</time>
      </trkpt>
      <trkpt lat="42.8277" lon="2.45214">
        <ele>383.1</ele>
        <time>2012-08-12T12:51:41Z</time>
      </trkpt>
      <trkpt lat="42.82769" lon="2.45226">
        <ele>382</ele>
        <time>2012-08-12T12:51:42Z</time>
      </trkpt>
      <trkpt lat="42.82769" lon="2.45252">
        <ele>379.7</ele>
        <time>2012-08-12T12:51:44Z</time>
      </trkpt>
      <trkpt lat="42.8277" lon="2.45278">
        <ele>378.2</ele>
        <time>2012-08-12T12:51:46Z</time>
      </trkpt>
      <trkpt lat="42.82772" lon="2.45303">
        <ele>377.3</ele>
        <time>2012-08-12T12:51:48Z</time>
      </trkpt>
      <trkpt lat="42.82776" lon="2.45324">
        <ele>376.7</ele>
        <time>2012-08-12T12:51:50Z</time>
      </trkpt>
      <trkpt lat="42.82781" lon="2.45342">
        <ele>376.2</ele>
        <time>2012-08-12T12:51:52Z</time>
      </trkpt>
      <trkpt lat="42.82784" lon="2.4536">
        <ele>376.3</ele>
        <time>2012-08-12T12:51:55Z</time>
      </trkpt>
      <trkpt lat="42.82787" lon="2.45382">
        <ele>376.6</ele>
        <time>2012-08-12T12:52:02Z</time>
      </trkpt>
      <trkpt lat="42.82788" lon="2.45394">
        <ele>376.7</ele>
        <time>2012-08-12T12:52:06Z</time>
      </trkpt>
      <trkpt lat="42.82787" lon="2.45407">
        <ele>380.6</ele>
        <time>2012-08-12T12:56:22Z</time>
      </trkpt>
      <trkpt lat="42.82787" lon="2.45439">
        <ele>380.7</ele>
        <time>2012-08-12T12:56:37Z</time>
      </trkpt>
      <trkpt lat="42.82786" lon="2.45463">
        <ele>381.6</ele>
        <time>2012-08-12T12:56:49Z</time>
      </trkpt>
      <trkpt lat="42.82784" lon="2.45485">
        <ele>383.7</ele>
        <time>2012-08-12T12:57:00Z</time>
      </trkpt>
      <trkpt lat="42.82784" lon="2.45496">
        <ele>384.6</ele>
        <time>2012-08-12T12:57:05Z</time>
      </trkpt>
      <trkpt lat="42.82784" lon="2.45518">
        <ele>384.7</ele>
        <time>2012-08-12T12:57:15Z</time>
      </trkpt>
      <trkpt lat="42.82778" lon="2.4554">
        <ele>387.8</ele>
        <time>2012-08-12T12:57:26Z</time>
      </trkpt>
      <trkpt lat="42.82778" lon="2.45542">
        <ele>387.8</ele>
        <time>2012-08-12T12:57:27Z</time>
      </trkpt>
      <trkpt lat="42.82779" lon="2.45563">
        <ele>390.2</ele>
        <time>2012-08-12T12:57:37Z</time>
      </trkpt>
      <trkpt lat="42.82781" lon="2.45574">
        <ele>390.7</ele>
        <time>2012-08-12T12:57:43Z</time>
      </trkpt>
      <trkpt lat="42.82787" lon="2.45585">
        <ele>390.3</ele>
        <time>2012-08-12T12:58:44Z</time>
      </trkpt>
      <trkpt lat="42.82802" lon="2.4561">
        <ele>400.7</ele>
        <time>2012-08-12T12:59:17Z</time>
      </trkpt>
      <trkpt lat="42.82809" lon="2.45618">
        <ele>402.6</ele>
        <time>2012-08-12T12:59:28Z</time>
      </trkpt>
      <trkpt lat="42.8282" lon="2.45635">
        <ele>403.5</ele>
        <time>2012-08-12T12:59:51Z</time>
      </trkpt>
      <trkpt lat="42.8282" lon="2.45637">
        <ele>403.5</ele>
        <time>2012-08-12T12:59:52Z</time>
      </trkpt>
      <trkpt lat="42.82835" lon="2.45661">
        <ele>403.8</ele>
        <time>2012-08-12T13:00:09Z</time>
      </trkpt>
      <trkpt lat="42.82839" lon="2.4567">
        <ele>404</ele>
        <time>2012-08-12T13:00:13Z</time>
      </trkpt>
      <trkpt lat="42.82852" lon="2.45683">
        <ele>406.1</ele>
        <time>2012-08-12T13:00:27Z</time>
      </trkpt>
      <trkpt lat="42.82858" lon="2.45691">
        <ele>406.7</ele>
        <time>2012-08-12T13:00:36Z</time>
      </trkpt>
      <trkpt lat="42.82865" lon="2.45711">
        <ele>408.6</ele>
        <time>2012-08-12T13:00:56Z</time>
      </trkpt>
      <trkpt lat="42.8287" lon="2.45731">
        <ele>409.1</ele>
        <time>2012-08-12T13:01:04Z</time>
      </trkpt>
      <trkpt lat="42.82874" lon="2.4574">
        <ele>409.3</ele>
        <time>2012-08-12T13:01:09Z</time>
      </trkpt>
      <trkpt lat="42.82879" lon="2.4576">
        <ele>410.1</ele>
        <time>2012-08-12T13:01:22Z</time>
      </trkpt>
      <trkpt lat="42.82883" lon="2.45783">
        <ele>411.2</ele>
        <time>2012-08-12T13:01:33Z</time>
      </trkpt>
      <trkpt lat="42.82886" lon="2.45793">
        <ele>411.8</ele>
        <time>2012-08-12T13:01:44Z</time>
      </trkpt>
      <trkpt lat="42.82888" lon="2.45807">
        <ele>413.7</ele>
        <time>2012-08-12T13:01:59Z</time>
      </trkpt>
      <trkpt lat="42.82896" lon="2.45838">
        <ele>415</ele>
        <time>2012-08-12T13:02:17Z</time>
      </trkpt>
      <trkpt lat="42.82899" lon="2.45846">
        <ele>415.3</ele>
        <time>2012-08-12T13:02:21Z</time>
      </trkpt>
      <trkpt lat="42.82907" lon="2.45867">
        <ele>417.2</ele>
        <time>2012-08-12T13:02:33Z</time>
      </trkpt>
      <trkpt lat="42.8291" lon="2.45878">
        <ele>417.7</ele>
        <time>2012-08-12T13:02:38Z</time>
      </trkpt>
      <trkpt lat="42.82913" lon="2.45897">
        <ele>418.3</ele>
        <time>2012-08-12T13:02:50Z</time>
      </trkpt>
      <trkpt lat="42.82917" lon="2.45908">
        <ele>418.7</ele>
        <time>2012-08-12T13:02:55Z</time>
      </trkpt>
      <trkpt lat="42.82922" lon="2.45917">
        <ele>419.7</ele>
        <time>2012-08-12T13:03:04Z</time>
      </trkpt>
      <trkpt lat="42.82926" lon="2.45937">
        <ele>421.2</ele>
        <time>2012-08-12T13:03:21Z</time>
      </trkpt>
      <trkpt lat="42.82932" lon="2.45957">
        <ele>422</ele>
        <time>2012-08-12T13:03:35Z</time>
      </trkpt>
      <trkpt lat="42.82934" lon="2.45969">
        <ele>422.2</ele>
        <time>2012-08-12T13:03:39Z</time>
      </trkpt>
      <trkpt lat="42.82938" lon="2.4598">
        <ele>422.5</ele>
        <time>2012-08-12T13:03:49Z</time>
      </trkpt>
      <trkpt lat="42.82942" lon="2.45988">
        <ele>423</ele>
        <time>2012-08-12T13:04:01Z</time>
      </trkpt>
      <trkpt lat="42.82948" lon="2.46001">
        <ele>423.3</ele>
        <time>2012-08-12T13:04:11Z</time>
      </trkpt>
      <trkpt lat="42.82954" lon="2.46029">
        <ele>423.7</ele>
        <time>2012-08-12T13:04:22Z</time>
      </trkpt>
      <trkpt lat="42.82956" lon="2.46048">
        <ele>424.2</ele>
        <time>2012-08-12T13:04:28Z</time>
      </trkpt>
      <trkpt lat="42.82957" lon="2.46059">
        <ele>424.5</ele>
        <time>2012-08-12T13:04:31Z</time>
      </trkpt>
      <trkpt lat="42.82963" lon="2.46076">
        <ele>424.7</ele>
        <time>2012-08-12T13:04:39Z</time>
      </trkpt>
      <trkpt lat="42.82964" lon="2.46092">
        <ele>425.2</ele>
        <time>2012-08-12T13:04:43Z</time>
      </trkpt>
      <trkpt lat="42.82968" lon="2.46112">
        <ele>425.8</ele>
        <time>2012-08-12T13:04:50Z</time>
      </trkpt>
      <trkpt lat="42.82968" lon="2.46123">
        <ele>426.2</ele>
        <time>2012-08-12T13:04:54Z</time>
      </trkpt>
      <trkpt lat="42.8297" lon="2.46144">
        <ele>427.2</ele>
        <time>2012-08-12T13:05:02Z</time>
      </trkpt>
      <trkpt lat="42.82973" lon="2.46155">
        <ele>427.7</ele>
        <time>2012-08-12T13:05:05Z</time>
      </trkpt>
      <trkpt lat="42.82974" lon="2.46166">
        <ele>427.8</ele>
        <time>2012-08-12T13:05:08Z</time>
      </trkpt>
      <trkpt lat="42.82974" lon="2.4618">
        <ele>428.5</ele>
        <time>2012-08-12T13:05:13Z</time>
      </trkpt>
      <trkpt lat="42.82976" lon="2.46199">
        <ele>430.2</ele>
        <time>2012-08-12T13:05:25Z</time>
      </trkpt>
      <trkpt lat="42.82973" lon="2.46209">
        <ele>431.2</ele>
        <time>2012-08-12T13:05:31Z</time>
      </trkpt>
      <trkpt lat="42.82976" lon="2.46221">
        <ele>432.1</ele>
        <time>2012-08-12T13:05:43Z</time>
      </trkpt>
      <trkpt lat="42.82975" lon="2.46231">
        <ele>432.7</ele>
        <time>2012-08-12T13:05:47Z</time>
      </trkpt>
      <trkpt lat="42.82971" lon="2.4625">
        <ele>443.5</ele>
        <time>2012-08-12T13:05:56Z</time>
      </trkpt>
      <trkpt lat="42.82973" lon="2.46261">
        <ele>444</ele>
        <time>2012-08-12T13:06:02Z</time>
      </trkpt>
      <trkpt lat="42.82975" lon="2.46285">
        <ele>445.3</ele>
        <time>2012-08-12T13:06:14Z</time>
      </trkpt>
      <trkpt lat="42.82974" lon="2.46308">
        <ele>449</ele>
        <time>2012-08-12T13:06:35Z</time>
      </trkpt>
      <trkpt lat="42.82977" lon="2.46319">
        <ele>451.8</ele>
        <time>2012-08-12T13:06:46Z</time>
      </trkpt>
      <trkpt lat="42.82976" lon="2.46331">
        <ele>454.1</ele>
        <time>2012-08-12T13:06:56Z</time>
      </trkpt>
      <trkpt lat="42.82977" lon="2.46342">
        <ele>455</ele>
        <time>2012-08-12T13:07:03Z</time>
      </trkpt>
      <trkpt lat="42.82975" lon="2.46363">
        <ele>456.7</ele>
        <time>2012-08-12T13:07:19Z</time>
      </trkpt>
      <trkpt lat="42.82975" lon="2.46364">
        <ele>456.7</ele>
        <time>2012-08-12T13:07:20Z</time>
      </trkpt>
      <trkpt lat="42.82971" lon="2.46385">
        <ele>458.3</ele>
        <time>2012-08-12T13:07:38Z</time>
      </trkpt>
      <trkpt lat="42.82967" lon="2.46395">
        <ele>460.6</ele>
        <time>2012-08-12T13:07:48Z</time>
      </trkpt>
      <trkpt lat="42.82966" lon="2.46406">
        <ele>462</ele>
        <time>2012-08-12T13:08:00Z</time>
      </trkpt>
      <trkpt lat="42.82968" lon="2.46418">
        <ele>464</ele>
        <time>2012-08-12T13:08:12Z</time>
      </trkpt>
      <trkpt lat="42.82965" lon="2.46431">
        <ele>467.7</ele>
        <time>2012-08-12T13:08:27Z</time>
      </trkpt>
      <trkpt lat="42.82963" lon="2.46464">
        <ele>473.3</ele>
        <time>2012-08-12T13:08:59Z</time>
      </trkpt>
      <trkpt lat="42.82958" lon="2.46487">
        <ele>478.1</ele>
        <time>2012-08-12T13:09:25Z</time>
      </trkpt>
      <trkpt lat="42.82956" lon="2.465">
        <ele>479.3</ele>
        <time>2012-08-12T13:09:38Z</time>
      </trkpt>
      <trkpt lat="42.82951" lon="2.46521">
        <ele>484.7</ele>
        <time>2012-08-12T13:09:57Z</time>
      </trkpt>
      <trkpt lat="42.82952" lon="2.46532">
        <ele>485.7</ele>
        <time>2012-08-12T13:10:02Z</time>
      </trkpt>
      <trkpt lat="42.82952" lon="2.46555">
        <ele>486.2</ele>
        <time>2012-08-12T13:10:14Z</time>
      </trkpt>
      <trkpt lat="42.82951" lon="2.46578">
        <ele>486.7</ele>
        <time>2012-08-12T13:10:28Z</time>
      </trkpt>
      <trkpt lat="42.82951" lon="2.46589">
        <ele>487.5</ele>
        <time>2012-08-12T13:10:35Z</time>
      </trkpt>
      <trkpt lat="42.82953" lon="2.46603">
        <ele>487.5</ele>
        <time>2012-08-12T13:10:44Z</time>
      </trkpt>
      <trkpt lat="42.82954" lon="2.46636">
        <ele>490.8</ele>
        <time>2012-08-12T13:11:06Z</time>
      </trkpt>
      <trkpt lat="42.82954" lon="2.46659">
        <ele>494.7</ele>
        <time>2012-08-12T13:11:39Z</time>
      </trkpt>
      <trkpt lat="42.82952" lon="2.46671">
        <ele>498.3</ele>
        <time>2012-08-12T13:11:48Z</time>
      </trkpt>
      <trkpt lat="42.82949" lon="2.46693">
        <ele>505</ele>
        <time>2012-08-12T13:12:06Z</time>
      </trkpt>
      <trkpt lat="42.82947" lon="2.46704">
        <ele>509.2</ele>
        <time>2012-08-12T13:12:19Z</time>
      </trkpt>
      <trkpt lat="42.82943" lon="2.46715">
        <ele>509.7</ele>
        <time>2012-08-12T13:12:27Z</time>
      </trkpt>
      <trkpt lat="42.82942" lon="2.46727">
        <ele>511.5</ele>
        <time>2012-08-12T13:12:38Z</time>
      </trkpt>
      <trkpt lat="42.82938" lon="2.46738">
        <ele>514.5</ele>
        <time>2012-08-12T13:18:27Z</time>
      </trkpt>
      <trkpt lat="42.82928" lon="2.46755">
        <ele>512.2</ele>
        <time>2012-08-12T13:19:20Z</time>
      </trkpt>
      <trkpt lat="42.82922" lon="2.46772">
        <ele>511.7</ele>
        <time>2012-08-12T13:19:25Z</time>
      </trkpt>
      <trkpt lat="42.82914" lon="2.46791">
        <ele>511.3</ele>
        <time>2012-08-12T13:19:30Z</time>
      </trkpt>
      <trkpt lat="42.82909" lon="2.46817">
        <ele>510.2</ele>
        <time>2012-08-12T13:19:38Z</time>
      </trkpt>
      <trkpt lat="42.82907" lon="2.46835">
        <ele>509.3</ele>
        <time>2012-08-12T13:19:43Z</time>
      </trkpt>
      <trkpt lat="42.82906" lon="2.46846">
        <ele>508.5</ele>
        <time>2012-08-12T13:19:46Z</time>
      </trkpt>
      <trkpt lat="42.82907" lon="2.46858">
        <ele>507.7</ele>
        <time>2012-08-12T13:19:50Z</time>
      </trkpt>
      <trkpt lat="42.8291" lon="2.46876">
        <ele>506.7</ele>
        <time>2012-08-12T13:19:55Z</time>
      </trkpt>
      <trkpt lat="42.82913" lon="2.46888">
        <ele>506.2</ele>
        <time>2012-08-12T13:19:58Z</time>
      </trkpt>
      <trkpt lat="42.82915" lon="2.46905">
        <ele>505.7</ele>
        <time>2012-08-12T13:20:02Z</time>
      </trkpt>
      <trkpt lat="42.82923" lon="2.46923">
        <ele>504.5</ele>
        <time>2012-08-12T13:20:07Z</time>
      </trkpt>
      <trkpt lat="42.82915" lon="2.46927">
        <ele>504.1</ele>
        <time>2012-08-12T13:20:12Z</time>
      </trkpt>
      <trkpt lat="42.82902" lon="2.46934">
        <ele>503.5</ele>
        <time>2012-08-12T13:20:22Z</time>
      </trkpt>
      <trkpt lat="42.8289" lon="2.46944">
        <ele>503.2</ele>
        <time>2012-08-12T13:20:26Z</time>
      </trkpt>
      <trkpt lat="42.82881" lon="2.46946">
        <ele>501.7</ele>
        <time>2012-08-12T13:20:31Z</time>
      </trkpt>
      <trkpt lat="42.8289" lon="2.46939">
        <ele>470.6</ele>
        <time>2012-08-12T13:21:55Z</time>
      </trkpt>
      <trkpt lat="42.82896" lon="2.46922">
        <ele>470.6</ele>
        <time>2012-08-12T13:22:01Z</time>
      </trkpt>
      <trkpt lat="42.82884" lon="2.46917">
        <ele>469.8</ele>
        <time>2012-08-12T13:22:11Z</time>
      </trkpt>
      <trkpt lat="42.82872" lon="2.46929">
        <ele>469.7</ele>
        <time>2012-08-12T13:22:16Z</time>
      </trkpt>
      <trkpt lat="42.82866" lon="2.46935">
        <ele>469.7</ele>
        <time>2012-08-12T13:22:21Z</time>
      </trkpt>
      <trkpt lat="42.82857" lon="2.4695">
        <ele>469.2</ele>
        <time>2012-08-12T13:22:26Z</time>
      </trkpt>
      <trkpt lat="42.82851" lon="2.46957">
        <ele>469.2</ele>
        <time>2012-08-12T13:22:29Z</time>
      </trkpt>
      <trkpt lat="42.82845" lon="2.46966">
        <ele>467.7</ele>
        <time>2012-08-12T13:22:33Z</time>
      </trkpt>
      <trkpt lat="42.8284" lon="2.46985">
        <ele>461.1</ele>
        <time>2012-08-12T13:22:41Z</time>
      </trkpt>
      <trkpt lat="42.82834" lon="2.47005">
        <ele>460.6</ele>
        <time>2012-08-12T13:22:47Z</time>
      </trkpt>
      <trkpt lat="42.82823" lon="2.4702">
        <ele>459.7</ele>
        <time>2012-08-12T13:22:53Z</time>
      </trkpt>
      <trkpt lat="42.82816" lon="2.47028">
        <ele>459.5</ele>
        <time>2012-08-12T13:22:56Z</time>
      </trkpt>
      <trkpt lat="42.82812" lon="2.47043">
        <ele>452.8</ele>
        <time>2012-08-12T13:23:00Z</time>
      </trkpt>
      <trkpt lat="42.82804" lon="2.47063">
        <ele>450</ele>
        <time>2012-08-12T13:23:06Z</time>
      </trkpt>
      <trkpt lat="42.82798" lon="2.47079">
        <ele>446.1</ele>
        <time>2012-08-12T13:23:10Z</time>
      </trkpt>
      <trkpt lat="42.82794" lon="2.47089">
        <ele>444.5</ele>
        <time>2012-08-12T13:23:13Z</time>
      </trkpt>
      <trkpt lat="42.8279" lon="2.471">
        <ele>442.6</ele>
        <time>2012-08-12T13:23:16Z</time>
      </trkpt>
      <trkpt lat="42.82786" lon="2.4712">
        <ele>439.1</ele>
        <time>2012-08-12T13:23:21Z</time>
      </trkpt>
      <trkpt lat="42.82783" lon="2.4714">
        <ele>434.7</ele>
        <time>2012-08-12T13:23:25Z</time>
      </trkpt>
      <trkpt lat="42.82785" lon="2.47149">
        <ele>421.1</ele>
        <time>2012-08-12T13:25:40Z</time>
      </trkpt>
      <trkpt lat="42.82781" lon="2.47165">
        <ele>420</ele>
        <time>2012-08-12T13:25:45Z</time>
      </trkpt>
      <trkpt lat="42.82777" lon="2.47176">
        <ele>419.1</ele>
        <time>2012-08-12T13:25:48Z</time>
      </trkpt>
      <trkpt lat="42.82771" lon="2.47195">
        <ele>418.5</ele>
        <time>2012-08-12T13:25:53Z</time>
      </trkpt>
      <trkpt lat="42.82768" lon="2.47203">
        <ele>418.2</ele>
        <time>2012-08-12T13:25:55Z</time>
      </trkpt>
      <trkpt lat="42.82766" lon="2.47225">
        <ele>416.7</ele>
        <time>2012-08-12T13:26:01Z</time>
      </trkpt>
      <trkpt lat="42.82765" lon="2.47237">
        <ele>413.7</ele>
        <time>2012-08-12T13:26:05Z</time>
      </trkpt>
      <trkpt lat="42.82762" lon="2.47248">
        <ele>413.5</ele>
        <time>2012-08-12T13:26:10Z</time>
      </trkpt>
      <trkpt lat="42.82763" lon="2.47268">
        <ele>413.3</ele>
        <time>2012-08-12T13:26:15Z</time>
      </trkpt>
      <trkpt lat="42.82764" lon="2.47278">
        <ele>413.2</ele>
        <time>2012-08-12T13:26:19Z</time>
      </trkpt>
      <trkpt lat="42.8275" lon="2.47275">
        <ele>412.8</ele>
        <time>2012-08-12T13:26:24Z</time>
      </trkpt>
      <trkpt lat="42.82742" lon="2.47272">
        <ele>412.7</ele>
        <time>2012-08-12T13:26:27Z</time>
      </trkpt>
      <trkpt lat="42.82727" lon="2.47276">
        <ele>412</ele>
        <time>2012-08-12T13:26:33Z</time>
      </trkpt>
      <trkpt lat="42.82721" lon="2.47279">
        <ele>411.7</ele>
        <time>2012-08-12T13:26:35Z</time>
      </trkpt>
      <trkpt lat="42.82708" lon="2.47291">
        <ele>410</ele>
        <time>2012-08-12T13:26:45Z</time>
      </trkpt>
      <trkpt lat="42.82708" lon="2.47303">
        <ele>389.2</ele>
        <time>2012-08-12T13:31:06Z</time>
      </trkpt>
      <trkpt lat="42.8271" lon="2.47324">
        <ele>387.2</ele>
        <time>2012-08-12T13:31:20Z</time>
      </trkpt>
      <trkpt lat="42.82716" lon="2.47333">
        <ele>386.7</ele>
        <time>2012-08-12T13:31:25Z</time>
      </trkpt>
      <trkpt lat="42.82719" lon="2.47344">
        <ele>385.8</ele>
        <time>2012-08-12T13:31:30Z</time>
      </trkpt>
      <trkpt lat="42.82727" lon="2.4736">
        <ele>385.2</ele>
        <time>2012-08-12T13:31:38Z</time>
      </trkpt>
      <trkpt lat="42.82732" lon="2.47377">
        <ele>384.3</ele>
        <time>2012-08-12T13:31:42Z</time>
      </trkpt>
      <trkpt lat="42.82729" lon="2.47396">
        <ele>382.3</ele>
        <time>2012-08-12T13:31:46Z</time>
      </trkpt>
      <trkpt lat="42.82728" lon="2.4741">
        <ele>381.7</ele>
        <time>2012-08-12T13:31:48Z</time>
      </trkpt>
      <trkpt lat="42.82728" lon="2.47424">
        <ele>380.7</ele>
        <time>2012-08-12T13:31:50Z</time>
      </trkpt>
      <trkpt lat="42.82727" lon="2.47435">
        <ele>380.2</ele>
        <time>2012-08-12T13:31:52Z</time>
      </trkpt>
      <trkpt lat="42.82727" lon="2.47454">
        <ele>378.2</ele>
        <time>2012-08-12T13:31:57Z</time>
      </trkpt>
      <trkpt lat="42.82729" lon="2.47474">
        <ele>374.8</ele>
        <time>2012-08-12T13:32:03Z</time>
      </trkpt>
      <trkpt lat="42.82732" lon="2.47484">
        <ele>372.3</ele>
        <time>2012-08-12T13:32:06Z</time>
      </trkpt>
      <trkpt lat="42.82734" lon="2.47502">
        <ele>371</ele>
        <time>2012-08-12T13:32:10Z</time>
      </trkpt>
      <trkpt lat="42.82737" lon="2.47523">
        <ele>369.8</ele>
        <time>2012-08-12T13:32:14Z</time>
      </trkpt>
      <trkpt lat="42.82739" lon="2.47545">
        <ele>368.5</ele>
        <time>2012-08-12T13:32:18Z</time>
      </trkpt>
      <trkpt lat="42.82737" lon="2.47559">
        <ele>367.2</ele>
        <time>2012-08-12T13:32:20Z</time>
      </trkpt>
      <trkpt lat="42.82736" lon="2.4757">
        <ele>364.7</ele>
        <time>2012-08-12T13:32:24Z</time>
      </trkpt>
      <trkpt lat="42.82734" lon="2.47581">
        <ele>363</ele>
        <time>2012-08-12T13:32:28Z</time>
      </trkpt>
      <trkpt lat="42.82736" lon="2.47598">
        <ele>362.3</ele>
        <time>2012-08-12T13:32:31Z</time>
      </trkpt>
      <trkpt lat="42.82738" lon="2.47606">
        <ele>362</ele>
        <time>2012-08-12T13:32:32Z</time>
      </trkpt>
      <trkpt lat="42.82742" lon="2.47617">
        <ele>361.2</ele>
        <time>2012-08-12T13:32:34Z</time>
      </trkpt>
      <trkpt lat="42.82749" lon="2.47621">
        <ele>358.7</ele>
        <time>2012-08-12T13:32:36Z</time>
      </trkpt>
      <trkpt lat="42.82757" lon="2.47636">
        <ele>314.7</ele>
        <time>2012-08-12T13:46:41Z</time>
      </trkpt>
      <trkpt lat="42.8276" lon="2.47654">
        <ele>315.2</ele>
        <time>2012-08-12T13:46:46Z</time>
      </trkpt>
      <trkpt lat="42.82764" lon="2.47673">
        <ele>315.6</ele>
        <time>2012-08-12T13:46:50Z</time>
      </trkpt>
      <trkpt lat="42.82767" lon="2.47685">
        <ele>315.6</ele>
        <time>2012-08-12T13:46:52Z</time>
      </trkpt>
      <trkpt lat="42.8277" lon="2.47699">
        <ele>315.2</ele>
        <time>2012-08-12T13:46:54Z</time>
      </trkpt>
      <trkpt lat="42.82773" lon="2.4772">
        <ele>315.3</ele>
        <time>2012-08-12T13:46:57Z</time>
      </trkpt>
      <trkpt lat="42.82776" lon="2.47735">
        <ele>314.7</ele>
        <time>2012-08-12T13:46:59Z</time>
      </trkpt>
      <trkpt lat="42.82779" lon="2.47751">
        <ele>312.5</ele>
        <time>2012-08-12T13:47:01Z</time>
      </trkpt>
      <trkpt lat="42.82781" lon="2.4776">
        <ele>311.8</ele>
        <time>2012-08-12T13:47:02Z</time>
      </trkpt>
      <trkpt lat="42.82785" lon="2.47778">
        <ele>311.7</ele>
        <time>2012-08-12T13:47:04Z</time>
      </trkpt>
      <trkpt lat="42.8279" lon="2.47795">
        <ele>309.8</ele>
        <time>2012-08-12T13:47:06Z</time>
      </trkpt>
      <trkpt lat="42.82798" lon="2.47813">
        <ele>307</ele>
        <time>2012-08-12T13:47:08Z</time>
      </trkpt>
      <trkpt lat="42.8281" lon="2.47831">
        <ele>304.7</ele>
        <time>2012-08-12T13:47:10Z</time>
      </trkpt>
      <trkpt lat="42.82816" lon="2.47841">
        <ele>304.1</ele>
        <time>2012-08-12T13:47:11Z</time>
      </trkpt>
      <trkpt lat="42.82827" lon="2.4786">
        <ele>302.7</ele>
        <time>2012-08-12T13:47:13Z</time>
      </trkpt>
      <trkpt lat="42.82833" lon="2.4787">
        <ele>302.3</ele>
        <time>2012-08-12T13:47:14Z</time>
      </trkpt>
      <trkpt lat="42.82845" lon="2.47887">
        <ele>301.7</ele>
        <time>2012-08-12T13:47:16Z</time>
      </trkpt>
      <trkpt lat="42.8285" lon="2.47896">
        <ele>301.2</ele>
        <time>2012-08-12T13:47:17Z</time>
      </trkpt>
      <trkpt lat="42.82862" lon="2.47914">
        <ele>299.7</ele>
        <time>2012-08-12T13:47:19Z</time>
      </trkpt>
      <trkpt lat="42.82874" lon="2.47932">
        <ele>298.2</ele>
        <time>2012-08-12T13:47:21Z</time>
      </trkpt>
      <trkpt lat="42.82887" lon="2.47949">
        <ele>296.7</ele>
        <time>2012-08-12T13:47:23Z</time>
      </trkpt>
      <trkpt lat="42.82893" lon="2.47959">
        <ele>296.1</ele>
        <time>2012-08-12T13:47:24Z</time>
      </trkpt>
      <trkpt lat="42.82902" lon="2.47979">
        <ele>295.2</ele>
        <time>2012-08-12T13:47:26Z</time>
      </trkpt>
      <trkpt lat="42.82907" lon="2.47987">
        <ele>295.1</ele>
        <time>2012-08-12T13:47:27Z</time>
      </trkpt>
      <trkpt lat="42.82921" lon="2.48001">
        <ele>293.8</ele>
        <time>2012-08-12T13:47:29Z</time>
      </trkpt>
      <trkpt lat="42.82926" lon="2.4801">
        <ele>293.6</ele>
        <time>2012-08-12T13:47:30Z</time>
      </trkpt>
      <trkpt lat="42.82938" lon="2.4803">
        <ele>291.6</ele>
        <time>2012-08-12T13:47:32Z</time>
      </trkpt>
      <trkpt lat="42.82943" lon="2.4804">
        <ele>290.8</ele>
        <time>2012-08-12T13:47:33Z</time>
      </trkpt>
      <trkpt lat="42.82952" lon="2.48059">
        <ele>290.5</ele>
        <time>2012-08-12T13:47:35Z</time>
      </trkpt>
      <trkpt lat="42.82957" lon="2.48069">
        <ele>290.2</ele>
        <time>2012-08-12T13:47:37Z</time>
      </trkpt>
      <trkpt lat="42.82966" lon="2.48064">
        <ele>289.8</ele>
        <time>2012-08-12T13:47:44Z</time>
      </trkpt>
      <trkpt lat="42.82971" lon="2.48049">
        <ele>290.2</ele>
        <time>2012-08-12T13:47:53Z</time>
      </trkpt>
      <trkpt lat="42.82982" lon="2.48033">
        <ele>288.5</ele>
        <time>2012-08-12T13:47:59Z</time>
      </trkpt>
      <trkpt lat="42.82993" lon="2.48021">
        <ele>287.3</ele>
        <time>2012-08-12T13:48:03Z</time>
      </trkpt>
      <trkpt lat="42.83003" lon="2.48015">
        <ele>287.2</ele>
        <time>2012-08-12T13:48:05Z</time>
      </trkpt>
      <trkpt lat="42.8301" lon="2.48013">
        <ele>286.7</ele>
        <time>2012-08-12T13:48:06Z</time>
      </trkpt>
      <trkpt lat="42.83027" lon="2.48011">
        <ele>285.6</ele>
        <time>2012-08-12T13:48:08Z</time>
      </trkpt>
      <trkpt lat="42.83036" lon="2.4801">
        <ele>285.8</ele>
        <time>2012-08-12T13:48:09Z</time>
      </trkpt>
      <trkpt lat="42.83045" lon="2.4801">
        <ele>285.8</ele>
        <time>2012-08-12T13:48:10Z</time>
      </trkpt>
      <trkpt lat="42.83064" lon="2.4801">
        <ele>285.6</ele>
        <time>2012-08-12T13:48:12Z</time>
      </trkpt>
      <trkpt lat="42.83083" lon="2.48012">
        <ele>285.2</ele>
        <time>2012-08-12T13:48:14Z</time>
      </trkpt>
      <trkpt lat="42.83092" lon="2.48012">
        <ele>285</ele>
        <time>2012-08-12T13:48:15Z</time>
      </trkpt>
      <trkpt lat="42.831" lon="2.48013">
        <ele>284.8</ele>
        <time>2012-08-12T13:48:16Z</time>
      </trkpt>
      <trkpt lat="42.83115" lon="2.48018">
        <ele>285</ele>
        <time>2012-08-12T13:48:18Z</time>
      </trkpt>
      <trkpt lat="42.83129" lon="2.48023">
        <ele>284.6</ele>
        <time>2012-08-12T13:48:20Z</time>
      </trkpt>
      <trkpt lat="42.83141" lon="2.48028">
        <ele>284.2</ele>
        <time>2012-08-12T13:48:22Z</time>
      </trkpt>
      <trkpt lat="42.83152" lon="2.48032">
        <ele>284.3</ele>
        <time>2012-08-12T13:48:24Z</time>
      </trkpt>
      <trkpt lat="42.83161" lon="2.48035">
        <ele>283.7</ele>
        <time>2012-08-12T13:48:26Z</time>
      </trkpt>
      <trkpt lat="42.83178" lon="2.48037">
        <ele>282.5</ele>
        <time>2012-08-12T13:48:30Z</time>
      </trkpt>
      <trkpt lat="42.83194" lon="2.48036">
        <ele>280.7</ele>
        <time>2012-08-12T13:48:35Z</time>
      </trkpt>
      <trkpt lat="42.83208" lon="2.48028">
        <ele>285.1</ele>
        <time>2012-08-12T13:48:42Z</time>
      </trkpt>
      <trkpt lat="42.83215" lon="2.48019">
        <ele>285</ele>
        <time>2012-08-12T13:48:48Z</time>
      </trkpt>
      <trkpt lat="42.83226" lon="2.48015">
        <ele>285.2</ele>
        <time>2012-08-12T13:48:58Z</time>
      </trkpt>
      <trkpt lat="42.83235" lon="2.48013">
        <ele>285.2</ele>
        <time>2012-08-12T13:49:00Z</time>
      </trkpt>
      <trkpt lat="42.83249" lon="2.48011">
        <ele>285.1</ele>
        <time>2012-08-12T13:49:03Z</time>
      </trkpt>
      <trkpt lat="42.83257" lon="2.48012">
        <ele>284.7</ele>
        <time>2012-08-12T13:49:06Z</time>
      </trkpt>
      <trkpt lat="42.83263" lon="2.48021">
        <ele>281.7</ele>
        <time>2012-08-12T13:49:40Z</time>
      </trkpt>
      <trkpt lat="42.83265" lon="2.48033">
        <ele>283</ele>
        <time>2012-08-12T13:49:48Z</time>
      </trkpt>
      <trkpt lat="42.83265" lon="2.48045">
        <ele>285.8</ele>
        <time>2012-08-12T13:50:12Z</time>
      </trkpt>
      <trkpt lat="42.83271" lon="2.48051">
        <ele>283.2</ele>
        <time>2012-08-12T13:50:57Z</time>
      </trkpt>
      <trkpt lat="42.83265" lon="2.4806">
        <ele>282.3</ele>
        <time>2012-08-12T13:51:16Z</time>
      </trkpt>
      <trkpt lat="42.8326" lon="2.48081">
        <ele>285.1</ele>
        <time>2012-08-12T13:51:50Z</time>
      </trkpt>
      <trkpt lat="42.83255" lon="2.48089">
        <ele>287</ele>
        <time>2012-08-12T13:52:08Z</time>
      </trkpt>
      <trkpt lat="42.83251" lon="2.48101">
        <ele>287.7</ele>
        <time>2012-08-12T13:52:24Z</time>
      </trkpt>
      <trkpt lat="42.8325" lon="2.48123">
        <ele>290.2</ele>
        <time>2012-08-12T13:52:49Z</time>
      </trkpt>
      <trkpt lat="42.83247" lon="2.48134">
        <ele>293.2</ele>
        <time>2012-08-12T13:53:10Z</time>
      </trkpt>
      <trkpt lat="42.83252" lon="2.48145">
        <ele>294.2</ele>
        <time>2012-08-12T13:53:25Z</time>
      </trkpt>
      <trkpt lat="42.83251" lon="2.4817">
        <ele>302</ele>
        <time>2012-08-12T13:53:56Z</time>
      </trkpt>
      <trkpt lat="42.83252" lon="2.48181">
        <ele>307.3</ele>
        <time>2012-08-12T13:54:10Z</time>
      </trkpt>
      <trkpt lat="42.8326" lon="2.48188">
        <ele>310.7</ele>
        <time>2012-08-12T13:54:26Z</time>
      </trkpt>
      <trkpt lat="42.83273" lon="2.48197">
        <ele>315.3</ele>
        <time>2012-08-12T13:54:56Z</time>
      </trkpt>
      <trkpt lat="42.83276" lon="2.48218">
        <ele>318.5</ele>
        <time>2012-08-12T13:55:23Z</time>
      </trkpt>
      <trkpt lat="42.83281" lon="2.4823">
        <ele>320.2</ele>
        <time>2012-08-12T13:55:39Z</time>
      </trkpt>
      <trkpt lat="42.83283" lon="2.48251">
        <ele>322.2</ele>
        <time>2012-08-12T13:55:52Z</time>
      </trkpt>
      <trkpt lat="42.83289" lon="2.48268">
        <ele>323.7</ele>
        <time>2012-08-12T13:56:00Z</time>
      </trkpt>
      <trkpt lat="42.8329" lon="2.48278">
        <ele>324.3</ele>
        <time>2012-08-12T13:56:03Z</time>
      </trkpt>
      <trkpt lat="42.83297" lon="2.483">
        <ele>327.7</ele>
        <time>2012-08-12T13:56:10Z</time>
      </trkpt>
      <trkpt lat="42.83305" lon="2.48319">
        <ele>329.6</ele>
        <time>2012-08-12T13:56:20Z</time>
      </trkpt>
      <trkpt lat="42.83312" lon="2.48326">
        <ele>332.2</ele>
        <time>2012-08-12T13:56:28Z</time>
      </trkpt>
      <trkpt lat="42.83322" lon="2.48327">
        <ele>337.3</ele>
        <time>2012-08-12T13:56:42Z</time>
      </trkpt>
      <trkpt lat="42.83336" lon="2.4832">
        <ele>340.3</ele>
        <time>2012-08-12T13:57:22Z</time>
      </trkpt>
      <trkpt lat="42.83335" lon="2.48296">
        <ele>341.5</ele>
        <time>2012-08-12T13:57:44Z</time>
      </trkpt>
      <trkpt lat="42.83335" lon="2.48295">
        <ele>341.5</ele>
        <time>2012-08-12T13:57:45Z</time>
      </trkpt>
      <trkpt lat="42.83348" lon="2.48311">
        <ele>349.3</ele>
        <time>2012-08-12T13:58:13Z</time>
      </trkpt>
      <trkpt lat="42.83353" lon="2.4832">
        <ele>353.1</ele>
        <time>2012-08-12T13:58:24Z</time>
      </trkpt>
      <trkpt lat="42.83356" lon="2.48308">
        <ele>354.6</ele>
        <time>2012-08-12T13:58:47Z</time>
      </trkpt>
      <trkpt lat="42.83353" lon="2.48275">
        <ele>360.6</ele>
        <time>2012-08-12T13:59:13Z</time>
      </trkpt>
      <trkpt lat="42.83354" lon="2.48252">
        <ele>365.3</ele>
        <time>2012-08-12T13:59:31Z</time>
      </trkpt>
      <trkpt lat="42.83355" lon="2.48241">
        <ele>369.1</ele>
        <time>2012-08-12T13:59:39Z</time>
      </trkpt>
      <trkpt lat="42.83357" lon="2.48228">
        <ele>371.3</ele>
        <time>2012-08-12T13:59:50Z</time>
      </trkpt>
      <trkpt lat="42.83365" lon="2.48208">
        <ele>373</ele>
        <time>2012-08-12T14:00:10Z</time>
      </trkpt>
      <trkpt lat="42.83373" lon="2.48209">
        <ele>366.8</ele>
        <time>2012-08-12T14:00:38Z</time>
      </trkpt>
      <trkpt lat="42.83376" lon="2.48233">
        <ele>370.6</ele>
        <time>2012-08-12T14:00:50Z</time>
      </trkpt>
      <trkpt lat="42.83376" lon="2.48233">
        <ele>370.6</ele>
        <time>2012-08-12T14:00:51Z</time>
      </trkpt>
      <trkpt lat="42.83388" lon="2.48202">
        <ele>378.1</ele>
        <time>2012-08-12T14:01:30Z</time>
      </trkpt>
      <trkpt lat="42.83394" lon="2.48192">
        <ele>386.8</ele>
        <time>2012-08-12T14:04:48Z</time>
      </trkpt>
      <trkpt lat="42.8339" lon="2.4818">
        <ele>390.5</ele>
        <time>2012-08-12T14:12:12Z</time>
      </trkpt>
      <trkpt lat="42.83389" lon="2.48151">
        <ele>390.7</ele>
        <time>2012-08-12T14:12:22Z</time>
      </trkpt>
      <trkpt lat="42.83392" lon="2.4814">
        <ele>390.7</ele>
        <time>2012-08-12T14:12:25Z</time>
      </trkpt>
      <trkpt lat="42.834" lon="2.48127">
        <ele>390.3</ele>
        <time>2012-08-12T14:12:29Z</time>
      </trkpt>
      <trkpt lat="42.83405" lon="2.48112">
        <ele>390.3</ele>
        <time>2012-08-12T14:12:33Z</time>
      </trkpt>
      <trkpt lat="42.8341" lon="2.48095">
        <ele>390.5</ele>
        <time>2012-08-12T14:12:37Z</time>
      </trkpt>
      <trkpt lat="42.83419" lon="2.48083">
        <ele>390.2</ele>
        <time>2012-08-12T14:12:41Z</time>
      </trkpt>
      <trkpt lat="42.83428" lon="2.48081">
        <ele>389.2</ele>
        <time>2012-08-12T14:12:44Z</time>
      </trkpt>
      <trkpt lat="42.83443" lon="2.48089">
        <ele>389</ele>
        <time>2012-08-12T14:12:50Z</time>
      </trkpt>
      <trkpt lat="42.83454" lon="2.481">
        <ele>388.8</ele>
        <time>2012-08-12T14:12:54Z</time>
      </trkpt>
      <trkpt lat="42.83469" lon="2.48105">
        <ele>389.2</ele>
        <time>2012-08-12T14:12:58Z</time>
      </trkpt>
      <trkpt lat="42.83488" lon="2.48105">
        <ele>389.2</ele>
        <time>2012-08-12T14:13:00Z</time>
      </trkpt>
      <trkpt lat="42.83501" lon="2.48101">
        <ele>389</ele>
        <time>2012-08-12T14:13:02Z</time>
      </trkpt>
      <trkpt lat="42.83539" lon="2.48068">
        <ele>388.7</ele>
        <time>2012-08-12T14:13:06Z</time>
      </trkpt>
      <trkpt lat="42.83554" lon="2.48057">
        <ele>389.2</ele>
        <time>2012-08-12T14:13:08Z</time>
      </trkpt>
      <trkpt lat="42.83569" lon="2.48057">
        <ele>389.1</ele>
        <time>2012-08-12T14:13:10Z</time>
      </trkpt>
      <trkpt lat="42.83581" lon="2.4807">
        <ele>387.3</ele>
        <time>2012-08-12T14:23:47Z</time>
      </trkpt>
      <trkpt lat="42.83587" lon="2.48087">
        <ele>387.5</ele>
        <time>2012-08-12T14:23:51Z</time>
      </trkpt>
      <trkpt lat="42.83594" lon="2.48104">
        <ele>387.7</ele>
        <time>2012-08-12T14:23:55Z</time>
      </trkpt>
      <trkpt lat="42.83597" lon="2.48111">
        <ele>387.8</ele>
        <time>2012-08-12T14:23:57Z</time>
      </trkpt>
      <trkpt lat="42.83605" lon="2.48127">
        <ele>388.2</ele>
        <time>2012-08-12T14:24:01Z</time>
      </trkpt>
      <trkpt lat="42.83609" lon="2.48134">
        <ele>388.3</ele>
        <time>2012-08-12T14:24:03Z</time>
      </trkpt>
      <trkpt lat="42.83619" lon="2.48148">
        <ele>388.1</ele>
        <time>2012-08-12T14:24:07Z</time>
      </trkpt>
      <trkpt lat="42.83632" lon="2.4816">
        <ele>388.5</ele>
        <time>2012-08-12T14:24:11Z</time>
      </trkpt>
      <trkpt lat="42.83639" lon="2.48165">
        <ele>388.6</ele>
        <time>2012-08-12T14:24:13Z</time>
      </trkpt>
      <trkpt lat="42.83652" lon="2.48172">
        <ele>388.5</ele>
        <time>2012-08-12T14:24:17Z</time>
      </trkpt>
      <trkpt lat="42.83664" lon="2.4818">
        <ele>388.7</ele>
        <time>2012-08-12T14:24:21Z</time>
      </trkpt>
      <trkpt lat="42.8367" lon="2.48183">
        <ele>388.8</ele>
        <time>2012-08-12T14:24:23Z</time>
      </trkpt>
      <trkpt lat="42.83683" lon="2.48191">
        <ele>388.8</ele>
        <time>2012-08-12T14:24:27Z</time>
      </trkpt>
      <trkpt lat="42.83697" lon="2.48191">
        <ele>389</ele>
        <time>2012-08-12T14:24:31Z</time>
      </trkpt>
      <trkpt lat="42.83706" lon="2.48189">
        <ele>388.8</ele>
        <time>2012-08-12T14:24:33Z</time>
      </trkpt>
      <trkpt lat="42.83719" lon="2.48181">
        <ele>389</ele>
        <time>2012-08-12T14:24:37Z</time>
      </trkpt>
      <trkpt lat="42.83734" lon="2.48173">
        <ele>388.7</ele>
        <time>2012-08-12T14:24:41Z</time>
      </trkpt>
      <trkpt lat="42.83745" lon="2.48171">
        <ele>388.7</ele>
        <time>2012-08-12T14:24:44Z</time>
      </trkpt>
      <trkpt lat="42.83757" lon="2.48175">
        <ele>388.7</ele>
        <time>2012-08-12T14:24:48Z</time>
      </trkpt>
      <trkpt lat="42.8376" lon="2.48176">
        <ele>388</ele>
        <time>2012-08-12T14:24:53Z</time>
      </trkpt>
      <trkpt lat="42.83795" lon="2.48156">
        <ele>382</ele>
        <time>2012-08-12T14:24:58Z</time>
      </trkpt>
      <trkpt lat="42.83811" lon="2.48151">
        <ele>381.1</ele>
        <time>2012-08-12T14:25:00Z</time>
      </trkpt>
      <trkpt lat="42.83821" lon="2.48144">
        <ele>381.1</ele>
        <time>2012-08-12T14:25:02Z</time>
      </trkpt>
      <trkpt lat="42.83831" lon="2.48128">
        <ele>381.8</ele>
        <time>2012-08-12T14:25:06Z</time>
      </trkpt>
      <trkpt lat="42.83835" lon="2.48119">
        <ele>382</ele>
        <time>2012-08-12T14:25:08Z</time>
      </trkpt>
      <trkpt lat="42.83841" lon="2.48102">
        <ele>383.2</ele>
        <time>2012-08-12T14:25:11Z</time>
      </trkpt>
      <trkpt lat="42.83841" lon="2.48084">
        <ele>385.7</ele>
        <time>2012-08-12T14:25:14Z</time>
      </trkpt>
      <trkpt lat="42.83839" lon="2.48071">
        <ele>386.2</ele>
        <time>2012-08-12T14:25:16Z</time>
      </trkpt>
      <trkpt lat="42.83831" lon="2.48049">
        <ele>387.2</ele>
        <time>2012-08-12T14:25:20Z</time>
      </trkpt>
      <trkpt lat="42.83832" lon="2.48027">
        <ele>387.2</ele>
        <time>2012-08-12T14:25:24Z</time>
      </trkpt>
      <trkpt lat="42.83841" lon="2.48012">
        <ele>387.1</ele>
        <time>2012-08-12T14:25:28Z</time>
      </trkpt>
      <trkpt lat="42.8385" lon="2.48005">
        <ele>387.2</ele>
        <time>2012-08-12T14:25:31Z</time>
      </trkpt>
      <trkpt lat="42.83856" lon="2.47994">
        <ele>386.6</ele>
        <time>2012-08-12T14:25:32Z</time>
      </trkpt>
      <trkpt lat="42.83865" lon="2.47985">
        <ele>382.2</ele>
        <time>2012-08-12T14:25:36Z</time>
      </trkpt>
      <trkpt lat="42.83872" lon="2.47985">
        <ele>382</ele>
        <time>2012-08-12T14:25:38Z</time>
      </trkpt>
      <trkpt lat="42.83884" lon="2.47982">
        <ele>382</ele>
        <time>2012-08-12T14:25:41Z</time>
      </trkpt>
      <trkpt lat="42.83899" lon="2.47982">
        <ele>381</ele>
        <time>2012-08-12T14:25:45Z</time>
      </trkpt>
      <trkpt lat="42.83909" lon="2.47987">
        <ele>381.6</ele>
        <time>2012-08-12T14:25:48Z</time>
      </trkpt>
      <trkpt lat="42.83922" lon="2.47986">
        <ele>381.7</ele>
        <time>2012-08-12T14:25:51Z</time>
      </trkpt>
      <trkpt lat="42.83939" lon="2.4798">
        <ele>381.8</ele>
        <time>2012-08-12T14:25:55Z</time>
      </trkpt>
      <trkpt lat="42.83947" lon="2.47977">
        <ele>381.8</ele>
        <time>2012-08-12T14:25:57Z</time>
      </trkpt>
      <trkpt lat="42.83957" lon="2.47975">
        <ele>381.7</ele>
        <time>2012-08-12T14:25:59Z</time>
      </trkpt>
      <trkpt lat="42.83967" lon="2.47975">
        <ele>381.7</ele>
        <time>2012-08-12T14:26:01Z</time>
      </trkpt>
      <trkpt lat="42.83981" lon="2.4798">
        <ele>381</ele>
        <time>2012-08-12T14:26:04Z</time>
      </trkpt>
      <trkpt lat="42.83986" lon="2.47983">
        <ele>381.7</ele>
        <time>2012-08-12T14:26:05Z</time>
      </trkpt>
      <trkpt lat="42.83994" lon="2.47972">
        <ele>381.7</ele>
        <time>2012-08-12T14:26:07Z</time>
      </trkpt>
      <trkpt lat="42.84003" lon="2.47969">
        <ele>381.7</ele>
        <time>2012-08-12T14:26:09Z</time>
      </trkpt>
      <trkpt lat="42.84008" lon="2.47966">
        <ele>381.7</ele>
        <time>2012-08-12T14:26:10Z</time>
      </trkpt>
      <trkpt lat="42.84024" lon="2.47959">
        <ele>381.7</ele>
        <time>2012-08-12T14:26:14Z</time>
      </trkpt>
      <trkpt lat="42.84035" lon="2.47948">
        <ele>381</ele>
        <time>2012-08-12T14:26:17Z</time>
      </trkpt>
      <trkpt lat="42.84042" lon="2.4793">
        <ele>381.7</ele>
        <time>2012-08-12T14:26:20Z</time>
      </trkpt>
      <trkpt lat="42.84047" lon="2.47921">
        <ele>381.7</ele>
        <time>2012-08-12T14:26:22Z</time>
      </trkpt>
      <trkpt lat="42.84057" lon="2.47913">
        <ele>381.7</ele>
        <time>2012-08-12T14:26:25Z</time>
      </trkpt>
      <trkpt lat="42.84063" lon="2.47899">
        <ele>381.7</ele>
        <time>2012-08-12T14:26:27Z</time>
      </trkpt>
      <trkpt lat="42.84065" lon="2.47889">
        <ele>381.7</ele>
        <time>2012-08-12T14:26:28Z</time>
      </trkpt>
      <trkpt lat="42.84076" lon="2.47867">
        <ele>381.7</ele>
        <time>2012-08-12T14:26:32Z</time>
      </trkpt>
      <trkpt lat="42.84089" lon="2.47848">
        <ele>381</ele>
        <time>2012-08-12T14:26:36Z</time>
      </trkpt>
      <trkpt lat="42.84097" lon="2.47834">
        <ele>381.7</ele>
        <time>2012-08-12T14:26:39Z</time>
      </trkpt>
      <trkpt lat="42.84101" lon="2.47819">
        <ele>381</ele>
        <time>2012-08-12T14:26:42Z</time>
      </trkpt>
      <trkpt lat="42.84107" lon="2.47812">
        <ele>381.7</ele>
        <time>2012-08-12T14:26:48Z</time>
      </trkpt>
      <trkpt lat="42.84117" lon="2.47816">
        <ele>381.7</ele>
        <time>2012-08-12T14:26:54Z</time>
      </trkpt>
      <trkpt lat="42.84129" lon="2.47812">
        <ele>381.7</ele>
        <time>2012-08-12T14:27:00Z</time>
      </trkpt>
      <trkpt lat="42.84136" lon="2.47813">
        <ele>381.7</ele>
        <time>2012-08-12T14:27:01Z</time>
      </trkpt>
      <trkpt lat="42.84147" lon="2.47815">
        <ele>381.7</ele>
        <time>2012-08-12T14:27:02Z</time>
      </trkpt>
      <trkpt lat="42.8416" lon="2.47812">
        <ele>381.7</ele>
        <time>2012-08-12T14:27:04Z</time>
      </trkpt>
      <trkpt lat="42.84168" lon="2.47799">
        <ele>381</ele>
        <time>2012-08-12T14:27:10Z</time>
      </trkpt>
      <trkpt lat="42.84176" lon="2.47795">
        <ele>381.7</ele>
        <time>2012-08-12T14:27:13Z</time>
      </trkpt>
      <trkpt lat="42.84188" lon="2.47785">
        <ele>381</ele>
        <time>2012-08-12T14:27:21Z</time>
      </trkpt>
      <trkpt lat="42.84192" lon="2.47787">
        <ele>381.7</ele>
        <time>2012-08-12T14:27:24Z</time>
      </trkpt>
      <trkpt lat="42.84199" lon="2.47803">
        <ele>381.8</ele>
        <time>2012-08-12T14:27:28Z</time>
      </trkpt>
      <trkpt lat="42.84204" lon="2.47812">
        <ele>382.2</ele>
        <time>2012-08-12T14:27:31Z</time>
      </trkpt>
      <trkpt lat="42.8422" lon="2.47812">
        <ele>382.3</ele>
        <time>2012-08-12T14:27:38Z</time>
      </trkpt>
      <trkpt lat="42.84226" lon="2.47821">
        <ele>382.8</ele>
        <time>2012-08-12T14:27:41Z</time>
      </trkpt>
      <trkpt lat="42.84229" lon="2.47834">
        <ele>383.3</ele>
        <time>2012-08-12T14:27:51Z</time>
      </trkpt>
      <trkpt lat="42.84238" lon="2.47849">
        <ele>384.8</ele>
        <time>2012-08-12T14:28:28Z</time>
      </trkpt>
      <trkpt lat="42.84246" lon="2.47844">
        <ele>384.8</ele>
        <time>2012-08-12T14:28:32Z</time>
      </trkpt>
      <trkpt lat="42.84249" lon="2.47857">
        <ele>384.7</ele>
        <time>2012-08-12T14:28:33Z</time>
      </trkpt>
      <trkpt lat="42.84257" lon="2.47854">
        <ele>384.8</ele>
        <time>2012-08-12T14:28:36Z</time>
      </trkpt>
      <trkpt lat="42.84272" lon="2.47851">
        <ele>385.5</ele>
        <time>2012-08-12T14:28:42Z</time>
      </trkpt>
      <trkpt lat="42.84321" lon="2.47867">
        <ele>385.6</ele>
        <time>2012-08-12T14:28:55Z</time>
      </trkpt>
      <trkpt lat="42.84327" lon="2.47854">
        <ele>385.6</ele>
        <time>2012-08-12T14:28:57Z</time>
      </trkpt>
      <trkpt lat="42.84333" lon="2.4784">
        <ele>385.5</ele>
        <time>2012-08-12T14:28:59Z</time>
      </trkpt>
      <trkpt lat="42.84337" lon="2.4786">
        <ele>385.3</ele>
        <time>2012-08-12T14:29:00Z</time>
      </trkpt>
      <trkpt lat="42.84345" lon="2.47872">
        <ele>385.2</ele>
        <time>2012-08-12T14:29:02Z</time>
      </trkpt>
      <trkpt lat="42.84354" lon="2.47865">
        <ele>385</ele>
        <time>2012-08-12T14:29:05Z</time>
      </trkpt>
      <trkpt lat="42.84365" lon="2.47862">
        <ele>384.7</ele>
        <time>2012-08-12T14:29:07Z</time>
      </trkpt>
      <trkpt lat="42.84375" lon="2.4786">
        <ele>384.3</ele>
        <time>2012-08-12T14:29:09Z</time>
      </trkpt>
      <trkpt lat="42.84383" lon="2.47854">
        <ele>383.8</ele>
        <time>2012-08-12T14:29:11Z</time>
      </trkpt>
      <trkpt lat="42.8439" lon="2.47846">
        <ele>383.5</ele>
        <time>2012-08-12T14:29:13Z</time>
      </trkpt>
      <trkpt lat="42.84399" lon="2.47843">
        <ele>383.2</ele>
        <time>2012-08-12T14:29:15Z</time>
      </trkpt>
      <trkpt lat="42.8441" lon="2.47827">
        <ele>382.8</ele>
        <time>2012-08-12T14:29:18Z</time>
      </trkpt>
      <trkpt lat="42.84417" lon="2.47819">
        <ele>382.3</ele>
        <time>2012-08-12T14:29:20Z</time>
      </trkpt>
      <trkpt lat="42.84423" lon="2.47816">
        <ele>382</ele>
        <time>2012-08-12T14:29:21Z</time>
      </trkpt>
      <trkpt lat="42.84436" lon="2.47815">
        <ele>382.2</ele>
        <time>2012-08-12T14:29:23Z</time>
      </trkpt>
      <trkpt lat="42.84447" lon="2.47818">
        <ele>382.2</ele>
        <time>2012-08-12T14:29:25Z</time>
      </trkpt>
      <trkpt lat="42.84453" lon="2.47822">
        <ele>382</ele>
        <time>2012-08-12T14:29:26Z</time>
      </trkpt>
      <trkpt lat="42.8448" lon="2.4782">
        <ele>382</ele>
        <time>2012-08-12T14:29:32Z</time>
      </trkpt>
      <trkpt lat="42.84492" lon="2.47808">
        <ele>382.6</ele>
        <time>2012-08-12T14:29:35Z</time>
      </trkpt>
      <trkpt lat="42.845" lon="2.47801">
        <ele>382.3</ele>
        <time>2012-08-12T14:29:37Z</time>
      </trkpt>
      <trkpt lat="42.84507" lon="2.47795">
        <ele>382.2</ele>
        <time>2012-08-12T14:29:39Z</time>
      </trkpt>
      <trkpt lat="42.84515" lon="2.47787">
        <ele>382.1</ele>
        <time>2012-08-12T14:29:41Z</time>
      </trkpt>
      <trkpt lat="42.8452" lon="2.47784">
        <ele>382.1</ele>
        <time>2012-08-12T14:29:42Z</time>
      </trkpt>
      <trkpt lat="42.84529" lon="2.4778">
        <ele>382</ele>
        <time>2012-08-12T14:29:44Z</time>
      </trkpt>
      <trkpt lat="42.84539" lon="2.47781">
        <ele>382</ele>
        <time>2012-08-12T14:29:46Z</time>
      </trkpt>
      <trkpt lat="42.84543" lon="2.4778">
        <ele>382</ele>
        <time>2012-08-12T14:29:47Z</time>
      </trkpt>
      <trkpt lat="42.84552" lon="2.47776">
        <ele>382</ele>
        <time>2012-08-12T14:29:49Z</time>
      </trkpt>
      <trkpt lat="42.84557" lon="2.47772">
        <ele>382</ele>
        <time>2012-08-12T14:29:50Z</time>
      </trkpt>
      <trkpt lat="42.84567" lon="2.47764">
        <ele>382</ele>
        <time>2012-08-12T14:29:52Z</time>
      </trkpt>
      <trkpt lat="42.84576" lon="2.47751">
        <ele>381.7</ele>
        <time>2012-08-12T14:29:54Z</time>
      </trkpt>
      <trkpt lat="42.84584" lon="2.47742">
        <ele>381.7</ele>
        <time>2012-08-12T14:29:56Z</time>
      </trkpt>
      <trkpt lat="42.84588" lon="2.47736">
        <ele>381.6</ele>
        <time>2012-08-12T14:29:57Z</time>
      </trkpt>
      <trkpt lat="42.84596" lon="2.47724">
        <ele>381.3</ele>
        <time>2012-08-12T14:29:59Z</time>
      </trkpt>
      <trkpt lat="42.84606" lon="2.47707">
        <ele>381.6</ele>
        <time>2012-08-12T14:30:02Z</time>
      </trkpt>
      <trkpt lat="42.84611" lon="2.47692">
        <ele>381.8</ele>
        <time>2012-08-12T14:30:04Z</time>
      </trkpt>
      <trkpt lat="42.84615" lon="2.47681">
        <ele>381.8</ele>
        <time>2012-08-12T14:30:06Z</time>
      </trkpt>
      <trkpt lat="42.84624" lon="2.47665">
        <ele>381.7</ele>
        <time>2012-08-12T14:30:10Z</time>
      </trkpt>
      <trkpt lat="42.84629" lon="2.47644">
        <ele>381.5</ele>
        <time>2012-08-12T14:30:15Z</time>
      </trkpt>
      <trkpt lat="42.84629" lon="2.47625">
        <ele>381.1</ele>
        <time>2012-08-12T14:30:20Z</time>
      </trkpt>
      <trkpt lat="42.84629" lon="2.47613">
        <ele>380.7</ele>
        <time>2012-08-12T14:30:23Z</time>
      </trkpt>
      <trkpt lat="42.84628" lon="2.47601">
        <ele>380.3</ele>
        <time>2012-08-12T14:30:26Z</time>
      </trkpt>
      <trkpt lat="42.84628" lon="2.47579">
        <ele>378.6</ele>
        <time>2012-08-12T14:30:32Z</time>
      </trkpt>
      <trkpt lat="42.84628" lon="2.47568">
        <ele>377.8</ele>
        <time>2012-08-12T14:30:36Z</time>
      </trkpt>
      <trkpt lat="42.84629" lon="2.47556">
        <ele>377.2</ele>
        <time>2012-08-12T14:30:40Z</time>
      </trkpt>
      <trkpt lat="42.84639" lon="2.47539">
        <ele>378.3</ele>
        <time>2012-08-12T14:30:45Z</time>
      </trkpt>
      <trkpt lat="42.84649" lon="2.47524">
        <ele>379.1</ele>
        <time>2012-08-12T14:30:51Z</time>
      </trkpt>
      <trkpt lat="42.84655" lon="2.47517">
        <ele>379.5</ele>
        <time>2012-08-12T14:30:54Z</time>
      </trkpt>
      <trkpt lat="42.84661" lon="2.47506">
        <ele>379.6</ele>
        <time>2012-08-12T14:30:58Z</time>
      </trkpt>
      <trkpt lat="42.84676" lon="2.47487">
        <ele>381.6</ele>
        <time>2012-08-12T14:31:06Z</time>
      </trkpt>
      <trkpt lat="42.8468" lon="2.47479">
        <ele>382.2</ele>
        <time>2012-08-12T14:31:09Z</time>
      </trkpt>
      <trkpt lat="42.84685" lon="2.47461">
        <ele>383.2</ele>
        <time>2012-08-12T14:31:15Z</time>
      </trkpt>
      <trkpt lat="42.84685" lon="2.47438">
        <ele>379.6</ele>
        <time>2012-08-12T14:31:23Z</time>
      </trkpt>
      <trkpt lat="42.84685" lon="2.47426">
        <ele>378.6</ele>
        <time>2012-08-12T14:31:27Z</time>
      </trkpt>
      <trkpt lat="42.84685" lon="2.47415">
        <ele>378.1</ele>
        <time>2012-08-12T14:31:31Z</time>
      </trkpt>
      <trkpt lat="42.84684" lon="2.47396">
        <ele>377.7</ele>
        <time>2012-08-12T14:31:37Z</time>
      </trkpt>
      <trkpt lat="42.84684" lon="2.47376">
        <ele>377.7</ele>
        <time>2012-08-12T14:31:43Z</time>
      </trkpt>
      <trkpt lat="42.84684" lon="2.47353">
        <ele>377.7</ele>
        <time>2012-08-12T14:31:52Z</time>
      </trkpt>
      <trkpt lat="42.84684" lon="2.47342">
        <ele>377.6</ele>
        <time>2012-08-12T14:31:56Z</time>
      </trkpt>
      <trkpt lat="42.84685" lon="2.47328">
        <ele>377.8</ele>
        <time>2012-08-12T14:32:01Z</time>
      </trkpt>
      <trkpt lat="42.84683" lon="2.47309">
        <ele>378.1</ele>
        <time>2012-08-12T14:32:09Z</time>
      </trkpt>
      <trkpt lat="42.8468" lon="2.47297">
        <ele>378.6</ele>
        <time>2012-08-12T14:32:19Z</time>
      </trkpt>
      <trkpt lat="42.84675" lon="2.47278">
        <ele>379.2</ele>
        <time>2012-08-12T14:32:28Z</time>
      </trkpt>
      <trkpt lat="42.84668" lon="2.47261">
        <ele>380.1</ele>
        <time>2012-08-12T14:32:34Z</time>
      </trkpt>
      <trkpt lat="42.84661" lon="2.4724">
        <ele>380.7</ele>
        <time>2012-08-12T14:32:42Z</time>
      </trkpt>
      <trkpt lat="42.84656" lon="2.47231">
        <ele>381</ele>
        <time>2012-08-12T14:32:47Z</time>
      </trkpt>
      <trkpt lat="42.84644" lon="2.47216">
        <ele>390.6</ele>
        <time>2012-08-12T14:58:31Z</time>
      </trkpt>
      <trkpt lat="42.84638" lon="2.47209">
        <ele>390.3</ele>
        <time>2012-08-12T14:58:35Z</time>
      </trkpt>
      <trkpt lat="42.84632" lon="2.472">
        <ele>390.3</ele>
        <time>2012-08-12T14:58:39Z</time>
      </trkpt>
      <trkpt lat="42.84624" lon="2.47181">
        <ele>390.5</ele>
        <time>2012-08-12T14:58:46Z</time>
      </trkpt>
      <trkpt lat="42.84622" lon="2.47159">
        <ele>390.2</ele>
        <time>2012-08-12T14:58:52Z</time>
      </trkpt>
      <trkpt lat="42.84617" lon="2.47137">
        <ele>390.1</ele>
        <time>2012-08-12T14:58:58Z</time>
      </trkpt>
      <trkpt lat="42.84612" lon="2.47121">
        <ele>390.1</ele>
        <time>2012-08-12T14:59:03Z</time>
      </trkpt>
      <trkpt lat="42.84601" lon="2.47107">
        <ele>390.3</ele>
        <time>2012-08-12T14:59:07Z</time>
      </trkpt>
      <trkpt lat="42.84595" lon="2.471">
        <ele>390.5</ele>
        <time>2012-08-12T14:59:09Z</time>
      </trkpt>
      <trkpt lat="42.84589" lon="2.47082">
        <ele>390.6</ele>
        <time>2012-08-12T14:59:14Z</time>
      </trkpt>
      <trkpt lat="42.84598" lon="2.47068">
        <ele>390.6</ele>
        <time>2012-08-12T14:59:18Z</time>
      </trkpt>
      <trkpt lat="42.84607" lon="2.47054">
        <ele>390</ele>
        <time>2012-08-12T14:59:22Z</time>
      </trkpt>
      <trkpt lat="42.84613" lon="2.47034">
        <ele>390.2</ele>
        <time>2012-08-12T14:59:28Z</time>
      </trkpt>
      <trkpt lat="42.84616" lon="2.47023">
        <ele>390</ele>
        <time>2012-08-12T14:59:31Z</time>
      </trkpt>
      <trkpt lat="42.84619" lon="2.47005">
        <ele>390.1</ele>
        <time>2012-08-12T14:59:36Z</time>
      </trkpt>
      <trkpt lat="42.84627" lon="2.46993">
        <ele>390</ele>
        <time>2012-08-12T14:59:40Z</time>
      </trkpt>
      <trkpt lat="42.84639" lon="2.46978">
        <ele>389.8</ele>
        <time>2012-08-12T14:59:46Z</time>
      </trkpt>
      <trkpt lat="42.84651" lon="2.46968">
        <ele>389.8</ele>
        <time>2012-08-12T14:59:52Z</time>
      </trkpt>
      <trkpt lat="42.84663" lon="2.4696">
        <ele>389.8</ele>
        <time>2012-08-12T14:59:57Z</time>
      </trkpt>
      <trkpt lat="42.84674" lon="2.46951">
        <ele>389.8</ele>
        <time>2012-08-12T15:00:02Z</time>
      </trkpt>
      <trkpt lat="42.84686" lon="2.46937">
        <ele>390.2</ele>
        <time>2012-08-12T15:00:08Z</time>
      </trkpt>
      <trkpt lat="42.84697" lon="2.46927">
        <ele>390.1</ele>
        <time>2012-08-12T15:00:13Z</time>
      </trkpt>
      <trkpt lat="42.84709" lon="2.46913">
        <ele>390.1</ele>
        <time>2012-08-12T15:00:19Z</time>
      </trkpt>
      <trkpt lat="42.84715" lon="2.46894">
        <ele>390.2</ele>
        <time>2012-08-12T15:00:27Z</time>
      </trkpt>
      <trkpt lat="42.84712" lon="2.46883">
        <ele>390.7</ele>
        <time>2012-08-12T15:00:31Z</time>
      </trkpt>
      <trkpt lat="42.84712" lon="2.46863">
        <ele>391.1</ele>
        <time>2012-08-12T15:00:37Z</time>
      </trkpt>
      <trkpt lat="42.84717" lon="2.46853">
        <ele>391.2</ele>
        <time>2012-08-12T15:00:40Z</time>
      </trkpt>
      <trkpt lat="42.84726" lon="2.46838">
        <ele>391.5</ele>
        <time>2012-08-12T15:00:44Z</time>
      </trkpt>
      <trkpt lat="42.84734" lon="2.46827">
        <ele>391.5</ele>
        <time>2012-08-12T15:00:48Z</time>
      </trkpt>
      <trkpt lat="42.84744" lon="2.46815">
        <ele>391</ele>
        <time>2012-08-12T15:00:53Z</time>
      </trkpt>
      <trkpt lat="42.84758" lon="2.46805">
        <ele>391.7</ele>
        <time>2012-08-12T15:01:00Z</time>
      </trkpt>
      <trkpt lat="42.84765" lon="2.46829">
        <ele>391.7</ele>
        <time>2012-08-12T15:01:04Z</time>
      </trkpt>
      <trkpt lat="42.84768" lon="2.4684">
        <ele>391.7</ele>
        <time>2012-08-12T15:01:07Z</time>
      </trkpt>
      <trkpt lat="42.84777" lon="2.46857">
        <ele>391.8</ele>
        <time>2012-08-12T15:01:14Z</time>
      </trkpt>
      <trkpt lat="42.8479" lon="2.46869">
        <ele>392.3</ele>
        <time>2012-08-12T15:01:18Z</time>
      </trkpt>
      <trkpt lat="42.848" lon="2.46881">
        <ele>392.8</ele>
        <time>2012-08-12T15:01:22Z</time>
      </trkpt>
      <trkpt lat="42.84809" lon="2.46896">
        <ele>393.2</ele>
        <time>2012-08-12T15:01:27Z</time>
      </trkpt>
      <trkpt lat="42.84812" lon="2.46908">
        <ele>393.6</ele>
        <time>2012-08-12T15:01:30Z</time>
      </trkpt>
      <trkpt lat="42.84811" lon="2.4693">
        <ele>393.7</ele>
        <time>2012-08-12T15:01:36Z</time>
      </trkpt>
      <trkpt lat="42.84809" lon="2.46951">
        <ele>394.7</ele>
        <time>2012-08-12T15:01:42Z</time>
      </trkpt>
      <trkpt lat="42.84806" lon="2.46962">
        <ele>395.2</ele>
        <time>2012-08-12T15:01:45Z</time>
      </trkpt>
      <trkpt lat="42.84804" lon="2.46974">
        <ele>395.8</ele>
        <time>2012-08-12T15:01:48Z</time>
      </trkpt>
      <trkpt lat="42.84801" lon="2.46993">
        <ele>396.5</ele>
        <time>2012-08-12T15:01:53Z</time>
      </trkpt>
      <trkpt lat="42.84798" lon="2.47005">
        <ele>396.5</ele>
        <time>2012-08-12T15:01:56Z</time>
      </trkpt>
      <trkpt lat="42.84794" lon="2.4702">
        <ele>397.1</ele>
        <time>2012-08-12T15:02:00Z</time>
      </trkpt>
      <trkpt lat="42.84796" lon="2.47039">
        <ele>397.2</ele>
        <time>2012-08-12T15:02:05Z</time>
      </trkpt>
      <trkpt lat="42.848" lon="2.47061">
        <ele>398</ele>
        <time>2012-08-12T15:02:12Z</time>
      </trkpt>
      <trkpt lat="42.84809" lon="2.47075">
        <ele>399</ele>
        <time>2012-08-12T15:02:16Z</time>
      </trkpt>
      <trkpt lat="42.8482" lon="2.47089">
        <ele>399.6</ele>
        <time>2012-08-12T15:02:21Z</time>
      </trkpt>
      <trkpt lat="42.84831" lon="2.47097">
        <ele>399.7</ele>
        <time>2012-08-12T15:02:25Z</time>
      </trkpt>
      <trkpt lat="42.84842" lon="2.47104">
        <ele>399.8</ele>
        <time>2012-08-12T15:02:29Z</time>
      </trkpt>
      <trkpt lat="42.84848" lon="2.47108">
        <ele>400.1</ele>
        <time>2012-08-12T15:02:31Z</time>
      </trkpt>
      <trkpt lat="42.84861" lon="2.47114">
        <ele>400.6</ele>
        <time>2012-08-12T15:02:35Z</time>
      </trkpt>
      <trkpt lat="42.84875" lon="2.47121">
        <ele>401.1</ele>
        <time>2012-08-12T15:02:39Z</time>
      </trkpt>
      <trkpt lat="42.84887" lon="2.47129">
        <ele>401.7</ele>
        <time>2012-08-12T15:02:43Z</time>
      </trkpt>
      <trkpt lat="42.84899" lon="2.47136">
        <ele>402.5</ele>
        <time>2012-08-12T15:02:47Z</time>
      </trkpt>
      <trkpt lat="42.84912" lon="2.47139">
        <ele>402.8</ele>
        <time>2012-08-12T15:02:51Z</time>
      </trkpt>
      <trkpt lat="42.84919" lon="2.47139">
        <ele>403.1</ele>
        <time>2012-08-12T15:02:53Z</time>
      </trkpt>
      <trkpt lat="42.84931" lon="2.47133">
        <ele>403.6</ele>
        <time>2012-08-12T15:02:57Z</time>
      </trkpt>
      <trkpt lat="42.84942" lon="2.47121">
        <ele>404.1</ele>
        <time>2012-08-12T15:03:01Z</time>
      </trkpt>
      <trkpt lat="42.84953" lon="2.4711">
        <ele>404.6</ele>
        <time>2012-08-12T15:03:05Z</time>
      </trkpt>
      <trkpt lat="42.84958" lon="2.47104">
        <ele>404.7</ele>
        <time>2012-08-12T15:03:07Z</time>
      </trkpt>
      <trkpt lat="42.84968" lon="2.47092">
        <ele>405.2</ele>
        <time>2012-08-12T15:03:11Z</time>
      </trkpt>
      <trkpt lat="42.84978" lon="2.47079">
        <ele>405.3</ele>
        <time>2012-08-12T15:03:15Z</time>
      </trkpt>
      <trkpt lat="42.84989" lon="2.47068">
        <ele>405.5</ele>
        <time>2012-08-12T15:03:19Z</time>
      </trkpt>
      <trkpt lat="42.85001" lon="2.47056">
        <ele>406</ele>
        <time>2012-08-12T15:03:23Z</time>
      </trkpt>
      <trkpt lat="42.85014" lon="2.47048">
        <ele>406.7</ele>
        <time>2012-08-12T15:03:27Z</time>
      </trkpt>
      <trkpt lat="42.85027" lon="2.47039">
        <ele>407.2</ele>
        <time>2012-08-12T15:03:31Z</time>
      </trkpt>
      <trkpt lat="42.85041" lon="2.47031">
        <ele>406.7</ele>
        <time>2012-08-12T15:03:35Z</time>
      </trkpt>
      <trkpt lat="42.85054" lon="2.47025">
        <ele>407.2</ele>
        <time>2012-08-12T15:03:39Z</time>
      </trkpt>
      <trkpt lat="42.85067" lon="2.47022">
        <ele>407</ele>
        <time>2012-08-12T15:03:43Z</time>
      </trkpt>
      <trkpt lat="42.85079" lon="2.47026">
        <ele>407</ele>
        <time>2012-08-12T15:03:47Z</time>
      </trkpt>
      <trkpt lat="42.85092" lon="2.47039">
        <ele>406.5</ele>
        <time>2012-08-12T15:03:52Z</time>
      </trkpt>
      <trkpt lat="42.85105" lon="2.47045">
        <ele>408.3</ele>
        <time>2012-08-12T15:03:56Z</time>
      </trkpt>
      <trkpt lat="42.85111" lon="2.47047">
        <ele>408.8</ele>
        <time>2012-08-12T15:03:58Z</time>
      </trkpt>
      <trkpt lat="42.85125" lon="2.4705">
        <ele>409.6</ele>
        <time>2012-08-12T15:04:02Z</time>
      </trkpt>
      <trkpt lat="42.85132" lon="2.4705">
        <ele>410.1</ele>
        <time>2012-08-12T15:04:04Z</time>
      </trkpt>
      <trkpt lat="42.85145" lon="2.47047">
        <ele>409.6</ele>
        <time>2012-08-12T15:04:08Z</time>
      </trkpt>
      <trkpt lat="42.85159" lon="2.47042">
        <ele>410.2</ele>
        <time>2012-08-12T15:04:12Z</time>
      </trkpt>
      <trkpt lat="42.85172" lon="2.47041">
        <ele>410.7</ele>
        <time>2012-08-12T15:04:16Z</time>
      </trkpt>
      <trkpt lat="42.85186" lon="2.47043">
        <ele>411.1</ele>
        <time>2012-08-12T15:04:20Z</time>
      </trkpt>
      <trkpt lat="42.85193" lon="2.47043">
        <ele>411.3</ele>
        <time>2012-08-12T15:04:22Z</time>
      </trkpt>
      <trkpt lat="42.85207" lon="2.47041">
        <ele>411.6</ele>
        <time>2012-08-12T15:04:26Z</time>
      </trkpt>
      <trkpt lat="42.85221" lon="2.47034">
        <ele>411.7</ele>
        <time>2012-08-12T15:04:30Z</time>
      </trkpt>
      <trkpt lat="42.85227" lon="2.47029">
        <ele>412</ele>
        <time>2012-08-12T15:04:32Z</time>
      </trkpt>
      <trkpt lat="42.8524" lon="2.47018">
        <ele>412.3</ele>
        <time>2012-08-12T15:04:36Z</time>
      </trkpt>
      <trkpt lat="42.85244" lon="2.47008">
        <ele>413.6</ele>
        <time>2012-08-12T15:04:38Z</time>
      </trkpt>
      <trkpt lat="42.85248" lon="2.46998">
        <ele>413.2</ele>
        <time>2012-08-12T15:04:40Z</time>
      </trkpt>
      <trkpt lat="42.85255" lon="2.46976">
        <ele>412.3</ele>
        <time>2012-08-12T15:04:44Z</time>
      </trkpt>
      <trkpt lat="42.85259" lon="2.46958">
        <ele>411.5</ele>
        <time>2012-08-12T15:04:47Z</time>
      </trkpt>
      <trkpt lat="42.85261" lon="2.46946">
        <ele>411.1</ele>
        <time>2012-08-12T15:04:49Z</time>
      </trkpt>
      <trkpt lat="42.85262" lon="2.46935">
        <ele>411.2</ele>
        <time>2012-08-12T15:04:51Z</time>
      </trkpt>
      <trkpt lat="42.85264" lon="2.46913">
        <ele>413.7</ele>
        <time>2012-08-12T15:04:55Z</time>
      </trkpt>
      <trkpt lat="42.85267" lon="2.46892">
        <ele>414.2</ele>
        <time>2012-08-12T15:04:59Z</time>
      </trkpt>
      <trkpt lat="42.85271" lon="2.46873">
        <ele>414.5</ele>
        <time>2012-08-12T15:05:03Z</time>
      </trkpt>
      <trkpt lat="42.85275" lon="2.46853">
        <ele>414.6</ele>
        <time>2012-08-12T15:05:07Z</time>
      </trkpt>
      <trkpt lat="42.85279" lon="2.46833">
        <ele>415</ele>
        <time>2012-08-12T15:05:11Z</time>
      </trkpt>
      <trkpt lat="42.85283" lon="2.46815">
        <ele>415.6</ele>
        <time>2012-08-12T15:05:15Z</time>
      </trkpt>
      <trkpt lat="42.85285" lon="2.46806">
        <ele>415.7</ele>
        <time>2012-08-12T15:05:17Z</time>
      </trkpt>
      <trkpt lat="42.85289" lon="2.46788">
        <ele>415.7</ele>
        <time>2012-08-12T15:05:21Z</time>
      </trkpt>
      <trkpt lat="42.8529" lon="2.46779">
        <ele>416.7</ele>
        <time>2012-08-12T15:05:23Z</time>
      </trkpt>
      <trkpt lat="42.85294" lon="2.46761">
        <ele>417.2</ele>
        <time>2012-08-12T15:05:27Z</time>
      </trkpt>
      <trkpt lat="42.85297" lon="2.46743">
        <ele>417.6</ele>
        <time>2012-08-12T15:05:31Z</time>
      </trkpt>
      <trkpt lat="42.85299" lon="2.46734">
        <ele>417.7</ele>
        <time>2012-08-12T15:05:33Z</time>
      </trkpt>
      <trkpt lat="42.85303" lon="2.46715">
        <ele>418.2</ele>
        <time>2012-08-12T15:05:37Z</time>
      </trkpt>
      <trkpt lat="42.85305" lon="2.46706">
        <ele>418.5</ele>
        <time>2012-08-12T15:05:39Z</time>
      </trkpt>
      <trkpt lat="42.8531" lon="2.46687">
        <ele>418.7</ele>
        <time>2012-08-12T15:05:43Z</time>
      </trkpt>
      <trkpt lat="42.85316" lon="2.4667">
        <ele>419.2</ele>
        <time>2012-08-12T15:05:47Z</time>
      </trkpt>
      <trkpt lat="42.85324" lon="2.46656">
        <ele>420</ele>
        <time>2012-08-12T15:05:51Z</time>
      </trkpt>
      <trkpt lat="42.85329" lon="2.46651">
        <ele>420.2</ele>
        <time>2012-08-12T15:05:53Z</time>
      </trkpt>
      <trkpt lat="42.85342" lon="2.46646">
        <ele>420.6</ele>
        <time>2012-08-12T15:05:57Z</time>
      </trkpt>
      <trkpt lat="42.85355" lon="2.46647">
        <ele>421.2</ele>
        <time>2012-08-12T15:06:01Z</time>
      </trkpt>
      <trkpt lat="42.85367" lon="2.46646">
        <ele>421.2</ele>
        <time>2012-08-12T15:06:05Z</time>
      </trkpt>
      <trkpt lat="42.8538" lon="2.4664">
        <ele>421.6</ele>
        <time>2012-08-12T15:06:09Z</time>
      </trkpt>
      <trkpt lat="42.85392" lon="2.4663">
        <ele>421.8</ele>
        <time>2012-08-12T15:06:13Z</time>
      </trkpt>
      <trkpt lat="42.85403" lon="2.46618">
        <ele>422.7</ele>
        <time>2012-08-12T15:06:17Z</time>
      </trkpt>
      <trkpt lat="42.85414" lon="2.46606">
        <ele>423.2</ele>
        <time>2012-08-12T15:06:21Z</time>
      </trkpt>
      <trkpt lat="42.85424" lon="2.46595">
        <ele>423.8</ele>
        <time>2012-08-12T15:06:25Z</time>
      </trkpt>
      <trkpt lat="42.85435" lon="2.46584">
        <ele>424.3</ele>
        <time>2012-08-12T15:06:29Z</time>
      </trkpt>
      <trkpt lat="42.85445" lon="2.46572">
        <ele>424.8</ele>
        <time>2012-08-12T15:06:33Z</time>
      </trkpt>
      <trkpt lat="42.85455" lon="2.46559">
        <ele>425.3</ele>
        <time>2012-08-12T15:06:37Z</time>
      </trkpt>
      <trkpt lat="42.85465" lon="2.46546">
        <ele>425.7</ele>
        <time>2012-08-12T15:06:41Z</time>
      </trkpt>
      <trkpt lat="42.8547" lon="2.46539">
        <ele>425.8</ele>
        <time>2012-08-12T15:06:43Z</time>
      </trkpt>
      <trkpt lat="42.8548" lon="2.46527">
        <ele>426.2</ele>
        <time>2012-08-12T15:06:47Z</time>
      </trkpt>
      <trkpt lat="42.8549" lon="2.46515">
        <ele>426.7</ele>
        <time>2012-08-12T15:06:51Z</time>
      </trkpt>
      <trkpt lat="42.85496" lon="2.4651">
        <ele>426.8</ele>
        <time>2012-08-12T15:06:53Z</time>
      </trkpt>
      <trkpt lat="42.85506" lon="2.465">
        <ele>427.2</ele>
        <time>2012-08-12T15:06:57Z</time>
      </trkpt>
      <trkpt lat="42.85517" lon="2.4649">
        <ele>427.5</ele>
        <time>2012-08-12T15:07:01Z</time>
      </trkpt>
      <trkpt lat="42.85525" lon="2.46483">
        <ele>427.5</ele>
        <time>2012-08-12T15:07:04Z</time>
      </trkpt>
      <trkpt lat="42.8554" lon="2.4647">
        <ele>427.7</ele>
        <time>2012-08-12T15:07:09Z</time>
      </trkpt>
      <trkpt lat="42.85552" lon="2.46463">
        <ele>427.8</ele>
        <time>2012-08-12T15:07:13Z</time>
      </trkpt>
      <trkpt lat="42.85558" lon="2.46461">
        <ele>428</ele>
        <time>2012-08-12T15:07:15Z</time>
      </trkpt>
      <trkpt lat="42.85572" lon="2.4646">
        <ele>428.7</ele>
        <time>2012-08-12T15:07:19Z</time>
      </trkpt>
      <trkpt lat="42.85585" lon="2.46455">
        <ele>428.8</ele>
        <time>2012-08-12T15:07:23Z</time>
      </trkpt>
      <trkpt lat="42.85596" lon="2.46445">
        <ele>429.2</ele>
        <time>2012-08-12T15:07:27Z</time>
      </trkpt>
      <trkpt lat="42.85606" lon="2.46433">
        <ele>429.8</ele>
        <time>2012-08-12T15:07:31Z</time>
      </trkpt>
      <trkpt lat="42.85615" lon="2.46419">
        <ele>430.3</ele>
        <time>2012-08-12T15:07:35Z</time>
      </trkpt>
      <trkpt lat="42.85623" lon="2.46404">
        <ele>430.7</ele>
        <time>2012-08-12T15:07:39Z</time>
      </trkpt>
      <trkpt lat="42.85627" lon="2.46396">
        <ele>430.8</ele>
        <time>2012-08-12T15:07:41Z</time>
      </trkpt>
      <trkpt lat="42.85635" lon="2.4638">
        <ele>431.2</ele>
        <time>2012-08-12T15:07:45Z</time>
      </trkpt>
      <trkpt lat="42.85643" lon="2.46364">
        <ele>431.3</ele>
        <time>2012-08-12T15:07:49Z</time>
      </trkpt>
      <trkpt lat="42.85651" lon="2.46348">
        <ele>431.6</ele>
        <time>2012-08-12T15:07:53Z</time>
      </trkpt>
      <trkpt lat="42.8566" lon="2.46331">
        <ele>431.5</ele>
        <time>2012-08-12T15:07:57Z</time>
      </trkpt>
      <trkpt lat="42.85669" lon="2.46315">
        <ele>431.7</ele>
        <time>2012-08-12T15:08:01Z</time>
      </trkpt>
      <trkpt lat="42.85677" lon="2.46298">
        <ele>432.5</ele>
        <time>2012-08-12T15:08:05Z</time>
      </trkpt>
      <trkpt lat="42.85684" lon="2.46282">
        <ele>432.8</ele>
        <time>2012-08-12T15:08:09Z</time>
      </trkpt>
      <trkpt lat="42.85692" lon="2.46267">
        <ele>433.2</ele>
        <time>2012-08-12T15:08:13Z</time>
      </trkpt>
      <trkpt lat="42.85697" lon="2.46259">
        <ele>433.6</ele>
        <time>2012-08-12T15:08:15Z</time>
      </trkpt>
      <trkpt lat="42.85707" lon="2.46245">
        <ele>434</ele>
        <time>2012-08-12T15:08:19Z</time>
      </trkpt>
      <trkpt lat="42.85717" lon="2.46233">
        <ele>434.5</ele>
        <time>2012-08-12T15:08:23Z</time>
      </trkpt>
      <trkpt lat="42.85728" lon="2.46223">
        <ele>434.6</ele>
        <time>2012-08-12T15:08:27Z</time>
      </trkpt>
      <trkpt lat="42.85739" lon="2.46214">
        <ele>434.5</ele>
        <time>2012-08-12T15:08:31Z</time>
      </trkpt>
      <trkpt lat="42.85753" lon="2.46207">
        <ele>434.8</ele>
        <time>2012-08-12T15:08:35Z</time>
      </trkpt>
      <trkpt lat="42.85767" lon="2.46203">
        <ele>435.3</ele>
        <time>2012-08-12T15:08:39Z</time>
      </trkpt>
      <trkpt lat="42.85781" lon="2.46197">
        <ele>436</ele>
        <time>2012-08-12T15:08:43Z</time>
      </trkpt>
      <trkpt lat="42.85795" lon="2.46192">
        <ele>436.2</ele>
        <time>2012-08-12T15:08:47Z</time>
      </trkpt>
      <trkpt lat="42.85802" lon="2.4619">
        <ele>436.7</ele>
        <time>2012-08-12T15:08:49Z</time>
      </trkpt>
      <trkpt lat="42.85815" lon="2.46184">
        <ele>437.6</ele>
        <time>2012-08-12T15:08:53Z</time>
      </trkpt>
      <trkpt lat="42.85822" lon="2.46181">
        <ele>437.7</ele>
        <time>2012-08-12T15:08:55Z</time>
      </trkpt>
      <trkpt lat="42.85836" lon="2.46174">
        <ele>438.1</ele>
        <time>2012-08-12T15:08:59Z</time>
      </trkpt>
      <trkpt lat="42.85843" lon="2.46169">
        <ele>439.1</ele>
        <time>2012-08-12T15:09:01Z</time>
      </trkpt>
      <trkpt lat="42.85856" lon="2.46159">
        <ele>440.3</ele>
        <time>2012-08-12T15:09:05Z</time>
      </trkpt>
      <trkpt lat="42.85862" lon="2.46154">
        <ele>440.7</ele>
        <time>2012-08-12T15:09:07Z</time>
      </trkpt>
      <trkpt lat="42.85875" lon="2.46141">
        <ele>440.8</ele>
        <time>2012-08-12T15:09:11Z</time>
      </trkpt>
      <trkpt lat="42.85882" lon="2.46135">
        <ele>441</ele>
        <time>2012-08-12T15:09:13Z</time>
      </trkpt>
      <trkpt lat="42.85895" lon="2.46122">
        <ele>441</ele>
        <time>2012-08-12T15:09:17Z</time>
      </trkpt>
      <trkpt lat="42.85908" lon="2.4611">
        <ele>441.3</ele>
        <time>2012-08-12T15:09:21Z</time>
      </trkpt>
      <trkpt lat="42.85921" lon="2.46099">
        <ele>442.2</ele>
        <time>2012-08-12T15:09:25Z</time>
      </trkpt>
      <trkpt lat="42.85928" lon="2.46094">
        <ele>442.7</ele>
        <time>2012-08-12T15:09:27Z</time>
      </trkpt>
      <trkpt lat="42.85942" lon="2.46086">
        <ele>443.7</ele>
        <time>2012-08-12T15:09:31Z</time>
      </trkpt>
      <trkpt lat="42.85949" lon="2.46083">
        <ele>444.3</ele>
        <time>2012-08-12T15:09:33Z</time>
      </trkpt>
      <trkpt lat="42.85963" lon="2.46076">
        <ele>445.2</ele>
        <time>2012-08-12T15:09:37Z</time>
      </trkpt>
      <trkpt lat="42.85978" lon="2.4607">
        <ele>445.7</ele>
        <time>2012-08-12T15:09:41Z</time>
      </trkpt>
      <trkpt lat="42.85986" lon="2.46067">
        <ele>446</ele>
        <time>2012-08-12T15:09:43Z</time>
      </trkpt>
      <trkpt lat="42.86003" lon="2.46063">
        <ele>446.8</ele>
        <time>2012-08-12T15:09:47Z</time>
      </trkpt>
      <trkpt lat="42.86012" lon="2.46062">
        <ele>446.5</ele>
        <time>2012-08-12T15:09:49Z</time>
      </trkpt>
      <trkpt lat="42.86027" lon="2.46061">
        <ele>447</ele>
        <time>2012-08-12T15:09:53Z</time>
      </trkpt>
      <trkpt lat="42.86042" lon="2.46056">
        <ele>447.8</ele>
        <time>2012-08-12T15:09:57Z</time>
      </trkpt>
      <trkpt lat="42.86048" lon="2.46048">
        <ele>448.3</ele>
        <time>2012-08-12T15:09:59Z</time>
      </trkpt>
      <trkpt lat="42.86053" lon="2.46039">
        <ele>448.3</ele>
        <time>2012-08-12T15:10:01Z</time>
      </trkpt>
      <trkpt lat="42.86058" lon="2.46028">
        <ele>448.2</ele>
        <time>2012-08-12T15:10:03Z</time>
      </trkpt>
      <trkpt lat="42.86069" lon="2.46019">
        <ele>448.2</ele>
        <time>2012-08-12T15:10:06Z</time>
      </trkpt>
      <trkpt lat="42.86077" lon="2.46017">
        <ele>448</ele>
        <time>2012-08-12T15:10:08Z</time>
      </trkpt>
      <trkpt lat="42.86088" lon="2.46018">
        <ele>447.7</ele>
        <time>2012-08-12T15:10:10Z</time>
      </trkpt>
      <trkpt lat="42.861" lon="2.4602">
        <ele>447.7</ele>
        <time>2012-08-12T15:10:12Z</time>
      </trkpt>
      <trkpt lat="42.86112" lon="2.4602">
        <ele>447.8</ele>
        <time>2012-08-12T15:10:14Z</time>
      </trkpt>
      <trkpt lat="42.86118" lon="2.4602">
        <ele>447.7</ele>
        <time>2012-08-12T15:10:15Z</time>
      </trkpt>
      <trkpt lat="42.86131" lon="2.4602">
        <ele>448</ele>
        <time>2012-08-12T15:10:17Z</time>
      </trkpt>
      <trkpt lat="42.86144" lon="2.4602">
        <ele>447.7</ele>
        <time>2012-08-12T15:10:19Z</time>
      </trkpt>
      <trkpt lat="42.86151" lon="2.46019">
        <ele>447.8</ele>
        <time>2012-08-12T15:10:20Z</time>
      </trkpt>
      <trkpt lat="42.86166" lon="2.46016">
        <ele>448</ele>
        <time>2012-08-12T15:10:22Z</time>
      </trkpt>
      <trkpt lat="42.86179" lon="2.46013">
        <ele>448.3</ele>
        <time>2012-08-12T15:10:24Z</time>
      </trkpt>
      <trkpt lat="42.86192" lon="2.46016">
        <ele>448.2</ele>
        <time>2012-08-12T15:10:27Z</time>
      </trkpt>
      <trkpt lat="42.86197" lon="2.46016">
        <ele>448.2</ele>
        <time>2012-08-12T15:14:28Z</time>
      </trkpt>
      <trkpt lat="42.86193" lon="2.45998">
        <ele>448.3</ele>
        <time>2012-08-12T15:14:33Z</time>
      </trkpt>
      <trkpt lat="42.86188" lon="2.45982">
        <ele>448.5</ele>
        <time>2012-08-12T15:14:37Z</time>
      </trkpt>
      <trkpt lat="42.86188" lon="2.4597">
        <ele>448.5</ele>
        <time>2012-08-12T15:14:41Z</time>
      </trkpt>
      <trkpt lat="42.86185" lon="2.45949">
        <ele>447.8</ele>
        <time>2012-08-12T15:14:47Z</time>
      </trkpt>
      <trkpt lat="42.86182" lon="2.45941">
        <ele>447.8</ele>
        <time>2012-08-12T15:14:50Z</time>
      </trkpt>
      <trkpt lat="42.86177" lon="2.45921">
        <ele>448.1</ele>
        <time>2012-08-12T15:14:56Z</time>
      </trkpt>
      <trkpt lat="42.86174" lon="2.45904">
        <ele>448.2</ele>
        <time>2012-08-12T15:15:00Z</time>
      </trkpt>
      <trkpt lat="42.86173" lon="2.45892">
        <ele>448.5</ele>
        <time>2012-08-12T15:15:03Z</time>
      </trkpt>
      <trkpt lat="42.86173" lon="2.45882">
        <ele>449.2</ele>
        <time>2012-08-12T15:15:06Z</time>
      </trkpt>
      <trkpt lat="42.86172" lon="2.45859">
        <ele>449.2</ele>
        <time>2012-08-12T15:15:12Z</time>
      </trkpt>
      <trkpt lat="42.86174" lon="2.45839">
        <ele>450.1</ele>
        <time>2012-08-12T15:15:18Z</time>
      </trkpt>
      <trkpt lat="42.86179" lon="2.4582">
        <ele>451.2</ele>
        <time>2012-08-12T15:15:24Z</time>
      </trkpt>
      <trkpt lat="42.86186" lon="2.45802">
        <ele>453.1</ele>
        <time>2012-08-12T15:15:30Z</time>
      </trkpt>
      <trkpt lat="42.86188" lon="2.45799">
        <ele>453.1</ele>
        <time>2012-08-12T15:15:31Z</time>
      </trkpt>
      <trkpt lat="42.86196" lon="2.45776">
        <ele>454.8</ele>
        <time>2012-08-12T15:15:39Z</time>
      </trkpt>
      <trkpt lat="42.86199" lon="2.45767">
        <ele>455.3</ele>
        <time>2012-08-12T15:15:42Z</time>
      </trkpt>
      <trkpt lat="42.86207" lon="2.45749">
        <ele>455.8</ele>
        <time>2012-08-12T15:15:48Z</time>
      </trkpt>
      <trkpt lat="42.86213" lon="2.4573">
        <ele>456.1</ele>
        <time>2012-08-12T15:15:54Z</time>
      </trkpt>
      <trkpt lat="42.86219" lon="2.45713">
        <ele>456.2</ele>
        <time>2012-08-12T15:16:00Z</time>
      </trkpt>
      <trkpt lat="42.86226" lon="2.45694">
        <ele>457</ele>
        <time>2012-08-12T15:16:06Z</time>
      </trkpt>
      <trkpt lat="42.86228" lon="2.45684">
        <ele>457.6</ele>
        <time>2012-08-12T15:16:09Z</time>
      </trkpt>
      <trkpt lat="42.86233" lon="2.45666">
        <ele>459.1</ele>
        <time>2012-08-12T15:16:15Z</time>
      </trkpt>
      <trkpt lat="42.86235" lon="2.45656">
        <ele>459.3</ele>
        <time>2012-08-12T15:16:18Z</time>
      </trkpt>
      <trkpt lat="42.86238" lon="2.45638">
        <ele>460.5</ele>
        <time>2012-08-12T15:16:24Z</time>
      </trkpt>
      <trkpt lat="42.8624" lon="2.45614">
        <ele>461.2</ele>
        <time>2012-08-12T15:16:32Z</time>
      </trkpt>
      <trkpt lat="42.86239" lon="2.45596">
        <ele>462.2</ele>
        <time>2012-08-12T15:16:38Z</time>
      </trkpt>
      <trkpt lat="42.86238" lon="2.45587">
        <ele>462.1</ele>
        <time>2012-08-12T15:16:41Z</time>
      </trkpt>
      <trkpt lat="42.86233" lon="2.45566">
        <ele>462.3</ele>
        <time>2012-08-12T15:16:48Z</time>
      </trkpt>
      <trkpt lat="42.8623" lon="2.45547">
        <ele>463.3</ele>
        <time>2012-08-12T15:16:54Z</time>
      </trkpt>
      <trkpt lat="42.86228" lon="2.45528">
        <ele>463.6</ele>
        <time>2012-08-12T15:17:00Z</time>
      </trkpt>
      <trkpt lat="42.86229" lon="2.45516">
        <ele>463.8</ele>
        <time>2012-08-12T15:17:04Z</time>
      </trkpt>
      <trkpt lat="42.8623" lon="2.45497">
        <ele>465.7</ele>
        <time>2012-08-12T15:17:10Z</time>
      </trkpt>
      <trkpt lat="42.8623" lon="2.45487">
        <ele>466.6</ele>
        <time>2012-08-12T15:17:13Z</time>
      </trkpt>
      <trkpt lat="42.86225" lon="2.45466">
        <ele>468.7</ele>
        <time>2012-08-12T15:17:20Z</time>
      </trkpt>
      <trkpt lat="42.8622" lon="2.45456">
        <ele>469.7</ele>
        <time>2012-08-12T15:17:24Z</time>
      </trkpt>
      <trkpt lat="42.86216" lon="2.45446">
        <ele>470.7</ele>
        <time>2012-08-12T15:17:28Z</time>
      </trkpt>
      <trkpt lat="42.86213" lon="2.45435">
        <ele>471.5</ele>
        <time>2012-08-12T15:17:32Z</time>
      </trkpt>
      <trkpt lat="42.8621" lon="2.45421">
        <ele>472.6</ele>
        <time>2012-08-12T15:17:37Z</time>
      </trkpt>
      <trkpt lat="42.8621" lon="2.45401">
        <ele>473.8</ele>
        <time>2012-08-12T15:17:44Z</time>
      </trkpt>
      <trkpt lat="42.86211" lon="2.45378">
        <ele>475.2</ele>
        <time>2012-08-12T15:17:52Z</time>
      </trkpt>
      <trkpt lat="42.86214" lon="2.45355">
        <ele>476.2</ele>
        <time>2012-08-12T15:18:00Z</time>
      </trkpt>
      <trkpt lat="42.86215" lon="2.45344">
        <ele>477.1</ele>
        <time>2012-08-12T15:18:04Z</time>
      </trkpt>
      <trkpt lat="42.86217" lon="2.45332">
        <ele>477.7</ele>
        <time>2012-08-12T15:18:08Z</time>
      </trkpt>
      <trkpt lat="42.86215" lon="2.45309">
        <ele>479.6</ele>
        <time>2012-08-12T15:18:16Z</time>
      </trkpt>
      <trkpt lat="42.8621" lon="2.45287">
        <ele>481</ele>
        <time>2012-08-12T15:18:24Z</time>
      </trkpt>
      <trkpt lat="42.86204" lon="2.45267">
        <ele>481.5</ele>
        <time>2012-08-12T15:18:31Z</time>
      </trkpt>
      <trkpt lat="42.86202" lon="2.45249">
        <ele>482.5</ele>
        <time>2012-08-12T15:18:37Z</time>
      </trkpt>
      <trkpt lat="42.86203" lon="2.4523">
        <ele>484.3</ele>
        <time>2012-08-12T15:18:43Z</time>
      </trkpt>
      <trkpt lat="42.86208" lon="2.45213">
        <ele>485.5</ele>
        <time>2012-08-12T15:18:49Z</time>
      </trkpt>
      <trkpt lat="42.86214" lon="2.45203">
        <ele>486.2</ele>
        <time>2012-08-12T15:18:53Z</time>
      </trkpt>
      <trkpt lat="42.86223" lon="2.45188">
        <ele>487</ele>
        <time>2012-08-12T15:19:00Z</time>
      </trkpt>
      <trkpt lat="42.86233" lon="2.45174">
        <ele>488</ele>
        <time>2012-08-12T15:19:06Z</time>
      </trkpt>
      <trkpt lat="42.86245" lon="2.45159">
        <ele>489.2</ele>
        <time>2012-08-12T15:19:13Z</time>
      </trkpt>
      <trkpt lat="42.86251" lon="2.4515">
        <ele>489.8</ele>
        <time>2012-08-12T15:19:17Z</time>
      </trkpt>
      <trkpt lat="42.86262" lon="2.45135">
        <ele>491</ele>
        <time>2012-08-12T15:19:24Z</time>
      </trkpt>
      <trkpt lat="42.86267" lon="2.45126">
        <ele>491.1</ele>
        <time>2012-08-12T15:19:28Z</time>
      </trkpt>
      <trkpt lat="42.8628" lon="2.45109">
        <ele>492.8</ele>
        <time>2012-08-12T15:19:36Z</time>
      </trkpt>
      <trkpt lat="42.86288" lon="2.45099">
        <ele>493.7</ele>
        <time>2012-08-12T15:19:41Z</time>
      </trkpt>
      <trkpt lat="42.86298" lon="2.45087">
        <ele>495.2</ele>
        <time>2012-08-12T15:19:47Z</time>
      </trkpt>
      <trkpt lat="42.86304" lon="2.45079">
        <ele>495.8</ele>
        <time>2012-08-12T15:19:51Z</time>
      </trkpt>
      <trkpt lat="42.86314" lon="2.45062">
        <ele>497.2</ele>
        <time>2012-08-12T15:19:58Z</time>
      </trkpt>
      <trkpt lat="42.86321" lon="2.45043">
        <ele>498.5</ele>
        <time>2012-08-12T15:20:05Z</time>
      </trkpt>
      <trkpt lat="42.86323" lon="2.45024">
        <ele>499.1</ele>
        <time>2012-08-12T15:20:11Z</time>
      </trkpt>
      <trkpt lat="42.86322" lon="2.45">
        <ele>500</ele>
        <time>2012-08-12T15:20:19Z</time>
      </trkpt>
      <trkpt lat="42.86322" lon="2.44978">
        <ele>499.8</ele>
        <time>2012-08-12T15:20:26Z</time>
      </trkpt>
      <trkpt lat="42.86321" lon="2.44966">
        <ele>499.2</ele>
        <time>2012-08-12T15:20:29Z</time>
      </trkpt>
      <trkpt lat="42.86321" lon="2.4495">
        <ele>498.7</ele>
        <time>2012-08-12T15:20:32Z</time>
      </trkpt>
      <trkpt lat="42.8632" lon="2.44937">
        <ele>498.5</ele>
        <time>2012-08-12T15:20:34Z</time>
      </trkpt>
      <trkpt lat="42.86318" lon="2.44915">
        <ele>497.5</ele>
        <time>2012-08-12T15:20:37Z</time>
      </trkpt>
      <trkpt lat="42.86316" lon="2.44898">
        <ele>497</ele>
        <time>2012-08-12T15:20:39Z</time>
      </trkpt>
      <trkpt lat="42.86314" lon="2.4488">
        <ele>496</ele>
        <time>2012-08-12T15:20:41Z</time>
      </trkpt>
      <trkpt lat="42.86312" lon="2.44861">
        <ele>494.7</ele>
        <time>2012-08-12T15:20:43Z</time>
      </trkpt>
      <trkpt lat="42.86308" lon="2.44841">
        <ele>493.6</ele>
        <time>2012-08-12T15:20:45Z</time>
      </trkpt>
      <trkpt lat="42.86305" lon="2.44819">
        <ele>492.2</ele>
        <time>2012-08-12T15:20:47Z</time>
      </trkpt>
      <trkpt lat="42.86302" lon="2.44796">
        <ele>491</ele>
        <time>2012-08-12T15:20:49Z</time>
      </trkpt>
      <trkpt lat="42.86298" lon="2.44772">
        <ele>489.8</ele>
        <time>2012-08-12T15:20:51Z</time>
      </trkpt>
      <trkpt lat="42.86296" lon="2.44761">
        <ele>489.3</ele>
        <time>2012-08-12T15:20:52Z</time>
      </trkpt>
      <trkpt lat="42.86293" lon="2.44749">
        <ele>488.8</ele>
        <time>2012-08-12T15:20:53Z</time>
      </trkpt>
      <trkpt lat="42.86289" lon="2.44738">
        <ele>488.7</ele>
        <time>2012-08-12T15:20:54Z</time>
      </trkpt>
      <trkpt lat="42.86284" lon="2.44727">
        <ele>489.2</ele>
        <time>2012-08-12T15:20:55Z</time>
      </trkpt>
      <trkpt lat="42.86278" lon="2.44719">
        <ele>489.2</ele>
        <time>2012-08-12T15:20:56Z</time>
      </trkpt>
      <trkpt lat="42.86265" lon="2.44702">
        <ele>488.3</ele>
        <time>2012-08-12T15:20:58Z</time>
      </trkpt>
      <trkpt lat="42.86252" lon="2.44688">
        <ele>487.8</ele>
        <time>2012-08-12T15:21:00Z</time>
      </trkpt>
      <trkpt lat="42.8624" lon="2.44674">
        <ele>487.2</ele>
        <time>2012-08-12T15:21:02Z</time>
      </trkpt>
      <trkpt lat="42.86234" lon="2.44667">
        <ele>487.6</ele>
        <time>2012-08-12T15:21:03Z</time>
      </trkpt>
      <trkpt lat="42.86222" lon="2.44653">
        <ele>487.6</ele>
        <time>2012-08-12T15:21:05Z</time>
      </trkpt>
      <trkpt lat="42.86211" lon="2.44641">
        <ele>487.5</ele>
        <time>2012-08-12T15:21:07Z</time>
      </trkpt>
      <trkpt lat="42.862" lon="2.44629">
        <ele>487.2</ele>
        <time>2012-08-12T15:21:09Z</time>
      </trkpt>
      <trkpt lat="42.86196" lon="2.44623">
        <ele>487.2</ele>
        <time>2012-08-12T15:21:10Z</time>
      </trkpt>
      <trkpt lat="42.86186" lon="2.44612">
        <ele>487.1</ele>
        <time>2012-08-12T15:21:12Z</time>
      </trkpt>
      <trkpt lat="42.86176" lon="2.44602">
        <ele>487.3</ele>
        <time>2012-08-12T15:21:14Z</time>
      </trkpt>
      <trkpt lat="42.86168" lon="2.44591">
        <ele>487.2</ele>
        <time>2012-08-12T15:21:16Z</time>
      </trkpt>
      <trkpt lat="42.86164" lon="2.44574">
        <ele>486.3</ele>
        <time>2012-08-12T15:21:18Z</time>
      </trkpt>
      <trkpt lat="42.86167" lon="2.44555">
        <ele>485.6</ele>
        <time>2012-08-12T15:21:20Z</time>
      </trkpt>
      <trkpt lat="42.86176" lon="2.44538">
        <ele>484.7</ele>
        <time>2012-08-12T15:21:22Z</time>
      </trkpt>
      <trkpt lat="42.86188" lon="2.44524">
        <ele>484.1</ele>
        <time>2012-08-12T15:21:24Z</time>
      </trkpt>
      <trkpt lat="42.862" lon="2.44509">
        <ele>484.2</ele>
        <time>2012-08-12T15:21:26Z</time>
      </trkpt>
      <trkpt lat="42.86207" lon="2.44501">
        <ele>484.2</ele>
        <time>2012-08-12T15:21:27Z</time>
      </trkpt>
      <trkpt lat="42.8622" lon="2.44486">
        <ele>484.2</ele>
        <time>2012-08-12T15:21:29Z</time>
      </trkpt>
      <trkpt lat="42.86227" lon="2.44479">
        <ele>484.1</ele>
        <time>2012-08-12T15:21:30Z</time>
      </trkpt>
      <trkpt lat="42.86234" lon="2.4447">
        <ele>483.7</ele>
        <time>2012-08-12T15:21:31Z</time>
      </trkpt>
      <trkpt lat="42.86239" lon="2.4446">
        <ele>483</ele>
        <time>2012-08-12T15:21:32Z</time>
      </trkpt>
      <trkpt lat="42.86242" lon="2.44448">
        <ele>482</ele>
        <time>2012-08-12T15:21:33Z</time>
      </trkpt>
      <trkpt lat="42.86241" lon="2.44435">
        <ele>481.2</ele>
        <time>2012-08-12T15:21:34Z</time>
      </trkpt>
      <trkpt lat="42.86237" lon="2.44423">
        <ele>480.2</ele>
        <time>2012-08-12T15:21:35Z</time>
      </trkpt>
      <trkpt lat="42.8623" lon="2.44416">
        <ele>479.5</ele>
        <time>2012-08-12T15:21:36Z</time>
      </trkpt>
      <trkpt lat="42.86215" lon="2.44411">
        <ele>479.2</ele>
        <time>2012-08-12T15:21:38Z</time>
      </trkpt>
      <trkpt lat="42.86201" lon="2.44413">
        <ele>479.1</ele>
        <time>2012-08-12T15:21:40Z</time>
      </trkpt>
      <trkpt lat="42.86186" lon="2.44416">
        <ele>478.7</ele>
        <time>2012-08-12T15:21:42Z</time>
      </trkpt>
      <trkpt lat="42.86173" lon="2.44418">
        <ele>478.7</ele>
        <time>2012-08-12T15:21:43Z</time>
      </trkpt>
      <trkpt lat="42.86163" lon="2.44416">
        <ele>477.6</ele>
        <time>2012-08-12T15:21:44Z</time>
      </trkpt>
      <trkpt lat="42.86151" lon="2.44403">
        <ele>476.8</ele>
        <time>2012-08-12T15:21:46Z</time>
      </trkpt>
      <trkpt lat="42.8615" lon="2.44393">
        <ele>476.7</ele>
        <time>2012-08-12T15:21:47Z</time>
      </trkpt>
      <trkpt lat="42.8615" lon="2.44371">
        <ele>476</ele>
        <time>2012-08-12T15:21:49Z</time>
      </trkpt>
      <trkpt lat="42.86153" lon="2.44352">
        <ele>474.8</ele>
        <time>2012-08-12T15:21:51Z</time>
      </trkpt>
      <trkpt lat="42.86156" lon="2.44332">
        <ele>474.7</ele>
        <time>2012-08-12T15:21:53Z</time>
      </trkpt>
      <trkpt lat="42.86158" lon="2.44314">
        <ele>474.1</ele>
        <time>2012-08-12T15:21:55Z</time>
      </trkpt>
      <trkpt lat="42.8616" lon="2.44297">
        <ele>473.7</ele>
        <time>2012-08-12T15:21:57Z</time>
      </trkpt>
      <trkpt lat="42.86163" lon="2.44282">
        <ele>473.7</ele>
        <time>2012-08-12T15:21:59Z</time>
      </trkpt>
      <trkpt lat="42.86164" lon="2.44267">
        <ele>473.7</ele>
        <time>2012-08-12T15:22:01Z</time>
      </trkpt>
      <trkpt lat="42.86166" lon="2.44253">
        <ele>473.3</ele>
        <time>2012-08-12T15:22:03Z</time>
      </trkpt>
      <trkpt lat="42.86168" lon="2.44239">
        <ele>473.2</ele>
        <time>2012-08-12T15:22:05Z</time>
      </trkpt>
      <trkpt lat="42.86169" lon="2.4422">
        <ele>472.8</ele>
        <time>2012-08-12T15:22:08Z</time>
      </trkpt>
      <trkpt lat="42.86169" lon="2.44208">
        <ele>472.7</ele>
        <time>2012-08-12T15:22:10Z</time>
      </trkpt>
      <trkpt lat="42.86171" lon="2.44185">
        <ele>472.2</ele>
        <time>2012-08-12T15:22:14Z</time>
      </trkpt>
      <trkpt lat="42.86172" lon="2.44163">
        <ele>472</ele>
        <time>2012-08-12T15:22:18Z</time>
      </trkpt>
      <trkpt lat="42.86173" lon="2.44142">
        <ele>471.2</ele>
        <time>2012-08-12T15:22:22Z</time>
      </trkpt>
      <trkpt lat="42.86174" lon="2.44121">
        <ele>471.2</ele>
        <time>2012-08-12T15:22:26Z</time>
      </trkpt>
      <trkpt lat="42.86175" lon="2.4411">
        <ele>471.2</ele>
        <time>2012-08-12T15:22:28Z</time>
      </trkpt>
      <trkpt lat="42.86181" lon="2.44089">
        <ele>471.7</ele>
        <time>2012-08-12T15:22:32Z</time>
      </trkpt>
      <trkpt lat="42.86188" lon="2.44069">
        <ele>471.7</ele>
        <time>2012-08-12T15:22:36Z</time>
      </trkpt>
      <trkpt lat="42.86192" lon="2.44061">
        <ele>471.7</ele>
        <time>2012-08-12T15:22:38Z</time>
      </trkpt>
      <trkpt lat="42.86201" lon="2.44045">
        <ele>471.7</ele>
        <time>2012-08-12T15:22:42Z</time>
      </trkpt>
      <trkpt lat="42.86206" lon="2.44038">
        <ele>471.7</ele>
        <time>2012-08-12T15:22:44Z</time>
      </trkpt>
      <trkpt lat="42.86216" lon="2.44026">
        <ele>472.3</ele>
        <time>2012-08-12T15:22:48Z</time>
      </trkpt>
      <trkpt lat="42.86221" lon="2.4402">
        <ele>472.3</ele>
        <time>2012-08-12T15:22:50Z</time>
      </trkpt>
      <trkpt lat="42.86227" lon="2.44005">
        <ele>472.2</ele>
        <time>2012-08-12T15:22:54Z</time>
      </trkpt>
      <trkpt lat="42.86227" lon="2.43987">
        <ele>472.5</ele>
        <time>2012-08-12T15:22:58Z</time>
      </trkpt>
      <trkpt lat="42.86221" lon="2.43969">
        <ele>473.1</ele>
        <time>2012-08-12T15:23:02Z</time>
      </trkpt>
      <trkpt lat="42.86215" lon="2.43951">
        <ele>473.5</ele>
        <time>2012-08-12T15:23:06Z</time>
      </trkpt>
      <trkpt lat="42.86209" lon="2.43932">
        <ele>474</ele>
        <time>2012-08-12T15:23:10Z</time>
      </trkpt>
      <trkpt lat="42.86206" lon="2.43923">
        <ele>474.5</ele>
        <time>2012-08-12T15:23:12Z</time>
      </trkpt>
      <trkpt lat="42.86202" lon="2.43904">
        <ele>474.5</ele>
        <time>2012-08-12T15:23:16Z</time>
      </trkpt>
      <trkpt lat="42.862" lon="2.43883">
        <ele>474.5</ele>
        <time>2012-08-12T15:23:20Z</time>
      </trkpt>
      <trkpt lat="42.86199" lon="2.43873">
        <ele>474.6</ele>
        <time>2012-08-12T15:23:22Z</time>
      </trkpt>
      <trkpt lat="42.86198" lon="2.43852">
        <ele>474.7</ele>
        <time>2012-08-12T15:23:26Z</time>
      </trkpt>
      <trkpt lat="42.86196" lon="2.43831">
        <ele>474.6</ele>
        <time>2012-08-12T15:23:30Z</time>
      </trkpt>
      <trkpt lat="42.86196" lon="2.43822">
        <ele>474.7</ele>
        <time>2012-08-12T15:23:32Z</time>
      </trkpt>
      <trkpt lat="42.86194" lon="2.43802">
        <ele>474.6</ele>
        <time>2012-08-12T15:23:36Z</time>
      </trkpt>
      <trkpt lat="42.86194" lon="2.43783">
        <ele>474.7</ele>
        <time>2012-08-12T15:23:40Z</time>
      </trkpt>
      <trkpt lat="42.86195" lon="2.43764">
        <ele>475.1</ele>
        <time>2012-08-12T15:23:44Z</time>
      </trkpt>
      <trkpt lat="42.86196" lon="2.43749">
        <ele>475.8</ele>
        <time>2012-08-12T15:23:48Z</time>
      </trkpt>
      <trkpt lat="42.86196" lon="2.43731">
        <ele>476.6</ele>
        <time>2012-08-12T15:23:53Z</time>
      </trkpt>
      <trkpt lat="42.86194" lon="2.43719">
        <ele>476.7</ele>
        <time>2012-08-12T15:23:58Z</time>
      </trkpt>
      <trkpt lat="42.86195" lon="2.43707">
        <ele>476.3</ele>
        <time>2012-08-12T15:25:25Z</time>
      </trkpt>
      <trkpt lat="42.86201" lon="2.43697">
        <ele>478.2</ele>
        <time>2012-08-12T15:29:50Z</time>
      </trkpt>
      <trkpt lat="42.86205" lon="2.43676">
        <ele>478.2</ele>
        <time>2012-08-12T15:29:56Z</time>
      </trkpt>
      <trkpt lat="42.86207" lon="2.43654">
        <ele>478.6</ele>
        <time>2012-08-12T15:30:02Z</time>
      </trkpt>
      <trkpt lat="42.86211" lon="2.43632">
        <ele>479.3</ele>
        <time>2012-08-12T15:30:08Z</time>
      </trkpt>
      <trkpt lat="42.86215" lon="2.43611">
        <ele>480.1</ele>
        <time>2012-08-12T15:30:14Z</time>
      </trkpt>
      <trkpt lat="42.8622" lon="2.43593">
        <ele>480.8</ele>
        <time>2012-08-12T15:30:20Z</time>
      </trkpt>
      <trkpt lat="42.86226" lon="2.43572">
        <ele>480.7</ele>
        <time>2012-08-12T15:30:26Z</time>
      </trkpt>
      <trkpt lat="42.86228" lon="2.43564">
        <ele>480.3</ele>
        <time>2012-08-12T15:30:28Z</time>
      </trkpt>
      <trkpt lat="42.86233" lon="2.43547">
        <ele>480.2</ele>
        <time>2012-08-12T15:30:32Z</time>
      </trkpt>
      <trkpt lat="42.86238" lon="2.43531">
        <ele>480.1</ele>
        <time>2012-08-12T15:30:36Z</time>
      </trkpt>
      <trkpt lat="42.86243" lon="2.43514">
        <ele>480.1</ele>
        <time>2012-08-12T15:30:40Z</time>
      </trkpt>
      <trkpt lat="42.86248" lon="2.43498">
        <ele>479.7</ele>
        <time>2012-08-12T15:30:44Z</time>
      </trkpt>
      <trkpt lat="42.86252" lon="2.43481">
        <ele>480</ele>
        <time>2012-08-12T15:30:48Z</time>
      </trkpt>
      <trkpt lat="42.86254" lon="2.43467">
        <ele>480.2</ele>
        <time>2012-08-12T15:30:51Z</time>
      </trkpt>
      <trkpt lat="42.86257" lon="2.43446">
        <ele>480.1</ele>
        <time>2012-08-12T15:30:56Z</time>
      </trkpt>
      <trkpt lat="42.86257" lon="2.43428">
        <ele>480.2</ele>
        <time>2012-08-12T15:31:00Z</time>
      </trkpt>
      <trkpt lat="42.86258" lon="2.43419">
        <ele>480.5</ele>
        <time>2012-08-12T15:31:02Z</time>
      </trkpt>
      <trkpt lat="42.86259" lon="2.434">
        <ele>481.7</ele>
        <time>2012-08-12T15:31:06Z</time>
      </trkpt>
      <trkpt lat="42.8626" lon="2.43381">
        <ele>481.5</ele>
        <time>2012-08-12T15:31:10Z</time>
      </trkpt>
      <trkpt lat="42.86261" lon="2.43362">
        <ele>481.7</ele>
        <time>2012-08-12T15:31:14Z</time>
      </trkpt>
      <trkpt lat="42.86262" lon="2.43344">
        <ele>481.7</ele>
        <time>2012-08-12T15:31:18Z</time>
      </trkpt>
      <trkpt lat="42.86262" lon="2.43326">
        <ele>481.5</ele>
        <time>2012-08-12T15:31:22Z</time>
      </trkpt>
      <trkpt lat="42.86262" lon="2.43307">
        <ele>482</ele>
        <time>2012-08-12T15:31:26Z</time>
      </trkpt>
      <trkpt lat="42.86262" lon="2.43288">
        <ele>482.6</ele>
        <time>2012-08-12T15:31:30Z</time>
      </trkpt>
      <trkpt lat="42.86261" lon="2.4327">
        <ele>482.7</ele>
        <time>2012-08-12T15:31:34Z</time>
      </trkpt>
      <trkpt lat="42.86263" lon="2.43248">
        <ele>482.5</ele>
        <time>2012-08-12T15:31:39Z</time>
      </trkpt>
      <trkpt lat="42.86264" lon="2.43227">
        <ele>482.5</ele>
        <time>2012-08-12T15:31:44Z</time>
      </trkpt>
      <trkpt lat="42.86266" lon="2.43219">
        <ele>482.5</ele>
        <time>2012-08-12T15:31:46Z</time>
      </trkpt>
      <trkpt lat="42.86267" lon="2.43201">
        <ele>482.5</ele>
        <time>2012-08-12T15:31:50Z</time>
      </trkpt>
      <trkpt lat="42.86263" lon="2.4319">
        <ele>482.3</ele>
        <time>2012-08-12T15:31:52Z</time>
      </trkpt>
      <trkpt lat="42.86261" lon="2.43169">
        <ele>482.3</ele>
        <time>2012-08-12T15:31:56Z</time>
      </trkpt>
      <trkpt lat="42.86261" lon="2.43151">
        <ele>482.3</ele>
        <time>2012-08-12T15:32:00Z</time>
      </trkpt>
      <trkpt lat="42.86263" lon="2.43133">
        <ele>482.2</ele>
        <time>2012-08-12T15:32:04Z</time>
      </trkpt>
      <trkpt lat="42.86261" lon="2.43125">
        <ele>482.1</ele>
        <time>2012-08-12T15:32:05Z</time>
      </trkpt>
      <trkpt lat="42.86262" lon="2.43102">
        <ele>481.8</ele>
        <time>2012-08-12T15:32:09Z</time>
      </trkpt>
      <trkpt lat="42.86263" lon="2.43081">
        <ele>481.8</ele>
        <time>2012-08-12T15:32:13Z</time>
      </trkpt>
      <trkpt lat="42.86263" lon="2.4307">
        <ele>482</ele>
        <time>2012-08-12T15:32:15Z</time>
      </trkpt>
      <trkpt lat="42.86264" lon="2.43048">
        <ele>481.7</ele>
        <time>2012-08-12T15:32:19Z</time>
      </trkpt>
      <trkpt lat="42.86263" lon="2.43026">
        <ele>482.7</ele>
        <time>2012-08-12T15:32:23Z</time>
      </trkpt>
      <trkpt lat="42.86264" lon="2.43005">
        <ele>483</ele>
        <time>2012-08-12T15:32:27Z</time>
      </trkpt>
      <trkpt lat="42.86264" lon="2.42994">
        <ele>483</ele>
        <time>2012-08-12T15:32:29Z</time>
      </trkpt>
      <trkpt lat="42.86264" lon="2.42971">
        <ele>482.8</ele>
        <time>2012-08-12T15:32:33Z</time>
      </trkpt>
      <trkpt lat="42.86267" lon="2.42952">
        <ele>483.7</ele>
        <time>2012-08-12T15:32:37Z</time>
      </trkpt>
      <trkpt lat="42.8627" lon="2.42935">
        <ele>484</ele>
        <time>2012-08-12T15:32:41Z</time>
      </trkpt>
      <trkpt lat="42.86274" lon="2.4292">
        <ele>484.3</ele>
        <time>2012-08-12T15:32:45Z</time>
      </trkpt>
      <trkpt lat="42.86281" lon="2.42905">
        <ele>484.5</ele>
        <time>2012-08-12T15:32:49Z</time>
      </trkpt>
      <trkpt lat="42.86285" lon="2.42899">
        <ele>484.3</ele>
        <time>2012-08-12T15:32:51Z</time>
      </trkpt>
      <trkpt lat="42.86295" lon="2.42888">
        <ele>485</ele>
        <time>2012-08-12T15:32:55Z</time>
      </trkpt>
      <trkpt lat="42.86305" lon="2.42879">
        <ele>485</ele>
        <time>2012-08-12T15:32:59Z</time>
      </trkpt>
      <trkpt lat="42.86317" lon="2.4287">
        <ele>485.5</ele>
        <time>2012-08-12T15:33:03Z</time>
      </trkpt>
      <trkpt lat="42.8633" lon="2.42861">
        <ele>485.5</ele>
        <time>2012-08-12T15:33:08Z</time>
      </trkpt>
      <trkpt lat="42.86344" lon="2.42856">
        <ele>485.7</ele>
        <time>2012-08-12T15:33:13Z</time>
      </trkpt>
      <trkpt lat="42.86356" lon="2.42851">
        <ele>485.7</ele>
        <time>2012-08-12T15:33:17Z</time>
      </trkpt>
      <trkpt lat="42.86368" lon="2.42846">
        <ele>485.7</ele>
        <time>2012-08-12T15:33:21Z</time>
      </trkpt>
      <trkpt lat="42.86376" lon="2.42833">
        <ele>485.5</ele>
        <time>2012-08-12T15:33:25Z</time>
      </trkpt>
      <trkpt lat="42.86383" lon="2.42817">
        <ele>485.6</ele>
        <time>2012-08-12T15:33:29Z</time>
      </trkpt>
      <trkpt lat="42.86383" lon="2.42796">
        <ele>485.8</ele>
        <time>2012-08-12T15:33:34Z</time>
      </trkpt>
      <trkpt lat="42.86371" lon="2.42784">
        <ele>486.2</ele>
        <time>2012-08-12T15:33:40Z</time>
      </trkpt>
      <trkpt lat="42.86356" lon="2.4278">
        <ele>488.2</ele>
        <time>2012-08-12T15:33:46Z</time>
      </trkpt>
      <trkpt lat="42.86339" lon="2.42779">
        <ele>489</ele>
        <time>2012-08-12T15:33:52Z</time>
      </trkpt>
      <trkpt lat="42.8633" lon="2.42771">
        <ele>489.7</ele>
        <time>2012-08-12T15:33:57Z</time>
      </trkpt>
      <trkpt lat="42.86325" lon="2.42752">
        <ele>491.3</ele>
        <time>2012-08-12T15:34:04Z</time>
      </trkpt>
      <trkpt lat="42.86324" lon="2.42731">
        <ele>491.8</ele>
        <time>2012-08-12T15:34:11Z</time>
      </trkpt>
      <trkpt lat="42.86325" lon="2.42711">
        <ele>492.6</ele>
        <time>2012-08-12T15:34:17Z</time>
      </trkpt>
      <trkpt lat="42.86325" lon="2.42692">
        <ele>494.2</ele>
        <time>2012-08-12T15:34:23Z</time>
      </trkpt>
      <trkpt lat="42.86325" lon="2.42671">
        <ele>494.7</ele>
        <time>2012-08-12T15:34:30Z</time>
      </trkpt>
      <trkpt lat="42.86325" lon="2.42653">
        <ele>495.1</ele>
        <time>2012-08-12T15:34:34Z</time>
      </trkpt>
      <trkpt lat="42.86323" lon="2.42638">
        <ele>495.2</ele>
        <time>2012-08-12T15:34:36Z</time>
      </trkpt>
      <trkpt lat="42.86323" lon="2.42621">
        <ele>495.3</ele>
        <time>2012-08-12T15:34:38Z</time>
      </trkpt>
      <trkpt lat="42.86322" lon="2.42612">
        <ele>495.3</ele>
        <time>2012-08-12T15:34:39Z</time>
      </trkpt>
      <trkpt lat="42.86322" lon="2.42591">
        <ele>495.2</ele>
        <time>2012-08-12T15:34:41Z</time>
      </trkpt>
      <trkpt lat="42.86322" lon="2.42571">
        <ele>495</ele>
        <time>2012-08-12T15:34:43Z</time>
      </trkpt>
      <trkpt lat="42.86321" lon="2.42553">
        <ele>494.8</ele>
        <time>2012-08-12T15:34:45Z</time>
      </trkpt>
      <trkpt lat="42.86319" lon="2.42535">
        <ele>494.7</ele>
        <time>2012-08-12T15:34:47Z</time>
      </trkpt>
      <trkpt lat="42.86318" lon="2.42517">
        <ele>494.5</ele>
        <time>2012-08-12T15:34:49Z</time>
      </trkpt>
      <trkpt lat="42.86318" lon="2.425">
        <ele>494</ele>
        <time>2012-08-12T15:34:51Z</time>
      </trkpt>
      <trkpt lat="42.86318" lon="2.42486">
        <ele>493.7</ele>
        <time>2012-08-12T15:34:53Z</time>
      </trkpt>
      <trkpt lat="42.86318" lon="2.42471">
        <ele>494.2</ele>
        <time>2012-08-12T15:34:55Z</time>
      </trkpt>
      <trkpt lat="42.86318" lon="2.42456">
        <ele>494.2</ele>
        <time>2012-08-12T15:34:57Z</time>
      </trkpt>
      <trkpt lat="42.86317" lon="2.42442">
        <ele>494.2</ele>
        <time>2012-08-12T15:34:59Z</time>
      </trkpt>
      <trkpt lat="42.86313" lon="2.42422">
        <ele>494.2</ele>
        <time>2012-08-12T15:35:01Z</time>
      </trkpt>
      <trkpt lat="42.86312" lon="2.42408">
        <ele>494.2</ele>
        <time>2012-08-12T15:35:03Z</time>
      </trkpt>
      <trkpt lat="42.86313" lon="2.42389">
        <ele>493.6</ele>
        <time>2012-08-12T15:35:05Z</time>
      </trkpt>
      <trkpt lat="42.86313" lon="2.42371">
        <ele>493.2</ele>
        <time>2012-08-12T15:35:07Z</time>
      </trkpt>
      <trkpt lat="42.86314" lon="2.42356">
        <ele>493.2</ele>
        <time>2012-08-12T15:35:09Z</time>
      </trkpt>
      <trkpt lat="42.86315" lon="2.42335">
        <ele>493.3</ele>
        <time>2012-08-12T15:35:12Z</time>
      </trkpt>
      <trkpt lat="42.86316" lon="2.42316">
        <ele>493.1</ele>
        <time>2012-08-12T15:35:15Z</time>
      </trkpt>
      <trkpt lat="42.86317" lon="2.42296">
        <ele>492.7</ele>
        <time>2012-08-12T15:35:18Z</time>
      </trkpt>
      <trkpt lat="42.86318" lon="2.42283">
        <ele>492.8</ele>
        <time>2012-08-12T15:35:20Z</time>
      </trkpt>
      <trkpt lat="42.86321" lon="2.42263">
        <ele>492.1</ele>
        <time>2012-08-12T15:35:23Z</time>
      </trkpt>
      <trkpt lat="42.86324" lon="2.42249">
        <ele>491.8</ele>
        <time>2012-08-12T15:35:25Z</time>
      </trkpt>
      <trkpt lat="42.86327" lon="2.42235">
        <ele>492</ele>
        <time>2012-08-12T15:35:27Z</time>
      </trkpt>
      <trkpt lat="42.8633" lon="2.4222">
        <ele>492</ele>
        <time>2012-08-12T15:35:29Z</time>
      </trkpt>
      <trkpt lat="42.86333" lon="2.42207">
        <ele>491.8</ele>
        <time>2012-08-12T15:35:31Z</time>
      </trkpt>
      <trkpt lat="42.86338" lon="2.42189">
        <ele>492.3</ele>
        <time>2012-08-12T15:35:34Z</time>
      </trkpt>
      <trkpt lat="42.86343" lon="2.42167">
        <ele>492.2</ele>
        <time>2012-08-12T15:35:38Z</time>
      </trkpt>
      <trkpt lat="42.86347" lon="2.42157">
        <ele>492.2</ele>
        <time>2012-08-12T15:35:40Z</time>
      </trkpt>
      <trkpt lat="42.86354" lon="2.4214">
        <ele>492</ele>
        <time>2012-08-12T15:35:44Z</time>
      </trkpt>
      <trkpt lat="42.86359" lon="2.4213">
        <ele>492</ele>
        <time>2012-08-12T15:35:47Z</time>
      </trkpt>
      <trkpt lat="42.86369" lon="2.42115">
        <ele>492.2</ele>
        <time>2012-08-12T15:35:53Z</time>
      </trkpt>
      <trkpt lat="42.86378" lon="2.42098">
        <ele>492.7</ele>
        <time>2012-08-12T15:35:58Z</time>
      </trkpt>
      <trkpt lat="42.86385" lon="2.42088">
        <ele>492.8</ele>
        <time>2012-08-12T15:36:01Z</time>
      </trkpt>
      <trkpt lat="42.86392" lon="2.42075">
        <ele>494</ele>
        <time>2012-08-12T15:36:05Z</time>
      </trkpt>
      <trkpt lat="42.86402" lon="2.4206">
        <ele>495.1</ele>
        <time>2012-08-12T15:36:11Z</time>
      </trkpt>
      <trkpt lat="42.86407" lon="2.42053">
        <ele>495.2</ele>
        <time>2012-08-12T15:36:14Z</time>
      </trkpt>
      <trkpt lat="42.86419" lon="2.42037">
        <ele>495.7</ele>
        <time>2012-08-12T15:36:20Z</time>
      </trkpt>
      <trkpt lat="42.86424" lon="2.42028">
        <ele>496.2</ele>
        <time>2012-08-12T15:36:23Z</time>
      </trkpt>
      <trkpt lat="42.8643" lon="2.4202">
        <ele>496.5</ele>
        <time>2012-08-12T15:36:26Z</time>
      </trkpt>
      <trkpt lat="42.86439" lon="2.42005">
        <ele>495.8</ele>
        <time>2012-08-12T15:36:31Z</time>
      </trkpt>
      <trkpt lat="42.86443" lon="2.41999">
        <ele>496.2</ele>
        <time>2012-08-12T15:36:33Z</time>
      </trkpt>
      <trkpt lat="42.86451" lon="2.41985">
        <ele>496.3</ele>
        <time>2012-08-12T15:36:37Z</time>
      </trkpt>
      <trkpt lat="42.8646" lon="2.41972">
        <ele>497.2</ele>
        <time>2012-08-12T15:36:41Z</time>
      </trkpt>
      <trkpt lat="42.86464" lon="2.41965">
        <ele>498</ele>
        <time>2012-08-12T15:36:43Z</time>
      </trkpt>
      <trkpt lat="42.86474" lon="2.41945">
        <ele>499.2</ele>
        <time>2012-08-12T15:36:49Z</time>
      </trkpt>
      <trkpt lat="42.86478" lon="2.41936">
        <ele>500.6</ele>
        <time>2012-08-12T15:36:52Z</time>
      </trkpt>
      <trkpt lat="42.86481" lon="2.41924">
        <ele>501</ele>
        <time>2012-08-12T15:36:55Z</time>
      </trkpt>
      <trkpt lat="42.86481" lon="2.41912">
        <ele>501.1</ele>
        <time>2012-08-12T15:36:58Z</time>
      </trkpt>
      <trkpt lat="42.8648" lon="2.41897">
        <ele>501.6</ele>
        <time>2012-08-12T15:37:02Z</time>
      </trkpt>
      <trkpt lat="42.86482" lon="2.4187">
        <ele>502</ele>
        <time>2012-08-12T15:37:08Z</time>
      </trkpt>
      <trkpt lat="42.86484" lon="2.4186">
        <ele>501.7</ele>
        <time>2012-08-12T15:37:10Z</time>
      </trkpt>
      <trkpt lat="42.86485" lon="2.41848">
        <ele>501.5</ele>
        <time>2012-08-12T15:37:12Z</time>
      </trkpt>
      <trkpt lat="42.86486" lon="2.41835">
        <ele>501.2</ele>
        <time>2012-08-12T15:37:14Z</time>
      </trkpt>
      <trkpt lat="42.86488" lon="2.41823">
        <ele>501.2</ele>
        <time>2012-08-12T15:37:16Z</time>
      </trkpt>
      <trkpt lat="42.86489" lon="2.4181">
        <ele>501.2</ele>
        <time>2012-08-12T15:37:18Z</time>
      </trkpt>
      <trkpt lat="42.86491" lon="2.41798">
        <ele>501.2</ele>
        <time>2012-08-12T15:37:20Z</time>
      </trkpt>
      <trkpt lat="42.86494" lon="2.41774">
        <ele>500.6</ele>
        <time>2012-08-12T15:37:24Z</time>
      </trkpt>
      <trkpt lat="42.86495" lon="2.41762">
        <ele>500.5</ele>
        <time>2012-08-12T15:37:26Z</time>
      </trkpt>
      <trkpt lat="42.86498" lon="2.41738">
        <ele>500.7</ele>
        <time>2012-08-12T15:37:30Z</time>
      </trkpt>
      <trkpt lat="42.865" lon="2.4172">
        <ele>500.8</ele>
        <time>2012-08-12T15:37:34Z</time>
      </trkpt>
      <trkpt lat="42.86502" lon="2.41702">
        <ele>501.1</ele>
        <time>2012-08-12T15:37:38Z</time>
      </trkpt>
      <trkpt lat="42.86502" lon="2.41692">
        <ele>501.2</ele>
        <time>2012-08-12T15:37:40Z</time>
      </trkpt>
      <trkpt lat="42.86502" lon="2.41676">
        <ele>501.2</ele>
        <time>2012-08-12T15:37:43Z</time>
      </trkpt>
      <trkpt lat="42.86501" lon="2.41662">
        <ele>501.3</ele>
        <time>2012-08-12T15:37:45Z</time>
      </trkpt>
      <trkpt lat="42.86496" lon="2.41639">
        <ele>501.7</ele>
        <time>2012-08-12T15:37:49Z</time>
      </trkpt>
      <trkpt lat="42.86495" lon="2.41628">
        <ele>501.7</ele>
        <time>2012-08-12T15:37:51Z</time>
      </trkpt>
      <trkpt lat="42.86494" lon="2.41615">
        <ele>501.7</ele>
        <time>2012-08-12T15:37:53Z</time>
      </trkpt>
      <trkpt lat="42.86493" lon="2.41601">
        <ele>501.6</ele>
        <time>2012-08-12T15:37:55Z</time>
      </trkpt>
      <trkpt lat="42.86494" lon="2.41587">
        <ele>501.5</ele>
        <time>2012-08-12T15:37:57Z</time>
      </trkpt>
      <trkpt lat="42.86494" lon="2.41572">
        <ele>501.3</ele>
        <time>2012-08-12T15:37:59Z</time>
      </trkpt>
      <trkpt lat="42.86494" lon="2.41558">
        <ele>500.8</ele>
        <time>2012-08-12T15:38:01Z</time>
      </trkpt>
      <trkpt lat="42.86495" lon="2.41545">
        <ele>500.7</ele>
        <time>2012-08-12T15:38:03Z</time>
      </trkpt>
      <trkpt lat="42.86495" lon="2.41527">
        <ele>500.8</ele>
        <time>2012-08-12T15:38:06Z</time>
      </trkpt>
      <trkpt lat="42.86495" lon="2.41507">
        <ele>501.5</ele>
        <time>2012-08-12T15:38:10Z</time>
      </trkpt>
      <trkpt lat="42.86493" lon="2.41483">
        <ele>502.5</ele>
        <time>2012-08-12T15:38:14Z</time>
      </trkpt>
      <trkpt lat="42.86494" lon="2.41473">
        <ele>503.2</ele>
        <time>2012-08-12T15:38:16Z</time>
      </trkpt>
      <trkpt lat="42.86493" lon="2.41451">
        <ele>504</ele>
        <time>2012-08-12T15:38:22Z</time>
      </trkpt>
      <trkpt lat="42.86493" lon="2.41429">
        <ele>505.7</ele>
        <time>2012-08-12T15:38:28Z</time>
      </trkpt>
      <trkpt lat="42.86491" lon="2.41408">
        <ele>506.7</ele>
        <time>2012-08-12T15:38:35Z</time>
      </trkpt>
      <trkpt lat="42.86491" lon="2.41384">
        <ele>509</ele>
        <time>2012-08-12T15:38:43Z</time>
      </trkpt>
      <trkpt lat="42.8649" lon="2.41364">
        <ele>510.7</ele>
        <time>2012-08-12T15:38:49Z</time>
      </trkpt>
      <trkpt lat="42.86489" lon="2.41344">
        <ele>510.8</ele>
        <time>2012-08-12T15:38:56Z</time>
      </trkpt>
      <trkpt lat="42.86489" lon="2.41333">
        <ele>511.2</ele>
        <time>2012-08-12T15:39:00Z</time>
      </trkpt>
      <trkpt lat="42.86489" lon="2.41319">
        <ele>511.7</ele>
        <time>2012-08-12T15:39:05Z</time>
      </trkpt>
      <trkpt lat="42.86492" lon="2.41301">
        <ele>513</ele>
        <time>2012-08-12T15:39:12Z</time>
      </trkpt>
      <trkpt lat="42.86491" lon="2.41291">
        <ele>513.5</ele>
        <time>2012-08-12T15:39:15Z</time>
      </trkpt>
      <trkpt lat="42.86492" lon="2.41269">
        <ele>514.7</ele>
        <time>2012-08-12T15:39:21Z</time>
      </trkpt>
      <trkpt lat="42.86492" lon="2.41248">
        <ele>516</ele>
        <time>2012-08-12T15:39:27Z</time>
      </trkpt>
      <trkpt lat="42.86493" lon="2.41229">
        <ele>518</ele>
        <time>2012-08-12T15:39:33Z</time>
      </trkpt>
      <trkpt lat="42.86493" lon="2.4122">
        <ele>518.9</ele>
        <time>2012-08-12T15:39:36Z</time>
      </trkpt>
      <trkpt lat="42.86494" lon="2.41196">
        <ele>520.9</ele>
        <time>2012-08-12T15:39:44Z</time>
      </trkpt>
      <trkpt lat="42.86493" lon="2.41177">
        <ele>522.2</ele>
        <time>2012-08-12T15:39:50Z</time>
      </trkpt>
      <trkpt lat="42.86493" lon="2.41167">
        <ele>523</ele>
        <time>2012-08-12T15:39:53Z</time>
      </trkpt>
      <trkpt lat="42.86493" lon="2.41144">
        <ele>523.5</ele>
        <time>2012-08-12T15:39:59Z</time>
      </trkpt>
      <trkpt lat="42.86494" lon="2.41136">
        <ele>523.5</ele>
        <time>2012-08-12T15:40:01Z</time>
      </trkpt>
      <trkpt lat="42.86494" lon="2.41114">
        <ele>524.2</ele>
        <time>2012-08-12T15:40:06Z</time>
      </trkpt>
      <trkpt lat="42.86492" lon="2.41089">
        <ele>525.7</ele>
        <time>2012-08-12T15:40:12Z</time>
      </trkpt>
      <trkpt lat="42.86489" lon="2.41071">
        <ele>526.7</ele>
        <time>2012-08-12T15:40:16Z</time>
      </trkpt>
      <trkpt lat="42.86488" lon="2.41063">
        <ele>527</ele>
        <time>2012-08-12T15:40:18Z</time>
      </trkpt>
      <trkpt lat="42.86485" lon="2.41046">
        <ele>527.5</ele>
        <time>2012-08-12T15:40:22Z</time>
      </trkpt>
      <trkpt lat="42.86484" lon="2.41038">
        <ele>527.9</ele>
        <time>2012-08-12T15:40:24Z</time>
      </trkpt>
      <trkpt lat="42.86481" lon="2.41021">
        <ele>528.5</ele>
        <time>2012-08-12T15:40:28Z</time>
      </trkpt>
      <trkpt lat="42.86478" lon="2.40998">
        <ele>529.4</ele>
        <time>2012-08-12T15:40:34Z</time>
      </trkpt>
      <trkpt lat="42.86476" lon="2.40975">
        <ele>530</ele>
        <time>2012-08-12T15:40:40Z</time>
      </trkpt>
      <trkpt lat="42.86474" lon="2.40964">
        <ele>530.5</ele>
        <time>2012-08-12T15:40:43Z</time>
      </trkpt>
      <trkpt lat="42.86472" lon="2.40953">
        <ele>531</ele>
        <time>2012-08-12T15:40:46Z</time>
      </trkpt>
      <trkpt lat="42.86469" lon="2.40942">
        <ele>531.4</ele>
        <time>2012-08-12T15:40:49Z</time>
      </trkpt>
      <trkpt lat="42.86462" lon="2.40921">
        <ele>532.2</ele>
        <time>2012-08-12T15:40:55Z</time>
      </trkpt>
      <trkpt lat="42.86454" lon="2.40901">
        <ele>533.2</ele>
        <time>2012-08-12T15:41:01Z</time>
      </trkpt>
      <trkpt lat="42.8645" lon="2.40892">
        <ele>533.5</ele>
        <time>2012-08-12T15:41:04Z</time>
      </trkpt>
      <trkpt lat="42.86443" lon="2.40879">
        <ele>534</ele>
        <time>2012-08-12T15:41:08Z</time>
      </trkpt>
      <trkpt lat="42.86432" lon="2.40867">
        <ele>534.9</ele>
        <time>2012-08-12T15:41:13Z</time>
      </trkpt>
      <trkpt lat="42.86427" lon="2.40862">
        <ele>535.2</ele>
        <time>2012-08-12T15:41:15Z</time>
      </trkpt>
      <trkpt lat="42.86416" lon="2.40852">
        <ele>536</ele>
        <time>2012-08-12T15:41:19Z</time>
      </trkpt>
      <trkpt lat="42.8641" lon="2.40847">
        <ele>536</ele>
        <time>2012-08-12T15:41:21Z</time>
      </trkpt>
      <trkpt lat="42.86399" lon="2.40835">
        <ele>536.9</ele>
        <time>2012-08-12T15:41:25Z</time>
      </trkpt>
      <trkpt lat="42.86393" lon="2.40827">
        <ele>537.7</ele>
        <time>2012-08-12T15:41:27Z</time>
      </trkpt>
      <trkpt lat="42.86395" lon="2.40807">
        <ele>537.2</ele>
        <time>2012-08-12T15:41:31Z</time>
      </trkpt>
      <trkpt lat="42.86403" lon="2.40792">
        <ele>537.2</ele>
        <time>2012-08-12T15:41:35Z</time>
      </trkpt>
      <trkpt lat="42.86408" lon="2.40783">
        <ele>537.2</ele>
        <time>2012-08-12T15:41:38Z</time>
      </trkpt>
      <trkpt lat="42.86405" lon="2.40764">
        <ele>537.5</ele>
        <time>2012-08-12T15:41:43Z</time>
      </trkpt>
      <trkpt lat="42.86393" lon="2.40768">
        <ele>537.2</ele>
        <time>2012-08-12T15:41:51Z</time>
      </trkpt>
      <trkpt lat="42.86383" lon="2.40783">
        <ele>543.5</ele>
        <time>2012-08-12T15:44:20Z</time>
      </trkpt>
    </trkseg>
  </trk>
</gpx>